<?xml version='1.0' encoding='UTF-8'?><gpx version="1.1" creator="JPX - https://github.com/jenetics/jpx" xmlns="http://www.topografix.com/GPX/1/1"><trk><trkseg><trkpt lat="45.54382599943204" lon="12.232600194075008"><ele>5.0</ele><time>2026-04-04T08:54:54.999Z</time></trkpt><trkpt lat="45.543748750094984" lon="12.232576278312337"><ele>5.0</ele><time>2026-04-04T08:54:57.999Z</time></trkpt><trkpt lat="45.54368264278955" lon="12.232558138196481"><ele>5.0</ele><time>2026-04-04T08:55:00.999Z</time></trkpt><trkpt lat="45.543612049901334" lon="12.232537388637446"><ele>5.0</ele><time>2026-04-04T08:55:05.999Z</time></trkpt><trkpt lat="45.54351002313815" lon="12.232515076502214"><ele>5.0</ele><time>2026-04-04T08:55:08.999Z</time></trkpt><trkpt lat="45.5434420220516" lon="12.23250283712536"><ele>5.0</ele><time>2026-04-04T08:55:09.999Z</time></trkpt><trkpt lat="45.54337141707954" lon="12.2324844551036"><ele>5.0</ele><time>2026-04-04T08:55:10.999Z</time></trkpt><trkpt lat="45.54330195795054" lon="12.232462588667106"><ele>5.0</ele><time>2026-04-04T08:55:11.999Z</time></trkpt><trkpt lat="45.54323231132705" lon="12.232436904697012"><ele>5.0</ele><time>2026-04-04T08:55:12.999Z</time></trkpt><trkpt lat="45.54316252844757" lon="12.232422535800087"><ele>5.0</ele><time>2026-04-04T08:55:13.999Z</time></trkpt><trkpt lat="45.54309731742694" lon="12.232419712472334"><ele>5.0</ele><time>2026-04-04T08:55:14.999Z</time></trkpt><trkpt lat="45.54299728223467" lon="12.232393043245038"><ele>5.0</ele><time>2026-04-04T08:55:16.999Z</time></trkpt><trkpt lat="45.542945294738644" lon="12.232584170379218"><ele>5.0</ele><time>2026-04-04T08:55:17.999Z</time></trkpt><trkpt lat="45.54292349257793" lon="12.232690638636196"><ele>5.0</ele><time>2026-04-04T08:55:18.999Z</time></trkpt><trkpt lat="45.542917969525554" lon="12.23281172050863"><ele>5.0</ele><time>2026-04-04T08:55:19.999Z</time></trkpt><trkpt lat="45.54290544547757" lon="12.232934313130912"><ele>5.0</ele><time>2026-04-04T08:55:20.999Z</time></trkpt><trkpt lat="45.54289463911256" lon="12.233051265308225"><ele>5.0</ele><time>2026-04-04T08:55:21.999Z</time></trkpt><trkpt lat="45.54288440433537" lon="12.233169455299022"><ele>5.0</ele><time>2026-04-04T08:55:22.999Z</time></trkpt><trkpt lat="45.54287118993042" lon="12.233279656968875"><ele>5.0</ele><time>2026-04-04T08:55:23.999Z</time></trkpt><trkpt lat="45.54283957408798" lon="12.233382974690732"><ele>5.0</ele><time>2026-04-04T08:55:24.999Z</time></trkpt><trkpt lat="45.542806910313224" lon="12.233478004465226"><ele>5.0</ele><time>2026-04-04T08:55:25.999Z</time></trkpt><trkpt lat="45.5427602974118" lon="12.233575254222352"><ele>5.0</ele><time>2026-04-04T08:55:26.999Z</time></trkpt><trkpt lat="45.54270445499214" lon="12.233665273713205"><ele>5.0</ele><time>2026-04-04T08:55:27.999Z</time></trkpt><trkpt lat="45.542629704294065" lon="12.233730443269888"><ele>5.0</ele><time>2026-04-04T08:55:28.999Z</time></trkpt><trkpt lat="45.54255740723551" lon="12.233776915795062"><ele>5.0</ele><time>2026-04-04T08:55:29.999Z</time></trkpt><trkpt lat="45.542469954336134" lon="12.233814115037775"><ele>5.0</ele><time>2026-04-04T08:55:30.999Z</time></trkpt><trkpt lat="45.542379576366066" lon="12.233829262191831"><ele>5.0</ele><time>2026-04-04T08:55:31.999Z</time></trkpt><trkpt lat="45.54229204821154" lon="12.233809962602907"><ele>5.0</ele><time>2026-04-04T08:55:32.999Z</time></trkpt><trkpt lat="45.542200845534836" lon="12.233795002739882"><ele>5.0</ele><time>2026-04-04T08:55:33.999Z</time></trkpt><trkpt lat="45.54212072655611" lon="12.233778636129482"><ele>5.0</ele><time>2026-04-04T08:55:34.999Z</time></trkpt><trkpt lat="45.54204927943311" lon="12.233779735957489"><ele>5.0</ele><time>2026-04-04T08:55:35.999Z</time></trkpt><trkpt lat="45.54198380359078" lon="12.233768119973279"><ele>5.0</ele><time>2026-04-04T08:55:36.999Z</time></trkpt><trkpt lat="45.54189346701678" lon="12.233741597145997"><ele>5.0</ele><time>2026-04-04T08:55:38.999Z</time></trkpt><trkpt lat="45.541862754173174" lon="12.233592436923457"><ele>5.0</ele><time>2026-04-04T08:55:42.999Z</time></trkpt><trkpt lat="45.54188096510462" lon="12.233498955440284"><ele>5.0</ele><time>2026-04-04T08:55:44Z</time></trkpt><trkpt lat="45.54189288739721" lon="12.233408046994368"><ele>5.0</ele><time>2026-04-04T08:55:45Z</time></trkpt><trkpt lat="45.54190166536219" lon="12.233293497741057"><ele>5.0</ele><time>2026-04-04T08:55:46Z</time></trkpt><trkpt lat="45.541911876450634" lon="12.23316860332685"><ele>5.0</ele><time>2026-04-04T08:55:47Z</time></trkpt><trkpt lat="45.54192280085384" lon="12.233032146315491"><ele>5.0</ele><time>2026-04-04T08:55:48Z</time></trkpt><trkpt lat="45.541938291488115" lon="12.232893118282954"><ele>5.0</ele><time>2026-04-04T08:55:49Z</time></trkpt><trkpt lat="45.54195205820106" lon="12.232753569460401"><ele>5.0</ele><time>2026-04-04T08:55:50Z</time></trkpt><trkpt lat="45.541966161891544" lon="12.232609894997228"><ele>5.0</ele><time>2026-04-04T08:55:51Z</time></trkpt><trkpt lat="45.541976476021716" lon="12.23245868574105"><ele>5.0</ele><time>2026-04-04T08:55:52Z</time></trkpt><trkpt lat="45.54199007726418" lon="12.232307664959677"><ele>5.0</ele><time>2026-04-04T08:55:53Z</time></trkpt><trkpt lat="45.542002524142084" lon="12.232152088353848"><ele>5.0</ele><time>2026-04-04T08:55:54Z</time></trkpt><trkpt lat="45.542010884670454" lon="12.231988707142767"><ele>5.0</ele><time>2026-04-04T08:55:55Z</time></trkpt><trkpt lat="45.54203295704952" lon="12.231836287603716"><ele>4.8</ele><time>2026-04-04T08:55:56Z</time></trkpt><trkpt lat="45.54204952943792" lon="12.23167913678967"><ele>4.6</ele><time>2026-04-04T08:55:57Z</time></trkpt><trkpt lat="45.5420593670477" lon="12.231525906191099"><ele>4.4</ele><time>2026-04-04T08:55:58Z</time></trkpt><trkpt lat="45.542065977902084" lon="12.231367667502237"><ele>4.2</ele><time>2026-04-04T08:55:59Z</time></trkpt><trkpt lat="45.54207271336348" lon="12.231226137960547"><ele>4.0</ele><time>2026-04-04T08:56:00Z</time></trkpt><trkpt lat="45.54207529915969" lon="12.231081204160978"><ele>3.8000000000000003</ele><time>2026-04-04T08:56:01Z</time></trkpt><trkpt lat="45.54207889753014" lon="12.23090414402558"><ele>3.6000000000000005</ele><time>2026-04-04T08:56:02Z</time></trkpt><trkpt lat="45.542082300301296" lon="12.23076201795636"><ele>3.4</ele><time>2026-04-04T08:56:03Z</time></trkpt><trkpt lat="45.54207988416233" lon="12.230626997522387"><ele>3.2</ele><time>2026-04-04T08:56:04Z</time></trkpt><trkpt lat="45.542067902862364" lon="12.230495595281182"><ele>3.0</ele><time>2026-04-04T08:56:05Z</time></trkpt><trkpt lat="45.542054141800456" lon="12.23036474069053"><ele>3.5999999999999996</ele><time>2026-04-04T08:56:06Z</time></trkpt><trkpt lat="45.54202565293235" lon="12.230230528103327"><ele>4.199999999999999</ele><time>2026-04-04T08:56:07Z</time></trkpt><trkpt lat="45.54200520206512" lon="12.230100891746016"><ele>4.8</ele><time>2026-04-04T08:56:08Z</time></trkpt><trkpt lat="45.54199734290229" lon="12.229960592254375"><ele>5.3999999999999995</ele><time>2026-04-04T08:56:09Z</time></trkpt><trkpt lat="45.541992372635015" lon="12.229814779701877"><ele>6.0</ele><time>2026-04-04T08:56:10Z</time></trkpt><trkpt lat="45.54197375909901" lon="12.229669856785819"><ele>6.25</ele><time>2026-04-04T08:56:11Z</time></trkpt><trkpt lat="45.541951975552095" lon="12.229517340195548"><ele>6.5</ele><time>2026-04-04T08:56:12Z</time></trkpt><trkpt lat="45.54193176742835" lon="12.229362333534997"><ele>6.75</ele><time>2026-04-04T08:56:13Z</time></trkpt><trkpt lat="45.54192053530325" lon="12.229198331209236"><ele>7.0</ele><time>2026-04-04T08:56:14Z</time></trkpt><trkpt lat="45.54191369503168" lon="12.229033129286194"><ele>7.0</ele><time>2026-04-04T08:56:15Z</time></trkpt><trkpt lat="45.54188885903369" lon="12.228883226077711"><ele>6.999999999999999</ele><time>2026-04-04T08:56:16Z</time></trkpt><trkpt lat="45.54187368637702" lon="12.228733002547642"><ele>6.999999999999999</ele><time>2026-04-04T08:56:17Z</time></trkpt><trkpt lat="45.54185575726118" lon="12.228599262638264"><ele>7.0</ele><time>2026-04-04T08:56:18Z</time></trkpt><trkpt lat="45.54184863287323" lon="12.228473594154103"><ele>7.0</ele><time>2026-04-04T08:56:19Z</time></trkpt><trkpt lat="45.541842574634565" lon="12.228358154250698"><ele>7.0</ele><time>2026-04-04T08:56:20Z</time></trkpt><trkpt lat="45.54181282402789" lon="12.228271790445453"><ele>6.999999999999999</ele><time>2026-04-04T08:56:21Z</time></trkpt><trkpt lat="45.54170326173029" lon="12.228158908537434"><ele>6.999999999999999</ele><time>2026-04-04T08:56:23Z</time></trkpt><trkpt lat="45.54161421984006" lon="12.22818089328351"><ele>7.0</ele><time>2026-04-04T08:56:24Z</time></trkpt><trkpt lat="45.541527687461134" lon="12.228192341601606"><ele>7.0</ele><time>2026-04-04T08:56:25Z</time></trkpt><trkpt lat="45.5414294266957" lon="12.228177540991366"><ele>7.0</ele><time>2026-04-04T08:56:26Z</time></trkpt><trkpt lat="45.5413272959512" lon="12.2281939929794"><ele>6.999999999999999</ele><time>2026-04-04T08:56:27Z</time></trkpt><trkpt lat="45.54122273615489" lon="12.228197523061825"><ele>6.999999999999999</ele><time>2026-04-04T08:56:28Z</time></trkpt><trkpt lat="45.5411192050959" lon="12.228191685849849"><ele>7.0</ele><time>2026-04-04T08:56:29Z</time></trkpt><trkpt lat="45.541021421162704" lon="12.22819606590495"><ele>7.0</ele><time>2026-04-04T08:56:30Z</time></trkpt><trkpt lat="45.54092889992264" lon="12.228193540999326"><ele>6.833333333333334</ele><time>2026-04-04T08:56:31Z</time></trkpt><trkpt lat="45.54084644103737" lon="12.228193378804049"><ele>6.666666666666667</ele><time>2026-04-04T08:56:32Z</time></trkpt><trkpt lat="45.54077195691332" lon="12.228183268132517"><ele>6.5</ele><time>2026-04-04T08:56:33Z</time></trkpt><trkpt lat="45.54070269908319" lon="12.228138182022013"><ele>6.333333333333334</ele><time>2026-04-04T08:56:34Z</time></trkpt><trkpt lat="45.540658559741" lon="12.228047808371125"><ele>6.166666666666667</ele><time>2026-04-04T08:56:35Z</time></trkpt><trkpt lat="45.54065444039826" lon="12.227926525442868"><ele>6.0</ele><time>2026-04-04T08:56:36Z</time></trkpt><trkpt lat="45.54063153321325" lon="12.22779731394352"><ele>5.75</ele><time>2026-04-04T08:56:37Z</time></trkpt><trkpt lat="45.54061645705949" lon="12.227642134704082"><ele>5.5</ele><time>2026-04-04T08:56:38Z</time></trkpt><trkpt lat="45.54059424293745" lon="12.227464321212619"><ele>5.25</ele><time>2026-04-04T08:56:39Z</time></trkpt><trkpt lat="45.540578468007226" lon="12.227277675442666"><ele>5.0</ele><time>2026-04-04T08:56:40Z</time></trkpt><trkpt lat="45.54056786780144" lon="12.227112099436464"><ele>5.5</ele><time>2026-04-04T08:56:41Z</time></trkpt><trkpt lat="45.540575136178155" lon="12.226938107708236"><ele>6.0</ele><time>2026-04-04T08:56:42Z</time></trkpt><trkpt lat="45.540578972022445" lon="12.22675760580588"><ele>6.5</ele><time>2026-04-04T08:56:42.999Z</time></trkpt><trkpt lat="45.54061058950605" lon="12.226572738090402"><ele>7.0</ele><time>2026-04-04T08:56:43.999Z</time></trkpt><trkpt lat="45.540660085154634" lon="12.226384996212404"><ele>7.0</ele><time>2026-04-04T08:56:44.999Z</time></trkpt><trkpt lat="45.54070734729624" lon="12.226194030192966"><ele>7.0</ele><time>2026-04-04T08:56:45.999Z</time></trkpt><trkpt lat="45.54074050726255" lon="12.226006783916773"><ele>7.0</ele><time>2026-04-04T08:56:46.999Z</time></trkpt><trkpt lat="45.540769135687796" lon="12.225827554642002"><ele>7.0</ele><time>2026-04-04T08:56:47.999Z</time></trkpt><trkpt lat="45.5407886678352" lon="12.225646930307125"><ele>6.75</ele><time>2026-04-04T08:56:48.999Z</time></trkpt><trkpt lat="45.540798831058616" lon="12.225467077027924"><ele>6.5</ele><time>2026-04-04T08:56:49.999Z</time></trkpt><trkpt lat="45.54080446009324" lon="12.225291248862282"><ele>6.25</ele><time>2026-04-04T08:56:50.999Z</time></trkpt><trkpt lat="45.54080526509428" lon="12.22510985901609"><ele>6.0</ele><time>2026-04-04T08:56:51.999Z</time></trkpt><trkpt lat="45.54080913253352" lon="12.224929285918321"><ele>5.75</ele><time>2026-04-04T08:56:52.999Z</time></trkpt><trkpt lat="45.54081459514504" lon="12.224752566528931"><ele>5.5</ele><time>2026-04-04T08:56:53.999Z</time></trkpt><trkpt lat="45.540820879073635" lon="12.224577815241503"><ele>5.25</ele><time>2026-04-04T08:56:54.999Z</time></trkpt><trkpt lat="45.54082985346607" lon="12.224391834014078"><ele>5.0</ele><time>2026-04-04T08:56:55.999Z</time></trkpt><trkpt lat="45.54083810910655" lon="12.224197269152816"><ele>5.0</ele><time>2026-04-04T08:56:56.999Z</time></trkpt><trkpt lat="45.54084231561447" lon="12.22400228819752"><ele>5.0</ele><time>2026-04-04T08:56:57.999Z</time></trkpt><trkpt lat="45.540850064979224" lon="12.223812262944561"><ele>5.0</ele><time>2026-04-04T08:56:58.999Z</time></trkpt><trkpt lat="45.540859271295" lon="12.223621312927095"><ele>5.0</ele><time>2026-04-04T08:56:59.999Z</time></trkpt><trkpt lat="45.540868688117456" lon="12.223415840246208"><ele>4.75</ele><time>2026-04-04T08:57:00.999Z</time></trkpt><trkpt lat="45.5408743508164" lon="12.223212048262985"><ele>4.5</ele><time>2026-04-04T08:57:01.999Z</time></trkpt><trkpt lat="45.540874214907745" lon="12.223002575954457"><ele>4.25</ele><time>2026-04-04T08:57:02.999Z</time></trkpt><trkpt lat="45.54087583490586" lon="12.222796772602734"><ele>4.0</ele><time>2026-04-04T08:57:03.999Z</time></trkpt><trkpt lat="45.540863851382085" lon="12.222593817210806"><ele>4.0</ele><time>2026-04-04T08:57:04.999Z</time></trkpt><trkpt lat="45.54084283597554" lon="12.222397341929916"><ele>4.0</ele><time>2026-04-04T08:57:05.999Z</time></trkpt><trkpt lat="45.540826253762624" lon="12.222210698745847"><ele>4.0</ele><time>2026-04-04T08:57:06.999Z</time></trkpt><trkpt lat="45.5408405025546" lon="12.222034088560955"><ele>4.0</ele><time>2026-04-04T08:57:07.999Z</time></trkpt><trkpt lat="45.54086502878955" lon="12.221866109674192"><ele>3.8000000000000003</ele><time>2026-04-04T08:57:08.999Z</time></trkpt><trkpt lat="45.54088746116647" lon="12.221714813939482"><ele>3.6000000000000005</ele><time>2026-04-04T08:57:09.999Z</time></trkpt><trkpt lat="45.54089092191014" lon="12.221572963880256"><ele>3.4</ele><time>2026-04-04T08:57:10.999Z</time></trkpt><trkpt lat="45.540880935130765" lon="12.22144278629524"><ele>3.2</ele><time>2026-04-04T08:57:11.999Z</time></trkpt><trkpt lat="45.540866773613686" lon="12.221316446424145"><ele>3.0</ele><time>2026-04-04T08:57:12.999Z</time></trkpt><trkpt lat="45.54087959641713" lon="12.221168536795005"><ele>3.0</ele><time>2026-04-04T08:57:13.999Z</time></trkpt><trkpt lat="45.54088364050668" lon="12.221009334072038"><ele>3.0</ele><time>2026-04-04T08:57:14.999Z</time></trkpt><trkpt lat="45.54087679077517" lon="12.220846522192765"><ele>3.0</ele><time>2026-04-04T08:57:15.999Z</time></trkpt><trkpt lat="45.540882975633274" lon="12.220685113454238"><ele>3.0</ele><time>2026-04-04T08:57:16.999Z</time></trkpt><trkpt lat="45.5408923852921" lon="12.220520866001873"><ele>3.5</ele><time>2026-04-04T08:57:17.999Z</time></trkpt><trkpt lat="45.540891253227905" lon="12.220356712031753"><ele>4.0</ele><time>2026-04-04T08:57:18.999Z</time></trkpt><trkpt lat="45.540899991831544" lon="12.220198536510823"><ele>4.5</ele><time>2026-04-04T08:57:19.999Z</time></trkpt><trkpt lat="45.54090312364858" lon="12.22004056573821"><ele>5.0</ele><time>2026-04-04T08:57:20.999Z</time></trkpt><trkpt lat="45.54091379971729" lon="12.219879869824698"><ele>4.5</ele><time>2026-04-04T08:57:21.999Z</time></trkpt><trkpt lat="45.540926994926984" lon="12.219726675549232"><ele>4.0</ele><time>2026-04-04T08:57:22.999Z</time></trkpt><trkpt lat="45.540934353018095" lon="12.219561107694151"><ele>3.5</ele><time>2026-04-04T08:57:23.999Z</time></trkpt><trkpt lat="45.54093940283609" lon="12.219388311375997"><ele>3.0</ele><time>2026-04-04T08:57:24.999Z</time></trkpt><trkpt lat="45.54093968963015" lon="12.219207125627417"><ele>3.0</ele><time>2026-04-04T08:57:25.999Z</time></trkpt><trkpt lat="45.54094095750436" lon="12.219014494269283"><ele>3.0</ele><time>2026-04-04T08:57:26.999Z</time></trkpt><trkpt lat="45.54094414998936" lon="12.218822882190125"><ele>3.0</ele><time>2026-04-04T08:57:27.999Z</time></trkpt><trkpt lat="45.54094248605608" lon="12.2186267587372"><ele>3.0</ele><time>2026-04-04T08:57:28.999Z</time></trkpt><trkpt lat="45.54094129260714" lon="12.218426787774069"><ele>3.0</ele><time>2026-04-04T08:57:29.999Z</time></trkpt><trkpt lat="45.540945509024596" lon="12.218222614312133"><ele>3.0</ele><time>2026-04-04T08:57:30.999Z</time></trkpt><trkpt lat="45.540960016429416" lon="12.218021549994184"><ele>3.0</ele><time>2026-04-04T08:57:31.999Z</time></trkpt><trkpt lat="45.540982602444195" lon="12.217819452544784"><ele>3.0</ele><time>2026-04-04T08:57:32.999Z</time></trkpt><trkpt lat="45.54100519748473" lon="12.217632149292765"><ele>3.0</ele><time>2026-04-04T08:57:33.999Z</time></trkpt><trkpt lat="45.54103096772521" lon="12.217441299056512"><ele>3.0</ele><time>2026-04-04T08:57:34.999Z</time></trkpt><trkpt lat="45.54106662111328" lon="12.217270218652708"><ele>3.0</ele><time>2026-04-04T08:57:35.999Z</time></trkpt><trkpt lat="45.54111373975968" lon="12.217098548555908"><ele>3.0</ele><time>2026-04-04T08:57:36.999Z</time></trkpt><trkpt lat="45.5411748243399" lon="12.216937714452975"><ele>3.0</ele><time>2026-04-04T08:57:37.999Z</time></trkpt><trkpt lat="45.54124049262834" lon="12.216783289120034"><ele>3.0</ele><time>2026-04-04T08:57:38.999Z</time></trkpt><trkpt lat="45.54130246242141" lon="12.216625264023433"><ele>3.0</ele><time>2026-04-04T08:57:39.999Z</time></trkpt><trkpt lat="45.541413452487596" lon="12.216285227722784"><ele>3.0</ele><time>2026-04-04T08:57:41.999Z</time></trkpt><trkpt lat="45.54145678130094" lon="12.216107672406727"><ele>3.0</ele><time>2026-04-04T08:57:42.999Z</time></trkpt><trkpt lat="45.54149026919031" lon="12.21593162587641"><ele>3.0</ele><time>2026-04-04T08:57:43.999Z</time></trkpt><trkpt lat="45.54150106184688" lon="12.215744839121186"><ele>3.0</ele><time>2026-04-04T08:57:44.999Z</time></trkpt><trkpt lat="45.54149465976683" lon="12.215549524377737"><ele>3.0</ele><time>2026-04-04T08:57:45.999Z</time></trkpt><trkpt lat="45.54147763813372" lon="12.215330243082752"><ele>3.0</ele><time>2026-04-04T08:57:46.999Z</time></trkpt><trkpt lat="45.541459490174546" lon="12.215110764679478"><ele>3.0</ele><time>2026-04-04T08:57:47.999Z</time></trkpt><trkpt lat="45.54144814549088" lon="12.214903836458182"><ele>3.25</ele><time>2026-04-04T08:57:48.999Z</time></trkpt><trkpt lat="45.54143946867615" lon="12.214695138363956"><ele>3.5</ele><time>2026-04-04T08:57:50Z</time></trkpt><trkpt lat="45.54142925312908" lon="12.214479021160887"><ele>3.75</ele><time>2026-04-04T08:57:51Z</time></trkpt><trkpt lat="45.54141611169431" lon="12.214268674661907"><ele>4.0</ele><time>2026-04-04T08:57:52Z</time></trkpt><trkpt lat="45.54140890589756" lon="12.214057650130647"><ele>4.0</ele><time>2026-04-04T08:57:53Z</time></trkpt><trkpt lat="45.54139851316777" lon="12.213862473522806"><ele>4.0</ele><time>2026-04-04T08:57:54Z</time></trkpt><trkpt lat="45.541385828290544" lon="12.213661284531842"><ele>4.0</ele><time>2026-04-04T08:57:55Z</time></trkpt><trkpt lat="45.54137042367547" lon="12.213457766526806"><ele>4.0</ele><time>2026-04-04T08:57:56Z</time></trkpt><trkpt lat="45.54135792892015" lon="12.213252134778855"><ele>3.75</ele><time>2026-04-04T08:57:57Z</time></trkpt><trkpt lat="45.54135089921075" lon="12.213037720550915"><ele>3.5</ele><time>2026-04-04T08:57:58Z</time></trkpt><trkpt lat="45.541339211166196" lon="12.21282503316318"><ele>3.25</ele><time>2026-04-04T08:57:59Z</time></trkpt><trkpt lat="45.54131980584074" lon="12.212629111749612"><ele>3.0</ele><time>2026-04-04T08:58:00Z</time></trkpt><trkpt lat="45.541298321779955" lon="12.21244935817199"><ele>3.0</ele><time>2026-04-04T08:58:01Z</time></trkpt><trkpt lat="45.541246875122766" lon="12.212115882585177"><ele>3.0</ele><time>2026-04-04T08:58:03Z</time></trkpt><trkpt lat="45.54120085516353" lon="12.211992921238904"><ele>3.0</ele><time>2026-04-04T08:58:04Z</time></trkpt><trkpt lat="45.54114682918646" lon="12.211893132049488"><ele>3.0</ele><time>2026-04-04T08:58:05Z</time></trkpt><trkpt lat="45.54111471078693" lon="12.211808422782646"><ele>3.0</ele><time>2026-04-04T08:58:06Z</time></trkpt><trkpt lat="45.54108963406719" lon="12.211709457016411"><ele>3.0</ele><time>2026-04-04T08:58:08Z</time></trkpt><trkpt lat="45.54120157986905" lon="12.21163187170313"><ele>3.0</ele><time>2026-04-04T08:58:10Z</time></trkpt><trkpt lat="45.541271917591665" lon="12.211622395880617"><ele>3.0</ele><time>2026-04-04T08:58:11Z</time></trkpt><trkpt lat="45.541357859337054" lon="12.211613131305777"><ele>3.0</ele><time>2026-04-04T08:58:12Z</time></trkpt><trkpt lat="45.54146022406696" lon="12.211606943379246"><ele>3.0</ele><time>2026-04-04T08:58:13Z</time></trkpt><trkpt lat="45.54158037934704" lon="12.2115950511619"><ele>3.0</ele><time>2026-04-04T08:58:14Z</time></trkpt><trkpt lat="45.54170581541888" lon="12.211586616161968"><ele>3.0</ele><time>2026-04-04T08:58:15Z</time></trkpt><trkpt lat="45.54182549070036" lon="12.211576553209996"><ele>3.0</ele><time>2026-04-04T08:58:16Z</time></trkpt><trkpt lat="45.54194661285075" lon="12.211570878497376"><ele>3.0</ele><time>2026-04-04T08:58:17Z</time></trkpt><trkpt lat="45.54207337438312" lon="12.211570679385627"><ele>3.0</ele><time>2026-04-04T08:58:18Z</time></trkpt><trkpt lat="45.542207247732115" lon="12.211572139277001"><ele>3.0</ele><time>2026-04-04T08:58:19Z</time></trkpt><trkpt lat="45.54234309580537" lon="12.211576166621866"><ele>3.0</ele><time>2026-04-04T08:58:20Z</time></trkpt><trkpt lat="45.542476619772586" lon="12.211585782929543"><ele>3.0</ele><time>2026-04-04T08:58:21Z</time></trkpt><trkpt lat="45.542613971798836" lon="12.211590280118196"><ele>3.0</ele><time>2026-04-04T08:58:22Z</time></trkpt><trkpt lat="45.54274888164874" lon="12.211596588754759"><ele>3.0</ele><time>2026-04-04T08:58:23Z</time></trkpt><trkpt lat="45.54287312542707" lon="12.211598479671956"><ele>3.0</ele><time>2026-04-04T08:58:24Z</time></trkpt><trkpt lat="45.54298910257748" lon="12.211607578599734"><ele>3.4</ele><time>2026-04-04T08:58:25Z</time></trkpt><trkpt lat="45.54309695016137" lon="12.211617706189067"><ele>3.8</ele><time>2026-04-04T08:58:26Z</time></trkpt><trkpt lat="45.543197364518555" lon="12.21162320897755"><ele>4.2</ele><time>2026-04-04T08:58:27Z</time></trkpt><trkpt lat="45.5432895038068" lon="12.211627644501108"><ele>4.6</ele><time>2026-04-04T08:58:28Z</time></trkpt><trkpt lat="45.543375720497906" lon="12.211623954857975"><ele>5.0</ele><time>2026-04-04T08:58:29Z</time></trkpt><trkpt lat="45.5434581561957" lon="12.211620892898866"><ele>5.0</ele><time>2026-04-04T08:58:30Z</time></trkpt><trkpt lat="45.54353787273941" lon="12.211620672802256"><ele>5.0</ele><time>2026-04-04T08:58:31Z</time></trkpt><trkpt lat="45.54362431183071" lon="12.211624332387357"><ele>5.0</ele><time>2026-04-04T08:58:32Z</time></trkpt><trkpt lat="45.54371307406718" lon="12.211629993952936"><ele>5.0</ele><time>2026-04-04T08:58:33Z</time></trkpt><trkpt lat="45.54380593161701" lon="12.211636416932318"><ele>5.0</ele><time>2026-04-04T08:58:34Z</time></trkpt><trkpt lat="45.54390149553844" lon="12.211634655374308"><ele>5.0</ele><time>2026-04-04T08:58:35Z</time></trkpt><trkpt lat="45.543999631750395" lon="12.211635888927532"><ele>4.6</ele><time>2026-04-04T08:58:36Z</time></trkpt><trkpt lat="45.54409934427543" lon="12.211644516373568"><ele>4.2</ele><time>2026-04-04T08:58:37Z</time></trkpt><trkpt lat="45.54420073677253" lon="12.211664296704898"><ele>3.8</ele><time>2026-04-04T08:58:38Z</time></trkpt><trkpt lat="45.54430416686964" lon="12.21167405027683"><ele>3.4</ele><time>2026-04-04T08:58:39Z</time></trkpt><trkpt lat="45.54440305860384" lon="12.211675152805082"><ele>3.0</ele><time>2026-04-04T08:58:40Z</time></trkpt><trkpt lat="45.54449973590471" lon="12.211677517764995"><ele>3.0</ele><time>2026-04-04T08:58:41Z</time></trkpt><trkpt lat="45.54459095769697" lon="12.211687114938638"><ele>3.0</ele><time>2026-04-04T08:58:42Z</time></trkpt><trkpt lat="45.54468448060005" lon="12.211699202911912"><ele>3.0</ele><time>2026-04-04T08:58:43Z</time></trkpt><trkpt lat="45.54478404711079" lon="12.211707649290862"><ele>3.0</ele><time>2026-04-04T08:58:44Z</time></trkpt><trkpt lat="45.54489032193267" lon="12.21171761270966"><ele>3.0</ele><time>2026-04-04T08:58:45Z</time></trkpt><trkpt lat="45.545002821369394" lon="12.211735065527957"><ele>3.0</ele><time>2026-04-04T08:58:46Z</time></trkpt><trkpt lat="45.54512232196731" lon="12.211755665895318"><ele>3.0</ele><time>2026-04-04T08:58:47Z</time></trkpt><trkpt lat="45.54525120843619" lon="12.211780285577168"><ele>3.0</ele><time>2026-04-04T08:58:48Z</time></trkpt><trkpt lat="45.54539095397642" lon="12.211809227019097"><ele>3.0</ele><time>2026-04-04T08:58:49Z</time></trkpt><trkpt lat="45.54554436569939" lon="12.211843336125755"><ele>3.666666666666667</ele><time>2026-04-04T08:58:50Z</time></trkpt><trkpt lat="45.54570299161286" lon="12.21188766697184"><ele>4.333333333333334</ele><time>2026-04-04T08:58:51Z</time></trkpt><trkpt lat="45.54586710738538" lon="12.211930526686107"><ele>5.0</ele><time>2026-04-04T08:58:52Z</time></trkpt><trkpt lat="45.54602455156234" lon="12.211970740807464"><ele>5.0</ele><time>2026-04-04T08:58:53Z</time></trkpt><trkpt lat="45.54618895811466" lon="12.212007156275652"><ele>5.0</ele><time>2026-04-04T08:58:54Z</time></trkpt><trkpt lat="45.54636281365872" lon="12.212050080119841"><ele>5.0</ele><time>2026-04-04T08:58:55Z</time></trkpt><trkpt lat="45.54653622537627" lon="12.212096407559622"><ele>4.666666666666667</ele><time>2026-04-04T08:58:56Z</time></trkpt><trkpt lat="45.54671684525917" lon="12.21214448960304"><ele>4.333333333333333</ele><time>2026-04-04T08:58:56.999Z</time></trkpt><trkpt lat="45.54688561374902" lon="12.212186455319571"><ele>4.0</ele><time>2026-04-04T08:58:57.999Z</time></trkpt><trkpt lat="45.54705673515035" lon="12.212229495072359"><ele>3.6666666666666665</ele><time>2026-04-04T08:58:58.999Z</time></trkpt><trkpt lat="45.54723006814561" lon="12.212273182420482"><ele>3.333333333333333</ele><time>2026-04-04T08:58:59.999Z</time></trkpt><trkpt lat="45.54738415845704" lon="12.212308643156828"><ele>3.0</ele><time>2026-04-04T08:59:00.999Z</time></trkpt><trkpt lat="45.547530509659765" lon="12.21234445961249"><ele>3.0</ele><time>2026-04-04T08:59:01.999Z</time></trkpt><trkpt lat="45.54767051669758" lon="12.212378377396144"><ele>3.0</ele><time>2026-04-04T08:59:02.999Z</time></trkpt><trkpt lat="45.54780133205111" lon="12.212409125330236"><ele>3.0</ele><time>2026-04-04T08:59:03.999Z</time></trkpt><trkpt lat="45.547924683839874" lon="12.21244127174839"><ele>3.0</ele><time>2026-04-04T08:59:04.999Z</time></trkpt><trkpt lat="45.548036462967524" lon="12.212466519439896"><ele>3.0</ele><time>2026-04-04T08:59:05.999Z</time></trkpt><trkpt lat="45.54813913162176" lon="12.212495857776947"><ele>3.0</ele><time>2026-04-04T08:59:06.999Z</time></trkpt><trkpt lat="45.54823794415641" lon="12.21251813102489"><ele>3.0</ele><time>2026-04-04T08:59:07.999Z</time></trkpt><trkpt lat="45.5483302169848" lon="12.21255000121597"><ele>3.0</ele><time>2026-04-04T08:59:08.999Z</time></trkpt><trkpt lat="45.54841264522471" lon="12.212592486573907"><ele>3.0</ele><time>2026-04-04T08:59:09.999Z</time></trkpt><trkpt lat="45.548472918892685" lon="12.212661475892002"><ele>3.0</ele><time>2026-04-04T08:59:10.999Z</time></trkpt><trkpt lat="45.54849363604366" lon="12.212759550467133"><ele>3.0</ele><time>2026-04-04T08:59:11.999Z</time></trkpt><trkpt lat="45.54847990303971" lon="12.212870123523153"><ele>3.0</ele><time>2026-04-04T08:59:12.999Z</time></trkpt><trkpt lat="45.548459187427696" lon="12.212991457725305"><ele>3.0</ele><time>2026-04-04T08:59:13.999Z</time></trkpt><trkpt lat="45.54844228234065" lon="12.213116672272633"><ele>3.0</ele><time>2026-04-04T08:59:14.999Z</time></trkpt><trkpt lat="45.548436162528176" lon="12.213245421709447"><ele>3.0</ele><time>2026-04-04T08:59:15.999Z</time></trkpt><trkpt lat="45.548434273025606" lon="12.213359614741323"><ele>3.3333333333333335</ele><time>2026-04-04T08:59:16.999Z</time></trkpt><trkpt lat="45.548448145894504" lon="12.213457576279144"><ele>3.666666666666667</ele><time>2026-04-04T08:59:17.999Z</time></trkpt><trkpt lat="45.548500280433544" lon="12.21352286344807"><ele>4.0</ele><time>2026-04-04T08:59:18.999Z</time></trkpt><trkpt lat="45.548575896401985" lon="12.213529686295443"><ele>4.333333333333334</ele><time>2026-04-04T08:59:19.999Z</time></trkpt><trkpt lat="45.54866913974768" lon="12.213516409243866"><ele>4.666666666666667</ele><time>2026-04-04T08:59:20.999Z</time></trkpt><trkpt lat="45.54878411516766" lon="12.21351680136521"><ele>5.0</ele><time>2026-04-04T08:59:21.999Z</time></trkpt><trkpt lat="45.548915251384834" lon="12.213530244517537"><ele>5.0</ele><time>2026-04-04T08:59:22.999Z</time></trkpt><trkpt lat="45.549060612176675" lon="12.213543243605855"><ele>5.0</ele><time>2026-04-04T08:59:23.999Z</time></trkpt><trkpt lat="45.54920626092588" lon="12.213550382611455"><ele>5.0</ele><time>2026-04-04T08:59:24.999Z</time></trkpt><trkpt lat="45.54935147002039" lon="12.213556514965907"><ele>5.0</ele><time>2026-04-04T08:59:25.999Z</time></trkpt><trkpt lat="45.549504672717134" lon="12.213564642865455"><ele>5.333333333333334</ele><time>2026-04-04T08:59:26.999Z</time></trkpt><trkpt lat="45.549672392469496" lon="12.21357827874834"><ele>5.666666666666667</ele><time>2026-04-04T08:59:27.999Z</time></trkpt><trkpt lat="45.549843438968374" lon="12.213592758086719"><ele>6.0</ele><time>2026-04-04T08:59:28.999Z</time></trkpt><trkpt lat="45.55002754581532" lon="12.213606549077854"><ele>6.0</ele><time>2026-04-04T08:59:29.999Z</time></trkpt><trkpt lat="45.550201041091285" lon="12.213617508022343"><ele>6.0</ele><time>2026-04-04T08:59:30.999Z</time></trkpt><trkpt lat="45.55037585533008" lon="12.213629531881836"><ele>6.0</ele><time>2026-04-04T08:59:31.999Z</time></trkpt><trkpt lat="45.55056127033638" lon="12.21364500609271"><ele>5.333333333333333</ele><time>2026-04-04T08:59:32.999Z</time></trkpt><trkpt lat="45.550740189815514" lon="12.21366056747088"><ele>4.666666666666666</ele><time>2026-04-04T08:59:33.999Z</time></trkpt><trkpt lat="45.55091488183047" lon="12.213665930121557"><ele>4.0</ele><time>2026-04-04T08:59:34.999Z</time></trkpt><trkpt lat="45.551092723888196" lon="12.213678283913143"><ele>4.666666666666666</ele><time>2026-04-04T08:59:35.999Z</time></trkpt><trkpt lat="45.55126405451229" lon="12.21368276864019"><ele>5.333333333333333</ele><time>2026-04-04T08:59:36.999Z</time></trkpt><trkpt lat="45.551429529976865" lon="12.213691289435287"><ele>6.0</ele><time>2026-04-04T08:59:37.999Z</time></trkpt><trkpt lat="45.551595797636026" lon="12.213705125811197"><ele>6.0</ele><time>2026-04-04T08:59:38.999Z</time></trkpt><trkpt lat="45.551748461092274" lon="12.213707395495371"><ele>6.0</ele><time>2026-04-04T08:59:39.999Z</time></trkpt><trkpt lat="45.55189112276386" lon="12.213699500963894"><ele>6.0</ele><time>2026-04-04T08:59:40.999Z</time></trkpt><trkpt lat="45.55202375560328" lon="12.213672664135139"><ele>6.0</ele><time>2026-04-04T08:59:41.999Z</time></trkpt><trkpt lat="45.55215040435175" lon="12.213622857276897"><ele>5.75</ele><time>2026-04-04T08:59:42.999Z</time></trkpt><trkpt lat="45.55228403519514" lon="12.213579064209506"><ele>5.5</ele><time>2026-04-04T08:59:43.999Z</time></trkpt><trkpt lat="45.55243201974842" lon="12.213563673694797"><ele>5.25</ele><time>2026-04-04T08:59:44.999Z</time></trkpt><trkpt lat="45.55257155752016" lon="12.213563817843136"><ele>5.0</ele><time>2026-04-04T08:59:45.999Z</time></trkpt><trkpt lat="45.552696149940374" lon="12.213556583661228"><ele>5.0</ele><time>2026-04-04T08:59:46.999Z</time></trkpt><trkpt lat="45.55280051708336" lon="12.213547849719681"><ele>5.0</ele><time>2026-04-04T08:59:47.999Z</time></trkpt><trkpt lat="45.55289330911333" lon="12.213543602688441"><ele>5.0</ele><time>2026-04-04T08:59:48.999Z</time></trkpt><trkpt lat="45.552984101956426" lon="12.213538826416492"><ele>5.0</ele><time>2026-04-04T08:59:49.999Z</time></trkpt><trkpt lat="45.55306502730431" lon="12.21353457574919"><ele>5.0</ele><time>2026-04-04T08:59:50.999Z</time></trkpt><trkpt lat="45.553148748629056" lon="12.21352833349164"><ele>5.2</ele><time>2026-04-04T08:59:51.999Z</time></trkpt><trkpt lat="45.553239693029134" lon="12.21352345760659"><ele>5.4</ele><time>2026-04-04T08:59:52.999Z</time></trkpt><trkpt lat="45.55334343608195" lon="12.21350530056256"><ele>5.6</ele><time>2026-04-04T08:59:53.999Z</time></trkpt><trkpt lat="45.55345675358108" lon="12.213498174678055"><ele>5.8</ele><time>2026-04-04T08:59:54.999Z</time></trkpt><trkpt lat="45.55356775442102" lon="12.213489970398413"><ele>6.0</ele><time>2026-04-04T08:59:56Z</time></trkpt><trkpt lat="45.55366199765462" lon="12.213489252546818"><ele>5.833333333333333</ele><time>2026-04-04T08:59:57Z</time></trkpt><trkpt lat="45.55374727242372" lon="12.213482346969688"><ele>5.666666666666667</ele><time>2026-04-04T08:59:58Z</time></trkpt><trkpt lat="45.55382647303475" lon="12.213455849164873"><ele>5.5</ele><time>2026-04-04T08:59:59Z</time></trkpt><trkpt lat="45.5538910000021" lon="12.213385833489983"><ele>5.333333333333334</ele><time>2026-04-04T09:00:00Z</time></trkpt><trkpt lat="45.55394134930009" lon="12.213274155427609"><ele>5.166666666666667</ele><time>2026-04-04T09:00:01Z</time></trkpt><trkpt lat="45.553981314726485" lon="12.213139952550144"><ele>5.0</ele><time>2026-04-04T09:00:02Z</time></trkpt><trkpt lat="45.554025436940044" lon="12.212987091352067"><ele>5.0</ele><time>2026-04-04T09:00:03Z</time></trkpt><trkpt lat="45.554095342010896" lon="12.212836793195697"><ele>5.0</ele><time>2026-04-04T09:00:04Z</time></trkpt><trkpt lat="45.55418093685777" lon="12.212703135722517"><ele>5.0</ele><time>2026-04-04T09:00:05Z</time></trkpt><trkpt lat="45.554276400857354" lon="12.212588402173495"><ele>5.0</ele><time>2026-04-04T09:00:06Z</time></trkpt><trkpt lat="45.554361435648" lon="12.212469425972445"><ele>5.0</ele><time>2026-04-04T09:00:07Z</time></trkpt><trkpt lat="45.55443981405425" lon="12.212337548869586"><ele>5.0</ele><time>2026-04-04T09:00:08Z</time></trkpt><trkpt lat="45.55450878746569" lon="12.212204388584626"><ele>5.0</ele><time>2026-04-04T09:00:09Z</time></trkpt><trkpt lat="45.55457463332593" lon="12.212102453910537"><ele>5.0</ele><time>2026-04-04T09:00:10Z</time></trkpt><trkpt lat="45.55465511082578" lon="12.212055007711651"><ele>5.0</ele><time>2026-04-04T09:00:11Z</time></trkpt><trkpt lat="45.55474618901826" lon="12.2120514244969"><ele>5.2</ele><time>2026-04-04T09:00:12Z</time></trkpt><trkpt lat="45.55484389490384" lon="12.212088517162641"><ele>5.4</ele><time>2026-04-04T09:00:13Z</time></trkpt><trkpt lat="45.55494725343827" lon="12.212126672287154"><ele>5.6</ele><time>2026-04-04T09:00:14Z</time></trkpt><trkpt lat="45.55506026369828" lon="12.212159872160068"><ele>5.8</ele><time>2026-04-04T09:00:15Z</time></trkpt><trkpt lat="45.5551697622275" lon="12.212184362068855"><ele>6.0</ele><time>2026-04-04T09:00:16Z</time></trkpt><trkpt lat="45.555287186790004" lon="12.212217965056798"><ele>6.0</ele><time>2026-04-04T09:00:17Z</time></trkpt><trkpt lat="45.55542007613193" lon="12.212251374064518"><ele>6.0</ele><time>2026-04-04T09:00:18Z</time></trkpt><trkpt lat="45.55557109469853" lon="12.21228651113316"><ele>6.0</ele><time>2026-04-04T09:00:19Z</time></trkpt><trkpt lat="45.55573604231725" lon="12.212333198834001"><ele>6.0</ele><time>2026-04-04T09:00:20Z</time></trkpt><trkpt lat="45.55588743916971" lon="12.212376044163088"><ele>6.0</ele><time>2026-04-04T09:00:21Z</time></trkpt><trkpt lat="45.55603819580109" lon="12.212418564351509"><ele>6.0</ele><time>2026-04-04T09:00:22Z</time></trkpt><trkpt lat="45.55619612027113" lon="12.212465838742531"><ele>5.333333333333333</ele><time>2026-04-04T09:00:23Z</time></trkpt><trkpt lat="45.55635195670824" lon="12.21250779242058"><ele>4.666666666666666</ele><time>2026-04-04T09:00:24Z</time></trkpt><trkpt lat="45.55651445221647" lon="12.212552738809114"><ele>4.0</ele><time>2026-04-04T09:00:25Z</time></trkpt><trkpt lat="45.55667865235079" lon="12.212600113398853"><ele>4.0</ele><time>2026-04-04T09:00:26Z</time></trkpt><trkpt lat="45.55684229918196" lon="12.212648519733152"><ele>4.0</ele><time>2026-04-04T09:00:27Z</time></trkpt><trkpt lat="45.55700134064577" lon="12.212692690302882"><ele>4.0</ele><time>2026-04-04T09:00:28Z</time></trkpt><trkpt lat="45.55716028465251" lon="12.212726690392964"><ele>4.333333333333333</ele><time>2026-04-04T09:00:29Z</time></trkpt><trkpt lat="45.55732329814739" lon="12.212753425443815"><ele>4.666666666666667</ele><time>2026-04-04T09:00:30Z</time></trkpt><trkpt lat="45.557495781818375" lon="12.212767330696913"><ele>5.0</ele><time>2026-04-04T09:00:31Z</time></trkpt><trkpt lat="45.55767778899214" lon="12.212778069945434"><ele>5.0</ele><time>2026-04-04T09:00:32Z</time></trkpt><trkpt lat="45.5578671702704" lon="12.212790203594745"><ele>5.0</ele><time>2026-04-04T09:00:33Z</time></trkpt><trkpt lat="45.558062256984414" lon="12.212805384023094"><ele>5.0</ele><time>2026-04-04T09:00:34Z</time></trkpt><trkpt lat="45.558259951128356" lon="12.212822580093416"><ele>5.0</ele><time>2026-04-04T09:00:35Z</time></trkpt><trkpt lat="45.55845486465274" lon="12.21283408189075"><ele>5.0</ele><time>2026-04-04T09:00:36Z</time></trkpt><trkpt lat="45.55864629952826" lon="12.212844243236374"><ele>5.0</ele><time>2026-04-04T09:00:37Z</time></trkpt><trkpt lat="45.558839001159356" lon="12.212853951787372"><ele>4.666666666666667</ele><time>2026-04-04T09:00:38Z</time></trkpt><trkpt lat="45.55903044727724" lon="12.212867472613864"><ele>4.333333333333333</ele><time>2026-04-04T09:00:39Z</time></trkpt><trkpt lat="45.55921238230199" lon="12.2128762092765"><ele>4.0</ele><time>2026-04-04T09:00:40Z</time></trkpt><trkpt lat="45.5593931796449" lon="12.21288437793304"><ele>4.0</ele><time>2026-04-04T09:00:41Z</time></trkpt><trkpt lat="45.559567133683025" lon="12.212899308853839"><ele>4.0</ele><time>2026-04-04T09:00:42Z</time></trkpt><trkpt lat="45.55972648282518" lon="12.212914762046468"><ele>4.0</ele><time>2026-04-04T09:00:43Z</time></trkpt><trkpt lat="45.55987132825214" lon="12.212929076246438"><ele>4.0</ele><time>2026-04-04T09:00:44Z</time></trkpt><trkpt lat="45.56000841544959" lon="12.212938118435932"><ele>4.0</ele><time>2026-04-04T09:00:45Z</time></trkpt><trkpt lat="45.56014062954418" lon="12.212947791889167"><ele>4.0</ele><time>2026-04-04T09:00:46Z</time></trkpt><trkpt lat="45.56026452741303" lon="12.212962170408241"><ele>4.0</ele><time>2026-04-04T09:00:47Z</time></trkpt><trkpt lat="45.56038370981138" lon="12.21299495302657"><ele>4.0</ele><time>2026-04-04T09:00:48Z</time></trkpt><trkpt lat="45.56049762102716" lon="12.213043852870241"><ele>4.0</ele><time>2026-04-04T09:00:49Z</time></trkpt><trkpt lat="45.56061363270419" lon="12.213110207851692"><ele>4.0</ele><time>2026-04-04T09:00:50Z</time></trkpt><trkpt lat="45.56072787672168" lon="12.213198279555336"><ele>4.0</ele><time>2026-04-04T09:00:51Z</time></trkpt><trkpt lat="45.56083495228228" lon="12.21329705844383"><ele>4.0</ele><time>2026-04-04T09:00:52Z</time></trkpt><trkpt lat="45.56092656125258" lon="12.213402088973059"><ele>4.0</ele><time>2026-04-04T09:00:53Z</time></trkpt><trkpt lat="45.56100332540199" lon="12.213506296905315"><ele>4.0</ele><time>2026-04-04T09:00:54Z</time></trkpt><trkpt lat="45.56107577103902" lon="12.21361587061716"><ele>4.0</ele><time>2026-04-04T09:00:55Z</time></trkpt><trkpt lat="45.56113850742016" lon="12.213726293977388"><ele>4.0</ele><time>2026-04-04T09:00:56Z</time></trkpt><trkpt lat="45.561178534587086" lon="12.213837766677102"><ele>4.0</ele><time>2026-04-04T09:00:57Z</time></trkpt><trkpt lat="45.56121428030835" lon="12.213943267552613"><ele>4.0</ele><time>2026-04-04T09:00:58Z</time></trkpt><trkpt lat="45.561252943254594" lon="12.21402408396653"><ele>4.0</ele><time>2026-04-04T09:00:58.999Z</time></trkpt><trkpt lat="45.56115432091758" lon="12.214216768426828"><ele>4.0</ele><time>2026-04-04T09:00:59.999Z</time></trkpt><trkpt lat="45.56112003666648" lon="12.214359647875517"><ele>4.0</ele><time>2026-04-04T09:01:00.999Z</time></trkpt><trkpt lat="45.56111197047449" lon="12.21451379686948"><ele>4.2</ele><time>2026-04-04T09:01:01.999Z</time></trkpt><trkpt lat="45.561134825203276" lon="12.214674943932655"><ele>4.4</ele><time>2026-04-04T09:01:02.999Z</time></trkpt><trkpt lat="45.56117089010529" lon="12.214814433309405"><ele>4.6</ele><time>2026-04-04T09:01:03.999Z</time></trkpt><trkpt lat="45.56122767394012" lon="12.214928991347318"><ele>4.8</ele><time>2026-04-04T09:01:04.999Z</time></trkpt><trkpt lat="45.56129515036219" lon="12.215019357043296"><ele>5.0</ele><time>2026-04-04T09:01:05.999Z</time></trkpt><trkpt lat="45.56137839596796" lon="12.215087315129548"><ele>5.0</ele><time>2026-04-04T09:01:06.999Z</time></trkpt><trkpt lat="45.56147816694968" lon="12.215121560777998"><ele>5.0</ele><time>2026-04-04T09:01:07.999Z</time></trkpt><trkpt lat="45.561580728664346" lon="12.215129435678865"><ele>5.0</ele><time>2026-04-04T09:01:08.999Z</time></trkpt><trkpt lat="45.56167874408629" lon="12.21508668342039"><ele>5.0</ele><time>2026-04-04T09:01:09.999Z</time></trkpt><trkpt lat="45.56177362022934" lon="12.21502211537425"><ele>5.0</ele><time>2026-04-04T09:01:10.999Z</time></trkpt><trkpt lat="45.561848010493705" lon="12.214966230860625"><ele>5.0</ele><time>2026-04-04T09:01:11.999Z</time></trkpt><trkpt lat="45.56188760020001" lon="12.214882077225594"><ele>5.0</ele><time>2026-04-04T09:01:13.999Z</time></trkpt><trkpt lat="45.56202409075063" lon="12.214911384053254"><ele>5.0</ele><time>2026-04-04T09:01:15.999Z</time></trkpt><trkpt lat="45.56210741190809" lon="12.214943513424965"><ele>5.0</ele><time>2026-04-04T09:01:16.999Z</time></trkpt><trkpt lat="45.562219181265704" lon="12.21498009137058"><ele>5.0</ele><time>2026-04-04T09:01:17.999Z</time></trkpt><trkpt lat="45.56235285187965" lon="12.215014977305163"><ele>5.333333333333334</ele><time>2026-04-04T09:01:18.999Z</time></trkpt><trkpt lat="45.562506801687405" lon="12.215038215992596"><ele>5.666666666666667</ele><time>2026-04-04T09:01:19.999Z</time></trkpt><trkpt lat="45.56267158616205" lon="12.215056374993354"><ele>6.0</ele><time>2026-04-04T09:01:20.999Z</time></trkpt><trkpt lat="45.56284761537183" lon="12.215069932640663"><ele>5.666666666666667</ele><time>2026-04-04T09:01:21.999Z</time></trkpt><trkpt lat="45.56304342090568" lon="12.215089776503081"><ele>5.333333333333334</ele><time>2026-04-04T09:01:22.999Z</time></trkpt><trkpt lat="45.56324086482368" lon="12.215110114798069"><ele>5.0</ele><time>2026-04-04T09:01:23.999Z</time></trkpt><trkpt lat="45.56345501879774" lon="12.215122603127673"><ele>5.0</ele><time>2026-04-04T09:01:24.999Z</time></trkpt><trkpt lat="45.563690992407174" lon="12.215118614743282"><ele>5.0</ele><time>2026-04-04T09:01:25.999Z</time></trkpt><trkpt lat="45.56392890426157" lon="12.215081075906596"><ele>5.333333333333334</ele><time>2026-04-04T09:01:26.999Z</time></trkpt><trkpt lat="45.56415258005371" lon="12.21503011957551"><ele>5.666666666666667</ele><time>2026-04-04T09:01:27.999Z</time></trkpt><trkpt lat="45.56436383284589" lon="12.214964897388471"><ele>6.0</ele><time>2026-04-04T09:01:28.999Z</time></trkpt><trkpt lat="45.56455932427945" lon="12.214887068692063"><ele>6.0</ele><time>2026-04-04T09:01:29.999Z</time></trkpt><trkpt lat="45.56475108747553" lon="12.214791409232138"><ele>6.0</ele><time>2026-04-04T09:01:30.999Z</time></trkpt><trkpt lat="45.56492605049419" lon="12.214676991115894"><ele>6.0</ele><time>2026-04-04T09:01:31.999Z</time></trkpt><trkpt lat="45.565097618578456" lon="12.214559783200784"><ele>6.0</ele><time>2026-04-04T09:01:32.999Z</time></trkpt><trkpt lat="45.565267783366" lon="12.214444176972735"><ele>6.0</ele><time>2026-04-04T09:01:33.999Z</time></trkpt><trkpt lat="45.5654408707691" lon="12.214332730940992"><ele>6.0</ele><time>2026-04-04T09:01:34.999Z</time></trkpt><trkpt lat="45.56561643296102" lon="12.214229841145169"><ele>5.666666666666667</ele><time>2026-04-04T09:01:35.999Z</time></trkpt><trkpt lat="45.56579749157685" lon="12.21414076449585"><ele>5.333333333333334</ele><time>2026-04-04T09:01:36.999Z</time></trkpt><trkpt lat="45.5659830469265" lon="12.214068708116972"><ele>5.0</ele><time>2026-04-04T09:01:37.999Z</time></trkpt><trkpt lat="45.56617203116246" lon="12.214017792975229"><ele>8.0</ele><time>2026-04-04T09:01:38.999Z</time></trkpt><trkpt lat="45.566363137984624" lon="12.21398108964362"><ele>11.0</ele><time>2026-04-04T09:01:39.999Z</time></trkpt><trkpt lat="45.56655672610385" lon="12.213953876476396"><ele>14.0</ele><time>2026-04-04T09:01:40.999Z</time></trkpt><trkpt lat="45.566742095528944" lon="12.213938622047436"><ele>14.0</ele><time>2026-04-04T09:01:41.999Z</time></trkpt><trkpt lat="45.56691126374715" lon="12.213933368326835"><ele>14.0</ele><time>2026-04-04T09:01:42.999Z</time></trkpt><trkpt lat="45.56707333552558" lon="12.21394537666216"><ele>14.0</ele><time>2026-04-04T09:01:43.999Z</time></trkpt><trkpt lat="45.56722581921854" lon="12.21395958734217"><ele>12.25</ele><time>2026-04-04T09:01:44.999Z</time></trkpt><trkpt lat="45.567365150796164" lon="12.213977030888854"><ele>10.5</ele><time>2026-04-04T09:01:45.999Z</time></trkpt><trkpt lat="45.56749577756176" lon="12.213989571500424"><ele>8.75</ele><time>2026-04-04T09:01:46.999Z</time></trkpt><trkpt lat="45.56762501118189" lon="12.214006207397894"><ele>7.0</ele><time>2026-04-04T09:01:47.999Z</time></trkpt><trkpt lat="45.56776627058824" lon="12.21403531694853"><ele>6.666666666666667</ele><time>2026-04-04T09:01:48.999Z</time></trkpt><trkpt lat="45.567913314775424" lon="12.214064386630039"><ele>6.333333333333334</ele><time>2026-04-04T09:01:49.999Z</time></trkpt><trkpt lat="45.568065333693845" lon="12.214085082954886"><ele>6.0</ele><time>2026-04-04T09:01:50.999Z</time></trkpt><trkpt lat="45.56822457014435" lon="12.214104113656603"><ele>6.0</ele><time>2026-04-04T09:01:51.999Z</time></trkpt><trkpt lat="45.568394332457935" lon="12.214130864577681"><ele>6.0</ele><time>2026-04-04T09:01:52.999Z</time></trkpt><trkpt lat="45.56857422242573" lon="12.214163688463094"><ele>6.0</ele><time>2026-04-04T09:01:53.999Z</time></trkpt><trkpt lat="45.56875247263629" lon="12.214204595240858"><ele>6.0</ele><time>2026-04-04T09:01:54.999Z</time></trkpt><trkpt lat="45.568935510546204" lon="12.214257908568726"><ele>6.0</ele><time>2026-04-04T09:01:55.999Z</time></trkpt><trkpt lat="45.569115613493835" lon="12.214324938923086"><ele>6.0</ele><time>2026-04-04T09:01:56.999Z</time></trkpt><trkpt lat="45.56929587006286" lon="12.214409475900343"><ele>6.0</ele><time>2026-04-04T09:01:57.999Z</time></trkpt><trkpt lat="45.56947852719957" lon="12.214513611240108"><ele>6.0</ele><time>2026-04-04T09:01:58.999Z</time></trkpt><trkpt lat="45.569659253940905" lon="12.214630848379931"><ele>6.0</ele><time>2026-04-04T09:01:59.999Z</time></trkpt><trkpt lat="45.56983345207073" lon="12.214756949639014"><ele>6.0</ele><time>2026-04-04T09:02:00.999Z</time></trkpt><trkpt lat="45.57000399534537" lon="12.214897510720572"><ele>6.0</ele><time>2026-04-04T09:02:02Z</time></trkpt><trkpt lat="45.570168777307856" lon="12.215050174736795"><ele>6.0</ele><time>2026-04-04T09:02:03Z</time></trkpt><trkpt lat="45.57032533952474" lon="12.215222548915328"><ele>6.0</ele><time>2026-04-04T09:02:04Z</time></trkpt><trkpt lat="45.5704791795058" lon="12.215404645124414"><ele>6.0</ele><time>2026-04-04T09:02:05Z</time></trkpt><trkpt lat="45.570622286805545" lon="12.215593410629577"><ele>6.0</ele><time>2026-04-04T09:02:06Z</time></trkpt><trkpt lat="45.57076085482265" lon="12.215794891945116"><ele>5.666666666666667</ele><time>2026-04-04T09:02:07Z</time></trkpt><trkpt lat="45.57089027838217" lon="12.216008114143543"><ele>5.333333333333334</ele><time>2026-04-04T09:02:08Z</time></trkpt><trkpt lat="45.57101260285474" lon="12.216226215347195"><ele>5.0</ele><time>2026-04-04T09:02:09Z</time></trkpt><trkpt lat="45.571119390673466" lon="12.2164465889283"><ele>5.333333333333334</ele><time>2026-04-04T09:02:10Z</time></trkpt><trkpt lat="45.571212336776135" lon="12.21666605503225"><ele>5.666666666666667</ele><time>2026-04-04T09:02:11Z</time></trkpt><trkpt lat="45.57129772944764" lon="12.216881389637843"><ele>6.0</ele><time>2026-04-04T09:02:12Z</time></trkpt><trkpt lat="45.571376462649546" lon="12.217121506323204"><ele>5.333333333333333</ele><time>2026-04-04T09:02:13Z</time></trkpt><trkpt lat="45.571448195938736" lon="12.217368981137431"><ele>4.666666666666666</ele><time>2026-04-04T09:02:14Z</time></trkpt><trkpt lat="45.5715148981176" lon="12.217625885583972"><ele>4.0</ele><time>2026-04-04T09:02:15Z</time></trkpt><trkpt lat="45.57157438267385" lon="12.217890286919134"><ele>4.0</ele><time>2026-04-04T09:02:16Z</time></trkpt><trkpt lat="45.57162205341585" lon="12.218164679545461"><ele>4.0</ele><time>2026-04-04T09:02:17Z</time></trkpt><trkpt lat="45.57165784280099" lon="12.21844634998327"><ele>4.0</ele><time>2026-04-04T09:02:18Z</time></trkpt><trkpt lat="45.57168859804008" lon="12.218724748728453"><ele>4.333333333333333</ele><time>2026-04-04T09:02:19Z</time></trkpt><trkpt lat="45.57171269114987" lon="12.219009732955083"><ele>4.666666666666667</ele><time>2026-04-04T09:02:20Z</time></trkpt><trkpt lat="45.57173448885877" lon="12.219290657553323"><ele>5.0</ele><time>2026-04-04T09:02:21Z</time></trkpt><trkpt lat="45.57175829160094" lon="12.219567525599615"><ele>5.333333333333334</ele><time>2026-04-04T09:02:22Z</time></trkpt><trkpt lat="45.57178414613375" lon="12.21984763093413"><ele>5.666666666666667</ele><time>2026-04-04T09:02:23Z</time></trkpt><trkpt lat="45.57181084256967" lon="12.220114778600063"><ele>6.0</ele><time>2026-04-04T09:02:24Z</time></trkpt><trkpt lat="45.57183403650957" lon="12.220385968943727"><ele>6.666666666666666</ele><time>2026-04-04T09:02:25Z</time></trkpt><trkpt lat="45.57185547273461" lon="12.220657722304095"><ele>7.333333333333333</ele><time>2026-04-04T09:02:26Z</time></trkpt><trkpt lat="45.5718834338139" lon="12.220922483902076"><ele>8.0</ele><time>2026-04-04T09:02:27Z</time></trkpt><trkpt lat="45.57191531779379" lon="12.22118920042156"><ele>8.0</ele><time>2026-04-04T09:02:28Z</time></trkpt><trkpt lat="45.57195096338222" lon="12.221456840679906"><ele>8.0</ele><time>2026-04-04T09:02:29Z</time></trkpt><trkpt lat="45.5719957949871" lon="12.221722510348176"><ele>8.0</ele><time>2026-04-04T09:02:30Z</time></trkpt><trkpt lat="45.572046527159436" lon="12.221987844270283"><ele>7.333333333333333</ele><time>2026-04-04T09:02:31Z</time></trkpt><trkpt lat="45.57210716228834" lon="12.222245644146604"><ele>6.666666666666666</ele><time>2026-04-04T09:02:32Z</time></trkpt><trkpt lat="45.57218165773049" lon="12.22249589352379"><ele>6.0</ele><time>2026-04-04T09:02:33Z</time></trkpt><trkpt lat="45.57226224189036" lon="12.222746242598504"><ele>6.0</ele><time>2026-04-04T09:02:34Z</time></trkpt><trkpt lat="45.57235064949317" lon="12.222990326233548"><ele>6.0</ele><time>2026-04-04T09:02:35Z</time></trkpt><trkpt lat="45.572448367989786" lon="12.22323421562851"><ele>6.0</ele><time>2026-04-04T09:02:36Z</time></trkpt><trkpt lat="45.57254986485282" lon="12.223467694423215"><ele>6.0</ele><time>2026-04-04T09:02:37Z</time></trkpt><trkpt lat="45.57265651559768" lon="12.223695380918096"><ele>6.0</ele><time>2026-04-04T09:02:38Z</time></trkpt><trkpt lat="45.572763617463785" lon="12.223921580661578"><ele>6.0</ele><time>2026-04-04T09:02:39Z</time></trkpt><trkpt lat="45.572868318436676" lon="12.224150298392473"><ele>5.333333333333333</ele><time>2026-04-04T09:02:40Z</time></trkpt><trkpt lat="45.572969949290126" lon="12.224383208082141"><ele>4.666666666666666</ele><time>2026-04-04T09:02:41Z</time></trkpt><trkpt lat="45.57306844825783" lon="12.224624972880328"><ele>4.0</ele><time>2026-04-04T09:02:42Z</time></trkpt><trkpt lat="45.573163051004855" lon="12.224868557670645"><ele>4.0</ele><time>2026-04-04T09:02:43Z</time></trkpt><trkpt lat="45.57324705182211" lon="12.225122890724599"><ele>4.0</ele><time>2026-04-04T09:02:44Z</time></trkpt><trkpt lat="45.57332276771629" lon="12.225384815611182"><ele>4.0</ele><time>2026-04-04T09:02:45Z</time></trkpt><trkpt lat="45.573389991434055" lon="12.225647299736574"><ele>4.333333333333333</ele><time>2026-04-04T09:02:46Z</time></trkpt><trkpt lat="45.573454637045636" lon="12.22589671471104"><ele>4.666666666666667</ele><time>2026-04-04T09:02:47Z</time></trkpt><trkpt lat="45.57350606640554" lon="12.226127202783736"><ele>5.0</ele><time>2026-04-04T09:02:48Z</time></trkpt><trkpt lat="45.573548402347576" lon="12.226333580033748"><ele>5.25</ele><time>2026-04-04T09:02:49Z</time></trkpt><trkpt lat="45.573585481112545" lon="12.226531599039399"><ele>5.5</ele><time>2026-04-04T09:02:50Z</time></trkpt><trkpt lat="45.57361099459672" lon="12.226705973785911"><ele>5.75</ele><time>2026-04-04T09:02:51Z</time></trkpt><trkpt lat="45.5736261941515" lon="12.22685425914965"><ele>6.0</ele><time>2026-04-04T09:02:52Z</time></trkpt><trkpt lat="45.573635923754814" lon="12.22698524457182"><ele>6.0</ele><time>2026-04-04T09:02:53Z</time></trkpt><trkpt lat="45.573629557305125" lon="12.227095879928907"><ele>6.0</ele><time>2026-04-04T09:02:54Z</time></trkpt><trkpt lat="45.57360146051236" lon="12.227198015632167"><ele>6.0</ele><time>2026-04-04T09:02:55Z</time></trkpt><trkpt lat="45.5735357125873" lon="12.227284857208272"><ele>6.0</ele><time>2026-04-04T09:02:56Z</time></trkpt><trkpt lat="45.57345248085033" lon="12.22737072532421"><ele>6.0</ele><time>2026-04-04T09:02:57Z</time></trkpt><trkpt lat="45.573380274223375" lon="12.227473524413915"><ele>6.0</ele><time>2026-04-04T09:02:58Z</time></trkpt><trkpt lat="45.573329426045106" lon="12.22760375799617"><ele>5.8</ele><time>2026-04-04T09:02:59Z</time></trkpt><trkpt lat="45.57330905926589" lon="12.22775584724318"><ele>5.6</ele><time>2026-04-04T09:03:00Z</time></trkpt><trkpt lat="45.57330571647278" lon="12.227904072166647"><ele>5.4</ele><time>2026-04-04T09:03:01Z</time></trkpt><trkpt lat="45.573334392924124" lon="12.228032057566718"><ele>5.2</ele><time>2026-04-04T09:03:02Z</time></trkpt><trkpt lat="45.573388015399615" lon="12.228144484293418"><ele>5.0</ele><time>2026-04-04T09:03:03Z</time></trkpt><trkpt lat="45.573467821225535" lon="12.228237697234853"><ele>4.8</ele><time>2026-04-04T09:03:04Z</time></trkpt><trkpt lat="45.57356181376498" lon="12.228320562253396"><ele>4.6</ele><time>2026-04-04T09:03:05Z</time></trkpt><trkpt lat="45.573647165210105" lon="12.228424964360807"><ele>4.4</ele><time>2026-04-04T09:03:06Z</time></trkpt><trkpt lat="45.573708713006845" lon="12.228544583747059"><ele>4.2</ele><time>2026-04-04T09:03:07Z</time></trkpt><trkpt lat="45.57375007581" lon="12.228662321721583"><ele>4.0</ele><time>2026-04-04T09:03:08Z</time></trkpt><trkpt lat="45.573735563663924" lon="12.228823629099818"><ele>4.0</ele><time>2026-04-04T09:03:09Z</time></trkpt><trkpt lat="45.57372869711987" lon="12.228979575873348"><ele>4.0</ele><time>2026-04-04T09:03:10Z</time></trkpt><trkpt lat="45.573723468326385" lon="12.229143018087512"><ele>4.0</ele><time>2026-04-04T09:03:11Z</time></trkpt><trkpt lat="45.57372081536593" lon="12.229309277531595"><ele>4.0</ele><time>2026-04-04T09:03:12Z</time></trkpt><trkpt lat="45.57372128373184" lon="12.229467413732532"><ele>4.0</ele><time>2026-04-04T09:03:13Z</time></trkpt><trkpt lat="45.573720417471435" lon="12.22962690374081"><ele>4.0</ele><time>2026-04-04T09:03:14Z</time></trkpt><trkpt lat="45.57371739978877" lon="12.229783053839835"><ele>4.0</ele><time>2026-04-04T09:03:15Z</time></trkpt><trkpt lat="45.57371345220963" lon="12.229952673109807"><ele>4.0</ele><time>2026-04-04T09:03:16Z</time></trkpt><trkpt lat="45.57371115357225" lon="12.230126975584518"><ele>4.25</ele><time>2026-04-04T09:03:17Z</time></trkpt><trkpt lat="45.573711683755434" lon="12.230308415415818"><ele>4.5</ele><time>2026-04-04T09:03:18Z</time></trkpt><trkpt lat="45.57370937795225" lon="12.230496393278807"><ele>4.75</ele><time>2026-04-04T09:03:19Z</time></trkpt><trkpt lat="45.57370320864811" lon="12.230699610869006"><ele>5.0</ele><time>2026-04-04T09:03:20Z</time></trkpt><trkpt lat="45.573700870087" lon="12.230903034098873"><ele>5.0</ele><time>2026-04-04T09:03:21Z</time></trkpt><trkpt lat="45.57369891347859" lon="12.231088499615119"><ele>5.0</ele><time>2026-04-04T09:03:22Z</time></trkpt><trkpt lat="45.57369774610991" lon="12.23128722988598"><ele>5.0</ele><time>2026-04-04T09:03:23Z</time></trkpt><trkpt lat="45.57368519874819" lon="12.23150900202852"><ele>5.0</ele><time>2026-04-04T09:03:24Z</time></trkpt><trkpt lat="45.57367893824102" lon="12.231706841710663"><ele>5.333333333333334</ele><time>2026-04-04T09:03:25Z</time></trkpt><trkpt lat="45.573680531232455" lon="12.231948517190997"><ele>5.666666666666667</ele><time>2026-04-04T09:03:25.999Z</time></trkpt><trkpt lat="45.5736801168695" lon="12.232185026696648"><ele>6.0</ele><time>2026-04-04T09:03:26.999Z</time></trkpt><trkpt lat="45.573680130565194" lon="12.23237157718092"><ele>6.0</ele><time>2026-04-04T09:03:27.999Z</time></trkpt><trkpt lat="45.573681043230266" lon="12.23253331425483"><ele>6.0</ele><time>2026-04-04T09:03:28.999Z</time></trkpt><trkpt lat="45.57367805393386" lon="12.232681628277083"><ele>6.0</ele><time>2026-04-04T09:03:29.999Z</time></trkpt><trkpt lat="45.573672139823884" lon="12.232829013326356"><ele>6.0</ele><time>2026-04-04T09:03:30.999Z</time></trkpt><trkpt lat="45.573665864804845" lon="12.232977006561548"><ele>6.0</ele><time>2026-04-04T09:03:31.999Z</time></trkpt><trkpt lat="45.573666709948924" lon="12.233128218438221"><ele>6.0</ele><time>2026-04-04T09:03:32.999Z</time></trkpt><trkpt lat="45.57365993498547" lon="12.233284281552981"><ele>6.0</ele><time>2026-04-04T09:03:33.999Z</time></trkpt><trkpt lat="45.57365548957205" lon="12.233440409119277"><ele>6.0</ele><time>2026-04-04T09:03:34.999Z</time></trkpt><trkpt lat="45.57364886235174" lon="12.233600656821674"><ele>6.0</ele><time>2026-04-04T09:03:35.999Z</time></trkpt><trkpt lat="45.57364572513932" lon="12.23375588425049"><ele>6.0</ele><time>2026-04-04T09:03:36.999Z</time></trkpt><trkpt lat="45.57364207916807" lon="12.233902643711083"><ele>6.166666666666667</ele><time>2026-04-04T09:03:37.999Z</time></trkpt><trkpt lat="45.57363246551196" lon="12.234039318630852"><ele>6.333333333333334</ele><time>2026-04-04T09:03:38.999Z</time></trkpt><trkpt lat="45.57363948813429" lon="12.234162328670823"><ele>6.5</ele><time>2026-04-04T09:03:39.999Z</time></trkpt><trkpt lat="45.5736300652543" lon="12.234258102965201"><ele>6.666666666666667</ele><time>2026-04-04T09:03:40.999Z</time></trkpt><trkpt lat="45.57358960125179" lon="12.234364729740314"><ele>6.833333333333334</ele><time>2026-04-04T09:03:42.999Z</time></trkpt><trkpt lat="45.57355709464089" lon="12.234449899952745"><ele>7.0</ele><time>2026-04-04T09:03:47.999Z</time></trkpt><trkpt lat="45.57346872132474" lon="12.23456814800938"><ele>7.0</ele><time>2026-04-04T09:03:49.999Z</time></trkpt><trkpt lat="45.573424682775006" lon="12.234667382865185"><ele>6.999999999999999</ele><time>2026-04-04T09:03:50.999Z</time></trkpt><trkpt lat="45.57339266198956" lon="12.234797322933119"><ele>6.999999999999999</ele><time>2026-04-04T09:03:51.999Z</time></trkpt><trkpt lat="45.57338479096056" lon="12.234935936459248"><ele>7.0</ele><time>2026-04-04T09:03:52.999Z</time></trkpt><trkpt lat="45.573400860629505" lon="12.235080801007427"><ele>7.0</ele><time>2026-04-04T09:03:53.999Z</time></trkpt><trkpt lat="45.573437489695785" lon="12.23521745701466"><ele>6.8</ele><time>2026-04-04T09:03:54.999Z</time></trkpt><trkpt lat="45.573484103938924" lon="12.235353734914506"><ele>6.6</ele><time>2026-04-04T09:03:55.999Z</time></trkpt><trkpt lat="45.57353616217651" lon="12.235494592911857"><ele>6.3999999999999995</ele><time>2026-04-04T09:03:56.999Z</time></trkpt><trkpt lat="45.573563292767325" lon="12.235643795790196"><ele>6.199999999999999</ele><time>2026-04-04T09:03:57.999Z</time></trkpt><trkpt lat="45.57356876054629" lon="12.235819718678922"><ele>6.0</ele><time>2026-04-04T09:03:58.999Z</time></trkpt><trkpt lat="45.573550113200945" lon="12.236015496195948"><ele>6.0</ele><time>2026-04-04T09:03:59.999Z</time></trkpt><trkpt lat="45.573517383292554" lon="12.236223556381411"><ele>6.0</ele><time>2026-04-04T09:04:00.999Z</time></trkpt><trkpt lat="45.57347445976193" lon="12.236447294323733"><ele>6.0</ele><time>2026-04-04T09:04:01.999Z</time></trkpt><trkpt lat="45.57343723767258" lon="12.236679611070167"><ele>6.0</ele><time>2026-04-04T09:04:02.999Z</time></trkpt><trkpt lat="45.573408373813514" lon="12.236912249738008"><ele>6.0</ele><time>2026-04-04T09:04:03.999Z</time></trkpt><trkpt lat="45.573386378972195" lon="12.237159775045088"><ele>6.0</ele><time>2026-04-04T09:04:04.999Z</time></trkpt><trkpt lat="45.573364825010295" lon="12.237409507723749"><ele>6.666666666666666</ele><time>2026-04-04T09:04:05.999Z</time></trkpt><trkpt lat="45.57333921798747" lon="12.237669197894657"><ele>7.333333333333333</ele><time>2026-04-04T09:04:06.999Z</time></trkpt><trkpt lat="45.57332685890824" lon="12.237932507313026"><ele>8.0</ele><time>2026-04-04T09:04:08Z</time></trkpt><trkpt lat="45.57331459423073" lon="12.238208273013848"><ele>8.333333333333332</ele><time>2026-04-04T09:04:09Z</time></trkpt><trkpt lat="45.57330238654918" lon="12.238495414216043"><ele>8.666666666666666</ele><time>2026-04-04T09:04:10Z</time></trkpt><trkpt lat="45.573295931258215" lon="12.238790120279871"><ele>9.0</ele><time>2026-04-04T09:04:11Z</time></trkpt><trkpt lat="45.573287772090275" lon="12.239079554629566"><ele>8.333333333333334</ele><time>2026-04-04T09:04:12Z</time></trkpt><trkpt lat="45.57328322150437" lon="12.239375694557094"><ele>7.666666666666667</ele><time>2026-04-04T09:04:13Z</time></trkpt><trkpt lat="45.5732773913773" lon="12.239671329391909"><ele>7.0</ele><time>2026-04-04T09:04:14Z</time></trkpt><trkpt lat="45.57327221808669" lon="12.23995071431089"><ele>6.0</ele><time>2026-04-04T09:04:15Z</time></trkpt><trkpt lat="45.57326445292996" lon="12.240211964717908"><ele>5.0</ele><time>2026-04-04T09:04:16Z</time></trkpt><trkpt lat="45.573257127536664" lon="12.240468937640978"><ele>4.0</ele><time>2026-04-04T09:04:17Z</time></trkpt><trkpt lat="45.57324792156745" lon="12.240721522034528"><ele>3.6666666666666665</ele><time>2026-04-04T09:04:18Z</time></trkpt><trkpt lat="45.57324380004469" lon="12.240955482668513"><ele>3.333333333333333</ele><time>2026-04-04T09:04:19Z</time></trkpt><trkpt lat="45.573238809426215" lon="12.241189351594668"><ele>3.0</ele><time>2026-04-04T09:04:20Z</time></trkpt><trkpt lat="45.57323161802616" lon="12.24142315298463"><ele>3.666666666666667</ele><time>2026-04-04T09:04:21Z</time></trkpt><trkpt lat="45.573225178064796" lon="12.241644717435436"><ele>4.333333333333334</ele><time>2026-04-04T09:04:22Z</time></trkpt><trkpt lat="45.57321961479525" lon="12.241862097820226"><ele>5.0</ele><time>2026-04-04T09:04:23Z</time></trkpt><trkpt lat="45.57321334636912" lon="12.242068877275123"><ele>5.0</ele><time>2026-04-04T09:04:24Z</time></trkpt><trkpt lat="45.5732102642545" lon="12.242255214378662"><ele>5.0</ele><time>2026-04-04T09:04:25Z</time></trkpt><trkpt lat="45.57320983980306" lon="12.24243530116444"><ele>5.0</ele><time>2026-04-04T09:04:26Z</time></trkpt><trkpt lat="45.573202599321654" lon="12.242604226365016"><ele>5.0</ele><time>2026-04-04T09:04:27Z</time></trkpt><trkpt lat="45.57318404807068" lon="12.242760746092934"><ele>4.8</ele><time>2026-04-04T09:04:28Z</time></trkpt><trkpt lat="45.57315186122944" lon="12.24290684165583"><ele>4.6</ele><time>2026-04-04T09:04:29Z</time></trkpt><trkpt lat="45.57310634632928" lon="12.24303853435365"><ele>4.4</ele><time>2026-04-04T09:04:30Z</time></trkpt><trkpt lat="45.57306346245208" lon="12.243174436033254"><ele>4.2</ele><time>2026-04-04T09:04:31Z</time></trkpt><trkpt lat="45.57298902061549" lon="12.243278025084594"><ele>4.0</ele><time>2026-04-04T09:04:32Z</time></trkpt><trkpt lat="45.57295429010913" lon="12.243396242116386"><ele>4.0</ele><time>2026-04-04T09:04:33Z</time></trkpt><trkpt lat="45.57294861583617" lon="12.243530014786485"><ele>4.0</ele><time>2026-04-04T09:04:34Z</time></trkpt><trkpt lat="45.57297105950694" lon="12.243671457972644"><ele>4.0</ele><time>2026-04-04T09:04:35Z</time></trkpt><trkpt lat="45.573026565860836" lon="12.243818526653232"><ele>4.0</ele><time>2026-04-04T09:04:36Z</time></trkpt><trkpt lat="45.573080413316276" lon="12.243971400040975"><ele>4.0</ele><time>2026-04-04T09:04:37Z</time></trkpt><trkpt lat="45.57311757071435" lon="12.24414517078647"><ele>4.25</ele><time>2026-04-04T09:04:38Z</time></trkpt><trkpt lat="45.57317680142672" lon="12.244308105227402"><ele>4.5</ele><time>2026-04-04T09:04:39Z</time></trkpt><trkpt lat="45.5731365616815" lon="12.244547215169272"><ele>4.75</ele><time>2026-04-04T09:04:40Z</time></trkpt><trkpt lat="45.573129513611846" lon="12.244759566183337"><ele>5.0</ele><time>2026-04-04T09:04:41Z</time></trkpt><trkpt lat="45.573122604380465" lon="12.244955906333514"><ele>5.0</ele><time>2026-04-04T09:04:42Z</time></trkpt><trkpt lat="45.57311866577318" lon="12.245147460553108"><ele>5.0</ele><time>2026-04-04T09:04:43Z</time></trkpt><trkpt lat="45.573113656995865" lon="12.245333409499482"><ele>5.0</ele><time>2026-04-04T09:04:44Z</time></trkpt><trkpt lat="45.57311151051837" lon="12.245535781005245"><ele>5.0</ele><time>2026-04-04T09:04:45Z</time></trkpt><trkpt lat="45.57310434505922" lon="12.245737389846408"><ele>5.0</ele><time>2026-04-04T09:04:46Z</time></trkpt><trkpt lat="45.57309732102319" lon="12.245940780542844"><ele>5.0</ele><time>2026-04-04T09:04:47Z</time></trkpt><trkpt lat="45.573094203777096" lon="12.246151200121577"><ele>5.0</ele><time>2026-04-04T09:04:48Z</time></trkpt><trkpt lat="45.57309123559082" lon="12.24635013885778"><ele>5.0</ele><time>2026-04-04T09:04:49Z</time></trkpt><trkpt lat="45.57308699028027" lon="12.246553636167585"><ele>4.333333333333334</ele><time>2026-04-04T09:04:50Z</time></trkpt><trkpt lat="45.57308217178902" lon="12.246767722577541"><ele>3.666666666666667</ele><time>2026-04-04T09:04:51Z</time></trkpt><trkpt lat="45.57307650321844" lon="12.246994372286725"><ele>3.0</ele><time>2026-04-04T09:04:52Z</time></trkpt><trkpt lat="45.5730702878419" lon="12.247225246378095"><ele>3.0</ele><time>2026-04-04T09:04:53Z</time></trkpt><trkpt lat="45.57306582395069" lon="12.247454002489775"><ele>3.0</ele><time>2026-04-04T09:04:54Z</time></trkpt><trkpt lat="45.57306279008093" lon="12.247678557700059"><ele>3.0</ele><time>2026-04-04T09:04:55Z</time></trkpt><trkpt lat="45.573060538629946" lon="12.247895178385066"><ele>3.0</ele><time>2026-04-04T09:04:56Z</time></trkpt><trkpt lat="45.57305382557756" lon="12.248118170998236"><ele>3.0</ele><time>2026-04-04T09:04:57Z</time></trkpt><trkpt lat="45.573046724710416" lon="12.248339785911993"><ele>3.0</ele><time>2026-04-04T09:04:58Z</time></trkpt><trkpt lat="45.573041772786205" lon="12.248561705478059"><ele>3.0</ele><time>2026-04-04T09:04:59Z</time></trkpt><trkpt lat="45.573037424656036" lon="12.248788066521831"><ele>3.0</ele><time>2026-04-04T09:05:00Z</time></trkpt><trkpt lat="45.573034770482366" lon="12.249011458477186"><ele>3.0</ele><time>2026-04-04T09:05:01Z</time></trkpt><trkpt lat="45.57303154068075" lon="12.249229375775105"><ele>3.0</ele><time>2026-04-04T09:05:02Z</time></trkpt><trkpt lat="45.57302682751443" lon="12.249454659834534"><ele>3.0</ele><time>2026-04-04T09:05:03Z</time></trkpt><trkpt lat="45.573019581256695" lon="12.249678239159511"><ele>3.0</ele><time>2026-04-04T09:05:04Z</time></trkpt><trkpt lat="45.573011481404926" lon="12.24990419951542"><ele>3.0</ele><time>2026-04-04T09:05:05Z</time></trkpt><trkpt lat="45.57300466177512" lon="12.250123672573357"><ele>3.0</ele><time>2026-04-04T09:05:06Z</time></trkpt><trkpt lat="45.57299748479075" lon="12.250349252108611"><ele>3.0</ele><time>2026-04-04T09:05:07Z</time></trkpt><trkpt lat="45.572990577569946" lon="12.250572899166578"><ele>3.0</ele><time>2026-04-04T09:05:08Z</time></trkpt><trkpt lat="45.572984075956505" lon="12.250801420042157"><ele>3.0</ele><time>2026-04-04T09:05:09Z</time></trkpt><trkpt lat="45.572978799755504" lon="12.251019281669787"><ele>3.0</ele><time>2026-04-04T09:05:10Z</time></trkpt><trkpt lat="45.57297151338733" lon="12.25124223328122"><ele>3.0</ele><time>2026-04-04T09:05:11Z</time></trkpt><trkpt lat="45.57296402687943" lon="12.251461204897643"><ele>3.0</ele><time>2026-04-04T09:05:12Z</time></trkpt><trkpt lat="45.57295301031784" lon="12.25169063534282"><ele>3.0</ele><time>2026-04-04T09:05:13Z</time></trkpt><trkpt lat="45.572945023716876" lon="12.251911290915961"><ele>3.0</ele><time>2026-04-04T09:05:14Z</time></trkpt><trkpt lat="45.57293811342193" lon="12.252130343937788"><ele>3.0</ele><time>2026-04-04T09:05:15Z</time></trkpt><trkpt lat="45.572928506212115" lon="12.252361521401193"><ele>3.0</ele><time>2026-04-04T09:05:16Z</time></trkpt><trkpt lat="45.57292095346302" lon="12.252580836917781"><ele>3.0</ele><time>2026-04-04T09:05:17Z</time></trkpt><trkpt lat="45.57291339143216" lon="12.252804453259179"><ele>3.0</ele><time>2026-04-04T09:05:18Z</time></trkpt><trkpt lat="45.57290593561543" lon="12.25302981339157"><ele>3.0</ele><time>2026-04-04T09:05:19Z</time></trkpt><trkpt lat="45.57289794788203" lon="12.253250911028436"><ele>3.0</ele><time>2026-04-04T09:05:20Z</time></trkpt><trkpt lat="45.5728886178431" lon="12.253473611931302"><ele>3.0</ele><time>2026-04-04T09:05:21Z</time></trkpt><trkpt lat="45.57287941848398" lon="12.253697341401907"><ele>3.0</ele><time>2026-04-04T09:05:22Z</time></trkpt><trkpt lat="45.57286916527355" lon="12.253921618843519"><ele>3.0</ele><time>2026-04-04T09:05:23Z</time></trkpt><trkpt lat="45.572859043514235" lon="12.254146708480972"><ele>3.0</ele><time>2026-04-04T09:05:24Z</time></trkpt><trkpt lat="45.57285264710967" lon="12.254363650896284"><ele>3.0</ele><time>2026-04-04T09:05:25Z</time></trkpt><trkpt lat="45.572842944502575" lon="12.254590495217524"><ele>2.3333333333333335</ele><time>2026-04-04T09:05:26Z</time></trkpt><trkpt lat="45.57283135952538" lon="12.254813776963335"><ele>1.6666666666666665</ele><time>2026-04-04T09:05:27Z</time></trkpt><trkpt lat="45.57282097556268" lon="12.25503924796301"><ele>1.0</ele><time>2026-04-04T09:05:28Z</time></trkpt><trkpt lat="45.57281528237095" lon="12.255260895823673"><ele>1.0</ele><time>2026-04-04T09:05:29Z</time></trkpt><trkpt lat="45.57280448000146" lon="12.255484286245519"><ele>1.0</ele><time>2026-04-04T09:05:30Z</time></trkpt><trkpt lat="45.57278928076836" lon="12.255708355864272"><ele>1.0</ele><time>2026-04-04T09:05:31Z</time></trkpt><trkpt lat="45.57276806975568" lon="12.25593251425165"><ele>1.3333333333333333</ele><time>2026-04-04T09:05:32Z</time></trkpt><trkpt lat="45.5727393759699" lon="12.256152924004198"><ele>1.6666666666666665</ele><time>2026-04-04T09:05:33Z</time></trkpt><trkpt lat="45.57270295958056" lon="12.256374828032675"><ele>2.0</ele><time>2026-04-04T09:05:34Z</time></trkpt><trkpt lat="45.57266545627702" lon="12.256589426277964"><ele>2.6666666666666665</ele><time>2026-04-04T09:05:35Z</time></trkpt><trkpt lat="45.57262090293201" lon="12.256804790866175"><ele>3.333333333333333</ele><time>2026-04-04T09:05:36Z</time></trkpt><trkpt lat="45.57256797157046" lon="12.25701462062067"><ele>4.0</ele><time>2026-04-04T09:05:37Z</time></trkpt><trkpt lat="45.57250870620419" lon="12.257221187499997"><ele>4.0</ele><time>2026-04-04T09:05:38Z</time></trkpt><trkpt lat="45.57244138605465" lon="12.257425009135334"><ele>4.0</ele><time>2026-04-04T09:05:39Z</time></trkpt><trkpt lat="45.57236947429203" lon="12.257623541853574"><ele>4.0</ele><time>2026-04-04T09:05:40Z</time></trkpt><trkpt lat="45.572291712048596" lon="12.257815769654503"><ele>4.0</ele><time>2026-04-04T09:05:41Z</time></trkpt><trkpt lat="45.5722085251937" lon="12.258007999562297"><ele>4.0</ele><time>2026-04-04T09:05:41.999Z</time></trkpt><trkpt lat="45.572120728855666" lon="12.258190890972765"><ele>4.0</ele><time>2026-04-04T09:05:42.999Z</time></trkpt><trkpt lat="45.57202569835337" lon="12.258369628069191"><ele>4.0</ele><time>2026-04-04T09:05:43.999Z</time></trkpt><trkpt lat="45.57192184339875" lon="12.258539548958785"><ele>4.0</ele><time>2026-04-04T09:05:44.999Z</time></trkpt><trkpt lat="45.57181812744747" lon="12.258701612659964"><ele>4.0</ele><time>2026-04-04T09:05:45.999Z</time></trkpt><trkpt lat="45.57170795960249" lon="12.258860864014022"><ele>4.666666666666666</ele><time>2026-04-04T09:05:46.999Z</time></trkpt><trkpt lat="45.571593452791085" lon="12.259014212195973"><ele>5.333333333333333</ele><time>2026-04-04T09:05:47.999Z</time></trkpt><trkpt lat="45.57147388151704" lon="12.25916183785489"><ele>6.0</ele><time>2026-04-04T09:05:48.999Z</time></trkpt><trkpt lat="45.571350580664664" lon="12.259300059489957"><ele>6.0</ele><time>2026-04-04T09:05:49.999Z</time></trkpt><trkpt lat="45.57122165009082" lon="12.259433307471841"><ele>6.0</ele><time>2026-04-04T09:05:50.999Z</time></trkpt><trkpt lat="45.57109482702495" lon="12.25956044055419"><ele>6.0</ele><time>2026-04-04T09:05:51.999Z</time></trkpt><trkpt lat="45.57096361679301" lon="12.259683801353098"><ele>6.0</ele><time>2026-04-04T09:05:52.999Z</time></trkpt><trkpt lat="45.57083135622749" lon="12.259801502587809"><ele>6.0</ele><time>2026-04-04T09:05:53.999Z</time></trkpt><trkpt lat="45.57069524882367" lon="12.259919171567219"><ele>6.0</ele><time>2026-04-04T09:05:54.999Z</time></trkpt><trkpt lat="45.570559643563875" lon="12.26003264301523"><ele>6.0</ele><time>2026-04-04T09:05:55.999Z</time></trkpt><trkpt lat="45.570422864627744" lon="12.260147738467461"><ele>6.0</ele><time>2026-04-04T09:05:56.999Z</time></trkpt><trkpt lat="45.57028946047142" lon="12.260259239348771"><ele>6.0</ele><time>2026-04-04T09:05:57.999Z</time></trkpt><trkpt lat="45.5701505379766" lon="12.260376827636993"><ele>5.0</ele><time>2026-04-04T09:05:58.999Z</time></trkpt><trkpt lat="45.570020289854995" lon="12.26049732710232"><ele>4.0</ele><time>2026-04-04T09:05:59.999Z</time></trkpt><trkpt lat="45.5698893647737" lon="12.260620445450717"><ele>3.0</ele><time>2026-04-04T09:06:00.999Z</time></trkpt><trkpt lat="45.56975863815815" lon="12.260737917428079"><ele>3.0</ele><time>2026-04-04T09:06:01.999Z</time></trkpt><trkpt lat="45.56963537716158" lon="12.260842624439451"><ele>3.0</ele><time>2026-04-04T09:06:02.999Z</time></trkpt><trkpt lat="45.56952373324453" lon="12.260935612354853"><ele>3.0</ele><time>2026-04-04T09:06:03.999Z</time></trkpt><trkpt lat="45.569419391387" lon="12.261021112199234"><ele>3.0</ele><time>2026-04-04T09:06:04.999Z</time></trkpt><trkpt lat="45.56932025483027" lon="12.261099685425958"><ele>3.0</ele><time>2026-04-04T09:06:05.999Z</time></trkpt><trkpt lat="45.56922593347489" lon="12.261168390609475"><ele>3.0</ele><time>2026-04-04T09:06:06.999Z</time></trkpt><trkpt lat="45.56913710902035" lon="12.2612241341137"><ele>3.0</ele><time>2026-04-04T09:06:07.999Z</time></trkpt><trkpt lat="45.569058327158864" lon="12.26127113456599"><ele>3.0</ele><time>2026-04-04T09:06:08.999Z</time></trkpt><trkpt lat="45.568997705924076" lon="12.261304410212169"><ele>3.0</ele><time>2026-04-04T09:06:09.999Z</time></trkpt><trkpt lat="45.56891437741438" lon="12.261320624364767"><ele>3.0</ele><time>2026-04-04T09:06:12.999Z</time></trkpt><trkpt lat="45.568833897851164" lon="12.261305547854423"><ele>3.0</ele><time>2026-04-04T09:06:15Z</time></trkpt><trkpt lat="45.568762610339384" lon="12.26128891972541"><ele>3.0</ele><time>2026-04-04T09:06:16Z</time></trkpt><trkpt lat="45.56868016247397" lon="12.261278364100459"><ele>2.0</ele><time>2026-04-04T09:06:17Z</time></trkpt><trkpt lat="45.56859856186026" lon="12.261278324381228"><ele>2.0</ele><time>2026-04-04T09:06:18Z</time></trkpt><trkpt lat="45.568519820846994" lon="12.261293712590657"><ele>2.0</ele><time>2026-04-04T09:06:19Z</time></trkpt><trkpt lat="45.56844669199423" lon="12.261338888394468"><ele>2.0</ele><time>2026-04-04T09:06:20Z</time></trkpt></trkseg><trkseg><trkpt lat="45.82424004487666" lon="12.204051471222114"><ele>90.2</ele><time>2026-04-04T10:05:35Z</time></trkpt><trkpt lat="45.824316332863006" lon="12.204194288663235"><ele>90.4</ele><time>2026-04-04T10:05:37Z</time></trkpt><trkpt lat="45.82438171981509" lon="12.204255955081845"><ele>90.6</ele><time>2026-04-04T10:05:38Z</time></trkpt><trkpt lat="45.82444636314038" lon="12.20432463499233"><ele>90.8</ele><time>2026-04-04T10:05:39Z</time></trkpt><trkpt lat="45.82454544530804" lon="12.20445724163968"><ele>91.0</ele><time>2026-04-04T10:05:41Z</time></trkpt><trkpt lat="45.82462660790728" lon="12.2045735365813"><ele>91.0</ele><time>2026-04-04T10:05:43Z</time></trkpt><trkpt lat="45.82473404599778" lon="12.20452037927625"><ele>91.0</ele><time>2026-04-04T10:05:46Z</time></trkpt><trkpt lat="45.82476473678289" lon="12.20434740918639"><ele>91.0</ele><time>2026-04-04T10:05:48Z</time></trkpt><trkpt lat="45.82476923129235" lon="12.204235556210374"><ele>91.0</ele><time>2026-04-04T10:05:49Z</time></trkpt><trkpt lat="45.824768853131985" lon="12.204124365247479"><ele>91.0</ele><time>2026-04-04T10:05:50Z</time></trkpt><trkpt lat="45.82477748321054" lon="12.204034161771819"><ele>91.0</ele><time>2026-04-04T10:05:51Z</time></trkpt><trkpt lat="45.82479536131185" lon="12.203850043100898"><ele>91.0</ele><time>2026-04-04T10:05:53Z</time></trkpt><trkpt lat="45.82479768465953" lon="12.20375962291941"><ele>91.0</ele><time>2026-04-04T10:05:54Z</time></trkpt><trkpt lat="45.82480209292412" lon="12.203660674569836"><ele>91.0</ele><time>2026-04-04T10:05:55Z</time></trkpt><trkpt lat="45.82480052777746" lon="12.203562323493522"><ele>91.0</ele><time>2026-04-04T10:05:56Z</time></trkpt><trkpt lat="45.82480410116237" lon="12.203460316084398"><ele>91.0</ele><time>2026-04-04T10:05:57Z</time></trkpt><trkpt lat="45.82481380860093" lon="12.20333346515586"><ele>91.0</ele><time>2026-04-04T10:05:58Z</time></trkpt><trkpt lat="45.824817412746526" lon="12.203209437046882"><ele>91.0</ele><time>2026-04-04T10:05:59Z</time></trkpt><trkpt lat="45.824829341644396" lon="12.203103849778827"><ele>91.0</ele><time>2026-04-04T10:06:00Z</time></trkpt><trkpt lat="45.82485030543721" lon="12.203007447893993"><ele>91.0</ele><time>2026-04-04T10:06:01Z</time></trkpt><trkpt lat="45.824877431108895" lon="12.202909765883128"><ele>91.0</ele><time>2026-04-04T10:06:02Z</time></trkpt><trkpt lat="45.824920328006804" lon="12.202827144997357"><ele>91.0</ele><time>2026-04-04T10:06:03Z</time></trkpt><trkpt lat="45.82482973373284" lon="12.202590408177054"><ele>92.0</ele><time>2026-04-04T10:06:05Z</time></trkpt><trkpt lat="45.82479302934375" lon="12.202458921981151"><ele>93.0</ele><time>2026-04-04T10:06:06Z</time></trkpt><trkpt lat="45.82476756301887" lon="12.202302484948632"><ele>94.0</ele><time>2026-04-04T10:06:07Z</time></trkpt><trkpt lat="45.824736826990815" lon="12.202125361111236"><ele>95.0</ele><time>2026-04-04T10:06:08Z</time></trkpt><trkpt lat="45.82469677182995" lon="12.201957661813594"><ele>96.0</ele><time>2026-04-04T10:06:09Z</time></trkpt><trkpt lat="45.82465587334294" lon="12.201791734974682"><ele>97.0</ele><time>2026-04-04T10:06:10Z</time></trkpt><trkpt lat="45.82461175426461" lon="12.201605246028794"><ele>98.0</ele><time>2026-04-04T10:06:10.999Z</time></trkpt><trkpt lat="45.82453789553352" lon="12.201433502147431"><ele>99.0</ele><time>2026-04-04T10:06:11.999Z</time></trkpt><trkpt lat="45.8244782391666" lon="12.201265558851501"><ele>98.75</ele><time>2026-04-04T10:06:12.999Z</time></trkpt><trkpt lat="45.82441841356564" lon="12.201095322971323"><ele>98.5</ele><time>2026-04-04T10:06:13.999Z</time></trkpt><trkpt lat="45.8243500789765" lon="12.200942645010045"><ele>98.25</ele><time>2026-04-04T10:06:14.999Z</time></trkpt><trkpt lat="45.8242895681515" lon="12.200793455042586"><ele>98.0</ele><time>2026-04-04T10:06:15.999Z</time></trkpt><trkpt lat="45.82422711662935" lon="12.200640603922771"><ele>98.66666666666666</ele><time>2026-04-04T10:06:16.999Z</time></trkpt><trkpt lat="45.82416558674635" lon="12.200502227256402"><ele>99.33333333333333</ele><time>2026-04-04T10:06:17.999Z</time></trkpt><trkpt lat="45.82410916964348" lon="12.200388294902412"><ele>100.0</ele><time>2026-04-04T10:06:18.999Z</time></trkpt><trkpt lat="45.82406199332364" lon="12.200294167371657"><ele>100.66666666666666</ele><time>2026-04-04T10:06:19.999Z</time></trkpt><trkpt lat="45.82403720966996" lon="12.200196819451458"><ele>101.33333333333333</ele><time>2026-04-04T10:06:20.999Z</time></trkpt><trkpt lat="45.82400017666222" lon="12.200113129699725"><ele>102.0</ele><time>2026-04-04T10:06:21.999Z</time></trkpt><trkpt lat="45.82395258856435" lon="12.199983987047345"><ele>102.8</ele><time>2026-04-04T10:06:23.999Z</time></trkpt><trkpt lat="45.82408218240588" lon="12.199821366149811"><ele>103.6</ele><time>2026-04-04T10:06:25.999Z</time></trkpt><trkpt lat="45.82415836314234" lon="12.199754011933974"><ele>104.39999999999999</ele><time>2026-04-04T10:06:26.999Z</time></trkpt><trkpt lat="45.82424014340901" lon="12.199711801553045"><ele>105.19999999999999</ele><time>2026-04-04T10:06:27.999Z</time></trkpt><trkpt lat="45.8243239057078" lon="12.199653210970023"><ele>106.0</ele><time>2026-04-04T10:06:28.999Z</time></trkpt><trkpt lat="45.824400080655536" lon="12.199579626839578"><ele>106.5</ele><time>2026-04-04T10:06:29.999Z</time></trkpt><trkpt lat="45.824466209836245" lon="12.199462901606053"><ele>107.0</ele><time>2026-04-04T10:06:30.999Z</time></trkpt><trkpt lat="45.82451865190745" lon="12.199315948661127"><ele>107.5</ele><time>2026-04-04T10:06:31.999Z</time></trkpt><trkpt lat="45.824575418041206" lon="12.199155760044988"><ele>108.0</ele><time>2026-04-04T10:06:32.999Z</time></trkpt><trkpt lat="45.82465514630045" lon="12.199016079777865"><ele>109.25</ele><time>2026-04-04T10:06:33.999Z</time></trkpt><trkpt lat="45.82474939548568" lon="12.198889012185013"><ele>110.5</ele><time>2026-04-04T10:06:34.999Z</time></trkpt><trkpt lat="45.8248609058658" lon="12.198801257738145"><ele>111.75</ele><time>2026-04-04T10:06:35.999Z</time></trkpt><trkpt lat="45.82497781336311" lon="12.198725517214113"><ele>113.0</ele><time>2026-04-04T10:06:36.999Z</time></trkpt><trkpt lat="45.825089639212656" lon="12.198648411215885"><ele>114.5</ele><time>2026-04-04T10:06:37.999Z</time></trkpt><trkpt lat="45.82521307163957" lon="12.198569606993681"><ele>116.0</ele><time>2026-04-04T10:06:38.999Z</time></trkpt><trkpt lat="45.82533513724033" lon="12.198494027824992"><ele>117.5</ele><time>2026-04-04T10:06:39.999Z</time></trkpt><trkpt lat="45.82544862960264" lon="12.198416113337737"><ele>119.0</ele><time>2026-04-04T10:06:40.999Z</time></trkpt><trkpt lat="45.82555610341872" lon="12.198317025361595"><ele>119.0</ele><time>2026-04-04T10:06:41.999Z</time></trkpt><trkpt lat="45.825649281314575" lon="12.198201466617743"><ele>119.0</ele><time>2026-04-04T10:06:42.999Z</time></trkpt><trkpt lat="45.825728447770274" lon="12.1980732729338"><ele>119.0</ele><time>2026-04-04T10:06:43.999Z</time></trkpt><trkpt lat="45.82580730491771" lon="12.197934401172617"><ele>119.0</ele><time>2026-04-04T10:06:44.999Z</time></trkpt><trkpt lat="45.82589239866178" lon="12.197791390029165"><ele>123.25</ele><time>2026-04-04T10:06:45.999Z</time></trkpt><trkpt lat="45.82598189321242" lon="12.197633516670463"><ele>127.5</ele><time>2026-04-04T10:06:46.999Z</time></trkpt><trkpt lat="45.8260688537378" lon="12.197474635024738"><ele>131.75</ele><time>2026-04-04T10:06:47.999Z</time></trkpt><trkpt lat="45.82615417773559" lon="12.197316661499451"><ele>136.0</ele><time>2026-04-04T10:06:48.999Z</time></trkpt><trkpt lat="45.82624301627998" lon="12.19715333020672"><ele>136.0</ele><time>2026-04-04T10:06:49.999Z</time></trkpt><trkpt lat="45.826334408080264" lon="12.196991460680142"><ele>136.0</ele><time>2026-04-04T10:06:50.999Z</time></trkpt><trkpt lat="45.826423002254316" lon="12.196816045097865"><ele>136.0</ele><time>2026-04-04T10:06:51.999Z</time></trkpt><trkpt lat="45.82649945231239" lon="12.196634452998847"><ele>136.0</ele><time>2026-04-04T10:06:52.999Z</time></trkpt><trkpt lat="45.826560985835165" lon="12.196441675474642"><ele>136.5</ele><time>2026-04-04T10:06:53.999Z</time></trkpt><trkpt lat="45.82660774336635" lon="12.196246877470616"><ele>137.0</ele><time>2026-04-04T10:06:54.999Z</time></trkpt><trkpt lat="45.82664697071095" lon="12.196056365860278"><ele>137.5</ele><time>2026-04-04T10:06:55.999Z</time></trkpt><trkpt lat="45.82667623447884" lon="12.195858295814352"><ele>138.0</ele><time>2026-04-04T10:06:56.999Z</time></trkpt><trkpt lat="45.82669446646164" lon="12.19565653652765"><ele>140.0</ele><time>2026-04-04T10:06:57.999Z</time></trkpt><trkpt lat="45.826704490106884" lon="12.195446132820353"><ele>142.0</ele><time>2026-04-04T10:06:58.999Z</time></trkpt><trkpt lat="45.82670029157659" lon="12.195240809829105"><ele>144.0</ele><time>2026-04-04T10:06:59.999Z</time></trkpt><trkpt lat="45.826700329168794" lon="12.195023712159747"><ele>146.0</ele><time>2026-04-04T10:07:00.999Z</time></trkpt><trkpt lat="45.82670980283687" lon="12.194815345100732"><ele>146.5</ele><time>2026-04-04T10:07:01.999Z</time></trkpt><trkpt lat="45.82671763200486" lon="12.19460806817361"><ele>147.0</ele><time>2026-04-04T10:07:02.999Z</time></trkpt><trkpt lat="45.826723446289016" lon="12.194408526041055"><ele>147.5</ele><time>2026-04-04T10:07:03.999Z</time></trkpt><trkpt lat="45.82672766296779" lon="12.194231676767231"><ele>148.0</ele><time>2026-04-04T10:07:04.999Z</time></trkpt><trkpt lat="45.82673027119294" lon="12.194079603198812"><ele>147.6</ele><time>2026-04-04T10:07:05.999Z</time></trkpt><trkpt lat="45.8267197881354" lon="12.193945107423684"><ele>147.20000000000002</ele><time>2026-04-04T10:07:06.999Z</time></trkpt><trkpt lat="45.82668950927712" lon="12.193800397379666"><ele>146.8</ele><time>2026-04-04T10:07:07.999Z</time></trkpt><trkpt lat="45.82663104212793" lon="12.193665279860198"><ele>146.4</ele><time>2026-04-04T10:07:08.999Z</time></trkpt><trkpt lat="45.82654663245573" lon="12.193524619795161"><ele>146.0</ele><time>2026-04-04T10:07:09.999Z</time></trkpt><trkpt lat="45.826448004305824" lon="12.193406591309909"><ele>146.0</ele><time>2026-04-04T10:07:10.999Z</time></trkpt><trkpt lat="45.826332917810426" lon="12.193329302360938"><ele>146.0</ele><time>2026-04-04T10:07:11.999Z</time></trkpt><trkpt lat="45.82620316003226" lon="12.19327605898791"><ele>146.0</ele><time>2026-04-04T10:07:12.999Z</time></trkpt><trkpt lat="45.826061507544196" lon="12.193242911638224"><ele>146.0</ele><time>2026-04-04T10:07:13.999Z</time></trkpt><trkpt lat="45.82591858881834" lon="12.19316552159158"><ele>145.0</ele><time>2026-04-04T10:07:14.999Z</time></trkpt><trkpt lat="45.82576891956782" lon="12.193105100327621"><ele>144.0</ele><time>2026-04-04T10:07:15.999Z</time></trkpt><trkpt lat="45.825627951376156" lon="12.193044088503918"><ele>143.0</ele><time>2026-04-04T10:07:16.999Z</time></trkpt><trkpt lat="45.825502554724565" lon="12.192976702371643"><ele>142.0</ele><time>2026-04-04T10:07:17.999Z</time></trkpt><trkpt lat="45.82538995929355" lon="12.19288754716056"><ele>142.0</ele><time>2026-04-04T10:07:18.999Z</time></trkpt><trkpt lat="45.82528381447592" lon="12.192767282444857"><ele>142.0</ele><time>2026-04-04T10:07:19.999Z</time></trkpt><trkpt lat="45.82520343743485" lon="12.192621813616357"><ele>142.0</ele><time>2026-04-04T10:07:20.999Z</time></trkpt><trkpt lat="45.82513264014624" lon="12.192451291037552"><ele>142.0</ele><time>2026-04-04T10:07:22Z</time></trkpt><trkpt lat="45.82507215603178" lon="12.19226673597348"><ele>144.0</ele><time>2026-04-04T10:07:23Z</time></trkpt><trkpt lat="45.8250628689143" lon="12.192059495231497"><ele>146.0</ele><time>2026-04-04T10:07:24Z</time></trkpt><trkpt lat="45.82505910643242" lon="12.191846531761005"><ele>148.0</ele><time>2026-04-04T10:07:25Z</time></trkpt><trkpt lat="45.82504979135347" lon="12.191625935818633"><ele>150.0</ele><time>2026-04-04T10:07:26Z</time></trkpt><trkpt lat="45.82505782552664" lon="12.191394735458717"><ele>151.0</ele><time>2026-04-04T10:07:27Z</time></trkpt><trkpt lat="45.82506148265666" lon="12.19116459912938"><ele>152.0</ele><time>2026-04-04T10:07:28Z</time></trkpt><trkpt lat="45.82505891021283" lon="12.190937421962566"><ele>153.0</ele><time>2026-04-04T10:07:29Z</time></trkpt><trkpt lat="45.82505488171357" lon="12.190715176985895"><ele>152.66666666666666</ele><time>2026-04-04T10:07:30Z</time></trkpt><trkpt lat="45.825054256168585" lon="12.190490074332708"><ele>152.33333333333331</ele><time>2026-04-04T10:07:31Z</time></trkpt><trkpt lat="45.82506972230334" lon="12.190275409795099"><ele>152.0</ele><time>2026-04-04T10:07:32Z</time></trkpt><trkpt lat="45.825059006734456" lon="12.190054513862624"><ele>151.33333333333331</ele><time>2026-04-04T10:07:33Z</time></trkpt><trkpt lat="45.825061717477176" lon="12.189834250068849"><ele>150.66666666666666</ele><time>2026-04-04T10:07:34Z</time></trkpt><trkpt lat="45.82509887744059" lon="12.1896191997351"><ele>150.0</ele><time>2026-04-04T10:07:35Z</time></trkpt><trkpt lat="45.82514051940017" lon="12.18939552553446"><ele>150.66666666666666</ele><time>2026-04-04T10:07:36Z</time></trkpt><trkpt lat="45.82518541927655" lon="12.18915980909145"><ele>151.33333333333331</ele><time>2026-04-04T10:07:37Z</time></trkpt><trkpt lat="45.82524466697283" lon="12.188926374386812"><ele>152.0</ele><time>2026-04-04T10:07:38Z</time></trkpt><trkpt lat="45.82529679358043" lon="12.18869768501907"><ele>152.33333333333331</ele><time>2026-04-04T10:07:39Z</time></trkpt><trkpt lat="45.825346003641165" lon="12.188475554902515"><ele>152.66666666666666</ele><time>2026-04-04T10:07:40Z</time></trkpt><trkpt lat="45.825394765084084" lon="12.188253007941945"><ele>153.0</ele><time>2026-04-04T10:07:41Z</time></trkpt><trkpt lat="45.82544507009306" lon="12.188043502890492"><ele>153.0</ele><time>2026-04-04T10:07:42Z</time></trkpt><trkpt lat="45.82549644622015" lon="12.187838602857589"><ele>153.0</ele><time>2026-04-04T10:07:43Z</time></trkpt><trkpt lat="45.82553436533626" lon="12.1876493134124"><ele>153.0</ele><time>2026-04-04T10:07:44Z</time></trkpt><trkpt lat="45.82554807794452" lon="12.187443783541756"><ele>153.0</ele><time>2026-04-04T10:07:45Z</time></trkpt><trkpt lat="45.82557089126289" lon="12.187230319399283"><ele>153.0</ele><time>2026-04-04T10:07:46Z</time></trkpt><trkpt lat="45.82557749177398" lon="12.187015047984413"><ele>153.0</ele><time>2026-04-04T10:07:47Z</time></trkpt><trkpt lat="45.82557189714974" lon="12.186796328088626"><ele>153.0</ele><time>2026-04-04T10:07:48Z</time></trkpt><trkpt lat="45.825558063215304" lon="12.186571958140789"><ele>152.66666666666666</ele><time>2026-04-04T10:07:49Z</time></trkpt><trkpt lat="45.82552336224969" lon="12.186346456171607"><ele>152.33333333333331</ele><time>2026-04-04T10:07:50Z</time></trkpt><trkpt lat="45.82547554294649" lon="12.18612707605465"><ele>152.0</ele><time>2026-04-04T10:07:51Z</time></trkpt><trkpt lat="45.825417922027285" lon="12.185914850898273"><ele>152.0</ele><time>2026-04-04T10:07:51.999Z</time></trkpt><trkpt lat="45.82535616599342" lon="12.185694664464274"><ele>152.0</ele><time>2026-04-04T10:07:52.999Z</time></trkpt><trkpt lat="45.825292960125395" lon="12.185471222354906"><ele>152.0</ele><time>2026-04-04T10:07:53.999Z</time></trkpt><trkpt lat="45.82523571821859" lon="12.18523994969523"><ele>152.66666666666666</ele><time>2026-04-04T10:07:54.999Z</time></trkpt><trkpt lat="45.825191077223074" lon="12.185001432543626"><ele>153.33333333333334</ele><time>2026-04-04T10:07:55.999Z</time></trkpt><trkpt lat="45.82515712133036" lon="12.184762869402764"><ele>154.0</ele><time>2026-04-04T10:07:56.999Z</time></trkpt><trkpt lat="45.82513154667112" lon="12.184515575999686"><ele>154.33333333333334</ele><time>2026-04-04T10:07:57.999Z</time></trkpt><trkpt lat="45.825113060763535" lon="12.184273820968665"><ele>154.66666666666666</ele><time>2026-04-04T10:07:58.999Z</time></trkpt><trkpt lat="45.825118422825" lon="12.184027046289275"><ele>155.0</ele><time>2026-04-04T10:07:59.999Z</time></trkpt><trkpt lat="45.82511754408257" lon="12.183770068843444"><ele>155.0</ele><time>2026-04-04T10:08:00.999Z</time></trkpt><trkpt lat="45.825109199049486" lon="12.183516433367643"><ele>155.0</ele><time>2026-04-04T10:08:01.999Z</time></trkpt><trkpt lat="45.82511480505173" lon="12.183261372342763"><ele>155.0</ele><time>2026-04-04T10:08:02.999Z</time></trkpt><trkpt lat="45.825113627457256" lon="12.18299732782776"><ele>156.33333333333331</ele><time>2026-04-04T10:08:03.999Z</time></trkpt><trkpt lat="45.82511540879657" lon="12.18273398574941"><ele>157.66666666666666</ele><time>2026-04-04T10:08:04.999Z</time></trkpt><trkpt lat="45.82512346384757" lon="12.182488043577901"><ele>159.0</ele><time>2026-04-04T10:08:05.999Z</time></trkpt><trkpt lat="45.82513086471457" lon="12.18223639845559"><ele>160.66666666666666</ele><time>2026-04-04T10:08:06.999Z</time></trkpt><trkpt lat="45.82513078695289" lon="12.181983403884526"><ele>162.33333333333331</ele><time>2026-04-04T10:08:07.999Z</time></trkpt><trkpt lat="45.82512364021768" lon="12.181742951439182"><ele>164.0</ele><time>2026-04-04T10:08:08.999Z</time></trkpt><trkpt lat="45.82513025649037" lon="12.181509681471622"><ele>163.33333333333331</ele><time>2026-04-04T10:08:09.999Z</time></trkpt><trkpt lat="45.82515735667327" lon="12.181280119554302"><ele>162.66666666666666</ele><time>2026-04-04T10:08:10.999Z</time></trkpt><trkpt lat="45.825202410408444" lon="12.181056323962682"><ele>162.0</ele><time>2026-04-04T10:08:11.999Z</time></trkpt><trkpt lat="45.82525987140915" lon="12.180832029903362"><ele>164.66666666666666</ele><time>2026-04-04T10:08:12.999Z</time></trkpt><trkpt lat="45.82533289404262" lon="12.180613982033638"><ele>167.33333333333331</ele><time>2026-04-04T10:08:13.999Z</time></trkpt><trkpt lat="45.8254043284013" lon="12.180395770087665"><ele>170.0</ele><time>2026-04-04T10:08:14.999Z</time></trkpt><trkpt lat="45.82547469726449" lon="12.180170541576363"><ele>170.0</ele><time>2026-04-04T10:08:15.999Z</time></trkpt><trkpt lat="45.82553842162782" lon="12.179939864171635"><ele>170.0</ele><time>2026-04-04T10:08:16.999Z</time></trkpt><trkpt lat="45.82560293108554" lon="12.179703288651346"><ele>170.0</ele><time>2026-04-04T10:08:17.999Z</time></trkpt><trkpt lat="45.825670243593436" lon="12.179468734357707"><ele>172.66666666666666</ele><time>2026-04-04T10:08:18.999Z</time></trkpt><trkpt lat="45.825737206772715" lon="12.17923620507981"><ele>175.33333333333334</ele><time>2026-04-04T10:08:19.999Z</time></trkpt><trkpt lat="45.825802140514774" lon="12.179011117552205"><ele>178.0</ele><time>2026-04-04T10:08:20.999Z</time></trkpt><trkpt lat="45.825868778904265" lon="12.178803563279947"><ele>179.5</ele><time>2026-04-04T10:08:21.999Z</time></trkpt><trkpt lat="45.82606335479679" lon="12.1784771326885"><ele>181.0</ele><time>2026-04-04T10:08:23.999Z</time></trkpt><trkpt lat="45.826189786255654" lon="12.17833508194438"><ele>181.0</ele><time>2026-04-04T10:08:24.999Z</time></trkpt><trkpt lat="45.82631660012523" lon="12.178206595953675"><ele>181.0</ele><time>2026-04-04T10:08:25.999Z</time></trkpt><trkpt lat="45.82644471914133" lon="12.178081511848182"><ele>181.0</ele><time>2026-04-04T10:08:26.999Z</time></trkpt><trkpt lat="45.826563815794266" lon="12.17794676574766"><ele>182.25</ele><time>2026-04-04T10:08:27.999Z</time></trkpt><trkpt lat="45.826670970665134" lon="12.17782584544944"><ele>183.5</ele><time>2026-04-04T10:08:28.999Z</time></trkpt><trkpt lat="45.82677181974494" lon="12.177691091685857"><ele>184.75</ele><time>2026-04-04T10:08:29.999Z</time></trkpt><trkpt lat="45.8268623214408" lon="12.177534450229848"><ele>186.0</ele><time>2026-04-04T10:08:30.999Z</time></trkpt><trkpt lat="45.826921034095875" lon="12.177355404564608"><ele>185.5</ele><time>2026-04-04T10:08:31.999Z</time></trkpt><trkpt lat="45.826958815943385" lon="12.177178425902156"><ele>185.0</ele><time>2026-04-04T10:08:32.999Z</time></trkpt><trkpt lat="45.82697391186179" lon="12.176997564701216"><ele>184.5</ele><time>2026-04-04T10:08:33.999Z</time></trkpt><trkpt lat="45.82697194798764" lon="12.176804683040315"><ele>184.0</ele><time>2026-04-04T10:08:34.999Z</time></trkpt><trkpt lat="45.826954309338234" lon="12.176596551576779"><ele>182.33333333333334</ele><time>2026-04-04T10:08:35.999Z</time></trkpt><trkpt lat="45.82693597997809" lon="12.176374845084055"><ele>180.66666666666666</ele><time>2026-04-04T10:08:36.999Z</time></trkpt><trkpt lat="45.82692000648689" lon="12.176131860484851"><ele>179.0</ele><time>2026-04-04T10:08:37.999Z</time></trkpt><trkpt lat="45.82690695636981" lon="12.175891010646607"><ele>179.33333333333331</ele><time>2026-04-04T10:08:38.999Z</time></trkpt><trkpt lat="45.82689077285445" lon="12.175660116525243"><ele>179.66666666666666</ele><time>2026-04-04T10:08:39.999Z</time></trkpt><trkpt lat="45.82687216830038" lon="12.175447594383757"><ele>180.0</ele><time>2026-04-04T10:08:40.999Z</time></trkpt><trkpt lat="45.8268582487158" lon="12.17523703926391"><ele>180.0</ele><time>2026-04-04T10:08:41.999Z</time></trkpt><trkpt lat="45.82685017691647" lon="12.175031848667443"><ele>180.0</ele><time>2026-04-04T10:08:42.999Z</time></trkpt><trkpt lat="45.8268723505958" lon="12.174838634702024"><ele>180.0</ele><time>2026-04-04T10:08:43.999Z</time></trkpt><trkpt lat="45.82688528090136" lon="12.17465228327393"><ele>180.0</ele><time>2026-04-04T10:08:44.999Z</time></trkpt><trkpt lat="45.826932705413" lon="12.17448224777513"><ele>181.0</ele><time>2026-04-04T10:08:45.999Z</time></trkpt><trkpt lat="45.82708072503597" lon="12.17417364181262"><ele>182.0</ele><time>2026-04-04T10:08:47.999Z</time></trkpt><trkpt lat="45.827190840435954" lon="12.174036599431929"><ele>183.0</ele><time>2026-04-04T10:08:48.999Z</time></trkpt><trkpt lat="45.82731144249664" lon="12.17390684865759"><ele>184.66666666666666</ele><time>2026-04-04T10:08:49.999Z</time></trkpt><trkpt lat="45.82745097520576" lon="12.17378731712147"><ele>186.33333333333331</ele><time>2026-04-04T10:08:50.999Z</time></trkpt><trkpt lat="45.82759142709132" lon="12.173664928536594"><ele>188.0</ele><time>2026-04-04T10:08:51.999Z</time></trkpt><trkpt lat="45.82773561995889" lon="12.173516585756134"><ele>185.66666666666666</ele><time>2026-04-04T10:08:52.999Z</time></trkpt><trkpt lat="45.82787136903436" lon="12.173373091317565"><ele>183.33333333333334</ele><time>2026-04-04T10:08:53.999Z</time></trkpt><trkpt lat="45.827985287669755" lon="12.173235662505922"><ele>181.0</ele><time>2026-04-04T10:08:54.999Z</time></trkpt><trkpt lat="45.8280918507896" lon="12.17307583493199"><ele>181.0</ele><time>2026-04-04T10:08:55.999Z</time></trkpt><trkpt lat="45.82818513034367" lon="12.172894420533689"><ele>181.0</ele><time>2026-04-04T10:08:56.999Z</time></trkpt><trkpt lat="45.82825763270073" lon="12.172699116804017"><ele>181.0</ele><time>2026-04-04T10:08:57.999Z</time></trkpt><trkpt lat="45.828306321042895" lon="12.172479337521906"><ele>180.33333333333334</ele><time>2026-04-04T10:08:58.999Z</time></trkpt><trkpt lat="45.828341336605746" lon="12.17224154403614"><ele>179.66666666666666</ele><time>2026-04-04T10:08:59.999Z</time></trkpt><trkpt lat="45.828365911079025" lon="12.171992830760054"><ele>179.0</ele><time>2026-04-04T10:09:00.999Z</time></trkpt><trkpt lat="45.828378892966114" lon="12.171720308098443"><ele>179.33333333333331</ele><time>2026-04-04T10:09:01.999Z</time></trkpt><trkpt lat="45.82840460707673" lon="12.171428859646086"><ele>179.66666666666666</ele><time>2026-04-04T10:09:02.999Z</time></trkpt><trkpt lat="45.82842972218026" lon="12.171121033247863"><ele>180.0</ele><time>2026-04-04T10:09:03.999Z</time></trkpt><trkpt lat="45.82845429767799" lon="12.170840281998942"><ele>180.33333333333334</ele><time>2026-04-04T10:09:04.999Z</time></trkpt><trkpt lat="45.82847976468516" lon="12.170560356449021"><ele>180.66666666666669</ele><time>2026-04-04T10:09:05.999Z</time></trkpt><trkpt lat="45.82850273131206" lon="12.170291260302934"><ele>181.0</ele><time>2026-04-04T10:09:06.999Z</time></trkpt><trkpt lat="45.828518230807894" lon="12.170028279692318"><ele>182.0</ele><time>2026-04-04T10:09:07.999Z</time></trkpt><trkpt lat="45.828537755648334" lon="12.169765598909224"><ele>183.0</ele><time>2026-04-04T10:09:08.999Z</time></trkpt><trkpt lat="45.828560195310075" lon="12.169503784649578"><ele>184.0</ele><time>2026-04-04T10:09:09.999Z</time></trkpt><trkpt lat="45.8285827814405" lon="12.169253008222277"><ele>184.66666666666669</ele><time>2026-04-04T10:09:10.999Z</time></trkpt><trkpt lat="45.82860285254958" lon="12.169006174691654"><ele>185.33333333333334</ele><time>2026-04-04T10:09:11.999Z</time></trkpt><trkpt lat="45.828611475483854" lon="12.168763711886777"><ele>186.0</ele><time>2026-04-04T10:09:12.999Z</time></trkpt><trkpt lat="45.82860733551432" lon="12.16854008473972"><ele>186.0</ele><time>2026-04-04T10:09:13.999Z</time></trkpt><trkpt lat="45.82858143828778" lon="12.168353242361817"><ele>186.0</ele><time>2026-04-04T10:09:14.999Z</time></trkpt><trkpt lat="45.828543679448394" lon="12.168160689390984"><ele>186.0</ele><time>2026-04-04T10:09:15.999Z</time></trkpt><trkpt lat="45.82850778422122" lon="12.167964508517422"><ele>186.0</ele><time>2026-04-04T10:09:16.999Z</time></trkpt><trkpt lat="45.828428625278015" lon="12.167783795711257"><ele>185.5</ele><time>2026-04-04T10:09:17.999Z</time></trkpt><trkpt lat="45.82835103320154" lon="12.167628870089889"><ele>185.0</ele><time>2026-04-04T10:09:18.999Z</time></trkpt><trkpt lat="45.82826221337876" lon="12.167472714143674"><ele>184.5</ele><time>2026-04-04T10:09:19.999Z</time></trkpt><trkpt lat="45.82816081148185" lon="12.167322149368998"><ele>184.0</ele><time>2026-04-04T10:09:20.999Z</time></trkpt><trkpt lat="45.828056012909336" lon="12.167175113449254"><ele>183.33333333333334</ele><time>2026-04-04T10:09:21.999Z</time></trkpt><trkpt lat="45.827963221475684" lon="12.167006506330397"><ele>182.66666666666666</ele><time>2026-04-04T10:09:22.999Z</time></trkpt><trkpt lat="45.827854396155814" lon="12.166845209789724"><ele>182.0</ele><time>2026-04-04T10:09:23.999Z</time></trkpt><trkpt lat="45.82773052375837" lon="12.16669588108986"><ele>181.33333333333331</ele><time>2026-04-04T10:09:24.999Z</time></trkpt><trkpt lat="45.82762574885557" lon="12.166507415794893"><ele>180.66666666666666</ele><time>2026-04-04T10:09:25.999Z</time></trkpt><trkpt lat="45.827502665316516" lon="12.166333372777721"><ele>180.0</ele><time>2026-04-04T10:09:26.999Z</time></trkpt><trkpt lat="45.82738080259518" lon="12.166151494588684"><ele>180.0</ele><time>2026-04-04T10:09:27.999Z</time></trkpt><trkpt lat="45.82727394107758" lon="12.16594775215865"><ele>180.0</ele><time>2026-04-04T10:09:28.999Z</time></trkpt><trkpt lat="45.82716849853589" lon="12.16573142898048"><ele>180.0</ele><time>2026-04-04T10:09:29.999Z</time></trkpt><trkpt lat="45.82706630370626" lon="12.165508819609084"><ele>180.66666666666666</ele><time>2026-04-04T10:09:30.999Z</time></trkpt><trkpt lat="45.82696064830219" lon="12.165283369571485"><ele>181.33333333333331</ele><time>2026-04-04T10:09:31.999Z</time></trkpt><trkpt lat="45.826854853413394" lon="12.165057645631638"><ele>182.0</ele><time>2026-04-04T10:09:32.999Z</time></trkpt><trkpt lat="45.82674723070571" lon="12.164837565558274"><ele>182.0</ele><time>2026-04-04T10:09:33.999Z</time></trkpt><trkpt lat="45.826640356036364" lon="12.164616546858241"><ele>182.0</ele><time>2026-04-04T10:09:35Z</time></trkpt><trkpt lat="45.82653775735209" lon="12.164406407526704"><ele>182.0</ele><time>2026-04-04T10:09:36Z</time></trkpt><trkpt lat="45.82643684510584" lon="12.16420917252104"><ele>181.5</ele><time>2026-04-04T10:09:37Z</time></trkpt><trkpt lat="45.82634795986223" lon="12.16401587481785"><ele>181.0</ele><time>2026-04-04T10:09:38Z</time></trkpt><trkpt lat="45.82628388646778" lon="12.163841150947652"><ele>180.5</ele><time>2026-04-04T10:09:39Z</time></trkpt><trkpt lat="45.82624624882524" lon="12.163675232258965"><ele>180.0</ele><time>2026-04-04T10:09:40Z</time></trkpt><trkpt lat="45.826234849253666" lon="12.163517102397671"><ele>180.0</ele><time>2026-04-04T10:09:41Z</time></trkpt><trkpt lat="45.82626945674834" lon="12.163357868182523"><ele>180.0</ele><time>2026-04-04T10:09:42Z</time></trkpt><trkpt lat="45.82630169744531" lon="12.163192012388519"><ele>180.0</ele><time>2026-04-04T10:09:43Z</time></trkpt><trkpt lat="45.82637784090739" lon="12.163045542243719"><ele>180.0</ele><time>2026-04-04T10:09:44Z</time></trkpt><trkpt lat="45.826462393867686" lon="12.162911361804241"><ele>179.66666666666666</ele><time>2026-04-04T10:09:45Z</time></trkpt><trkpt lat="45.82653267298846" lon="12.162757104118281"><ele>179.33333333333331</ele><time>2026-04-04T10:09:46Z</time></trkpt><trkpt lat="45.826724085369456" lon="12.162715164610326"><ele>179.0</ele><time>2026-04-04T10:09:47Z</time></trkpt><trkpt lat="45.826846368516065" lon="12.162596454481479"><ele>179.0</ele><time>2026-04-04T10:09:48Z</time></trkpt><trkpt lat="45.826957094233286" lon="12.162472499455157"><ele>179.0</ele><time>2026-04-04T10:09:49Z</time></trkpt><trkpt lat="45.82704957065213" lon="12.162338711989362"><ele>179.0</ele><time>2026-04-04T10:09:50Z</time></trkpt><trkpt lat="45.827134979216794" lon="12.162183192667918"><ele>179.0</ele><time>2026-04-04T10:09:51Z</time></trkpt><trkpt lat="45.82720794669396" lon="12.162003055406892"><ele>180.66666666666666</ele><time>2026-04-04T10:09:52Z</time></trkpt><trkpt lat="45.82726379795673" lon="12.161799137725511"><ele>182.33333333333334</ele><time>2026-04-04T10:09:53Z</time></trkpt><trkpt lat="45.82730059823759" lon="12.161592255695382"><ele>184.0</ele><time>2026-04-04T10:09:54Z</time></trkpt><trkpt lat="45.82732265796926" lon="12.161381125057941"><ele>185.25</ele><time>2026-04-04T10:09:55Z</time></trkpt><trkpt lat="45.827331956056" lon="12.161166353779052"><ele>186.5</ele><time>2026-04-04T10:09:56Z</time></trkpt><trkpt lat="45.82734744994033" lon="12.16096982054649"><ele>187.75</ele><time>2026-04-04T10:09:57Z</time></trkpt><trkpt lat="45.82736352702371" lon="12.160793973491685"><ele>189.0</ele><time>2026-04-04T10:09:58Z</time></trkpt><trkpt lat="45.82738191460678" lon="12.160626533328704"><ele>189.39999999999998</ele><time>2026-04-04T10:09:59Z</time></trkpt><trkpt lat="45.827387564855236" lon="12.16047807613846"><ele>189.8</ele><time>2026-04-04T10:10:00Z</time></trkpt><trkpt lat="45.827370469687914" lon="12.160339365024717"><ele>190.2</ele><time>2026-04-04T10:10:01Z</time></trkpt><trkpt lat="45.82732011081112" lon="12.16022256367169"><ele>190.60000000000002</ele><time>2026-04-04T10:10:02Z</time></trkpt><trkpt lat="45.827248639704784" lon="12.160129091990864"><ele>191.0</ele><time>2026-04-04T10:10:03Z</time></trkpt><trkpt lat="45.82715545013636" lon="12.160043598124304"><ele>191.0</ele><time>2026-04-04T10:10:04Z</time></trkpt><trkpt lat="45.82706493726644" lon="12.159936505667561"><ele>191.0</ele><time>2026-04-04T10:10:04.999Z</time></trkpt><trkpt lat="45.826974283731666" lon="12.15983683442475"><ele>191.0</ele><time>2026-04-04T10:10:05.999Z</time></trkpt><trkpt lat="45.82687287251431" lon="12.159764055796389"><ele>191.0</ele><time>2026-04-04T10:10:06.999Z</time></trkpt><trkpt lat="45.82675522892537" lon="12.15971130195704"><ele>189.5</ele><time>2026-04-04T10:10:07.999Z</time></trkpt><trkpt lat="45.82663421018267" lon="12.159695343593144"><ele>188.0</ele><time>2026-04-04T10:10:08.999Z</time></trkpt><trkpt lat="45.82651636649719" lon="12.159704073587006"><ele>186.5</ele><time>2026-04-04T10:10:09.999Z</time></trkpt><trkpt lat="45.826410399130936" lon="12.159748024154752"><ele>185.0</ele><time>2026-04-04T10:10:10.999Z</time></trkpt><trkpt lat="45.82631905023349" lon="12.159843695326344"><ele>184.6</ele><time>2026-04-04T10:10:11.999Z</time></trkpt><trkpt lat="45.826241887732856" lon="12.159958417846424"><ele>184.2</ele><time>2026-04-04T10:10:12.999Z</time></trkpt><trkpt lat="45.826165920882026" lon="12.160043513370534"><ele>183.8</ele><time>2026-04-04T10:10:13.999Z</time></trkpt><trkpt lat="45.82607067635149" lon="12.160094935438089"><ele>183.4</ele><time>2026-04-04T10:10:14.999Z</time></trkpt><trkpt lat="45.825977928701576" lon="12.160105266754536"><ele>183.0</ele><time>2026-04-04T10:10:15.999Z</time></trkpt><trkpt lat="45.82589706644972" lon="12.1600698212746"><ele>183.0</ele><time>2026-04-04T10:10:16.999Z</time></trkpt><trkpt lat="45.82581794390354" lon="12.160000485601026"><ele>183.0</ele><time>2026-04-04T10:10:17.999Z</time></trkpt><trkpt lat="45.82574656583084" lon="12.159905074409405"><ele>183.0</ele><time>2026-04-04T10:10:18.999Z</time></trkpt><trkpt lat="45.82566748978852" lon="12.159848293088082"><ele>183.0</ele><time>2026-04-04T10:10:19.999Z</time></trkpt><trkpt lat="45.82557432419195" lon="12.159842963685374"><ele>183.0</ele><time>2026-04-04T10:10:20.999Z</time></trkpt><trkpt lat="45.8254737707708" lon="12.159880017092307"><ele>183.0</ele><time>2026-04-04T10:10:21.999Z</time></trkpt><trkpt lat="45.825364016530074" lon="12.159936615704177"><ele>183.0</ele><time>2026-04-04T10:10:22.999Z</time></trkpt><trkpt lat="45.82525397557407" lon="12.159985252256886"><ele>183.0</ele><time>2026-04-04T10:10:23.999Z</time></trkpt><trkpt lat="45.825136967804085" lon="12.160006783150054"><ele>183.0</ele><time>2026-04-04T10:10:24.999Z</time></trkpt><trkpt lat="45.82500601732026" lon="12.159988047546644"><ele>184.0</ele><time>2026-04-04T10:10:25.999Z</time></trkpt><trkpt lat="45.82487574978285" lon="12.159930043131418"><ele>185.0</ele><time>2026-04-04T10:10:26.999Z</time></trkpt><trkpt lat="45.82475566508856" lon="12.159837725187431"><ele>186.0</ele><time>2026-04-04T10:10:27.999Z</time></trkpt><trkpt lat="45.824663405421646" lon="12.15973950881188"><ele>187.0</ele><time>2026-04-04T10:10:28.999Z</time></trkpt><trkpt lat="45.824582429710084" lon="12.159639700400966"><ele>185.39999999999998</ele><time>2026-04-04T10:10:29.999Z</time></trkpt><trkpt lat="45.824527256533976" lon="12.159529597038944"><ele>183.79999999999998</ele><time>2026-04-04T10:10:30.999Z</time></trkpt><trkpt lat="45.824490926928576" lon="12.159407950365061"><ele>182.2</ele><time>2026-04-04T10:10:31.999Z</time></trkpt><trkpt lat="45.82446416223489" lon="12.15928551107695"><ele>180.6</ele><time>2026-04-04T10:10:32.999Z</time></trkpt><trkpt lat="45.824416442992835" lon="12.1591889925208"><ele>179.0</ele><time>2026-04-04T10:10:33.999Z</time></trkpt><trkpt lat="45.82433889692274" lon="12.15911106560681"><ele>179.2</ele><time>2026-04-04T10:10:34.999Z</time></trkpt><trkpt lat="45.82425672911274" lon="12.159039248613698"><ele>179.39999999999998</ele><time>2026-04-04T10:10:35.999Z</time></trkpt><trkpt lat="45.824169309593614" lon="12.158946776992657"><ele>179.6</ele><time>2026-04-04T10:10:36.999Z</time></trkpt><trkpt lat="45.8240944322697" lon="12.158827915882545"><ele>179.8</ele><time>2026-04-04T10:10:37.999Z</time></trkpt><trkpt lat="45.82403566302012" lon="12.158707248249899"><ele>180.0</ele><time>2026-04-04T10:10:38.999Z</time></trkpt><trkpt lat="45.823978803910556" lon="12.158602826420502"><ele>180.0</ele><time>2026-04-04T10:10:39.999Z</time></trkpt><trkpt lat="45.823894889173474" lon="12.15852355308457"><ele>180.0</ele><time>2026-04-04T10:10:40.999Z</time></trkpt><trkpt lat="45.82379265373602" lon="12.158493482771247"><ele>180.0</ele><time>2026-04-04T10:10:41.999Z</time></trkpt><trkpt lat="45.82369053710199" lon="12.158500413182718"><ele>180.0</ele><time>2026-04-04T10:10:42.999Z</time></trkpt><trkpt lat="45.8235882597314" lon="12.158564628564967"><ele>180.0</ele><time>2026-04-04T10:10:43.999Z</time></trkpt><trkpt lat="45.82348836733439" lon="12.158633309469714"><ele>181.5</ele><time>2026-04-04T10:10:44.999Z</time></trkpt><trkpt lat="45.82339057624285" lon="12.158702028783104"><ele>183.0</ele><time>2026-04-04T10:10:45.999Z</time></trkpt><trkpt lat="45.82327942187311" lon="12.15875777433677"><ele>184.5</ele><time>2026-04-04T10:10:46.999Z</time></trkpt><trkpt lat="45.823154400845894" lon="12.158771744580369"><ele>186.0</ele><time>2026-04-04T10:10:47.999Z</time></trkpt><trkpt lat="45.82302671162604" lon="12.158742481143221"><ele>186.0</ele><time>2026-04-04T10:10:48.999Z</time></trkpt><trkpt lat="45.822898468946256" lon="12.158689081550065"><ele>186.0</ele><time>2026-04-04T10:10:49.999Z</time></trkpt><trkpt lat="45.82278075093297" lon="12.158620038812531"><ele>186.0</ele><time>2026-04-04T10:10:50.999Z</time></trkpt><trkpt lat="45.822650883246155" lon="12.158567878583566"><ele>186.0</ele><time>2026-04-04T10:10:51.999Z</time></trkpt><trkpt lat="45.82250579166595" lon="12.158554136370126"><ele>187.25</ele><time>2026-04-04T10:10:52.999Z</time></trkpt><trkpt lat="45.822357437370776" lon="12.158563215799235"><ele>188.5</ele><time>2026-04-04T10:10:53.999Z</time></trkpt><trkpt lat="45.82220637118056" lon="12.15858998083476"><ele>189.75</ele><time>2026-04-04T10:10:54.999Z</time></trkpt><trkpt lat="45.82206928788317" lon="12.15860239788592"><ele>191.0</ele><time>2026-04-04T10:10:55.999Z</time></trkpt><trkpt lat="45.82194978005558" lon="12.158609983541766"><ele>191.0</ele><time>2026-04-04T10:10:56.999Z</time></trkpt><trkpt lat="45.82185325900024" lon="12.158606233287092"><ele>191.0</ele><time>2026-04-04T10:10:57.999Z</time></trkpt><trkpt lat="45.82178184646289" lon="12.158568150996054"><ele>191.0</ele><time>2026-04-04T10:10:58.999Z</time></trkpt><trkpt lat="45.821729307126475" lon="12.158491793115166"><ele>191.0</ele><time>2026-04-04T10:10:59.999Z</time></trkpt><trkpt lat="45.821694248265125" lon="12.15839982967732"><ele>191.0</ele><time>2026-04-04T10:11:00.999Z</time></trkpt><trkpt lat="45.82167574113524" lon="12.158282648929204"><ele>191.0</ele><time>2026-04-04T10:11:01.999Z</time></trkpt><trkpt lat="45.82167232556584" lon="12.158141574502764"><ele>192.25</ele><time>2026-04-04T10:11:02.999Z</time></trkpt><trkpt lat="45.82163244246998" lon="12.158017649037873"><ele>193.5</ele><time>2026-04-04T10:11:03.999Z</time></trkpt><trkpt lat="45.82163109500433" lon="12.157832627947391"><ele>194.75</ele><time>2026-04-04T10:11:04.999Z</time></trkpt><trkpt lat="45.82161637316432" lon="12.157644859379921"><ele>196.0</ele><time>2026-04-04T10:11:05.999Z</time></trkpt><trkpt lat="45.82157591990492" lon="12.157472830973248"><ele>194.5</ele><time>2026-04-04T10:11:06.999Z</time></trkpt><trkpt lat="45.82151457281646" lon="12.157338940761809"><ele>193.0</ele><time>2026-04-04T10:11:07.999Z</time></trkpt><trkpt lat="45.82142382068619" lon="12.157219687213253"><ele>191.5</ele><time>2026-04-04T10:11:08.999Z</time></trkpt><trkpt lat="45.821314066641634" lon="12.157143719782278"><ele>190.0</ele><time>2026-04-04T10:11:09.999Z</time></trkpt><trkpt lat="45.821182444520446" lon="12.157103824589823"><ele>190.0</ele><time>2026-04-04T10:11:10.999Z</time></trkpt><trkpt lat="45.82104140366957" lon="12.157094795761319"><ele>190.0</ele><time>2026-04-04T10:11:11.999Z</time></trkpt><trkpt lat="45.820908859760124" lon="12.157075869620444"><ele>190.0</ele><time>2026-04-04T10:11:12.999Z</time></trkpt><trkpt lat="45.82079219753475" lon="12.157039164430403"><ele>190.0</ele><time>2026-04-04T10:11:13.999Z</time></trkpt><trkpt lat="45.82068002556989" lon="12.156971120802325"><ele>190.0</ele><time>2026-04-04T10:11:14.999Z</time></trkpt><trkpt lat="45.82057573542561" lon="12.156846746078418"><ele>190.0</ele><time>2026-04-04T10:11:15.999Z</time></trkpt><trkpt lat="45.82048084145666" lon="12.156688242628528"><ele>190.0</ele><time>2026-04-04T10:11:16.999Z</time></trkpt><trkpt lat="45.820406696424506" lon="12.156505366383387"><ele>190.0</ele><time>2026-04-04T10:11:17.999Z</time></trkpt><trkpt lat="45.820335812242185" lon="12.156344926481289"><ele>190.0</ele><time>2026-04-04T10:11:18.999Z</time></trkpt><trkpt lat="45.82025262716314" lon="12.15620691303932"><ele>190.0</ele><time>2026-04-04T10:11:20Z</time></trkpt><trkpt lat="45.82015849798124" lon="12.156093853644522"><ele>190.0</ele><time>2026-04-04T10:11:21Z</time></trkpt><trkpt lat="45.82006670374602" lon="12.156008395083086"><ele>190.0</ele><time>2026-04-04T10:11:22Z</time></trkpt><trkpt lat="45.819981227290285" lon="12.155934416933793"><ele>192.0</ele><time>2026-04-04T10:11:23Z</time></trkpt><trkpt lat="45.819898103331695" lon="12.155878010101036"><ele>194.0</ele><time>2026-04-04T10:11:24Z</time></trkpt><trkpt lat="45.819802268951754" lon="12.15588263255979"><ele>196.0</ele><time>2026-04-04T10:11:25Z</time></trkpt><trkpt lat="45.81970333621442" lon="12.155926714279113"><ele>198.0</ele><time>2026-04-04T10:11:26Z</time></trkpt><trkpt lat="45.819610106873775" lon="12.15601180244692"><ele>200.0</ele><time>2026-04-04T10:11:27Z</time></trkpt><trkpt lat="45.81952546158386" lon="12.156143977693185"><ele>200.0</ele><time>2026-04-04T10:11:28Z</time></trkpt><trkpt lat="45.819450047314994" lon="12.15631639486325"><ele>200.0</ele><time>2026-04-04T10:11:29Z</time></trkpt><trkpt lat="45.81937834292177" lon="12.156508421613855"><ele>200.0</ele><time>2026-04-04T10:11:30Z</time></trkpt><trkpt lat="45.81929619384465" lon="12.15669068289405"><ele>200.0</ele><time>2026-04-04T10:11:31Z</time></trkpt><trkpt lat="45.819212273642016" lon="12.156822367467582"><ele>199.4</ele><time>2026-04-04T10:11:32Z</time></trkpt><trkpt lat="45.81912971254329" lon="12.15689086803745"><ele>198.8</ele><time>2026-04-04T10:11:33Z</time></trkpt><trkpt lat="45.81904194342272" lon="12.156907633739445"><ele>198.2</ele><time>2026-04-04T10:11:34Z</time></trkpt><trkpt lat="45.818948500819154" lon="12.156876535982557"><ele>197.6</ele><time>2026-04-04T10:11:35Z</time></trkpt><trkpt lat="45.81885008686125" lon="12.156803148790967"><ele>197.0</ele><time>2026-04-04T10:11:36Z</time></trkpt><trkpt lat="45.81876439145975" lon="12.156628762307978"><ele>197.5</ele><time>2026-04-04T10:11:37Z</time></trkpt><trkpt lat="45.818692936936934" lon="12.156478333360642"><ele>198.0</ele><time>2026-04-04T10:11:38Z</time></trkpt><trkpt lat="45.818619007042514" lon="12.156315182600114"><ele>198.5</ele><time>2026-04-04T10:11:39Z</time></trkpt><trkpt lat="45.8185268262288" lon="12.156159347076565"><ele>199.0</ele><time>2026-04-04T10:11:40Z</time></trkpt><trkpt lat="45.81840759041003" lon="12.15601665435014"><ele>196.0</ele><time>2026-04-04T10:11:41Z</time></trkpt><trkpt lat="45.8182690467291" lon="12.155895553095327"><ele>193.0</ele><time>2026-04-04T10:11:42Z</time></trkpt><trkpt lat="45.81811958880727" lon="12.155803406207692"><ele>190.0</ele><time>2026-04-04T10:11:43Z</time></trkpt><trkpt lat="45.81796159495996" lon="12.155735156580683"><ele>191.25</ele><time>2026-04-04T10:11:44Z</time></trkpt><trkpt lat="45.817818976341805" lon="12.15564897456519"><ele>192.5</ele><time>2026-04-04T10:11:45Z</time></trkpt><trkpt lat="45.81770708053359" lon="12.155550075556553"><ele>193.75</ele><time>2026-04-04T10:11:46Z</time></trkpt><trkpt lat="45.81762172880582" lon="12.155426534677808"><ele>195.0</ele><time>2026-04-04T10:11:47Z</time></trkpt><trkpt lat="45.81755814465609" lon="12.155268140840782"><ele>195.25</ele><time>2026-04-04T10:11:48Z</time></trkpt><trkpt lat="45.817499361711604" lon="12.155085762196215"><ele>195.5</ele><time>2026-04-04T10:11:49Z</time></trkpt><trkpt lat="45.81743581948651" lon="12.154904245297239"><ele>195.75</ele><time>2026-04-04T10:11:50Z</time></trkpt><trkpt lat="45.81737622244609" lon="12.154713877334595"><ele>196.0</ele><time>2026-04-04T10:11:51Z</time></trkpt><trkpt lat="45.81733688783687" lon="12.15451132813737"><ele>196.33333333333331</ele><time>2026-04-04T10:11:52Z</time></trkpt><trkpt lat="45.817326248969756" lon="12.154290678280947"><ele>196.66666666666669</ele><time>2026-04-04T10:11:53Z</time></trkpt><trkpt lat="45.81732380028482" lon="12.154058413864712"><ele>197.0</ele><time>2026-04-04T10:11:54Z</time></trkpt><trkpt lat="45.817326505699185" lon="12.15384445915028"><ele>197.0</ele><time>2026-04-04T10:11:55Z</time></trkpt><trkpt lat="45.81732167255208" lon="12.15364635501903"><ele>197.0</ele><time>2026-04-04T10:11:56Z</time></trkpt><trkpt lat="45.81730573167599" lon="12.15347312018044"><ele>197.0</ele><time>2026-04-04T10:11:57Z</time></trkpt><trkpt lat="45.817278647562986" lon="12.153315068241847"><ele>197.0</ele><time>2026-04-04T10:11:58Z</time></trkpt><trkpt lat="45.81722998491694" lon="12.153189511666627"><ele>197.0</ele><time>2026-04-04T10:11:59Z</time></trkpt><trkpt lat="45.81715409639296" lon="12.15309146869133"><ele>197.0</ele><time>2026-04-04T10:12:00Z</time></trkpt><trkpt lat="45.81706297558964" lon="12.153000362611564"><ele>197.0</ele><time>2026-04-04T10:12:01Z</time></trkpt><trkpt lat="45.817001107439495" lon="12.152886575245992"><ele>197.0</ele><time>2026-04-04T10:12:02Z</time></trkpt><trkpt lat="45.816976723266606" lon="12.152737149933232"><ele>197.0</ele><time>2026-04-04T10:12:03Z</time></trkpt><trkpt lat="45.81697633158279" lon="12.152568222838685"><ele>197.0</ele><time>2026-04-04T10:12:04Z</time></trkpt><trkpt lat="45.816978567298555" lon="12.152377575661554"><ele>197.0</ele><time>2026-04-04T10:12:05Z</time></trkpt><trkpt lat="45.816965333173954" lon="12.152179009383008"><ele>197.0</ele><time>2026-04-04T10:12:06Z</time></trkpt><trkpt lat="45.816945371612505" lon="12.151973111460176"><ele>197.0</ele><time>2026-04-04T10:12:07Z</time></trkpt><trkpt lat="45.81692949288864" lon="12.151754996804712"><ele>197.0</ele><time>2026-04-04T10:12:08Z</time></trkpt><trkpt lat="45.816901778619474" lon="12.15154201567314"><ele>197.0</ele><time>2026-04-04T10:12:09Z</time></trkpt><trkpt lat="45.816847740650076" lon="12.151340344840946"><ele>197.0</ele><time>2026-04-04T10:12:10Z</time></trkpt><trkpt lat="45.81677390233755" lon="12.151146180708297"><ele>198.0</ele><time>2026-04-04T10:12:11Z</time></trkpt><trkpt lat="45.81670360709833" lon="12.15098964504792"><ele>199.0</ele><time>2026-04-04T10:12:12Z</time></trkpt><trkpt lat="45.816656720172055" lon="12.150844512393023"><ele>200.0</ele><time>2026-04-04T10:12:13Z</time></trkpt><trkpt lat="45.81663676341493" lon="12.150707129264813"><ele>201.0</ele><time>2026-04-04T10:12:14Z</time></trkpt><trkpt lat="45.816651381470336" lon="12.150557147249748"><ele>202.0</ele><time>2026-04-04T10:12:15Z</time></trkpt><trkpt lat="45.81668454811569" lon="12.150394475644177"><ele>202.5</ele><time>2026-04-04T10:12:16Z</time></trkpt><trkpt lat="45.81674015501527" lon="12.150244491667145"><ele>203.0</ele><time>2026-04-04T10:12:17Z</time></trkpt><trkpt lat="45.816797166662404" lon="12.150092994763478"><ele>203.5</ele><time>2026-04-04T10:12:18Z</time></trkpt><trkpt lat="45.81684304510281" lon="12.149920572765454"><ele>204.0</ele><time>2026-04-04T10:12:19Z</time></trkpt><trkpt lat="45.81687777194072" lon="12.149724752245435"><ele>205.66666666666669</ele><time>2026-04-04T10:12:20Z</time></trkpt><trkpt lat="45.8168924741308" lon="12.14951108077512"><ele>207.33333333333334</ele><time>2026-04-04T10:12:21Z</time></trkpt><trkpt lat="45.81689465529424" lon="12.149288219364673"><ele>209.0</ele><time>2026-04-04T10:12:22Z</time></trkpt><trkpt lat="45.81688577238309" lon="12.149079728583816"><ele>209.25</ele><time>2026-04-04T10:12:23Z</time></trkpt><trkpt lat="45.81687514422322" lon="12.148900184115252"><ele>209.5</ele><time>2026-04-04T10:12:24Z</time></trkpt><trkpt lat="45.81688402859959" lon="12.148734808388143"><ele>209.75</ele><time>2026-04-04T10:12:25Z</time></trkpt><trkpt lat="45.81691623570554" lon="12.14856710085226"><ele>210.0</ele><time>2026-04-04T10:12:26Z</time></trkpt><trkpt lat="45.81698476633432" lon="12.148408881134001"><ele>210.0</ele><time>2026-04-04T10:12:27Z</time></trkpt><trkpt lat="45.817071483817166" lon="12.148261949186487"><ele>210.0</ele><time>2026-04-04T10:12:28Z</time></trkpt><trkpt lat="45.81714709906784" lon="12.1480857338519"><ele>210.0</ele><time>2026-04-04T10:12:29Z</time></trkpt><trkpt lat="45.817189199961064" lon="12.147884045375324"><ele>210.0</ele><time>2026-04-04T10:12:30Z</time></trkpt><trkpt lat="45.8172234018179" lon="12.147674196320544"><ele>211.33333333333331</ele><time>2026-04-04T10:12:31Z</time></trkpt><trkpt lat="45.817265747323994" lon="12.147463236908237"><ele>212.66666666666666</ele><time>2026-04-04T10:12:32Z</time></trkpt><trkpt lat="45.81730129836561" lon="12.147254004949698"><ele>214.0</ele><time>2026-04-04T10:12:33Z</time></trkpt><trkpt lat="45.81732842941585" lon="12.14704021342457"><ele>214.0</ele><time>2026-04-04T10:12:34Z</time></trkpt><trkpt lat="45.81734420522855" lon="12.14681740244535"><ele>214.0</ele><time>2026-04-04T10:12:35Z</time></trkpt><trkpt lat="45.81735888171628" lon="12.1465987190455"><ele>214.0</ele><time>2026-04-04T10:12:36Z</time></trkpt><trkpt lat="45.81736932007144" lon="12.146388831895184"><ele>214.0</ele><time>2026-04-04T10:12:37Z</time></trkpt><trkpt lat="45.81737871181063" lon="12.146176595245205"><ele>214.0</ele><time>2026-04-04T10:12:38Z</time></trkpt><trkpt lat="45.81738082347064" lon="12.145966135294639"><ele>214.0</ele><time>2026-04-04T10:12:39Z</time></trkpt><trkpt lat="45.81737266626531" lon="12.145755019846453"><ele>214.0</ele><time>2026-04-04T10:12:40Z</time></trkpt><trkpt lat="45.81735481821182" lon="12.145537967485877"><ele>214.0</ele><time>2026-04-04T10:12:41Z</time></trkpt><trkpt lat="45.81732953736601" lon="12.14531708398633"><ele>214.0</ele><time>2026-04-04T10:12:42Z</time></trkpt><trkpt lat="45.81729961077488" lon="12.145105758284684"><ele>214.0</ele><time>2026-04-04T10:12:43Z</time></trkpt><trkpt lat="45.81726669010135" lon="12.144908255509304"><ele>214.0</ele><time>2026-04-04T10:12:44Z</time></trkpt><trkpt lat="45.81721730740325" lon="12.144727912368"><ele>216.5</ele><time>2026-04-04T10:12:45Z</time></trkpt><trkpt lat="45.81715341637868" lon="12.144558108712468"><ele>219.0</ele><time>2026-04-04T10:12:46Z</time></trkpt><trkpt lat="45.81708190580067" lon="12.144413287192318"><ele>221.5</ele><time>2026-04-04T10:12:47Z</time></trkpt><trkpt lat="45.81702555527336" lon="12.144274320320726"><ele>224.0</ele><time>2026-04-04T10:12:48Z</time></trkpt><trkpt lat="45.81699908639451" lon="12.144128758009339"><ele>224.75</ele><time>2026-04-04T10:12:49Z</time></trkpt><trkpt lat="45.81699678126215" lon="12.143985702614213"><ele>225.5</ele><time>2026-04-04T10:12:50Z</time></trkpt><trkpt lat="45.81702890856973" lon="12.143817140323172"><ele>226.25</ele><time>2026-04-04T10:12:51Z</time></trkpt><trkpt lat="45.81705667739157" lon="12.143655472849638"><ele>227.0</ele><time>2026-04-04T10:12:52Z</time></trkpt><trkpt lat="45.817059937389715" lon="12.143465066286923"><ele>227.0</ele><time>2026-04-04T10:12:53Z</time></trkpt><trkpt lat="45.81704013834828" lon="12.143297822596557"><ele>227.0</ele><time>2026-04-04T10:12:54Z</time></trkpt><trkpt lat="45.817018423508806" lon="12.143164624465781"><ele>227.0</ele><time>2026-04-04T10:12:55Z</time></trkpt><trkpt lat="45.81701712189697" lon="12.143071070516552"><ele>227.0</ele><time>2026-04-04T10:12:56Z</time></trkpt><trkpt lat="45.81705570773816" lon="12.142924076914127"><ele>227.0</ele><time>2026-04-04T10:12:58Z</time></trkpt><trkpt lat="45.81710143112601" lon="12.142839021898002"><ele>227.75</ele><time>2026-04-04T10:12:59Z</time></trkpt><trkpt lat="45.81716984935038" lon="12.142721786154308"><ele>228.5</ele><time>2026-04-04T10:13:00Z</time></trkpt><trkpt lat="45.817262666720666" lon="12.142592247206132"><ele>229.25</ele><time>2026-04-04T10:13:01Z</time></trkpt><trkpt lat="45.817356120425124" lon="12.142431362871575"><ele>230.0</ele><time>2026-04-04T10:13:02Z</time></trkpt><trkpt lat="45.81744483460782" lon="12.142277199542251"><ele>231.0</ele><time>2026-04-04T10:13:03Z</time></trkpt><trkpt lat="45.81753920414142" lon="12.142119647691509"><ele>232.0</ele><time>2026-04-04T10:13:04Z</time></trkpt><trkpt lat="45.817632601452466" lon="12.141950528536682"><ele>233.0</ele><time>2026-04-04T10:13:05Z</time></trkpt><trkpt lat="45.81772837698272" lon="12.141792067841108"><ele>234.0</ele><time>2026-04-04T10:13:06Z</time></trkpt><trkpt lat="45.81783013982696" lon="12.141639304848418"><ele>233.25</ele><time>2026-04-04T10:13:07Z</time></trkpt><trkpt lat="45.81793469247827" lon="12.141475841776542"><ele>232.5</ele><time>2026-04-04T10:13:08Z</time></trkpt><trkpt lat="45.818039206404265" lon="12.141310545832324"><ele>231.75</ele><time>2026-04-04T10:13:09Z</time></trkpt><trkpt lat="45.81813161380658" lon="12.141171078417171"><ele>231.0</ele><time>2026-04-04T10:13:10Z</time></trkpt><trkpt lat="45.818215030121245" lon="12.141029577992665"><ele>231.0</ele><time>2026-04-04T10:13:11Z</time></trkpt><trkpt lat="45.818284127321846" lon="12.14087668886003"><ele>231.0</ele><time>2026-04-04T10:13:12Z</time></trkpt><trkpt lat="45.81832975059556" lon="12.14069856979185"><ele>231.0</ele><time>2026-04-04T10:13:13Z</time></trkpt><trkpt lat="45.81835197862724" lon="12.140492330626184"><ele>231.0</ele><time>2026-04-04T10:13:14Z</time></trkpt><trkpt lat="45.818347619579285" lon="12.140277547581169"><ele>231.5</ele><time>2026-04-04T10:13:15Z</time></trkpt><trkpt lat="45.81832975426885" lon="12.14006628471049"><ele>232.0</ele><time>2026-04-04T10:13:16Z</time></trkpt><trkpt lat="45.818301852644446" lon="12.139863928393957"><ele>232.5</ele><time>2026-04-04T10:13:17Z</time></trkpt><trkpt lat="45.81825914172529" lon="12.139660713366068"><ele>233.0</ele><time>2026-04-04T10:13:18Z</time></trkpt><trkpt lat="45.81820614791907" lon="12.139459718601355"><ele>233.0</ele><time>2026-04-04T10:13:19Z</time></trkpt><trkpt lat="45.81815797269815" lon="12.1392561376884"><ele>233.0</ele><time>2026-04-04T10:13:19.999Z</time></trkpt><trkpt lat="45.81811896830347" lon="12.139071350421979"><ele>233.0</ele><time>2026-04-04T10:13:20.999Z</time></trkpt><trkpt lat="45.818086953350516" lon="12.13889030747281"><ele>233.0</ele><time>2026-04-04T10:13:21.999Z</time></trkpt><trkpt lat="45.81805260360215" lon="12.138701645313024"><ele>234.75</ele><time>2026-04-04T10:13:22.999Z</time></trkpt><trkpt lat="45.8180102845704" lon="12.13851831615074"><ele>236.5</ele><time>2026-04-04T10:13:23.999Z</time></trkpt><trkpt lat="45.81795499355847" lon="12.13832815711416"><ele>238.25</ele><time>2026-04-04T10:13:24.999Z</time></trkpt><trkpt lat="45.817898076157014" lon="12.138119923604927"><ele>240.0</ele><time>2026-04-04T10:13:26Z</time></trkpt><trkpt lat="45.817846147448996" lon="12.137899766812552"><ele>242.0</ele><time>2026-04-04T10:13:27Z</time></trkpt><trkpt lat="45.81780202355199" lon="12.137696105953447"><ele>244.0</ele><time>2026-04-04T10:13:28Z</time></trkpt><trkpt lat="45.817773085478265" lon="12.137481747940948"><ele>246.0</ele><time>2026-04-04T10:13:29Z</time></trkpt><trkpt lat="45.81776807760632" lon="12.137257489799083"><ele>247.0</ele><time>2026-04-04T10:13:30Z</time></trkpt><trkpt lat="45.81778233049879" lon="12.137046194806466"><ele>248.0</ele><time>2026-04-04T10:13:31Z</time></trkpt><trkpt lat="45.8178083871162" lon="12.13685269784244"><ele>249.0</ele><time>2026-04-04T10:13:32Z</time></trkpt><trkpt lat="45.81783546850648" lon="12.136659246904495"><ele>250.0</ele><time>2026-04-04T10:13:33Z</time></trkpt><trkpt lat="45.817838513144615" lon="12.13647502919081"><ele>250.0</ele><time>2026-04-04T10:13:34Z</time></trkpt><trkpt lat="45.81781720482966" lon="12.136291183727256"><ele>250.0</ele><time>2026-04-04T10:13:35Z</time></trkpt><trkpt lat="45.81777237859535" lon="12.136105049135123"><ele>250.0</ele><time>2026-04-04T10:13:36Z</time></trkpt><trkpt lat="45.81771459687091" lon="12.135921392013785"><ele>250.0</ele><time>2026-04-04T10:13:37Z</time></trkpt><trkpt lat="45.817664530522286" lon="12.135709890280024"><ele>254.66666666666666</ele><time>2026-04-04T10:13:38Z</time></trkpt><trkpt lat="45.81760151166738" lon="12.13550859655202"><ele>259.3333333333333</ele><time>2026-04-04T10:13:39Z</time></trkpt><trkpt lat="45.81751898791961" lon="12.135314054942175"><ele>264.0</ele><time>2026-04-04T10:13:40Z</time></trkpt><trkpt lat="45.817446990610996" lon="12.135108244361687"><ele>264.0</ele><time>2026-04-04T10:13:41Z</time></trkpt><trkpt lat="45.817376640404156" lon="12.134891475670734"><ele>264.0</ele><time>2026-04-04T10:13:42Z</time></trkpt><trkpt lat="45.81730319052529" lon="12.13469734041"><ele>264.0</ele><time>2026-04-04T10:13:43Z</time></trkpt><trkpt lat="45.817238516257696" lon="12.134498478092636"><ele>263.0</ele><time>2026-04-04T10:13:44Z</time></trkpt><trkpt lat="45.81716932012566" lon="12.134284681336885"><ele>262.0</ele><time>2026-04-04T10:13:45Z</time></trkpt><trkpt lat="45.817119070752696" lon="12.13406653463172"><ele>261.0</ele><time>2026-04-04T10:13:46Z</time></trkpt><trkpt lat="45.817066797061784" lon="12.133835702588637"><ele>261.0</ele><time>2026-04-04T10:13:47Z</time></trkpt><trkpt lat="45.8170073386313" lon="12.133629550394033"><ele>261.0</ele><time>2026-04-04T10:13:48Z</time></trkpt><trkpt lat="45.81694066496279" lon="12.13342613888188"><ele>261.0</ele><time>2026-04-04T10:13:49Z</time></trkpt><trkpt lat="45.81685445890558" lon="12.133234343157339"><ele>263.0</ele><time>2026-04-04T10:13:50Z</time></trkpt><trkpt lat="45.81675552208515" lon="12.133074766466313"><ele>265.0</ele><time>2026-04-04T10:13:51Z</time></trkpt><trkpt lat="45.81663685199445" lon="12.132929695378762"><ele>267.0</ele><time>2026-04-04T10:13:52Z</time></trkpt><trkpt lat="45.81650789485033" lon="12.13279460414395"><ele>267.0</ele><time>2026-04-04T10:13:53Z</time></trkpt><trkpt lat="45.81637683999342" lon="12.132635260911993"><ele>267.0</ele><time>2026-04-04T10:13:54Z</time></trkpt><trkpt lat="45.81623610262859" lon="12.132497404528518"><ele>267.0</ele><time>2026-04-04T10:13:55Z</time></trkpt><trkpt lat="45.816096569083136" lon="12.132358940240167"><ele>266.3333333333333</ele><time>2026-04-04T10:13:56Z</time></trkpt><trkpt lat="45.81594960230952" lon="12.132215655571535"><ele>265.66666666666663</ele><time>2026-04-04T10:13:57Z</time></trkpt><trkpt lat="45.81580169600883" lon="12.132070761088519"><ele>265.0</ele><time>2026-04-04T10:13:58Z</time></trkpt><trkpt lat="45.8156536417299" lon="12.1319257216442"><ele>265.0</ele><time>2026-04-04T10:13:59Z</time></trkpt><trkpt lat="45.81551190032913" lon="12.131786866528657"><ele>265.0</ele><time>2026-04-04T10:14:00Z</time></trkpt><trkpt lat="45.81537709498773" lon="12.131652257559074"><ele>265.0</ele><time>2026-04-04T10:14:01Z</time></trkpt><trkpt lat="45.81524157197139" lon="12.131523053882674"><ele>267.66666666666663</ele><time>2026-04-04T10:14:02Z</time></trkpt><trkpt lat="45.81510815889887" lon="12.131391069193544"><ele>270.3333333333333</ele><time>2026-04-04T10:14:03Z</time></trkpt><trkpt lat="45.814974727982005" lon="12.131244315908768"><ele>273.0</ele><time>2026-04-04T10:14:04Z</time></trkpt><trkpt lat="45.814840178832355" lon="12.131087501328286"><ele>273.0</ele><time>2026-04-04T10:14:05Z</time></trkpt><trkpt lat="45.81473569203912" lon="12.130926865719415"><ele>273.0</ele><time>2026-04-04T10:14:06Z</time></trkpt><trkpt lat="45.81462672508172" lon="12.130745746785317"><ele>273.0</ele><time>2026-04-04T10:14:07Z</time></trkpt><trkpt lat="45.81451614290028" lon="12.130561943106928"><ele>276.3333333333333</ele><time>2026-04-04T10:14:08Z</time></trkpt><trkpt lat="45.814411029710506" lon="12.130389305756275"><ele>279.66666666666663</ele><time>2026-04-04T10:14:09Z</time></trkpt><trkpt lat="45.81430236655867" lon="12.130222363725796"><ele>283.0</ele><time>2026-04-04T10:14:10Z</time></trkpt><trkpt lat="45.814185203295615" lon="12.130065037320465"><ele>284.75</ele><time>2026-04-04T10:14:11Z</time></trkpt><trkpt lat="45.814061822216395" lon="12.12994122331553"><ele>286.5</ele><time>2026-04-04T10:14:12Z</time></trkpt><trkpt lat="45.8139562798243" lon="12.129826250113632"><ele>288.25</ele><time>2026-04-04T10:14:13Z</time></trkpt><trkpt lat="45.8138732555783" lon="12.129712966574514"><ele>290.0</ele><time>2026-04-04T10:14:14Z</time></trkpt><trkpt lat="45.813817712559384" lon="12.12959280646388"><ele>290.25</ele><time>2026-04-04T10:14:15Z</time></trkpt><trkpt lat="45.81378484137276" lon="12.129435444420999"><ele>290.5</ele><time>2026-04-04T10:14:16Z</time></trkpt><trkpt lat="45.81376440438935" lon="12.1292554710624"><ele>290.75</ele><time>2026-04-04T10:14:17Z</time></trkpt><trkpt lat="45.81377371908619" lon="12.12904767567412"><ele>291.0</ele><time>2026-04-04T10:14:18Z</time></trkpt><trkpt lat="45.813785196613416" lon="12.128822404488178"><ele>291.0</ele><time>2026-04-04T10:14:19Z</time></trkpt><trkpt lat="45.81379233947555" lon="12.12859926119377"><ele>291.0</ele><time>2026-04-04T10:14:20Z</time></trkpt><trkpt lat="45.81380871143579" lon="12.1283814787013"><ele>291.0</ele><time>2026-04-04T10:14:21Z</time></trkpt><trkpt lat="45.81382284351064" lon="12.128190222750952"><ele>291.0</ele><time>2026-04-04T10:14:22Z</time></trkpt><trkpt lat="45.813826779657184" lon="12.128017995619945"><ele>291.25</ele><time>2026-04-04T10:14:23Z</time></trkpt><trkpt lat="45.813813656931025" lon="12.127852024483945"><ele>291.5</ele><time>2026-04-04T10:14:24Z</time></trkpt><trkpt lat="45.81377177390191" lon="12.127683038667966"><ele>291.75</ele><time>2026-04-04T10:14:25Z</time></trkpt><trkpt lat="45.81370831392663" lon="12.127515593087622"><ele>292.0</ele><time>2026-04-04T10:14:26Z</time></trkpt><trkpt lat="45.81362283967958" lon="12.127357420506746"><ele>293.3333333333333</ele><time>2026-04-04T10:14:27Z</time></trkpt><trkpt lat="45.81354816100528" lon="12.12716717284194"><ele>294.6666666666667</ele><time>2026-04-04T10:14:28Z</time></trkpt><trkpt lat="45.81346312190496" lon="12.126994779488687"><ele>296.0</ele><time>2026-04-04T10:14:29Z</time></trkpt><trkpt lat="45.813357960782774" lon="12.12682363691151"><ele>297.6666666666667</ele><time>2026-04-04T10:14:30Z</time></trkpt><trkpt lat="45.81326288418998" lon="12.12664193508446"><ele>299.3333333333333</ele><time>2026-04-04T10:14:31Z</time></trkpt><trkpt lat="45.81316980034972" lon="12.126456997769653"><ele>301.0</ele><time>2026-04-04T10:14:32Z</time></trkpt><trkpt lat="45.81309304095587" lon="12.126285952221181"><ele>302.75</ele><time>2026-04-04T10:14:33Z</time></trkpt><trkpt lat="45.81305613411117" lon="12.126110122445299"><ele>304.5</ele><time>2026-04-04T10:14:34Z</time></trkpt><trkpt lat="45.81301118258814" lon="12.125954724598625"><ele>306.25</ele><time>2026-04-04T10:14:35Z</time></trkpt><trkpt lat="45.813002716712155" lon="12.125783378162312"><ele>308.0</ele><time>2026-04-04T10:14:36Z</time></trkpt><trkpt lat="45.81303016177936" lon="12.125618773298891"><ele>308.0</ele><time>2026-04-04T10:14:37Z</time></trkpt><trkpt lat="45.81306616209865" lon="12.125451213272557"><ele>308.0</ele><time>2026-04-04T10:14:38Z</time></trkpt><trkpt lat="45.81312216689906" lon="12.125283755159955"><ele>308.0</ele><time>2026-04-04T10:14:39Z</time></trkpt><trkpt lat="45.81319597690821" lon="12.125131258472722"><ele>308.0</ele><time>2026-04-04T10:14:40Z</time></trkpt><trkpt lat="45.81328894643824" lon="12.124976920561634"><ele>308.0</ele><time>2026-04-04T10:14:41Z</time></trkpt><trkpt lat="45.813396850378595" lon="12.124818599822984"><ele>308.0</ele><time>2026-04-04T10:14:42Z</time></trkpt><trkpt lat="45.8135180932731" lon="12.12466779441298"><ele>308.0</ele><time>2026-04-04T10:14:43Z</time></trkpt><trkpt lat="45.81363782090068" lon="12.124489413939125"><ele>309.33333333333337</ele><time>2026-04-04T10:14:44Z</time></trkpt><trkpt lat="45.813747601660616" lon="12.124298219094317"><ele>310.6666666666667</ele><time>2026-04-04T10:14:45Z</time></trkpt><trkpt lat="45.81385241857166" lon="12.124127251533682"><ele>312.0</ele><time>2026-04-04T10:14:46Z</time></trkpt><trkpt lat="45.81392225304832" lon="12.123962559661313"><ele>312.0</ele><time>2026-04-04T10:14:47Z</time></trkpt><trkpt lat="45.813991542531454" lon="12.123807211381152"><ele>312.0</ele><time>2026-04-04T10:14:48Z</time></trkpt><trkpt lat="45.81405351727752" lon="12.12367337848037"><ele>312.0</ele><time>2026-04-04T10:14:49Z</time></trkpt><trkpt lat="45.81409502425648" lon="12.123543280332155"><ele>312.0</ele><time>2026-04-04T10:14:50Z</time></trkpt><trkpt lat="45.81411074834705" lon="12.123407916618985"><ele>312.0</ele><time>2026-04-04T10:14:51Z</time></trkpt><trkpt lat="45.81409687624747" lon="12.123267941662858"><ele>313.0</ele><time>2026-04-04T10:14:52Z</time></trkpt><trkpt lat="45.81404600362008" lon="12.123131884405776"><ele>314.0</ele><time>2026-04-04T10:14:53Z</time></trkpt><trkpt lat="45.81396529822171" lon="12.123021489077715"><ele>315.0</ele><time>2026-04-04T10:14:54Z</time></trkpt><trkpt lat="45.8138624554928" lon="12.122935051106248"><ele>316.0</ele><time>2026-04-04T10:14:55Z</time></trkpt><trkpt lat="45.81372951142421" lon="12.12285175054006"><ele>316.0</ele><time>2026-04-04T10:14:56Z</time></trkpt><trkpt lat="45.81358489635444" lon="12.122757769557753"><ele>316.0</ele><time>2026-04-04T10:14:57Z</time></trkpt><trkpt lat="45.813436131054225" lon="12.122606378617423"><ele>316.0</ele><time>2026-04-04T10:14:58Z</time></trkpt><trkpt lat="45.81327769942759" lon="12.12246682476672"><ele>317.0</ele><time>2026-04-04T10:14:59Z</time></trkpt><trkpt lat="45.81311428421457" lon="12.122322881192936"><ele>318.0</ele><time>2026-04-04T10:15:00Z</time></trkpt><trkpt lat="45.81297055274989" lon="12.122195342689087"><ele>319.0</ele><time>2026-04-04T10:15:01Z</time></trkpt><trkpt lat="45.81285146332449" lon="12.122087129291673"><ele>319.0</ele><time>2026-04-04T10:15:02Z</time></trkpt><trkpt lat="45.812733460754494" lon="12.121974948252603"><ele>319.0</ele><time>2026-04-04T10:15:03Z</time></trkpt><trkpt lat="45.81263629679028" lon="12.121857469420645"><ele>319.0</ele><time>2026-04-04T10:15:04Z</time></trkpt><trkpt lat="45.81254192749223" lon="12.121719322440814"><ele>319.0</ele><time>2026-04-04T10:15:05Z</time></trkpt><trkpt lat="45.81245852219729" lon="12.12155319960158"><ele>321.25</ele><time>2026-04-04T10:15:06Z</time></trkpt><trkpt lat="45.812386526432014" lon="12.121366766791226"><ele>323.5</ele><time>2026-04-04T10:15:07Z</time></trkpt><trkpt lat="45.81231879174661" lon="12.121180923046413"><ele>325.75</ele><time>2026-04-04T10:15:08Z</time></trkpt><trkpt lat="45.81227690985319" lon="12.120971132169485"><ele>328.0</ele><time>2026-04-04T10:15:09Z</time></trkpt><trkpt lat="45.81227824790305" lon="12.120747199056975"><ele>329.3333333333333</ele><time>2026-04-04T10:15:10Z</time></trkpt><trkpt lat="45.81226910987155" lon="12.120523015407011"><ele>330.6666666666667</ele><time>2026-04-04T10:15:11Z</time></trkpt><trkpt lat="45.812249830721875" lon="12.120300088617984"><ele>332.0</ele><time>2026-04-04T10:15:12Z</time></trkpt><trkpt lat="45.812243851090535" lon="12.120075039028174"><ele>332.25</ele><time>2026-04-04T10:15:13Z</time></trkpt><trkpt lat="45.812237434495565" lon="12.119838731525313"><ele>332.5</ele><time>2026-04-04T10:15:14Z</time></trkpt><trkpt lat="45.81222264529589" lon="12.119626777524617"><ele>332.75</ele><time>2026-04-04T10:15:15Z</time></trkpt><trkpt lat="45.812228895408566" lon="12.119446152949436"><ele>333.0</ele><time>2026-04-04T10:15:16Z</time></trkpt><trkpt lat="45.81221020371245" lon="12.119274637576119"><ele>333.0</ele><time>2026-04-04T10:15:17Z</time></trkpt><trkpt lat="45.81220501464725" lon="12.119090590997994"><ele>333.0</ele><time>2026-04-04T10:15:18Z</time></trkpt><trkpt lat="45.81221244322216" lon="12.118904067176743"><ele>333.0</ele><time>2026-04-04T10:15:19Z</time></trkpt><trkpt lat="45.81224038353429" lon="12.11872789294422"><ele>333.0</ele><time>2026-04-04T10:15:20Z</time></trkpt><trkpt lat="45.81228985569315" lon="12.118570445332312"><ele>333.0</ele><time>2026-04-04T10:15:21Z</time></trkpt><trkpt lat="45.812356439221354" lon="12.11844471181883"><ele>333.0</ele><time>2026-04-04T10:15:22Z</time></trkpt><trkpt lat="45.81244523960349" lon="12.118314930210465"><ele>333.0</ele><time>2026-04-04T10:15:23Z</time></trkpt><trkpt lat="45.81255377660322" lon="12.118206696948308"><ele>333.0</ele><time>2026-04-04T10:15:24Z</time></trkpt><trkpt lat="45.81266622641496" lon="12.118076733953629"><ele>332.6666666666667</ele><time>2026-04-04T10:15:25Z</time></trkpt><trkpt lat="45.81276898554798" lon="12.117920329584562"><ele>332.33333333333337</ele><time>2026-04-04T10:15:26Z</time></trkpt><trkpt lat="45.81286367432216" lon="12.117742145881573"><ele>332.0</ele><time>2026-04-04T10:15:27Z</time></trkpt><trkpt lat="45.81295043817391" lon="12.117554690300128"><ele>332.75</ele><time>2026-04-04T10:15:28Z</time></trkpt><trkpt lat="45.81302229293415" lon="12.117371959697662"><ele>333.5</ele><time>2026-04-04T10:15:29Z</time></trkpt><trkpt lat="45.81308276195471" lon="12.117187574271403"><ele>334.25</ele><time>2026-04-04T10:15:30Z</time></trkpt><trkpt lat="45.81311298411558" lon="12.11699521342297"><ele>335.0</ele><time>2026-04-04T10:15:31Z</time></trkpt><trkpt lat="45.81311309113798" lon="12.116795344078113"><ele>335.0</ele><time>2026-04-04T10:15:32Z</time></trkpt><trkpt lat="45.813100300201995" lon="12.1165764817403"><ele>335.0</ele><time>2026-04-04T10:15:33Z</time></trkpt><trkpt lat="45.81305942212996" lon="12.116359024945003"><ele>335.0</ele><time>2026-04-04T10:15:34Z</time></trkpt><trkpt lat="45.81301721480894" lon="12.116152535908396"><ele>334.75</ele><time>2026-04-04T10:15:35Z</time></trkpt><trkpt lat="45.81297613662585" lon="12.115970437097804"><ele>334.5</ele><time>2026-04-04T10:15:36Z</time></trkpt><trkpt lat="45.812934622544496" lon="12.115794082582992"><ele>334.25</ele><time>2026-04-04T10:15:37Z</time></trkpt><trkpt lat="45.812876497672086" lon="12.115628077312934"><ele>334.0</ele><time>2026-04-04T10:15:38Z</time></trkpt><trkpt lat="45.81281163850346" lon="12.115476657413524"><ele>333.4</ele><time>2026-04-04T10:15:39Z</time></trkpt><trkpt lat="45.81275251873828" lon="12.115352043172422"><ele>332.79999999999995</ele><time>2026-04-04T10:15:40Z</time></trkpt><trkpt lat="45.81270553590587" lon="12.11522726540353"><ele>332.20000000000005</ele><time>2026-04-04T10:15:41Z</time></trkpt><trkpt lat="45.81262350219824" lon="12.115146545794017"><ele>331.6</ele><time>2026-04-04T10:15:42Z</time></trkpt><trkpt lat="45.81254152460545" lon="12.115084258647064"><ele>331.0</ele><time>2026-04-04T10:15:43Z</time></trkpt><trkpt lat="45.8124491013709" lon="12.115055008638636"><ele>331.0</ele><time>2026-04-04T10:15:44Z</time></trkpt><trkpt lat="45.81235273785215" lon="12.115066906019736"><ele>331.0</ele><time>2026-04-04T10:15:45Z</time></trkpt><trkpt lat="45.81225514844469" lon="12.115079767264898"><ele>331.0</ele><time>2026-04-04T10:15:46Z</time></trkpt><trkpt lat="45.81216780396273" lon="12.11516404644921"><ele>331.0</ele><time>2026-04-04T10:15:47Z</time></trkpt><trkpt lat="45.81207445969138" lon="12.115218418016417"><ele>331.0</ele><time>2026-04-04T10:15:48Z</time></trkpt><trkpt lat="45.811973176701365" lon="12.115214487456175"><ele>331.0</ele><time>2026-04-04T10:15:49Z</time></trkpt><trkpt lat="45.811876240965326" lon="12.115218502576813"><ele>331.0</ele><time>2026-04-04T10:15:50Z</time></trkpt><trkpt lat="45.811793739653766" lon="12.115116503638946"><ele>331.0</ele><time>2026-04-04T10:15:51Z</time></trkpt><trkpt lat="45.81170670478006" lon="12.115017268538908"><ele>331.0</ele><time>2026-04-04T10:15:52Z</time></trkpt><trkpt lat="45.811609505833836" lon="12.11492484335739"><ele>331.0</ele><time>2026-04-04T10:15:53Z</time></trkpt><trkpt lat="45.811513635997144" lon="12.114839547707192"><ele>327.25</ele><time>2026-04-04T10:15:54Z</time></trkpt><trkpt lat="45.81140118237325" lon="12.114769621478558"><ele>323.5</ele><time>2026-04-04T10:15:55Z</time></trkpt><trkpt lat="45.81132221308475" lon="12.11463793014192"><ele>319.75</ele><time>2026-04-04T10:15:56Z</time></trkpt><trkpt lat="45.81125388489986" lon="12.114505869119196"><ele>316.0</ele><time>2026-04-04T10:15:57Z</time></trkpt><trkpt lat="45.81121194776995" lon="12.114363881735605"><ele>316.0</ele><time>2026-04-04T10:15:58Z</time></trkpt><trkpt lat="45.811153220155745" lon="12.114239015974436"><ele>316.0</ele><time>2026-04-04T10:15:59Z</time></trkpt><trkpt lat="45.81110135280913" lon="12.114121618919041"><ele>316.0</ele><time>2026-04-04T10:16:00Z</time></trkpt><trkpt lat="45.811022233016516" lon="12.114026739519687"><ele>316.0</ele><time>2026-04-04T10:16:01Z</time></trkpt><trkpt lat="45.81092911047018" lon="12.113931183081373"><ele>316.0</ele><time>2026-04-04T10:16:02Z</time></trkpt><trkpt lat="45.81081325874389" lon="12.113898005709228"><ele>316.5</ele><time>2026-04-04T10:16:03Z</time></trkpt><trkpt lat="45.81069324576869" lon="12.113852920116708"><ele>317.0</ele><time>2026-04-04T10:16:04Z</time></trkpt><trkpt lat="45.81057901184062" lon="12.113782988207946"><ele>317.5</ele><time>2026-04-04T10:16:05Z</time></trkpt><trkpt lat="45.810459299198946" lon="12.113727039019317"><ele>318.0</ele><time>2026-04-04T10:16:06Z</time></trkpt><trkpt lat="45.810348339131714" lon="12.1136361123089"><ele>318.0</ele><time>2026-04-04T10:16:07Z</time></trkpt><trkpt lat="45.810268979163446" lon="12.113491339581879"><ele>318.0</ele><time>2026-04-04T10:16:08Z</time></trkpt><trkpt lat="45.81019786098878" lon="12.113334953013759"><ele>318.0</ele><time>2026-04-04T10:16:09Z</time></trkpt><trkpt lat="45.810112431722786" lon="12.113187457872884"><ele>318.0</ele><time>2026-04-04T10:16:10Z</time></trkpt><trkpt lat="45.81002355531187" lon="12.113044667378228"><ele>319.5</ele><time>2026-04-04T10:16:11Z</time></trkpt><trkpt lat="45.80991053749048" lon="12.112925183543089"><ele>321.0</ele><time>2026-04-04T10:16:12Z</time></trkpt><trkpt lat="45.809786748435364" lon="12.112803030955599"><ele>322.5</ele><time>2026-04-04T10:16:13Z</time></trkpt><trkpt lat="45.80965955797557" lon="12.112703783423601"><ele>324.0</ele><time>2026-04-04T10:16:14Z</time></trkpt><trkpt lat="45.80953154856935" lon="12.112604754572343"><ele>324.0</ele><time>2026-04-04T10:16:15Z</time></trkpt><trkpt lat="45.809408888469335" lon="12.112507031307835"><ele>324.0</ele><time>2026-04-04T10:16:16Z</time></trkpt><trkpt lat="45.80927749532857" lon="12.112386276804822"><ele>324.0</ele><time>2026-04-04T10:16:17Z</time></trkpt><trkpt lat="45.80916577636062" lon="12.11225582541672"><ele>324.0</ele><time>2026-04-04T10:16:18Z</time></trkpt><trkpt lat="45.80907260128069" lon="12.11210852344066"><ele>323.5</ele><time>2026-04-04T10:16:19Z</time></trkpt><trkpt lat="45.8089838141574" lon="12.111949473861378"><ele>323.0</ele><time>2026-04-04T10:16:20Z</time></trkpt><trkpt lat="45.80888226799367" lon="12.111790629722643"><ele>322.5</ele><time>2026-04-04T10:16:21Z</time></trkpt><trkpt lat="45.808790908247474" lon="12.111609868764903"><ele>322.0</ele><time>2026-04-04T10:16:22Z</time></trkpt><trkpt lat="45.808688431845525" lon="12.111426094157375"><ele>320.3333333333333</ele><time>2026-04-04T10:16:23Z</time></trkpt><trkpt lat="45.8085879148183" lon="12.111228220025751"><ele>318.6666666666667</ele><time>2026-04-04T10:16:24Z</time></trkpt><trkpt lat="45.80845887725474" lon="12.111063143976558"><ele>317.0</ele><time>2026-04-04T10:16:25Z</time></trkpt><trkpt lat="45.80833029140936" lon="12.110925297356218"><ele>317.0</ele><time>2026-04-04T10:16:26Z</time></trkpt><trkpt lat="45.80821069942884" lon="12.110799365341348"><ele>317.0</ele><time>2026-04-04T10:16:27Z</time></trkpt><trkpt lat="45.80808956886876" lon="12.110679873572828"><ele>317.0</ele><time>2026-04-04T10:16:28Z</time></trkpt><trkpt lat="45.80796514641895" lon="12.11059247000634"><ele>317.0</ele><time>2026-04-04T10:16:29Z</time></trkpt><trkpt lat="45.80782789910352" lon="12.110553083373194"><ele>315.6666666666667</ele><time>2026-04-04T10:16:30Z</time></trkpt><trkpt lat="45.807678035134764" lon="12.110591092611989"><ele>314.3333333333333</ele><time>2026-04-04T10:16:31Z</time></trkpt><trkpt lat="45.807533993703274" lon="12.110633286657478"><ele>313.0</ele><time>2026-04-04T10:16:32Z</time></trkpt><trkpt lat="45.80738470684338" lon="12.110659910321571"><ele>315.75</ele><time>2026-04-04T10:16:33Z</time></trkpt><trkpt lat="45.80724064407039" lon="12.110664213066853"><ele>318.5</ele><time>2026-04-04T10:16:34Z</time></trkpt><trkpt lat="45.807110224176455" lon="12.110658753627579"><ele>321.25</ele><time>2026-04-04T10:16:35Z</time></trkpt><trkpt lat="45.80699298898838" lon="12.110637093654514"><ele>324.0</ele><time>2026-04-04T10:16:36Z</time></trkpt><trkpt lat="45.806889276642785" lon="12.110578176742589"><ele>324.0</ele><time>2026-04-04T10:16:37Z</time></trkpt><trkpt lat="45.80679303009546" lon="12.110487527086592"><ele>324.0</ele><time>2026-04-04T10:16:38Z</time></trkpt><trkpt lat="45.80669650141726" lon="12.11036164330535"><ele>324.0</ele><time>2026-04-04T10:16:39Z</time></trkpt><trkpt lat="45.80658087349554" lon="12.110228312527628"><ele>324.0</ele><time>2026-04-04T10:16:40Z</time></trkpt><trkpt lat="45.80643159882936" lon="12.11009398868095"><ele>324.0</ele><time>2026-04-04T10:16:41Z</time></trkpt><trkpt lat="45.80626565499755" lon="12.1099818663927"><ele>324.0</ele><time>2026-04-04T10:16:42Z</time></trkpt><trkpt lat="45.80609673129336" lon="12.109870050153832"><ele>324.0</ele><time>2026-04-04T10:16:43Z</time></trkpt><trkpt lat="45.80592191962305" lon="12.10975433519948"><ele>324.0</ele><time>2026-04-04T10:16:44Z</time></trkpt><trkpt lat="45.805773132888476" lon="12.109655847210803"><ele>324.0</ele><time>2026-04-04T10:16:45Z</time></trkpt><trkpt lat="45.80564064893603" lon="12.109565595789899"><ele>324.0</ele><time>2026-04-04T10:16:46Z</time></trkpt><trkpt lat="45.8055387838526" lon="12.109417864292642"><ele>324.0</ele><time>2026-04-04T10:16:47Z</time></trkpt><trkpt lat="45.80545469150387" lon="12.10925770861161"><ele>324.0</ele><time>2026-04-04T10:16:48Z</time></trkpt><trkpt lat="45.80539491807632" lon="12.109086059911693"><ele>324.0</ele><time>2026-04-04T10:16:49Z</time></trkpt><trkpt lat="45.80535549234227" lon="12.108912117636292"><ele>324.0</ele><time>2026-04-04T10:16:50Z</time></trkpt><trkpt lat="45.80534375037446" lon="12.108727646275256"><ele>326.75</ele><time>2026-04-04T10:16:51Z</time></trkpt><trkpt lat="45.80535045717947" lon="12.108531589648877"><ele>329.5</ele><time>2026-04-04T10:16:52Z</time></trkpt><trkpt lat="45.805367616716545" lon="12.108323386870705"><ele>332.25</ele><time>2026-04-04T10:16:53Z</time></trkpt><trkpt lat="45.80536826681296" lon="12.108104703660828"><ele>335.0</ele><time>2026-04-04T10:16:54Z</time></trkpt><trkpt lat="45.805373263979746" lon="12.107912073483634"><ele>336.75</ele><time>2026-04-04T10:16:55Z</time></trkpt><trkpt lat="45.80536986896285" lon="12.107728936772938"><ele>338.5</ele><time>2026-04-04T10:16:56Z</time></trkpt><trkpt lat="45.80533741149412" lon="12.107548256561667"><ele>340.25</ele><time>2026-04-04T10:16:57Z</time></trkpt><trkpt lat="45.805272451449035" lon="12.107368270094092"><ele>342.0</ele><time>2026-04-04T10:16:58Z</time></trkpt><trkpt lat="45.80518600450976" lon="12.107196411245752"><ele>342.75</ele><time>2026-04-04T10:16:59Z</time></trkpt><trkpt lat="45.805116399119854" lon="12.107035701287346"><ele>343.5</ele><time>2026-04-04T10:17:00Z</time></trkpt><trkpt lat="45.805068940759945" lon="12.106878731476293"><ele>344.25</ele><time>2026-04-04T10:17:01Z</time></trkpt><trkpt lat="45.80501040362875" lon="12.106747726123235"><ele>345.0</ele><time>2026-04-04T10:17:02Z</time></trkpt><trkpt lat="45.80492680582648" lon="12.106642457353628"><ele>345.0</ele><time>2026-04-04T10:17:03Z</time></trkpt><trkpt lat="45.80481099684971" lon="12.10658081790962"><ele>345.0</ele><time>2026-04-04T10:17:04Z</time></trkpt><trkpt lat="45.804680270369765" lon="12.106545208754964"><ele>345.0</ele><time>2026-04-04T10:17:05Z</time></trkpt><trkpt lat="45.804522565376466" lon="12.106520734885065"><ele>345.0</ele><time>2026-04-04T10:17:06Z</time></trkpt><trkpt lat="45.80435925248513" lon="12.106452581331325"><ele>346.0</ele><time>2026-04-04T10:17:07Z</time></trkpt><trkpt lat="45.80420362870913" lon="12.106368159688527"><ele>347.0</ele><time>2026-04-04T10:17:08Z</time></trkpt><trkpt lat="45.80407334816152" lon="12.10629803090917"><ele>348.0</ele><time>2026-04-04T10:17:09Z</time></trkpt><trkpt lat="45.803956744513755" lon="12.106223157699056"><ele>349.0</ele><time>2026-04-04T10:17:10Z</time></trkpt><trkpt lat="45.803865048681224" lon="12.106133310531815"><ele>349.0</ele><time>2026-04-04T10:17:11Z</time></trkpt><trkpt lat="45.80378998080886" lon="12.106035903559675"><ele>349.0</ele><time>2026-04-04T10:17:12Z</time></trkpt><trkpt lat="45.80372361403813" lon="12.105943606452927"><ele>349.0</ele><time>2026-04-04T10:17:13Z</time></trkpt><trkpt lat="45.8036627073633" lon="12.10584472931167"><ele>349.0</ele><time>2026-04-04T10:17:14Z</time></trkpt><trkpt lat="45.80361129012282" lon="12.1057319426855"><ele>349.0</ele><time>2026-04-04T10:17:15Z</time></trkpt><trkpt lat="45.80357024808026" lon="12.105586748590547"><ele>349.0</ele><time>2026-04-04T10:17:16Z</time></trkpt><trkpt lat="45.803545578993415" lon="12.105411516330596"><ele>349.0</ele><time>2026-04-04T10:17:17Z</time></trkpt><trkpt lat="45.803540291208506" lon="12.105218372636338"><ele>349.0</ele><time>2026-04-04T10:17:18Z</time></trkpt><trkpt lat="45.803544165493136" lon="12.105025276911094"><ele>349.0</ele><time>2026-04-04T10:17:19Z</time></trkpt><trkpt lat="45.80353989724257" lon="12.104849094494925"><ele>348.0</ele><time>2026-04-04T10:17:20Z</time></trkpt><trkpt lat="45.80353423607439" lon="12.104679218233505"><ele>347.0</ele><time>2026-04-04T10:17:21Z</time></trkpt><trkpt lat="45.8035213106861" lon="12.10451964827061"><ele>346.0</ele><time>2026-04-04T10:17:22Z</time></trkpt><trkpt lat="45.80348952975137" lon="12.104369495763263"><ele>345.0</ele><time>2026-04-04T10:17:23Z</time></trkpt><trkpt lat="45.80343625188446" lon="12.104226517663768"><ele>344.6</ele><time>2026-04-04T10:17:24Z</time></trkpt><trkpt lat="45.80335962246611" lon="12.104102528731943"><ele>344.2</ele><time>2026-04-04T10:17:25Z</time></trkpt><trkpt lat="45.803256221845864" lon="12.104009822642862"><ele>343.79999999999995</ele><time>2026-04-04T10:17:26Z</time></trkpt><trkpt lat="45.8031559294391" lon="12.10394841756228"><ele>343.4</ele><time>2026-04-04T10:17:27Z</time></trkpt><trkpt lat="45.80306958772024" lon="12.10388315401963"><ele>343.0</ele><time>2026-04-04T10:17:28Z</time></trkpt><trkpt lat="45.80299252528902" lon="12.103784055279396"><ele>342.75</ele><time>2026-04-04T10:17:29Z</time></trkpt><trkpt lat="45.80292857923728" lon="12.103652015449647"><ele>342.5</ele><time>2026-04-04T10:17:30Z</time></trkpt><trkpt lat="45.80288064052635" lon="12.103496302638158"><ele>342.25</ele><time>2026-04-04T10:17:31Z</time></trkpt><trkpt lat="45.80286386970842" lon="12.103327016758772"><ele>342.0</ele><time>2026-04-04T10:17:32Z</time></trkpt><trkpt lat="45.80287399025627" lon="12.103159300364748"><ele>343.20000000000005</ele><time>2026-04-04T10:17:33Z</time></trkpt><trkpt lat="45.80289771150156" lon="12.103021170232093"><ele>344.4</ele><time>2026-04-04T10:17:34Z</time></trkpt><trkpt lat="45.802935903596016" lon="12.102887839595239"><ele>345.6</ele><time>2026-04-04T10:17:35Z</time></trkpt><trkpt lat="45.80299864264921" lon="12.102760438962276"><ele>346.79999999999995</ele><time>2026-04-04T10:17:36Z</time></trkpt><trkpt lat="45.80308845675487" lon="12.102654416055023"><ele>348.0</ele><time>2026-04-04T10:17:36.999Z</time></trkpt><trkpt lat="45.8031951627309" lon="12.102577144048533"><ele>348.0</ele><time>2026-04-04T10:17:38Z</time></trkpt><trkpt lat="45.80331812369883" lon="12.102519814367884"><ele>348.0</ele><time>2026-04-04T10:17:39Z</time></trkpt><trkpt lat="45.803453352242805" lon="12.102465743016756"><ele>348.0</ele><time>2026-04-04T10:17:40Z</time></trkpt><trkpt lat="45.803592228823106" lon="12.10239283091311"><ele>348.0</ele><time>2026-04-04T10:17:41Z</time></trkpt><trkpt lat="45.80372280823931" lon="12.102294014642103"><ele>349.0</ele><time>2026-04-04T10:17:42Z</time></trkpt><trkpt lat="45.803848253730784" lon="12.102174516657602"><ele>350.0</ele><time>2026-04-04T10:17:43Z</time></trkpt><trkpt lat="45.803988407562855" lon="12.10203763964818"><ele>351.0</ele><time>2026-04-04T10:17:44Z</time></trkpt><trkpt lat="45.80412775569193" lon="12.101884899750965"><ele>351.0</ele><time>2026-04-04T10:17:45Z</time></trkpt><trkpt lat="45.80425896512933" lon="12.10172400714113"><ele>351.0</ele><time>2026-04-04T10:17:46Z</time></trkpt><trkpt lat="45.80438441031746" lon="12.10156305277397"><ele>351.0</ele><time>2026-04-04T10:17:47Z</time></trkpt><trkpt lat="45.804516398323315" lon="12.101403463085497"><ele>353.6666666666667</ele><time>2026-04-04T10:17:48Z</time></trkpt><trkpt lat="45.80464825066521" lon="12.101257903639969"><ele>356.33333333333337</ele><time>2026-04-04T10:17:49Z</time></trkpt><trkpt lat="45.80477600738337" lon="12.101137856536427"><ele>359.0</ele><time>2026-04-04T10:17:50Z</time></trkpt><trkpt lat="45.804898736581485" lon="12.101031143772408"><ele>359.0</ele><time>2026-04-04T10:17:51Z</time></trkpt><trkpt lat="45.80502013996022" lon="12.10093024380089"><ele>359.0</ele><time>2026-04-04T10:17:52Z</time></trkpt><trkpt lat="45.80513049675743" lon="12.100837175730527"><ele>359.0</ele><time>2026-04-04T10:17:53Z</time></trkpt><trkpt lat="45.805224018856194" lon="12.100752473386548"><ele>359.0</ele><time>2026-04-04T10:17:54Z</time></trkpt><trkpt lat="45.80530342677327" lon="12.100650990331735"><ele>358.5</ele><time>2026-04-04T10:17:55Z</time></trkpt><trkpt lat="45.80536497096663" lon="12.100524214802244"><ele>358.0</ele><time>2026-04-04T10:17:56Z</time></trkpt><trkpt lat="45.80541030982399" lon="12.100376214251654"><ele>357.5</ele><time>2026-04-04T10:17:57Z</time></trkpt><trkpt lat="45.805439916448684" lon="12.100212542244847"><ele>357.0</ele><time>2026-04-04T10:17:58Z</time></trkpt><trkpt lat="45.80545859846969" lon="12.100016096079885"><ele>356.25</ele><time>2026-04-04T10:17:59Z</time></trkpt><trkpt lat="45.80547439239526" lon="12.09981069467579"><ele>355.5</ele><time>2026-04-04T10:18:00Z</time></trkpt><trkpt lat="45.80548759688498" lon="12.099616357564269"><ele>354.75</ele><time>2026-04-04T10:18:01Z</time></trkpt><trkpt lat="45.80551150270979" lon="12.099426307255161"><ele>354.0</ele><time>2026-04-04T10:18:02Z</time></trkpt><trkpt lat="45.80553963471923" lon="12.099264713440554"><ele>354.0</ele><time>2026-04-04T10:18:03Z</time></trkpt><trkpt lat="45.80558129098711" lon="12.099120006748374"><ele>354.0</ele><time>2026-04-04T10:18:04Z</time></trkpt><trkpt lat="45.80563356606352" lon="12.098990866367016"><ele>354.0</ele><time>2026-04-04T10:18:05Z</time></trkpt><trkpt lat="45.805708697341196" lon="12.098860934369117"><ele>354.0</ele><time>2026-04-04T10:18:06Z</time></trkpt><trkpt lat="45.805807768071034" lon="12.098763217829072"><ele>353.5</ele><time>2026-04-04T10:18:07Z</time></trkpt><trkpt lat="45.80591788399265" lon="12.098690155652939"><ele>353.0</ele><time>2026-04-04T10:18:08Z</time></trkpt><trkpt lat="45.80604240352208" lon="12.098629207562604"><ele>352.5</ele><time>2026-04-04T10:18:09Z</time></trkpt><trkpt lat="45.80616562364775" lon="12.098563141194104"><ele>352.0</ele><time>2026-04-04T10:18:10Z</time></trkpt><trkpt lat="45.806291086447196" lon="12.098488246541542"><ele>352.0</ele><time>2026-04-04T10:18:11Z</time></trkpt><trkpt lat="45.806419976185396" lon="12.098395347391577"><ele>352.0</ele><time>2026-04-04T10:18:12Z</time></trkpt><trkpt lat="45.806546908421964" lon="12.098294772896582"><ele>352.0</ele><time>2026-04-04T10:18:13Z</time></trkpt><trkpt lat="45.806660901112465" lon="12.098199461001265"><ele>352.0</ele><time>2026-04-04T10:18:14Z</time></trkpt><trkpt lat="45.80676654640513" lon="12.098106208228806"><ele>354.20000000000005</ele><time>2026-04-04T10:18:15Z</time></trkpt><trkpt lat="45.80686558836078" lon="12.098015270590938"><ele>356.4</ele><time>2026-04-04T10:18:16Z</time></trkpt><trkpt lat="45.806961708911935" lon="12.09793062762724"><ele>358.6</ele><time>2026-04-04T10:18:17Z</time></trkpt><trkpt lat="45.80704814482519" lon="12.097843947326226"><ele>360.79999999999995</ele><time>2026-04-04T10:18:18Z</time></trkpt><trkpt lat="45.807129708070896" lon="12.097770472108406"><ele>363.0</ele><time>2026-04-04T10:18:19Z</time></trkpt><trkpt lat="45.80720287175973" lon="12.097706373350604"><ele>363.0</ele><time>2026-04-04T10:18:20Z</time></trkpt><trkpt lat="45.807266997174416" lon="12.097655253186595"><ele>363.0</ele><time>2026-04-04T10:18:21Z</time></trkpt><trkpt lat="45.807327048467045" lon="12.09759683732935"><ele>363.0</ele><time>2026-04-04T10:18:22Z</time></trkpt><trkpt lat="45.80737398790055" lon="12.097517801328653"><ele>363.0</ele><time>2026-04-04T10:18:23Z</time></trkpt><trkpt lat="45.80740117544356" lon="12.09743073757805"><ele>363.0</ele><time>2026-04-04T10:18:24Z</time></trkpt><trkpt lat="45.80744606124713" lon="12.097265142153745"><ele>363.0</ele><time>2026-04-04T10:18:26Z</time></trkpt><trkpt lat="45.80748399717015" lon="12.09714255216942"><ele>362.5</ele><time>2026-04-04T10:18:28Z</time></trkpt><trkpt lat="45.80744451087673" lon="12.09706331220658"><ele>362.0</ele><time>2026-04-04T10:19:14Z</time></trkpt><trkpt lat="45.80743050516041" lon="12.096935942750852"><ele>361.5</ele><time>2026-04-04T10:19:16Z</time></trkpt><trkpt lat="45.80743346558057" lon="12.096832881854082"><ele>361.0</ele><time>2026-04-04T10:19:17Z</time></trkpt><trkpt lat="45.80743361277885" lon="12.096718170073098"><ele>360.5</ele><time>2026-04-04T10:19:17.999Z</time></trkpt><trkpt lat="45.80744190438691" lon="12.096593751866962"><ele>360.0</ele><time>2026-04-04T10:19:18.999Z</time></trkpt><trkpt lat="45.80744694460748" lon="12.09645238823695"><ele>359.5</ele><time>2026-04-04T10:19:19.999Z</time></trkpt><trkpt lat="45.80745341231034" lon="12.096301525377697"><ele>359.0</ele><time>2026-04-04T10:19:20.999Z</time></trkpt><trkpt lat="45.80745561878112" lon="12.096139883282488"><ele>358.5</ele><time>2026-04-04T10:19:21.999Z</time></trkpt><trkpt lat="45.80745058147985" lon="12.095969883938386"><ele>358.0</ele><time>2026-04-04T10:19:22.999Z</time></trkpt><trkpt lat="45.80744410531491" lon="12.095793448915016"><ele>357.0</ele><time>2026-04-04T10:19:23.999Z</time></trkpt><trkpt lat="45.80743111903124" lon="12.095601329840044"><ele>356.0</ele><time>2026-04-04T10:19:24.999Z</time></trkpt><trkpt lat="45.80741657225571" lon="12.095394315718536"><ele>355.0</ele><time>2026-04-04T10:19:25.999Z</time></trkpt><trkpt lat="45.807406338319325" lon="12.09519039324375"><ele>354.0</ele><time>2026-04-04T10:19:26.999Z</time></trkpt><trkpt lat="45.80738085602259" lon="12.094968036417018"><ele>354.0</ele><time>2026-04-04T10:19:27.999Z</time></trkpt><trkpt lat="45.807351459249396" lon="12.09474552477328"><ele>354.0</ele><time>2026-04-04T10:19:28.999Z</time></trkpt><trkpt lat="45.80734053810823" lon="12.094553560036017"><ele>354.0</ele><time>2026-04-04T10:19:29.999Z</time></trkpt><trkpt lat="45.80731689013926" lon="12.094350323497569"><ele>354.0</ele><time>2026-04-04T10:19:30.999Z</time></trkpt><trkpt lat="45.807309530192555" lon="12.094160863945024"><ele>354.0</ele><time>2026-04-04T10:19:31.999Z</time></trkpt><trkpt lat="45.807313946492556" lon="12.09398669286236"><ele>354.0</ele><time>2026-04-04T10:19:32.999Z</time></trkpt><trkpt lat="45.80733595896892" lon="12.093824129401744"><ele>354.0</ele><time>2026-04-04T10:19:33.999Z</time></trkpt><trkpt lat="45.80738055090988" lon="12.093662885345456"><ele>354.0</ele><time>2026-04-04T10:19:34.999Z</time></trkpt><trkpt lat="45.80743996298602" lon="12.093505151237673"><ele>354.0</ele><time>2026-04-04T10:19:35.999Z</time></trkpt><trkpt lat="45.80752007191269" lon="12.093360330960348"><ele>354.0</ele><time>2026-04-04T10:19:36.999Z</time></trkpt><trkpt lat="45.80761871777741" lon="12.093229145898334"><ele>354.0</ele><time>2026-04-04T10:19:37.999Z</time></trkpt><trkpt lat="45.80772581874257" lon="12.093109607605447"><ele>354.0</ele><time>2026-04-04T10:19:38.999Z</time></trkpt><trkpt lat="45.807827822909466" lon="12.092980059067813"><ele>353.25</ele><time>2026-04-04T10:19:39.999Z</time></trkpt><trkpt lat="45.80792231435951" lon="12.092864991847044"><ele>352.5</ele><time>2026-04-04T10:19:40.999Z</time></trkpt><trkpt lat="45.80800959337162" lon="12.092739762441399"><ele>351.75</ele><time>2026-04-04T10:19:41.999Z</time></trkpt><trkpt lat="45.80807869359569" lon="12.092611462386877"><ele>351.0</ele><time>2026-04-04T10:19:42.999Z</time></trkpt><trkpt lat="45.80812258524961" lon="12.092473342623489"><ele>351.0</ele><time>2026-04-04T10:19:44Z</time></trkpt><trkpt lat="45.80813698983524" lon="12.092303444493806"><ele>351.0</ele><time>2026-04-04T10:19:45Z</time></trkpt><trkpt lat="45.808112924781746" lon="12.092120804701521"><ele>351.0</ele><time>2026-04-04T10:19:46Z</time></trkpt><trkpt lat="45.80806662663954" lon="12.091936541788918"><ele>351.0</ele><time>2026-04-04T10:19:47Z</time></trkpt><trkpt lat="45.80801850469843" lon="12.091756236871687"><ele>350.75</ele><time>2026-04-04T10:19:48Z</time></trkpt><trkpt lat="45.80799390414811" lon="12.09157398684058"><ele>350.5</ele><time>2026-04-04T10:19:49Z</time></trkpt><trkpt lat="45.80799885249908" lon="12.091388084723054"><ele>350.25</ele><time>2026-04-04T10:19:50Z</time></trkpt><trkpt lat="45.80803329148459" lon="12.091183168392973"><ele>350.0</ele><time>2026-04-04T10:19:51Z</time></trkpt><trkpt lat="45.80808128778999" lon="12.090984255335204"><ele>350.0</ele><time>2026-04-04T10:19:52Z</time></trkpt><trkpt lat="45.808134606347984" lon="12.09079844565671"><ele>350.0</ele><time>2026-04-04T10:19:53Z</time></trkpt><trkpt lat="45.808177940320256" lon="12.090620656497322"><ele>350.0</ele><time>2026-04-04T10:19:54Z</time></trkpt><trkpt lat="45.80819952258513" lon="12.09044218355926"><ele>350.0</ele><time>2026-04-04T10:19:55Z</time></trkpt><trkpt lat="45.80819399937355" lon="12.090263295907084"><ele>349.5</ele><time>2026-04-04T10:19:56Z</time></trkpt><trkpt lat="45.80815463592968" lon="12.090090384031603"><ele>349.0</ele><time>2026-04-04T10:19:57Z</time></trkpt><trkpt lat="45.80808491514217" lon="12.089936855507954"><ele>348.5</ele><time>2026-04-04T10:19:58Z</time></trkpt><trkpt lat="45.80798839684445" lon="12.089807627795842"><ele>348.0</ele><time>2026-04-04T10:19:59Z</time></trkpt><trkpt lat="45.80787134983757" lon="12.089686268353406"><ele>347.75</ele><time>2026-04-04T10:20:00Z</time></trkpt><trkpt lat="45.80775135274268" lon="12.08955256496741"><ele>347.5</ele><time>2026-04-04T10:20:01Z</time></trkpt><trkpt lat="45.80763872212437" lon="12.089419501012973"><ele>347.25</ele><time>2026-04-04T10:20:02Z</time></trkpt><trkpt lat="45.807537603068965" lon="12.089292528219644"><ele>347.0</ele><time>2026-04-04T10:20:03Z</time></trkpt><trkpt lat="45.80744375982418" lon="12.08916868908678"><ele>346.75</ele><time>2026-04-04T10:20:04Z</time></trkpt><trkpt lat="45.807355706842706" lon="12.089041148239676"><ele>346.5</ele><time>2026-04-04T10:20:05Z</time></trkpt><trkpt lat="45.80728308627865" lon="12.08889916804227"><ele>346.25</ele><time>2026-04-04T10:20:06Z</time></trkpt><trkpt lat="45.80723520330152" lon="12.088739627471487"><ele>346.0</ele><time>2026-04-04T10:20:07Z</time></trkpt><trkpt lat="45.80721349472032" lon="12.088555396557048"><ele>346.0</ele><time>2026-04-04T10:20:08Z</time></trkpt><trkpt lat="45.807221099910315" lon="12.088362475238013"><ele>346.0</ele><time>2026-04-04T10:20:09Z</time></trkpt><trkpt lat="45.80724368602491" lon="12.088157539770668"><ele>346.0</ele><time>2026-04-04T10:20:10Z</time></trkpt><trkpt lat="45.807280149913865" lon="12.08794606137624"><ele>346.0</ele><time>2026-04-04T10:20:11Z</time></trkpt><trkpt lat="45.80731474936638" lon="12.08772249002953"><ele>345.66666666666663</ele><time>2026-04-04T10:20:12Z</time></trkpt><trkpt lat="45.80734018480168" lon="12.087502596001785"><ele>345.3333333333333</ele><time>2026-04-04T10:20:13Z</time></trkpt><trkpt lat="45.80735406121753" lon="12.087287610058608"><ele>345.0</ele><time>2026-04-04T10:20:14Z</time></trkpt><trkpt lat="45.80734254204912" lon="12.087066210824819"><ele>344.0</ele><time>2026-04-04T10:20:15Z</time></trkpt><trkpt lat="45.80730998467402" lon="12.086840885619493"><ele>343.0</ele><time>2026-04-04T10:20:16Z</time></trkpt><trkpt lat="45.80725750411442" lon="12.086615459182145"><ele>342.0</ele><time>2026-04-04T10:20:17Z</time></trkpt><trkpt lat="45.80719284410951" lon="12.086385446852347"><ele>341.5</ele><time>2026-04-04T10:20:18Z</time></trkpt><trkpt lat="45.807134457251" lon="12.086167807656077"><ele>341.0</ele><time>2026-04-04T10:20:19Z</time></trkpt><trkpt lat="45.807094157099435" lon="12.08596930216193"><ele>340.5</ele><time>2026-04-04T10:20:20Z</time></trkpt><trkpt lat="45.80707687106056" lon="12.085773278382545"><ele>340.0</ele><time>2026-04-04T10:20:21Z</time></trkpt><trkpt lat="45.80708376122238" lon="12.085560951297122"><ele>340.0</ele><time>2026-04-04T10:20:22Z</time></trkpt><trkpt lat="45.80711914973819" lon="12.085351750433226"><ele>340.0</ele><time>2026-04-04T10:20:23Z</time></trkpt><trkpt lat="45.80716287477205" lon="12.0851311789631"><ele>340.0</ele><time>2026-04-04T10:20:24Z</time></trkpt><trkpt lat="45.80719583978069" lon="12.084910559468195"><ele>339.66666666666663</ele><time>2026-04-04T10:20:25Z</time></trkpt><trkpt lat="45.807220866852916" lon="12.084686061979008"><ele>339.3333333333333</ele><time>2026-04-04T10:20:26Z</time></trkpt><trkpt lat="45.80724295254114" lon="12.0844467260651"><ele>339.0</ele><time>2026-04-04T10:20:27Z</time></trkpt><trkpt lat="45.80725625396921" lon="12.084203124945226"><ele>338.3333333333333</ele><time>2026-04-04T10:20:28Z</time></trkpt><trkpt lat="45.80726048046234" lon="12.083957028595213"><ele>337.66666666666663</ele><time>2026-04-04T10:20:29Z</time></trkpt><trkpt lat="45.807264611747165" lon="12.083702154071252"><ele>337.0</ele><time>2026-04-04T10:20:30Z</time></trkpt><trkpt lat="45.80726700999869" lon="12.083453056888024"><ele>336.66666666666663</ele><time>2026-04-04T10:20:31Z</time></trkpt><trkpt lat="45.8072694773008" lon="12.08320766461815"><ele>336.3333333333333</ele><time>2026-04-04T10:20:32Z</time></trkpt><trkpt lat="45.80727006251094" lon="12.08298453229759"><ele>336.0</ele><time>2026-04-04T10:20:33Z</time></trkpt><trkpt lat="45.80726831419375" lon="12.082765989904688"><ele>336.0</ele><time>2026-04-04T10:20:34Z</time></trkpt><trkpt lat="45.807264137860024" lon="12.082549203891823"><ele>336.0</ele><time>2026-04-04T10:20:35Z</time></trkpt><trkpt lat="45.80726680202244" lon="12.082328833717042"><ele>336.0</ele><time>2026-04-04T10:20:36Z</time></trkpt><trkpt lat="45.807283262280464" lon="12.082091801169119"><ele>335.3333333333333</ele><time>2026-04-04T10:20:37Z</time></trkpt><trkpt lat="45.80731215177121" lon="12.081855527974994"><ele>334.66666666666663</ele><time>2026-04-04T10:20:38Z</time></trkpt><trkpt lat="45.80735171938928" lon="12.081623504417378"><ele>334.0</ele><time>2026-04-04T10:20:39Z</time></trkpt><trkpt lat="45.807404750926146" lon="12.081387524070282"><ele>334.0</ele><time>2026-04-04T10:20:40Z</time></trkpt><trkpt lat="45.8074540704415" lon="12.08116891828847"><ele>334.0</ele><time>2026-04-04T10:20:41Z</time></trkpt><trkpt lat="45.807504874860214" lon="12.080973685284453"><ele>334.0</ele><time>2026-04-04T10:20:42Z</time></trkpt><trkpt lat="45.80754181658944" lon="12.080777639171929"><ele>334.0</ele><time>2026-04-04T10:20:43Z</time></trkpt><trkpt lat="45.80757429892508" lon="12.080578763990415"><ele>334.3333333333333</ele><time>2026-04-04T10:20:44Z</time></trkpt><trkpt lat="45.80758909342263" lon="12.08035000990416"><ele>334.6666666666667</ele><time>2026-04-04T10:20:45Z</time></trkpt><trkpt lat="45.807575696775984" lon="12.08011605409829"><ele>335.0</ele><time>2026-04-04T10:20:46Z</time></trkpt><trkpt lat="45.807551128025" lon="12.079889336502024"><ele>334.5</ele><time>2026-04-04T10:20:47Z</time></trkpt><trkpt lat="45.80752238183506" lon="12.079692740485278"><ele>334.0</ele><time>2026-04-04T10:20:48Z</time></trkpt><trkpt lat="45.8074984913209" lon="12.079513466696365"><ele>333.5</ele><time>2026-04-04T10:20:49Z</time></trkpt><trkpt lat="45.807476034349435" lon="12.079350924386608"><ele>333.0</ele><time>2026-04-04T10:20:50Z</time></trkpt><trkpt lat="45.80745230656223" lon="12.079197991073707"><ele>332.4</ele><time>2026-04-04T10:20:51Z</time></trkpt><trkpt lat="45.8074141066805" lon="12.079056013418159"><ele>331.79999999999995</ele><time>2026-04-04T10:20:52Z</time></trkpt><trkpt lat="45.80735723179738" lon="12.078930101971988"><ele>331.2</ele><time>2026-04-04T10:20:53Z</time></trkpt><trkpt lat="45.8072920932643" lon="12.078821172405467"><ele>330.6</ele><time>2026-04-04T10:20:54Z</time></trkpt><trkpt lat="45.80721140851246" lon="12.078709513189086"><ele>330.0</ele><time>2026-04-04T10:20:55Z</time></trkpt><trkpt lat="45.80712032242293" lon="12.078605299052029"><ele>330.0</ele><time>2026-04-04T10:20:56Z</time></trkpt><trkpt lat="45.80702465817032" lon="12.07850357952012"><ele>330.0</ele><time>2026-04-04T10:20:57Z</time></trkpt><trkpt lat="45.80694012179018" lon="12.078389868072883"><ele>330.0</ele><time>2026-04-04T10:20:58Z</time></trkpt><trkpt lat="45.80687686700788" lon="12.078254464750156"><ele>330.0</ele><time>2026-04-04T10:20:59Z</time></trkpt><trkpt lat="45.80682228486938" lon="12.07810989497053"><ele>329.25</ele><time>2026-04-04T10:21:00Z</time></trkpt><trkpt lat="45.80678458293004" lon="12.077948279478214"><ele>328.5</ele><time>2026-04-04T10:21:01Z</time></trkpt><trkpt lat="45.80674934477486" lon="12.077780039271394"><ele>327.75</ele><time>2026-04-04T10:21:02Z</time></trkpt><trkpt lat="45.80671479142138" lon="12.0776026896579"><ele>327.0</ele><time>2026-04-04T10:21:03Z</time></trkpt><trkpt lat="45.80667639625942" lon="12.077441561474577"><ele>326.8</ele><time>2026-04-04T10:21:04Z</time></trkpt><trkpt lat="45.80664364812836" lon="12.077285731541124"><ele>326.6</ele><time>2026-04-04T10:21:05Z</time></trkpt><trkpt lat="45.80660596470055" lon="12.077144475583577"><ele>326.40000000000003</ele><time>2026-04-04T10:21:06Z</time></trkpt><trkpt lat="45.80655022207927" lon="12.077014076860149"><ele>326.20000000000005</ele><time>2026-04-04T10:21:07Z</time></trkpt><trkpt lat="45.80647407778101" lon="12.076880763560618"><ele>326.0</ele><time>2026-04-04T10:21:08Z</time></trkpt><trkpt lat="45.80637414134794" lon="12.076765618524515"><ele>326.0</ele><time>2026-04-04T10:21:09Z</time></trkpt><trkpt lat="45.80627396908906" lon="12.076679040682249"><ele>326.0</ele><time>2026-04-04T10:21:09.999Z</time></trkpt><trkpt lat="45.806172469186215" lon="12.076595778194477"><ele>326.0</ele><time>2026-04-04T10:21:10.999Z</time></trkpt><trkpt lat="45.80608639761671" lon="12.076500968912148"><ele>326.0</ele><time>2026-04-04T10:21:11.999Z</time></trkpt><trkpt lat="45.80601693942849" lon="12.076385200979812"><ele>326.0</ele><time>2026-04-04T10:21:12.999Z</time></trkpt><trkpt lat="45.80597542022001" lon="12.076268568114202"><ele>325.20000000000005</ele><time>2026-04-04T10:21:13.999Z</time></trkpt><trkpt lat="45.80596367557983" lon="12.076146097655705"><ele>324.40000000000003</ele><time>2026-04-04T10:21:14.999Z</time></trkpt><trkpt lat="45.80598139943036" lon="12.076019830246992"><ele>323.6</ele><time>2026-04-04T10:21:15.999Z</time></trkpt><trkpt lat="45.80602673677781" lon="12.075894045162393"><ele>322.8</ele><time>2026-04-04T10:21:16.999Z</time></trkpt><trkpt lat="45.80608480654953" lon="12.075769034124079"><ele>322.0</ele><time>2026-04-04T10:21:17.999Z</time></trkpt><trkpt lat="45.80616364836534" lon="12.075653778995997"><ele>319.5</ele><time>2026-04-04T10:21:18.999Z</time></trkpt><trkpt lat="45.80625689662348" lon="12.075541536457699"><ele>317.0</ele><time>2026-04-04T10:21:19.999Z</time></trkpt><trkpt lat="45.806357512432825" lon="12.075439511730584"><ele>314.5</ele><time>2026-04-04T10:21:20.999Z</time></trkpt><trkpt lat="45.80645457376346" lon="12.075335153479468"><ele>312.0</ele><time>2026-04-04T10:21:21.999Z</time></trkpt><trkpt lat="45.80654204582633" lon="12.075233566575292"><ele>312.0</ele><time>2026-04-04T10:21:22.999Z</time></trkpt><trkpt lat="45.806625344608754" lon="12.07513137895653"><ele>312.0</ele><time>2026-04-04T10:21:23.999Z</time></trkpt><trkpt lat="45.8067078685585" lon="12.075041261627797"><ele>312.0</ele><time>2026-04-04T10:21:24.999Z</time></trkpt><trkpt lat="45.80678819390306" lon="12.074959650108573"><ele>312.0</ele><time>2026-04-04T10:21:25.999Z</time></trkpt><trkpt lat="45.80684936516198" lon="12.07488655341092"><ele>312.0</ele><time>2026-04-04T10:21:26.999Z</time></trkpt><trkpt lat="45.80690235838825" lon="12.074803169289824"><ele>311.5</ele><time>2026-04-04T10:21:27.999Z</time></trkpt><trkpt lat="45.806927429760755" lon="12.074689011957375"><ele>311.0</ele><time>2026-04-04T10:21:28.999Z</time></trkpt><trkpt lat="45.80691673230799" lon="12.074578442658673"><ele>310.5</ele><time>2026-04-04T10:21:29.999Z</time></trkpt><trkpt lat="45.80687454204724" lon="12.074475466518976"><ele>310.0</ele><time>2026-04-04T10:21:30.999Z</time></trkpt><trkpt lat="45.80680516441556" lon="12.074413222746834"><ele>309.5</ele><time>2026-04-04T10:21:31.999Z</time></trkpt><trkpt lat="45.80672375247098" lon="12.074400135108837"><ele>309.0</ele><time>2026-04-04T10:21:32.999Z</time></trkpt><trkpt lat="45.80664380994872" lon="12.074394934559313"><ele>308.14285714285717</ele><time>2026-04-04T10:21:33.999Z</time></trkpt><trkpt lat="45.80657089507648" lon="12.074383917275533"><ele>307.2857142857143</ele><time>2026-04-04T10:21:34.999Z</time></trkpt><trkpt lat="45.80650834298318" lon="12.074351299619098"><ele>306.42857142857144</ele><time>2026-04-04T10:21:35.999Z</time></trkpt><trkpt lat="45.80644712285255" lon="12.074292616463081"><ele>305.57142857142856</ele><time>2026-04-04T10:21:36.999Z</time></trkpt><trkpt lat="45.80639833788948" lon="12.074217707035073"><ele>304.7142857142857</ele><time>2026-04-04T10:21:37.999Z</time></trkpt><trkpt lat="45.80636030887479" lon="12.074121994623592"><ele>303.8571428571429</ele><time>2026-04-04T10:21:38.999Z</time></trkpt><trkpt lat="45.80634093980837" lon="12.074017331607793"><ele>303.0</ele><time>2026-04-04T10:21:39.999Z</time></trkpt><trkpt lat="45.80633239159197" lon="12.073910508481582"><ele>300.6</ele><time>2026-04-04T10:21:40.999Z</time></trkpt><trkpt lat="45.806332443852114" lon="12.073797765321855"><ele>298.20000000000005</ele><time>2026-04-04T10:21:41.999Z</time></trkpt><trkpt lat="45.80633695393319" lon="12.073682569765383"><ele>295.8</ele><time>2026-04-04T10:21:42.999Z</time></trkpt><trkpt lat="45.80633935960361" lon="12.073545996573422"><ele>293.40000000000003</ele><time>2026-04-04T10:21:43.999Z</time></trkpt><trkpt lat="45.806338048610186" lon="12.073391473472022"><ele>291.0</ele><time>2026-04-04T10:21:44.999Z</time></trkpt><trkpt lat="45.80633831803784" lon="12.073234803527448"><ele>291.0</ele><time>2026-04-04T10:21:45.999Z</time></trkpt><trkpt lat="45.80633830058756" lon="12.073063874109964"><ele>291.0</ele><time>2026-04-04T10:21:46.999Z</time></trkpt><trkpt lat="45.80634040184308" lon="12.072889666848063"><ele>291.0</ele><time>2026-04-04T10:21:47.999Z</time></trkpt><trkpt lat="45.80634091233098" lon="12.072720602899343"><ele>291.0</ele><time>2026-04-04T10:21:48.999Z</time></trkpt><trkpt lat="45.80633461633532" lon="12.072539346049753"><ele>291.25</ele><time>2026-04-04T10:21:50Z</time></trkpt><trkpt lat="45.806321121783775" lon="12.072354085695398"><ele>291.5</ele><time>2026-04-04T10:21:51Z</time></trkpt><trkpt lat="45.80630916000754" lon="12.072165267757933"><ele>291.75</ele><time>2026-04-04T10:21:52Z</time></trkpt><trkpt lat="45.80629689674237" lon="12.071976248084122"><ele>292.0</ele><time>2026-04-04T10:21:53Z</time></trkpt><trkpt lat="45.80628278674064" lon="12.071790695128247"><ele>292.0</ele><time>2026-04-04T10:21:54Z</time></trkpt><trkpt lat="45.806270820965715" lon="12.071607980203222"><ele>292.0</ele><time>2026-04-04T10:21:55Z</time></trkpt><trkpt lat="45.806253583404725" lon="12.07143605917153"><ele>292.0</ele><time>2026-04-04T10:21:56Z</time></trkpt><trkpt lat="45.80622198287147" lon="12.07126228060681"><ele>292.0</ele><time>2026-04-04T10:21:57Z</time></trkpt><trkpt lat="45.80617680710125" lon="12.0711065594649"><ele>290.0</ele><time>2026-04-04T10:21:58Z</time></trkpt><trkpt lat="45.806121602803145" lon="12.070948075750902"><ele>288.0</ele><time>2026-04-04T10:21:59Z</time></trkpt><trkpt lat="45.8060537004151" lon="12.07078992243104"><ele>286.0</ele><time>2026-04-04T10:22:00Z</time></trkpt><trkpt lat="45.80597886045214" lon="12.070624050111451"><ele>284.0</ele><time>2026-04-04T10:22:01Z</time></trkpt><trkpt lat="45.80590016317128" lon="12.070434563413798"><ele>283.33333333333337</ele><time>2026-04-04T10:22:02Z</time></trkpt><trkpt lat="45.80582033239238" lon="12.070231848857022"><ele>282.6666666666667</ele><time>2026-04-04T10:22:03Z</time></trkpt><trkpt lat="45.80573375766972" lon="12.070023044998079"><ele>282.0</ele><time>2026-04-04T10:22:04Z</time></trkpt><trkpt lat="45.80564493584225" lon="12.069824668930684"><ele>281.0</ele><time>2026-04-04T10:22:05Z</time></trkpt><trkpt lat="45.80556240594975" lon="12.069626178035332"><ele>280.0</ele><time>2026-04-04T10:22:06Z</time></trkpt><trkpt lat="45.805473198418376" lon="12.069422378356526"><ele>279.0</ele><time>2026-04-04T10:22:07Z</time></trkpt><trkpt lat="45.805386874987335" lon="12.069213639218772"><ele>278.6666666666667</ele><time>2026-04-04T10:22:08Z</time></trkpt><trkpt lat="45.80529860127203" lon="12.068999126646133"><ele>278.33333333333337</ele><time>2026-04-04T10:22:09Z</time></trkpt><trkpt lat="45.805213503218894" lon="12.068784824345272"><ele>278.0</ele><time>2026-04-04T10:22:10Z</time></trkpt><trkpt lat="45.80513547236247" lon="12.068570755897545"><ele>278.5</ele><time>2026-04-04T10:22:11Z</time></trkpt><trkpt lat="45.80506345985243" lon="12.068359524458728"><ele>279.0</ele><time>2026-04-04T10:22:12Z</time></trkpt><trkpt lat="45.804996654074586" lon="12.068166150965322"><ele>279.5</ele><time>2026-04-04T10:22:13Z</time></trkpt><trkpt lat="45.80493662554073" lon="12.067994599129419"><ele>280.0</ele><time>2026-04-04T10:22:14Z</time></trkpt><trkpt lat="45.80488137033763" lon="12.06782665093668"><ele>280.0</ele><time>2026-04-04T10:22:15Z</time></trkpt><trkpt lat="45.804836420947964" lon="12.06766844001687"><ele>280.0</ele><time>2026-04-04T10:22:16Z</time></trkpt><trkpt lat="45.80481691881746" lon="12.067503182374343"><ele>280.0</ele><time>2026-04-04T10:22:17Z</time></trkpt><trkpt lat="45.80482463952358" lon="12.067326445515716"><ele>280.0</ele><time>2026-04-04T10:22:18Z</time></trkpt><trkpt lat="45.804854104434156" lon="12.067139882354748"><ele>280.0</ele><time>2026-04-04T10:22:19Z</time></trkpt><trkpt lat="45.80489366404853" lon="12.066949989606078"><ele>280.0</ele><time>2026-04-04T10:22:20Z</time></trkpt><trkpt lat="45.80492408031576" lon="12.066769265679117"><ele>280.0</ele><time>2026-04-04T10:22:21Z</time></trkpt><trkpt lat="45.80493920099267" lon="12.06659851512633"><ele>280.0</ele><time>2026-04-04T10:22:22Z</time></trkpt><trkpt lat="45.804928786140614" lon="12.06644171533563"><ele>280.0</ele><time>2026-04-04T10:22:23Z</time></trkpt><trkpt lat="45.80490087409047" lon="12.066278825912715"><ele>280.0</ele><time>2026-04-04T10:22:24Z</time></trkpt><trkpt lat="45.80483910563271" lon="12.066129444385371"><ele>280.0</ele><time>2026-04-04T10:22:25Z</time></trkpt><trkpt lat="45.80474954950949" lon="12.065993986110207"><ele>280.0</ele><time>2026-04-04T10:22:26Z</time></trkpt><trkpt lat="45.80462913808468" lon="12.065873263776949"><ele>280.3333333333333</ele><time>2026-04-04T10:22:27Z</time></trkpt><trkpt lat="45.80449487903707" lon="12.065767794244653"><ele>280.6666666666667</ele><time>2026-04-04T10:22:28Z</time></trkpt><trkpt lat="45.80434352620078" lon="12.065642986428458"><ele>281.0</ele><time>2026-04-04T10:22:29Z</time></trkpt><trkpt lat="45.80418687904212" lon="12.065494581310123"><ele>281.0</ele><time>2026-04-04T10:22:30Z</time></trkpt><trkpt lat="45.804014302277494" lon="12.065337200529822"><ele>281.0</ele><time>2026-04-04T10:22:31Z</time></trkpt><trkpt lat="45.80384605596626" lon="12.065185260945295"><ele>281.0</ele><time>2026-04-04T10:22:32Z</time></trkpt><trkpt lat="45.80370212274172" lon="12.065056619726334"><ele>280.6666666666667</ele><time>2026-04-04T10:22:33Z</time></trkpt><trkpt lat="45.80356558957028" lon="12.064928964700945"><ele>280.3333333333333</ele><time>2026-04-04T10:22:34Z</time></trkpt><trkpt lat="45.80343916675294" lon="12.064810621884629"><ele>280.0</ele><time>2026-04-04T10:22:35Z</time></trkpt><trkpt lat="45.80331716131588" lon="12.064699813844294"><ele>280.0</ele><time>2026-04-04T10:22:36Z</time></trkpt><trkpt lat="45.80320187271278" lon="12.064602621493195"><ele>280.0</ele><time>2026-04-04T10:22:37Z</time></trkpt><trkpt lat="45.80309369291733" lon="12.06450670150163"><ele>280.0</ele><time>2026-04-04T10:22:38Z</time></trkpt><trkpt lat="45.80299690625086" lon="12.06440332959969"><ele>280.0</ele><time>2026-04-04T10:22:39Z</time></trkpt><trkpt lat="45.80290824783506" lon="12.064275933980612"><ele>280.0</ele><time>2026-04-04T10:22:40Z</time></trkpt><trkpt lat="45.80284135189869" lon="12.06411517176283"><ele>280.0</ele><time>2026-04-04T10:22:41Z</time></trkpt><trkpt lat="45.802786114960604" lon="12.06392228475241"><ele>280.0</ele><time>2026-04-04T10:22:42Z</time></trkpt><trkpt lat="45.802746509381485" lon="12.063718728477768"><ele>280.0</ele><time>2026-04-04T10:22:43Z</time></trkpt><trkpt lat="45.80271402700927" lon="12.063511593382444"><ele>279.5</ele><time>2026-04-04T10:22:44Z</time></trkpt><trkpt lat="45.80269285527423" lon="12.063329672944393"><ele>279.0</ele><time>2026-04-04T10:22:45Z</time></trkpt><trkpt lat="45.80268234065836" lon="12.063149772791856"><ele>278.5</ele><time>2026-04-04T10:22:46Z</time></trkpt><trkpt lat="45.80269994729661" lon="12.062959370565803"><ele>278.0</ele><time>2026-04-04T10:22:47Z</time></trkpt><trkpt lat="45.80274641783185" lon="12.062774959714686"><ele>278.0</ele><time>2026-04-04T10:22:48Z</time></trkpt><trkpt lat="45.80281816221413" lon="12.062590026370355"><ele>278.0</ele><time>2026-04-04T10:22:49Z</time></trkpt><trkpt lat="45.80288332227018" lon="12.062399375990807"><ele>278.0</ele><time>2026-04-04T10:22:50Z</time></trkpt><trkpt lat="45.80292015264442" lon="12.062204063532699"><ele>278.0</ele><time>2026-04-04T10:22:51Z</time></trkpt><trkpt lat="45.8029379046102" lon="12.061997941211695"><ele>277.33333333333337</ele><time>2026-04-04T10:22:52Z</time></trkpt><trkpt lat="45.80293150553956" lon="12.061768843823934"><ele>276.6666666666667</ele><time>2026-04-04T10:22:53Z</time></trkpt><trkpt lat="45.802927496474815" lon="12.061533068766137"><ele>276.0</ele><time>2026-04-04T10:22:54Z</time></trkpt><trkpt lat="45.80292780887234" lon="12.061294384302746"><ele>276.0</ele><time>2026-04-04T10:22:55Z</time></trkpt><trkpt lat="45.80293679867521" lon="12.06106783850779"><ele>276.0</ele><time>2026-04-04T10:22:56Z</time></trkpt><trkpt lat="45.80294206036058" lon="12.060858709410018"><ele>276.0</ele><time>2026-04-04T10:22:57Z</time></trkpt><trkpt lat="45.80294546510679" lon="12.060641562312524"><ele>275.6666666666667</ele><time>2026-04-04T10:22:58Z</time></trkpt><trkpt lat="45.80295321611911" lon="12.060402264411568"><ele>275.33333333333337</ele><time>2026-04-04T10:22:59Z</time></trkpt><trkpt lat="45.80296762203685" lon="12.060160962862918"><ele>275.0</ele><time>2026-04-04T10:23:00Z</time></trkpt><trkpt lat="45.80298623780221" lon="12.059907240879822"><ele>275.0</ele><time>2026-04-04T10:23:01Z</time></trkpt><trkpt lat="45.80300098508075" lon="12.05967837876768"><ele>275.0</ele><time>2026-04-04T10:23:02Z</time></trkpt><trkpt lat="45.803000221132486" lon="12.059466587810082"><ele>275.0</ele><time>2026-04-04T10:23:03Z</time></trkpt><trkpt lat="45.80299754945079" lon="12.05926850490464"><ele>275.0</ele><time>2026-04-04T10:23:04Z</time></trkpt><trkpt lat="45.802986037437186" lon="12.059078540971633"><ele>274.75</ele><time>2026-04-04T10:23:05Z</time></trkpt><trkpt lat="45.802970750673126" lon="12.058896277597265"><ele>274.5</ele><time>2026-04-04T10:23:06Z</time></trkpt><trkpt lat="45.8029566994495" lon="12.05871375505395"><ele>274.25</ele><time>2026-04-04T10:23:07Z</time></trkpt><trkpt lat="45.80295729488555" lon="12.058536220182027"><ele>274.0</ele><time>2026-04-04T10:23:08Z</time></trkpt><trkpt lat="45.80297947608628" lon="12.058351664178469"><ele>273.5</ele><time>2026-04-04T10:23:09Z</time></trkpt><trkpt lat="45.80301393942458" lon="12.05815826566043"><ele>273.0</ele><time>2026-04-04T10:23:09.999Z</time></trkpt><trkpt lat="45.80304967711472" lon="12.057986250683427"><ele>272.5</ele><time>2026-04-04T10:23:10.999Z</time></trkpt><trkpt lat="45.80308389350354" lon="12.057815619890613"><ele>272.0</ele><time>2026-04-04T10:23:11.999Z</time></trkpt><trkpt lat="45.803119065689614" lon="12.057651454426082"><ele>272.0</ele><time>2026-04-04T10:23:12.999Z</time></trkpt><trkpt lat="45.80316296287638" lon="12.05748526572577"><ele>272.0</ele><time>2026-04-04T10:23:13.999Z</time></trkpt><trkpt lat="45.80322369472816" lon="12.05734171584568"><ele>272.0</ele><time>2026-04-04T10:23:14.999Z</time></trkpt><trkpt lat="45.803303994223135" lon="12.057220220014674"><ele>272.0</ele><time>2026-04-04T10:23:15.999Z</time></trkpt><trkpt lat="45.8033972113406" lon="12.057123290176223"><ele>270.0</ele><time>2026-04-04T10:23:16.999Z</time></trkpt><trkpt lat="45.80349585924136" lon="12.057034243837467"><ele>268.0</ele><time>2026-04-04T10:23:17.999Z</time></trkpt><trkpt lat="45.8035871342821" lon="12.056951589855501"><ele>266.0</ele><time>2026-04-04T10:23:18.999Z</time></trkpt><trkpt lat="45.8036782848601" lon="12.05685878828371"><ele>264.0</ele><time>2026-04-04T10:23:19.999Z</time></trkpt><trkpt lat="45.803757826999124" lon="12.056759694136487"><ele>262.0</ele><time>2026-04-04T10:23:20.999Z</time></trkpt><trkpt lat="45.80381770880041" lon="12.056638906172468"><ele>260.75</ele><time>2026-04-04T10:23:21.999Z</time></trkpt><trkpt lat="45.803856441981665" lon="12.056483880046626"><ele>259.5</ele><time>2026-04-04T10:23:22.999Z</time></trkpt><trkpt lat="45.80387787780557" lon="12.056304818169782"><ele>258.25</ele><time>2026-04-04T10:23:23.999Z</time></trkpt><trkpt lat="45.80389472872871" lon="12.056122354173704"><ele>257.0</ele><time>2026-04-04T10:23:24.999Z</time></trkpt><trkpt lat="45.80392940550027" lon="12.05595290617314"><ele>257.0</ele><time>2026-04-04T10:23:25.999Z</time></trkpt><trkpt lat="45.80398480726832" lon="12.05580694209441"><ele>257.0</ele><time>2026-04-04T10:23:26.999Z</time></trkpt><trkpt lat="45.804057743605576" lon="12.055681505902475"><ele>257.0</ele><time>2026-04-04T10:23:27.999Z</time></trkpt><trkpt lat="45.804143176425704" lon="12.055574632858393"><ele>257.0</ele><time>2026-04-04T10:23:28.999Z</time></trkpt><trkpt lat="45.80423294529944" lon="12.055502624406303"><ele>257.0</ele><time>2026-04-04T10:23:29.999Z</time></trkpt><trkpt lat="45.804308918267786" lon="12.055434001197224"><ele>256.33333333333337</ele><time>2026-04-04T10:23:30.999Z</time></trkpt><trkpt lat="45.8043661112878" lon="12.055343474264907"><ele>255.66666666666669</ele><time>2026-04-04T10:23:31.999Z</time></trkpt><trkpt lat="45.80439355119392" lon="12.055232927948529"><ele>255.0</ele><time>2026-04-04T10:23:32.999Z</time></trkpt><trkpt lat="45.80438856129094" lon="12.055109906981338"><ele>254.33333333333331</ele><time>2026-04-04T10:23:33.999Z</time></trkpt><trkpt lat="45.80434916314957" lon="12.055005733472067"><ele>253.66666666666666</ele><time>2026-04-04T10:23:34.999Z</time></trkpt><trkpt lat="45.80428589200418" lon="12.054925007436333"><ele>253.0</ele><time>2026-04-04T10:23:35.999Z</time></trkpt><trkpt lat="45.804200306486344" lon="12.054871221712364"><ele>249.75</ele><time>2026-04-04T10:23:36.999Z</time></trkpt><trkpt lat="45.80409823586433" lon="12.05485145024493"><ele>246.5</ele><time>2026-04-04T10:23:37.999Z</time></trkpt><trkpt lat="45.80398877608312" lon="12.054849585418038"><ele>243.25</ele><time>2026-04-04T10:23:38.999Z</time></trkpt><trkpt lat="45.80387200890286" lon="12.054819069540075"><ele>240.0</ele><time>2026-04-04T10:23:39.999Z</time></trkpt><trkpt lat="45.803745658699995" lon="12.054807864007191"><ele>240.0</ele><time>2026-04-04T10:23:40.999Z</time></trkpt><trkpt lat="45.803617591447455" lon="12.054808005416303"><ele>240.0</ele><time>2026-04-04T10:23:41.999Z</time></trkpt><trkpt lat="45.80348130222993" lon="12.054794750060074"><ele>240.0</ele><time>2026-04-04T10:23:42.999Z</time></trkpt><trkpt lat="45.803350978735295" lon="12.054789472382177"><ele>240.0</ele><time>2026-04-04T10:23:43.999Z</time></trkpt><trkpt lat="45.803229882810236" lon="12.054774181871219"><ele>238.75</ele><time>2026-04-04T10:23:44.999Z</time></trkpt><trkpt lat="45.8031129349284" lon="12.054756732826585"><ele>237.5</ele><time>2026-04-04T10:23:45.999Z</time></trkpt><trkpt lat="45.80299229542801" lon="12.054739272677377"><ele>236.25</ele><time>2026-04-04T10:23:46.999Z</time></trkpt><trkpt lat="45.80287710387247" lon="12.05473711730538"><ele>235.0</ele><time>2026-04-04T10:23:47.999Z</time></trkpt><trkpt lat="45.80276727058426" lon="12.054755191140355"><ele>233.8</ele><time>2026-04-04T10:23:48.999Z</time></trkpt><trkpt lat="45.80265941504179" lon="12.054763591474329"><ele>232.6</ele><time>2026-04-04T10:23:49.999Z</time></trkpt><trkpt lat="45.80255628208584" lon="12.054799849744281"><ele>231.39999999999998</ele><time>2026-04-04T10:23:50.999Z</time></trkpt><trkpt lat="45.80245525229506" lon="12.054836993101999"><ele>230.2</ele><time>2026-04-04T10:23:51.999Z</time></trkpt><trkpt lat="45.80235793994293" lon="12.054876056183225"><ele>229.0</ele><time>2026-04-04T10:23:52.999Z</time></trkpt><trkpt lat="45.802264751558994" lon="12.054913371907116"><ele>228.99999999999997</ele><time>2026-04-04T10:23:53.999Z</time></trkpt><trkpt lat="45.8021788653708" lon="12.054944464652321"><ele>229.0</ele><time>2026-04-04T10:23:54.999Z</time></trkpt><trkpt lat="45.80210599665644" lon="12.054945002565972"><ele>229.0</ele><time>2026-04-04T10:23:56Z</time></trkpt><trkpt lat="45.802049052460816" lon="12.054895602217403"><ele>229.0</ele><time>2026-04-04T10:23:57Z</time></trkpt><trkpt lat="45.80200403759688" lon="12.054824962523513"><ele>228.99999999999997</ele><time>2026-04-04T10:23:58Z</time></trkpt><trkpt lat="45.80201010646006" lon="12.054704340406488"><ele>229.0</ele><time>2026-04-04T10:23:59Z</time></trkpt><trkpt lat="45.80204610432774" lon="12.054598317075255"><ele>229.0</ele><time>2026-04-04T10:24:00Z</time></trkpt><trkpt lat="45.80211481098394" lon="12.054519432834011"><ele>228.99999999999997</ele><time>2026-04-04T10:24:01Z</time></trkpt><trkpt lat="45.80221073667663" lon="12.054475261623107"><ele>228.99999999999997</ele><time>2026-04-04T10:24:02Z</time></trkpt><trkpt lat="45.80232600854413" lon="12.054460897588383"><ele>229.0</ele><time>2026-04-04T10:24:03Z</time></trkpt><trkpt lat="45.80244948303456" lon="12.05442991495413"><ele>229.0</ele><time>2026-04-04T10:24:04Z</time></trkpt><trkpt lat="45.802576397408366" lon="12.054388861232855"><ele>227.75</ele><time>2026-04-04T10:24:05Z</time></trkpt><trkpt lat="45.802688269364275" lon="12.054327746282642"><ele>226.5</ele><time>2026-04-04T10:24:06Z</time></trkpt><trkpt lat="45.80277189710077" lon="12.05422947158062"><ele>225.25</ele><time>2026-04-04T10:24:07Z</time></trkpt><trkpt lat="45.80283281848259" lon="12.054107739552963"><ele>224.0</ele><time>2026-04-04T10:24:08Z</time></trkpt><trkpt lat="45.80286477906364" lon="12.053936485257385"><ele>224.0</ele><time>2026-04-04T10:24:09Z</time></trkpt><trkpt lat="45.802880828393626" lon="12.053750421413424"><ele>224.0</ele><time>2026-04-04T10:24:10Z</time></trkpt><trkpt lat="45.80287913431994" lon="12.053561846827344"><ele>224.0</ele><time>2026-04-04T10:24:11Z</time></trkpt><trkpt lat="45.80290036644119" lon="12.053397246133672"><ele>224.0</ele><time>2026-04-04T10:24:12Z</time></trkpt><trkpt lat="45.802955629161154" lon="12.053231310189876"><ele>224.0</ele><time>2026-04-04T10:24:13Z</time></trkpt><trkpt lat="45.80303433883184" lon="12.053065097816509"><ele>224.0</ele><time>2026-04-04T10:24:14Z</time></trkpt><trkpt lat="45.80311297740575" lon="12.052920634828508"><ele>224.0</ele><time>2026-04-04T10:24:15Z</time></trkpt><trkpt lat="45.803176428883816" lon="12.052777535811552"><ele>224.0</ele><time>2026-04-04T10:24:16Z</time></trkpt><trkpt lat="45.80321605720637" lon="12.052628857106875"><ele>224.0</ele><time>2026-04-04T10:24:17Z</time></trkpt><trkpt lat="45.80323992694895" lon="12.05247833031371"><ele>223.99999999999997</ele><time>2026-04-04T10:24:18Z</time></trkpt><trkpt lat="45.80323858718073" lon="12.052330364781374"><ele>223.99999999999997</ele><time>2026-04-04T10:24:19Z</time></trkpt><trkpt lat="45.80321181704782" lon="12.052180860042386"><ele>224.0</ele><time>2026-04-04T10:24:20Z</time></trkpt><trkpt lat="45.803159688453356" lon="12.052042269280895"><ele>224.0</ele><time>2026-04-04T10:24:21Z</time></trkpt><trkpt lat="45.80309231604329" lon="12.051914469457731"><ele>223.79999999999998</ele><time>2026-04-04T10:24:22Z</time></trkpt><trkpt lat="45.80301171757934" lon="12.051797871739337"><ele>223.59999999999997</ele><time>2026-04-04T10:24:23Z</time></trkpt><trkpt lat="45.80292505974254" lon="12.051701745598553"><ele>223.4</ele><time>2026-04-04T10:24:24Z</time></trkpt><trkpt lat="45.802832625115336" lon="12.051640782934602"><ele>223.2</ele><time>2026-04-04T10:24:25Z</time></trkpt><trkpt lat="45.802730591275385" lon="12.05161500253194"><ele>223.0</ele><time>2026-04-04T10:24:26Z</time></trkpt><trkpt lat="45.80261703624306" lon="12.051622038169816"><ele>221.25</ele><time>2026-04-04T10:24:27Z</time></trkpt><trkpt lat="45.80248334966049" lon="12.051607867136916"><ele>219.5</ele><time>2026-04-04T10:24:28Z</time></trkpt><trkpt lat="45.80234968706808" lon="12.051611913579054"><ele>217.75</ele><time>2026-04-04T10:24:29Z</time></trkpt><trkpt lat="45.80221369993849" lon="12.0516335270117"><ele>216.0</ele><time>2026-04-04T10:24:30Z</time></trkpt><trkpt lat="45.80207289483019" lon="12.051608235769693"><ele>212.25</ele><time>2026-04-04T10:24:31Z</time></trkpt><trkpt lat="45.80193221247999" lon="12.05156303416686"><ele>208.5</ele><time>2026-04-04T10:24:32Z</time></trkpt><trkpt lat="45.801800685030486" lon="12.051498679484515"><ele>204.75</ele><time>2026-04-04T10:24:33Z</time></trkpt><trkpt lat="45.80166959703443" lon="12.051419332471903"><ele>201.0</ele><time>2026-04-04T10:24:34Z</time></trkpt><trkpt lat="45.801532661075335" lon="12.05138785948627"><ele>199.75</ele><time>2026-04-04T10:24:35Z</time></trkpt><trkpt lat="45.801393295604534" lon="12.05137036806456"><ele>198.5</ele><time>2026-04-04T10:24:36Z</time></trkpt><trkpt lat="45.801260512919065" lon="12.05135208031265"><ele>197.25</ele><time>2026-04-04T10:24:37Z</time></trkpt><trkpt lat="45.80114207524043" lon="12.051329031466658"><ele>196.0</ele><time>2026-04-04T10:24:38Z</time></trkpt><trkpt lat="45.80103454101853" lon="12.051297454679892"><ele>195.5</ele><time>2026-04-04T10:24:39Z</time></trkpt><trkpt lat="45.80094959768737" lon="12.05120293241294"><ele>195.0</ele><time>2026-04-04T10:24:40Z</time></trkpt><trkpt lat="45.80089155226878" lon="12.051065238705363"><ele>194.5</ele><time>2026-04-04T10:24:41Z</time></trkpt><trkpt lat="45.80089084318922" lon="12.05090015071816"><ele>194.0</ele><time>2026-04-04T10:24:42Z</time></trkpt><trkpt lat="45.80090365369386" lon="12.050730571218196"><ele>194.0</ele><time>2026-04-04T10:24:43Z</time></trkpt><trkpt lat="45.800913075657625" lon="12.050550289716297"><ele>194.0</ele><time>2026-04-04T10:24:44Z</time></trkpt><trkpt lat="45.80092243787021" lon="12.050366903305589"><ele>194.0</ele><time>2026-04-04T10:24:45Z</time></trkpt><trkpt lat="45.80093710151491" lon="12.050196577925849"><ele>194.0</ele><time>2026-04-04T10:24:46Z</time></trkpt><trkpt lat="45.80094527291484" lon="12.05002841823009"><ele>193.79999999999998</ele><time>2026-04-04T10:24:47Z</time></trkpt><trkpt lat="45.80095076729344" lon="12.049859355698057"><ele>193.6</ele><time>2026-04-04T10:24:48Z</time></trkpt><trkpt lat="45.80095683179562" lon="12.049699006336802"><ele>193.4</ele><time>2026-04-04T10:24:49Z</time></trkpt><trkpt lat="45.80096672346415" lon="12.049547905081365"><ele>193.2</ele><time>2026-04-04T10:24:50Z</time></trkpt><trkpt lat="45.800976632487796" lon="12.049404953852846"><ele>193.0</ele><time>2026-04-04T10:24:51Z</time></trkpt><trkpt lat="45.80098558630562" lon="12.049278115579394"><ele>193.0</ele><time>2026-04-04T10:24:52Z</time></trkpt><trkpt lat="45.80099297621734" lon="12.049163175677606"><ele>193.0</ele><time>2026-04-04T10:24:53Z</time></trkpt><trkpt lat="45.801001846559416" lon="12.049065037638227"><ele>193.0</ele><time>2026-04-04T10:24:54Z</time></trkpt><trkpt lat="45.80106435326366" lon="12.048970422931028"><ele>193.0</ele><time>2026-04-04T10:24:56Z</time></trkpt><trkpt lat="45.80105428374287" lon="12.048875043125525"><ele>193.0</ele><time>2026-04-04T10:24:59Z</time></trkpt></trkseg><trkseg><trkpt lat="45.777418310053065" lon="12.057984897122758"><ele>115.0</ele><time>2026-04-04T14:02:03.999Z</time></trkpt><trkpt lat="45.7773965468799" lon="12.057890039012658"><ele>115.0</ele><time>2026-04-04T14:02:05.999Z</time></trkpt><trkpt lat="45.77733476520436" lon="12.057871531688823"><ele>115.0</ele><time>2026-04-04T14:02:09Z</time></trkpt><trkpt lat="45.77714066220035" lon="12.05795931423736"><ele>115.0</ele><time>2026-04-04T14:02:13Z</time></trkpt><trkpt lat="45.77702880904239" lon="12.058007626425175"><ele>115.00000000000001</ele><time>2026-04-04T14:02:15Z</time></trkpt><trkpt lat="45.77693434654445" lon="12.058036604557595"><ele>115.0</ele><time>2026-04-04T14:02:17Z</time></trkpt><trkpt lat="45.77690441231547" lon="12.05818677772474"><ele>115.0</ele><time>2026-04-04T14:02:20Z</time></trkpt><trkpt lat="45.776939708737835" lon="12.058281841776221"><ele>115.0</ele><time>2026-04-04T14:02:21Z</time></trkpt><trkpt lat="45.77696518689422" lon="12.05837698995875"><ele>115.00000000000001</ele><time>2026-04-04T14:02:22Z</time></trkpt><trkpt lat="45.77699157625585" lon="12.058471612333586"><ele>115.0</ele><time>2026-04-04T14:02:23Z</time></trkpt><trkpt lat="45.77702978246622" lon="12.05860056461606"><ele>115.33333333333334</ele><time>2026-04-04T14:02:25Z</time></trkpt><trkpt lat="45.777059944577054" lon="12.058699939551811"><ele>115.66666666666667</ele><time>2026-04-04T14:02:31Z</time></trkpt><trkpt lat="45.77714083323565" lon="12.058657915287855"><ele>116.0</ele><time>2026-04-04T14:02:32Z</time></trkpt><trkpt lat="45.777216806931335" lon="12.058627924422014"><ele>116.33333333333334</ele><time>2026-04-04T14:02:33Z</time></trkpt><trkpt lat="45.77729308620208" lon="12.058592508561611"><ele>116.66666666666667</ele><time>2026-04-04T14:02:34Z</time></trkpt><trkpt lat="45.77736636818624" lon="12.05856047917197"><ele>117.0</ele><time>2026-04-04T14:02:35Z</time></trkpt><trkpt lat="45.77745107579164" lon="12.058533562630911"><ele>117.0</ele><time>2026-04-04T14:02:36Z</time></trkpt><trkpt lat="45.77752222459115" lon="12.05848939404379"><ele>117.0</ele><time>2026-04-04T14:02:37Z</time></trkpt><trkpt lat="45.777588283357225" lon="12.058451244383487"><ele>117.0</ele><time>2026-04-04T14:02:38Z</time></trkpt><trkpt lat="45.77766774889753" lon="12.058420861264816"><ele>117.0</ele><time>2026-04-04T14:02:39Z</time></trkpt><trkpt lat="45.77775944088121" lon="12.058374677484105"><ele>117.0</ele><time>2026-04-04T14:02:40Z</time></trkpt><trkpt lat="45.77783356707486" lon="12.058343588387382"><ele>117.0</ele><time>2026-04-04T14:02:41Z</time></trkpt><trkpt lat="45.777901304767084" lon="12.058316624027052"><ele>117.39999999999999</ele><time>2026-04-04T14:02:42Z</time></trkpt><trkpt lat="45.77799290871787" lon="12.058283357067268"><ele>117.79999999999998</ele><time>2026-04-04T14:02:44Z</time></trkpt><trkpt lat="45.77807989712284" lon="12.058281971050183"><ele>118.2</ele><time>2026-04-04T14:02:46Z</time></trkpt><trkpt lat="45.7781923859548" lon="12.05831997008242"><ele>118.6</ele><time>2026-04-04T14:02:48Z</time></trkpt><trkpt lat="45.77828830652541" lon="12.058278793056594"><ele>119.0</ele><time>2026-04-04T14:02:49.999Z</time></trkpt><trkpt lat="45.778316721738285" lon="12.058139622150009"><ele>118.99999999999999</ele><time>2026-04-04T14:02:51.999Z</time></trkpt><trkpt lat="45.778307305152175" lon="12.058050219217666"><ele>119.0</ele><time>2026-04-04T14:02:52.999Z</time></trkpt><trkpt lat="45.778295734744816" lon="12.057954990930709"><ele>119.0</ele><time>2026-04-04T14:02:53.999Z</time></trkpt><trkpt lat="45.77828353403225" lon="12.057841060514418"><ele>119.0</ele><time>2026-04-04T14:02:54.999Z</time></trkpt><trkpt lat="45.77827095818023" lon="12.057722072640033"><ele>118.99999999999999</ele><time>2026-04-04T14:02:55.999Z</time></trkpt><trkpt lat="45.778256465429905" lon="12.057595674156225"><ele>119.0</ele><time>2026-04-04T14:02:56.999Z</time></trkpt><trkpt lat="45.778243607222294" lon="12.057466534793674"><ele>118.99999999999999</ele><time>2026-04-04T14:02:57.999Z</time></trkpt><trkpt lat="45.7782283385096" lon="12.057360623871219"><ele>119.0</ele><time>2026-04-04T14:02:58.999Z</time></trkpt><trkpt lat="45.77821686103106" lon="12.057259058374047"><ele>119.0</ele><time>2026-04-04T14:02:59.999Z</time></trkpt><trkpt lat="45.77820467264424" lon="12.057169221867808"><ele>119.0</ele><time>2026-04-04T14:03:00.999Z</time></trkpt><trkpt lat="45.77818095225545" lon="12.056997200835369"><ele>118.99999999999999</ele><time>2026-04-04T14:03:02.999Z</time></trkpt><trkpt lat="45.778174437656624" lon="12.056901891767136"><ele>119.0</ele><time>2026-04-04T14:03:03.999Z</time></trkpt><trkpt lat="45.77818430473145" lon="12.056809133385977"><ele>119.0</ele><time>2026-04-04T14:03:04.999Z</time></trkpt><trkpt lat="45.778219043375884" lon="12.056724240456367"><ele>119.0</ele><time>2026-04-04T14:03:05.999Z</time></trkpt><trkpt lat="45.778353305913356" lon="12.056615699421782"><ele>119.0</ele><time>2026-04-04T14:03:07.999Z</time></trkpt><trkpt lat="45.77844179946668" lon="12.056575096132752"><ele>119.0</ele><time>2026-04-04T14:03:08.999Z</time></trkpt><trkpt lat="45.77854682137161" lon="12.056531066077719"><ele>119.0</ele><time>2026-04-04T14:03:09.999Z</time></trkpt><trkpt lat="45.77865759240106" lon="12.056487042372584"><ele>118.80000000000001</ele><time>2026-04-04T14:03:10.999Z</time></trkpt><trkpt lat="45.778771267561375" lon="12.056441630357742"><ele>118.60000000000001</ele><time>2026-04-04T14:03:11.999Z</time></trkpt><trkpt lat="45.778880955347645" lon="12.056396266797774"><ele>118.4</ele><time>2026-04-04T14:03:12.999Z</time></trkpt><trkpt lat="45.778984683320076" lon="12.056356421679162"><ele>118.2</ele><time>2026-04-04T14:03:13.999Z</time></trkpt><trkpt lat="45.77908729668517" lon="12.056318569016684"><ele>118.0</ele><time>2026-04-04T14:03:14.999Z</time></trkpt><trkpt lat="45.77918898281346" lon="12.056282832301788"><ele>118.00000000000001</ele><time>2026-04-04T14:03:15.999Z</time></trkpt><trkpt lat="45.779283151734866" lon="12.056245734298257"><ele>118.0</ele><time>2026-04-04T14:03:16.999Z</time></trkpt><trkpt lat="45.779368599089146" lon="12.056211709335756"><ele>118.0</ele><time>2026-04-04T14:03:17.999Z</time></trkpt><trkpt lat="45.77944829742511" lon="12.056178913820242"><ele>118.0</ele><time>2026-04-04T14:03:18.999Z</time></trkpt><trkpt lat="45.779522053927785" lon="12.056148931184277"><ele>118.00000000000001</ele><time>2026-04-04T14:03:19.999Z</time></trkpt><trkpt lat="45.779601387791146" lon="12.056146644413891"><ele>118.0</ele><time>2026-04-04T14:03:21.999Z</time></trkpt><trkpt lat="45.77968800630734" lon="12.056103949668962"><ele>118.16666666666667</ele><time>2026-04-04T14:03:23.999Z</time></trkpt><trkpt lat="45.77976081477893" lon="12.056061006436096"><ele>118.33333333333334</ele><time>2026-04-04T14:03:24.999Z</time></trkpt><trkpt lat="45.77985176849853" lon="12.056011934771234"><ele>118.5</ele><time>2026-04-04T14:03:25.999Z</time></trkpt><trkpt lat="45.7799514373603" lon="12.055969104330574"><ele>118.66666666666666</ele><time>2026-04-04T14:03:26.999Z</time></trkpt><trkpt lat="45.78003598702296" lon="12.055934018416126"><ele>118.83333333333333</ele><time>2026-04-04T14:03:27.999Z</time></trkpt><trkpt lat="45.78010462998981" lon="12.055903279034904"><ele>119.0</ele><time>2026-04-04T14:03:28.999Z</time></trkpt><trkpt lat="45.78016653469529" lon="12.055884817137654"><ele>119.49999999999999</ele><time>2026-04-04T14:03:29.999Z</time></trkpt><trkpt lat="45.780236122779414" lon="12.055868866334595"><ele>120.0</ele><time>2026-04-04T14:03:30.999Z</time></trkpt><trkpt lat="45.78033076174811" lon="12.055850001302556"><ele>120.5</ele><time>2026-04-04T14:03:31.999Z</time></trkpt><trkpt lat="45.78043800639183" lon="12.055856452405408"><ele>121.0</ele><time>2026-04-04T14:03:32.999Z</time></trkpt><trkpt lat="45.78052625717519" lon="12.05583298121599"><ele>121.49999999999999</ele><time>2026-04-04T14:03:33.999Z</time></trkpt><trkpt lat="45.780593158988665" lon="12.055787205213523"><ele>122.0</ele><time>2026-04-04T14:03:34.999Z</time></trkpt><trkpt lat="45.78064823024144" lon="12.05573238819657"><ele>121.99999999999999</ele><time>2026-04-04T14:03:35.999Z</time></trkpt><trkpt lat="45.780703591130376" lon="12.05568465205923"><ele>122.0</ele><time>2026-04-04T14:03:36.999Z</time></trkpt><trkpt lat="45.78078911724297" lon="12.055646591349412"><ele>122.0</ele><time>2026-04-04T14:03:38.999Z</time></trkpt><trkpt lat="45.78086773433374" lon="12.055574785279328"><ele>122.0</ele><time>2026-04-04T14:03:41.999Z</time></trkpt><trkpt lat="45.78088169391703" lon="12.055452150962031"><ele>121.99999999999999</ele><time>2026-04-04T14:03:42.999Z</time></trkpt><trkpt lat="45.78089783777764" lon="12.05533642836803"><ele>122.0</ele><time>2026-04-04T14:03:43.999Z</time></trkpt><trkpt lat="45.78090559569953" lon="12.055199316850217"><ele>122.0</ele><time>2026-04-04T14:03:44.999Z</time></trkpt><trkpt lat="45.78091281417734" lon="12.05506012408366"><ele>122.0</ele><time>2026-04-04T14:03:45.999Z</time></trkpt><trkpt lat="45.780915866423314" lon="12.05490393353456"><ele>122.0</ele><time>2026-04-04T14:03:46.999Z</time></trkpt><trkpt lat="45.78091830854623" lon="12.054732464060404"><ele>122.0</ele><time>2026-04-04T14:03:47.999Z</time></trkpt><trkpt lat="45.78092941852947" lon="12.054546060056564"><ele>122.0</ele><time>2026-04-04T14:03:48.999Z</time></trkpt><trkpt lat="45.78093527205555" lon="12.054372511874472"><ele>121.99999999999999</ele><time>2026-04-04T14:03:49.999Z</time></trkpt><trkpt lat="45.78094206211743" lon="12.054218630581568"><ele>121.99999999999999</ele><time>2026-04-04T14:03:50.999Z</time></trkpt><trkpt lat="45.78093842905086" lon="12.054080667404179"><ele>122.0</ele><time>2026-04-04T14:03:51.999Z</time></trkpt><trkpt lat="45.78093955891029" lon="12.053939301361583"><ele>122.0</ele><time>2026-04-04T14:03:52.999Z</time></trkpt><trkpt lat="45.78093700132127" lon="12.053777097971729"><ele>122.75</ele><time>2026-04-04T14:03:53.999Z</time></trkpt><trkpt lat="45.780938218979045" lon="12.053590308366752"><ele>123.5</ele><time>2026-04-04T14:03:54.999Z</time></trkpt><trkpt lat="45.78096206296285" lon="12.053408945327407"><ele>124.25</ele><time>2026-04-04T14:03:55.999Z</time></trkpt><trkpt lat="45.78096457541058" lon="12.053228904769101"><ele>125.0</ele><time>2026-04-04T14:03:56.999Z</time></trkpt><trkpt lat="45.78099134762746" lon="12.053060918176921"><ele>127.2</ele><time>2026-04-04T14:03:57.999Z</time></trkpt><trkpt lat="45.78101860778593" lon="12.052897384158515"><ele>129.4</ele><time>2026-04-04T14:03:58.999Z</time></trkpt><trkpt lat="45.78105632898673" lon="12.052743088015314"><ele>131.6</ele><time>2026-04-04T14:03:59.999Z</time></trkpt><trkpt lat="45.78110954734193" lon="12.0526245005216"><ele>133.8</ele><time>2026-04-04T14:04:00.999Z</time></trkpt><trkpt lat="45.78115188463471" lon="12.052519867620795"><ele>136.0</ele><time>2026-04-04T14:04:01.999Z</time></trkpt><trkpt lat="45.78116844597399" lon="12.052418763513188"><ele>136.0</ele><time>2026-04-04T14:04:02.999Z</time></trkpt><trkpt lat="45.78117095610683" lon="12.052310964851305"><ele>136.0</ele><time>2026-04-04T14:04:03.999Z</time></trkpt><trkpt lat="45.781150748621954" lon="12.052212959106045"><ele>136.0</ele><time>2026-04-04T14:04:04.999Z</time></trkpt><trkpt lat="45.781106419966" lon="12.052137510078571"><ele>136.0</ele><time>2026-04-04T14:04:05.999Z</time></trkpt><trkpt lat="45.78104217837408" lon="12.052087691654677"><ele>136.0</ele><time>2026-04-04T14:04:06.999Z</time></trkpt><trkpt lat="45.7809493034296" lon="12.052063004580825"><ele>136.0</ele><time>2026-04-04T14:04:07.999Z</time></trkpt><trkpt lat="45.780848711488794" lon="12.052043759789823"><ele>134.83333333333334</ele><time>2026-04-04T14:04:08.999Z</time></trkpt><trkpt lat="45.78075317302982" lon="12.052049025819997"><ele>133.66666666666669</ele><time>2026-04-04T14:04:09.999Z</time></trkpt><trkpt lat="45.780666289634866" lon="12.052030331324447"><ele>132.5</ele><time>2026-04-04T14:04:10.999Z</time></trkpt><trkpt lat="45.780594033032614" lon="12.052024812680884"><ele>131.33333333333334</ele><time>2026-04-04T14:04:11.999Z</time></trkpt><trkpt lat="45.78049466051248" lon="12.051929943724247"><ele>130.16666666666666</ele><time>2026-04-04T14:04:13.999Z</time></trkpt><trkpt lat="45.78047761924685" lon="12.051832179520948"><ele>129.0</ele><time>2026-04-04T14:04:14.999Z</time></trkpt><trkpt lat="45.78046651583352" lon="12.051702378795731"><ele>128.4</ele><time>2026-04-04T14:04:15.999Z</time></trkpt><trkpt lat="45.78045004625104" lon="12.0515564889596"><ele>127.80000000000001</ele><time>2026-04-04T14:04:16.999Z</time></trkpt><trkpt lat="45.78042872833771" lon="12.05140035070024"><ele>127.19999999999999</ele><time>2026-04-04T14:04:17.999Z</time></trkpt><trkpt lat="45.78038657885609" lon="12.051267377313268"><ele>126.6</ele><time>2026-04-04T14:04:18.999Z</time></trkpt><trkpt lat="45.78034069166227" lon="12.051157856855218"><ele>126.0</ele><time>2026-04-04T14:04:19.999Z</time></trkpt><trkpt lat="45.780286935449965" lon="12.051054034989413"><ele>126.0</ele><time>2026-04-04T14:04:20.999Z</time></trkpt><trkpt lat="45.78024320815266" lon="12.050954540438772"><ele>126.0</ele><time>2026-04-04T14:04:21.999Z</time></trkpt><trkpt lat="45.780222853801725" lon="12.05086222890863"><ele>126.0</ele><time>2026-04-04T14:04:22.999Z</time></trkpt><trkpt lat="45.780197026654456" lon="12.050692078049563"><ele>126.0</ele><time>2026-04-04T14:04:24.999Z</time></trkpt><trkpt lat="45.7801859902131" lon="12.05056088614721"><ele>126.0</ele><time>2026-04-04T14:04:26.999Z</time></trkpt><trkpt lat="45.780193864717226" lon="12.050467041371915"><ele>126.0</ele><time>2026-04-04T14:04:33Z</time></trkpt><trkpt lat="45.7802889863093" lon="12.050436272177258"><ele>126.16666666666667</ele><time>2026-04-04T14:04:34Z</time></trkpt><trkpt lat="45.780377045048496" lon="12.050382633182396"><ele>126.33333333333334</ele><time>2026-04-04T14:04:36Z</time></trkpt><trkpt lat="45.780463327749196" lon="12.050423110457118"><ele>126.5</ele><time>2026-04-04T14:04:37Z</time></trkpt><trkpt lat="45.780536210521014" lon="12.050412005749505"><ele>126.66666666666667</ele><time>2026-04-04T14:04:38Z</time></trkpt><trkpt lat="45.78060236182413" lon="12.050411099821995"><ele>126.83333333333334</ele><time>2026-04-04T14:04:39Z</time></trkpt><trkpt lat="45.7806696290957" lon="12.050434370211716"><ele>127.0</ele><time>2026-04-04T14:04:40Z</time></trkpt><trkpt lat="45.78073474020504" lon="12.050492111361368"><ele>127.00000000000001</ele><time>2026-04-04T14:04:41Z</time></trkpt><trkpt lat="45.780797013203305" lon="12.050561076086383"><ele>127.0</ele><time>2026-04-04T14:04:42Z</time></trkpt><trkpt lat="45.78085363451816" lon="12.05063780814271"><ele>127.0</ele><time>2026-04-04T14:04:43Z</time></trkpt><trkpt lat="45.780911992682185" lon="12.050712399192477"><ele>127.0</ele><time>2026-04-04T14:04:44Z</time></trkpt><trkpt lat="45.78096631392911" lon="12.050784196356958"><ele>127.00000000000001</ele><time>2026-04-04T14:04:45Z</time></trkpt><trkpt lat="45.78102255287564" lon="12.05085804115018"><ele>127.0</ele><time>2026-04-04T14:04:46Z</time></trkpt><trkpt lat="45.78108686043724" lon="12.05094306343167"><ele>128.79999999999998</ele><time>2026-04-04T14:04:47Z</time></trkpt><trkpt lat="45.78115882401045" lon="12.051030596746523"><ele>130.6</ele><time>2026-04-04T14:04:48Z</time></trkpt><trkpt lat="45.78124083144334" lon="12.051140904038304"><ele>132.39999999999998</ele><time>2026-04-04T14:04:49Z</time></trkpt><trkpt lat="45.78133755303157" lon="12.051252562493014"><ele>134.2</ele><time>2026-04-04T14:04:50Z</time></trkpt><trkpt lat="45.7814246067915" lon="12.051353317133657"><ele>136.0</ele><time>2026-04-04T14:04:51Z</time></trkpt><trkpt lat="45.781517824443625" lon="12.051445156257348"><ele>136.0</ele><time>2026-04-04T14:04:52Z</time></trkpt><trkpt lat="45.781605020669865" lon="12.051546683935964"><ele>136.0</ele><time>2026-04-04T14:04:53Z</time></trkpt><trkpt lat="45.781687484472236" lon="12.051660752413351"><ele>136.0</ele><time>2026-04-04T14:04:54Z</time></trkpt><trkpt lat="45.78177644960629" lon="12.0517666176775"><ele>136.0</ele><time>2026-04-04T14:04:55Z</time></trkpt><trkpt lat="45.78188187103268" lon="12.051857337060593"><ele>137.0</ele><time>2026-04-04T14:04:55.999Z</time></trkpt><trkpt lat="45.781997930203126" lon="12.051923334758992"><ele>138.0</ele><time>2026-04-04T14:04:56.999Z</time></trkpt><trkpt lat="45.78210057183822" lon="12.051989632339884"><ele>139.0</ele><time>2026-04-04T14:04:57.999Z</time></trkpt><trkpt lat="45.78220798268294" lon="12.052045850561232"><ele>140.0</ele><time>2026-04-04T14:04:58.999Z</time></trkpt><trkpt lat="45.782315301601926" lon="12.052104103578063"><ele>140.0</ele><time>2026-04-04T14:04:59.999Z</time></trkpt><trkpt lat="45.78241339820849" lon="12.052164549409133"><ele>140.0</ele><time>2026-04-04T14:05:00.999Z</time></trkpt><trkpt lat="45.782511916928236" lon="12.05221569341783"><ele>140.0</ele><time>2026-04-04T14:05:01.999Z</time></trkpt><trkpt lat="45.78260424934785" lon="12.05226318040606"><ele>140.0</ele><time>2026-04-04T14:05:02.999Z</time></trkpt><trkpt lat="45.78268867118139" lon="12.052313613423943"><ele>140.0</ele><time>2026-04-04T14:05:03.999Z</time></trkpt><trkpt lat="45.78277267554087" lon="12.052374686993424"><ele>137.4</ele><time>2026-04-04T14:05:04.999Z</time></trkpt><trkpt lat="45.78285573446434" lon="12.052446113895487"><ele>134.8</ele><time>2026-04-04T14:05:05.999Z</time></trkpt><trkpt lat="45.78293881253807" lon="12.052528056316268"><ele>132.2</ele><time>2026-04-04T14:05:06.999Z</time></trkpt><trkpt lat="45.783029859772725" lon="12.052613055330152"><ele>129.6</ele><time>2026-04-04T14:05:07.999Z</time></trkpt><trkpt lat="45.78312653727516" lon="12.052703005019808"><ele>127.0</ele><time>2026-04-04T14:05:08.999Z</time></trkpt><trkpt lat="45.783237187830714" lon="12.05278984812417"><ele>126.75</ele><time>2026-04-04T14:05:09.999Z</time></trkpt><trkpt lat="45.78335417714552" lon="12.052878452398046"><ele>126.5</ele><time>2026-04-04T14:05:10.999Z</time></trkpt><trkpt lat="45.7834653269589" lon="12.052965399449196"><ele>126.25</ele><time>2026-04-04T14:05:11.999Z</time></trkpt><trkpt lat="45.783578466874985" lon="12.053035433795184"><ele>126.0</ele><time>2026-04-04T14:05:12.999Z</time></trkpt><trkpt lat="45.78367878570682" lon="12.053119047576256"><ele>125.75</ele><time>2026-04-04T14:05:13.999Z</time></trkpt><trkpt lat="45.78378298022793" lon="12.053196679086415"><ele>125.5</ele><time>2026-04-04T14:05:14.999Z</time></trkpt><trkpt lat="45.78388249315158" lon="12.053275219967595"><ele>125.25</ele><time>2026-04-04T14:05:15.999Z</time></trkpt><trkpt lat="45.78398381612776" lon="12.053352476851959"><ele>125.0</ele><time>2026-04-04T14:05:16.999Z</time></trkpt><trkpt lat="45.78408300912261" lon="12.05342872753713"><ele>125.0</ele><time>2026-04-04T14:05:17.999Z</time></trkpt><trkpt lat="45.78417896962355" lon="12.053513062599052"><ele>125.0</ele><time>2026-04-04T14:05:18.999Z</time></trkpt><trkpt lat="45.784273651018935" lon="12.053597307821862"><ele>125.0</ele><time>2026-04-04T14:05:19.999Z</time></trkpt><trkpt lat="45.784352891377075" lon="12.053692398106424"><ele>125.0</ele><time>2026-04-04T14:05:20.999Z</time></trkpt><trkpt lat="45.784421608463646" lon="12.05379282483429"><ele>125.0</ele><time>2026-04-04T14:05:21.999Z</time></trkpt><trkpt lat="45.784481181712025" lon="12.053905547317616"><ele>125.0</ele><time>2026-04-04T14:05:22.999Z</time></trkpt><trkpt lat="45.78452596288802" lon="12.054032316321482"><ele>125.0</ele><time>2026-04-04T14:05:23.999Z</time></trkpt><trkpt lat="45.78455736646943" lon="12.054167956006413"><ele>125.0</ele><time>2026-04-04T14:05:24.999Z</time></trkpt><trkpt lat="45.78457717079633" lon="12.054321056629776"><ele>125.0</ele><time>2026-04-04T14:05:25.999Z</time></trkpt><trkpt lat="45.784583950352825" lon="12.054495806509388"><ele>125.0</ele><time>2026-04-04T14:05:26.999Z</time></trkpt><trkpt lat="45.784575797789515" lon="12.054671120829079"><ele>125.0</ele><time>2026-04-04T14:05:27.999Z</time></trkpt><trkpt lat="45.78455348980386" lon="12.054842592682517"><ele>125.0</ele><time>2026-04-04T14:05:28.999Z</time></trkpt><trkpt lat="45.784495853096665" lon="12.054998669556953"><ele>125.0</ele><time>2026-04-04T14:05:29.999Z</time></trkpt><trkpt lat="45.78443512209389" lon="12.055162080303575"><ele>125.0</ele><time>2026-04-04T14:05:30.999Z</time></trkpt><trkpt lat="45.784362773323274" lon="12.05533137464271"><ele>124.75</ele><time>2026-04-04T14:05:31.999Z</time></trkpt><trkpt lat="45.7842896713943" lon="12.055494021481039"><ele>124.5</ele><time>2026-04-04T14:05:32.999Z</time></trkpt><trkpt lat="45.784236354513666" lon="12.055661362708816"><ele>124.25</ele><time>2026-04-04T14:05:33.999Z</time></trkpt><trkpt lat="45.78417144987664" lon="12.055811731898606"><ele>124.0</ele><time>2026-04-04T14:05:34.999Z</time></trkpt><trkpt lat="45.784094348337305" lon="12.055958050365327"><ele>123.75</ele><time>2026-04-04T14:05:35.999Z</time></trkpt><trkpt lat="45.78403262246678" lon="12.056110271042817"><ele>123.5</ele><time>2026-04-04T14:05:36.999Z</time></trkpt><trkpt lat="45.783988036838544" lon="12.056271780880014"><ele>123.25</ele><time>2026-04-04T14:05:37.999Z</time></trkpt><trkpt lat="45.78392680460776" lon="12.056408933481922"><ele>123.0</ele><time>2026-04-04T14:05:38.999Z</time></trkpt><trkpt lat="45.78385804106473" lon="12.05654616607943"><ele>122.75</ele><time>2026-04-04T14:05:39.999Z</time></trkpt><trkpt lat="45.7838171232324" lon="12.05669559930094"><ele>122.5</ele><time>2026-04-04T14:05:40.999Z</time></trkpt><trkpt lat="45.78375617232977" lon="12.056859124187687"><ele>122.25</ele><time>2026-04-04T14:05:41.999Z</time></trkpt><trkpt lat="45.783687304639756" lon="12.05704931694031"><ele>122.0</ele><time>2026-04-04T14:05:42.999Z</time></trkpt><trkpt lat="45.783635757998404" lon="12.057274726229057"><ele>122.33333333333333</ele><time>2026-04-04T14:05:43.999Z</time></trkpt><trkpt lat="45.78355283371487" lon="12.057492583483912"><ele>122.66666666666666</ele><time>2026-04-04T14:05:44.999Z</time></trkpt><trkpt lat="45.78347825556618" lon="12.057696304338975"><ele>123.0</ele><time>2026-04-04T14:05:45.999Z</time></trkpt><trkpt lat="45.78341557826143" lon="12.057878420925396"><ele>123.0</ele><time>2026-04-04T14:05:46.999Z</time></trkpt><trkpt lat="45.783336019669505" lon="12.058025520552073"><ele>123.0</ele><time>2026-04-04T14:05:47.999Z</time></trkpt><trkpt lat="45.78328201767261" lon="12.058195844122977"><ele>123.0</ele><time>2026-04-04T14:05:48.999Z</time></trkpt><trkpt lat="45.78325739067004" lon="12.058373582436081"><ele>123.0</ele><time>2026-04-04T14:05:49.999Z</time></trkpt><trkpt lat="45.78322176998749" lon="12.058546201016755"><ele>123.0</ele><time>2026-04-04T14:05:50.999Z</time></trkpt><trkpt lat="45.783182265800804" lon="12.058708092934795"><ele>123.0</ele><time>2026-04-04T14:05:51.999Z</time></trkpt><trkpt lat="45.783167289934056" lon="12.058848378275371"><ele>123.0</ele><time>2026-04-04T14:05:52.999Z</time></trkpt><trkpt lat="45.783181994932" lon="12.05895941342972"><ele>123.0</ele><time>2026-04-04T14:05:53.999Z</time></trkpt><trkpt lat="45.78321612065268" lon="12.059051329958217"><ele>123.0</ele><time>2026-04-04T14:05:54.999Z</time></trkpt><trkpt lat="45.78327213293035" lon="12.059116114205523"><ele>123.0</ele><time>2026-04-04T14:05:55.999Z</time></trkpt><trkpt lat="45.78335311292649" lon="12.059163110527562"><ele>123.0</ele><time>2026-04-04T14:05:56.999Z</time></trkpt><trkpt lat="45.78344510200615" lon="12.059161006395412"><ele>123.0</ele><time>2026-04-04T14:05:57.999Z</time></trkpt><trkpt lat="45.7835411004557" lon="12.05915772969995"><ele>123.0</ele><time>2026-04-04T14:05:58.999Z</time></trkpt><trkpt lat="45.78362217893131" lon="12.059191097192185"><ele>123.0</ele><time>2026-04-04T14:05:59.999Z</time></trkpt><trkpt lat="45.78366386984293" lon="12.0592625651768"><ele>123.0</ele><time>2026-04-04T14:06:00.999Z</time></trkpt><trkpt lat="45.78369118034864" lon="12.059374898046972"><ele>123.0</ele><time>2026-04-04T14:06:02.999Z</time></trkpt><trkpt lat="45.78365994489936" lon="12.059479153153676"><ele>123.0</ele><time>2026-04-04T14:06:04.999Z</time></trkpt><trkpt lat="45.783584008096135" lon="12.059547894437285"><ele>123.0</ele><time>2026-04-04T14:06:06.999Z</time></trkpt><trkpt lat="45.783520791616795" lon="12.059558867742668"><ele>123.0</ele><time>2026-04-04T14:06:07.999Z</time></trkpt><trkpt lat="45.783437948847045" lon="12.059558680953286"><ele>123.0</ele><time>2026-04-04T14:06:08.999Z</time></trkpt><trkpt lat="45.7833508932695" lon="12.059581779141793"><ele>123.0</ele><time>2026-04-04T14:06:09.999Z</time></trkpt><trkpt lat="45.783278547849584" lon="12.059644875003116"><ele>123.0</ele><time>2026-04-04T14:06:10.999Z</time></trkpt><trkpt lat="45.783234447139975" lon="12.05973448662835"><ele>123.0</ele><time>2026-04-04T14:06:11.999Z</time></trkpt><trkpt lat="45.78320610972197" lon="12.059847794416964"><ele>123.00000000000001</ele><time>2026-04-04T14:06:12.999Z</time></trkpt><trkpt lat="45.783195189623235" lon="12.05998625671944"><ele>123.00000000000001</ele><time>2026-04-04T14:06:13.999Z</time></trkpt><trkpt lat="45.783195919663044" lon="12.06014747357382"><ele>123.0</ele><time>2026-04-04T14:06:14.999Z</time></trkpt><trkpt lat="45.783202977737915" lon="12.060327206672316"><ele>123.0</ele><time>2026-04-04T14:06:15.999Z</time></trkpt><trkpt lat="45.78321295517927" lon="12.060504845298022"><ele>122.5</ele><time>2026-04-04T14:06:16.999Z</time></trkpt><trkpt lat="45.78322967964035" lon="12.060695404173563"><ele>122.0</ele><time>2026-04-04T14:06:17.999Z</time></trkpt><trkpt lat="45.78323222503014" lon="12.06091114814543"><ele>121.5</ele><time>2026-04-04T14:06:18.999Z</time></trkpt><trkpt lat="45.78321694940501" lon="12.061140443128735"><ele>121.0</ele><time>2026-04-04T14:06:19.999Z</time></trkpt><trkpt lat="45.7831806246377" lon="12.061372359226077"><ele>121.0</ele><time>2026-04-04T14:06:20.999Z</time></trkpt><trkpt lat="45.783177088825916" lon="12.06159668490594"><ele>121.0</ele><time>2026-04-04T14:06:21.999Z</time></trkpt><trkpt lat="45.78315636161732" lon="12.061804599709351"><ele>121.0</ele><time>2026-04-04T14:06:22.999Z</time></trkpt><trkpt lat="45.78314095924386" lon="12.0620155536751"><ele>120.33333333333334</ele><time>2026-04-04T14:06:23.999Z</time></trkpt><trkpt lat="45.78312163825437" lon="12.062229337457259"><ele>119.66666666666666</ele><time>2026-04-04T14:06:24.999Z</time></trkpt><trkpt lat="45.78309899939682" lon="12.062445290560287"><ele>119.0</ele><time>2026-04-04T14:06:25.999Z</time></trkpt><trkpt lat="45.783070395753334" lon="12.062656201019383"><ele>119.0</ele><time>2026-04-04T14:06:26.999Z</time></trkpt><trkpt lat="45.783035847782806" lon="12.062869334736874"><ele>119.0</ele><time>2026-04-04T14:06:27.999Z</time></trkpt><trkpt lat="45.78299765014287" lon="12.063084459644973"><ele>119.0</ele><time>2026-04-04T14:06:28.999Z</time></trkpt><trkpt lat="45.78295174702381" lon="12.063303580354823"><ele>119.0</ele><time>2026-04-04T14:06:29.999Z</time></trkpt><trkpt lat="45.78290149123635" lon="12.06352057899977"><ele>119.0</ele><time>2026-04-04T14:06:31Z</time></trkpt><trkpt lat="45.78284318150649" lon="12.063733166183573"><ele>119.0</ele><time>2026-04-04T14:06:32Z</time></trkpt><trkpt lat="45.78277710286371" lon="12.063950223774082"><ele>118.66666666666666</ele><time>2026-04-04T14:06:33Z</time></trkpt><trkpt lat="45.78270743704675" lon="12.064164613104012"><ele>118.33333333333334</ele><time>2026-04-04T14:06:34Z</time></trkpt><trkpt lat="45.78261364637502" lon="12.064370350867785"><ele>118.0</ele><time>2026-04-04T14:06:35Z</time></trkpt><trkpt lat="45.78253582850145" lon="12.06461048936126"><ele>118.0</ele><time>2026-04-04T14:06:36Z</time></trkpt><trkpt lat="45.78243915767167" lon="12.064826713304273"><ele>118.0</ele><time>2026-04-04T14:06:37Z</time></trkpt><trkpt lat="45.78231908979979" lon="12.065032486341384"><ele>118.0</ele><time>2026-04-04T14:06:38Z</time></trkpt><trkpt lat="45.78220552842713" lon="12.06528238309774"><ele>118.33333333333334</ele><time>2026-04-04T14:06:39Z</time></trkpt><trkpt lat="45.78207255145257" lon="12.065484555832215"><ele>118.66666666666666</ele><time>2026-04-04T14:06:40Z</time></trkpt><trkpt lat="45.78195115264441" lon="12.065681284432362"><ele>119.0</ele><time>2026-04-04T14:06:41Z</time></trkpt><trkpt lat="45.7818245646379" lon="12.065872556636773"><ele>118.33333333333333</ele><time>2026-04-04T14:06:42Z</time></trkpt><trkpt lat="45.78169049717281" lon="12.066051464924774"><ele>117.66666666666666</ele><time>2026-04-04T14:06:43Z</time></trkpt><trkpt lat="45.78156851200525" lon="12.066237531461702"><ele>117.0</ele><time>2026-04-04T14:06:44Z</time></trkpt><trkpt lat="45.78141556894188" lon="12.06638170826184"><ele>117.0</ele><time>2026-04-04T14:06:45Z</time></trkpt><trkpt lat="45.78127491806881" lon="12.066553517051299"><ele>117.0</ele><time>2026-04-04T14:06:46Z</time></trkpt><trkpt lat="45.78112331393292" lon="12.066698480252034"><ele>117.0</ele><time>2026-04-04T14:06:47Z</time></trkpt><trkpt lat="45.78096230035639" lon="12.066838918348079"><ele>117.0</ele><time>2026-04-04T14:06:48Z</time></trkpt><trkpt lat="45.78081224837611" lon="12.066967427878955"><ele>117.0</ele><time>2026-04-04T14:06:49Z</time></trkpt><trkpt lat="45.78064365843737" lon="12.067068637790564"><ele>117.0</ele><time>2026-04-04T14:06:50Z</time></trkpt><trkpt lat="45.78046593821705" lon="12.067188536764178"><ele>117.0</ele><time>2026-04-04T14:06:51Z</time></trkpt><trkpt lat="45.78029117752352" lon="12.067294398694408"><ele>117.0</ele><time>2026-04-04T14:06:52Z</time></trkpt><trkpt lat="45.78011504518939" lon="12.067387499120091"><ele>117.0</ele><time>2026-04-04T14:06:53Z</time></trkpt><trkpt lat="45.779931358759384" lon="12.067470983787988"><ele>116.66666666666666</ele><time>2026-04-04T14:06:54Z</time></trkpt><trkpt lat="45.779743206891865" lon="12.067542599967204"><ele>116.33333333333333</ele><time>2026-04-04T14:06:55Z</time></trkpt><trkpt lat="45.77955257824727" lon="12.067601973213847"><ele>116.0</ele><time>2026-04-04T14:06:56Z</time></trkpt><trkpt lat="45.779360242181085" lon="12.067673763319027"><ele>116.0</ele><time>2026-04-04T14:06:57Z</time></trkpt><trkpt lat="45.77916323644252" lon="12.067713382570547"><ele>116.0</ele><time>2026-04-04T14:06:58Z</time></trkpt><trkpt lat="45.77896718435711" lon="12.067747362954771"><ele>116.0</ele><time>2026-04-04T14:06:59Z</time></trkpt><trkpt lat="45.77876295746901" lon="12.06778643187486"><ele>116.0</ele><time>2026-04-04T14:07:00Z</time></trkpt><trkpt lat="45.778559019839996" lon="12.067831933543228"><ele>116.0</ele><time>2026-04-04T14:07:01Z</time></trkpt><trkpt lat="45.778353040289296" lon="12.067878835260789"><ele>116.0</ele><time>2026-04-04T14:07:02Z</time></trkpt><trkpt lat="45.77814048251588" lon="12.067924475409244"><ele>115.0</ele><time>2026-04-04T14:07:03Z</time></trkpt><trkpt lat="45.77792900325287" lon="12.067968264016839"><ele>114.0</ele><time>2026-04-04T14:07:04Z</time></trkpt><trkpt lat="45.77771834097069" lon="12.06801080175598"><ele>113.0</ele><time>2026-04-04T14:07:05Z</time></trkpt><trkpt lat="45.77752290566151" lon="12.068051506502709"><ele>113.0</ele><time>2026-04-04T14:07:06Z</time></trkpt><trkpt lat="45.777337683253286" lon="12.068089878596476"><ele>113.0</ele><time>2026-04-04T14:07:07Z</time></trkpt><trkpt lat="45.77716007716651" lon="12.068128537237024"><ele>113.0</ele><time>2026-04-04T14:07:08Z</time></trkpt><trkpt lat="45.77700075352214" lon="12.068163263563434"><ele>112.66666666666666</ele><time>2026-04-04T14:07:09Z</time></trkpt><trkpt lat="45.77683378777987" lon="12.068192321858572"><ele>112.33333333333334</ele><time>2026-04-04T14:07:10Z</time></trkpt><trkpt lat="45.776688339748425" lon="12.068228132324535"><ele>112.0</ele><time>2026-04-04T14:07:11Z</time></trkpt><trkpt lat="45.77654029746296" lon="12.068261784868668"><ele>111.75</ele><time>2026-04-04T14:07:12Z</time></trkpt><trkpt lat="45.77638538040459" lon="12.068292613672487"><ele>111.5</ele><time>2026-04-04T14:07:13Z</time></trkpt><trkpt lat="45.776231761275284" lon="12.06832352919435"><ele>111.25</ele><time>2026-04-04T14:07:14Z</time></trkpt><trkpt lat="45.77609635912293" lon="12.06836157005607"><ele>111.0</ele><time>2026-04-04T14:07:15Z</time></trkpt><trkpt lat="45.77597552005194" lon="12.068402786339318"><ele>110.66666666666667</ele><time>2026-04-04T14:07:16Z</time></trkpt><trkpt lat="45.7758722362783" lon="12.068438339281544"><ele>110.33333333333334</ele><time>2026-04-04T14:07:17Z</time></trkpt><trkpt lat="45.77578959982942" lon="12.06846975315347"><ele>110.0</ele><time>2026-04-04T14:07:18Z</time></trkpt><trkpt lat="45.77572628775172" lon="12.06848993125775"><ele>109.66666666666667</ele><time>2026-04-04T14:07:19Z</time></trkpt><trkpt lat="45.775654786140215" lon="12.068486018827862"><ele>109.33333333333334</ele><time>2026-04-04T14:07:21Z</time></trkpt><trkpt lat="45.77559960107405" lon="12.068536123673272"><ele>109.0</ele><time>2026-04-04T14:08:15.999Z</time></trkpt><trkpt lat="45.775520523067975" lon="12.06861137058103"><ele>109.0</ele><time>2026-04-04T14:08:17.999Z</time></trkpt><trkpt lat="45.775443918730886" lon="12.06864687604795"><ele>109.0</ele><time>2026-04-04T14:08:19Z</time></trkpt><trkpt lat="45.775356607272364" lon="12.068689749076862"><ele>109.0</ele><time>2026-04-04T14:08:20Z</time></trkpt><trkpt lat="45.775261083741334" lon="12.068747078247842"><ele>109.0</ele><time>2026-04-04T14:08:21Z</time></trkpt><trkpt lat="45.775157289208636" lon="12.06881425712432"><ele>109.0</ele><time>2026-04-04T14:08:22Z</time></trkpt><trkpt lat="45.77503249373869" lon="12.068895156463322"><ele>108.5</ele><time>2026-04-04T14:08:23Z</time></trkpt><trkpt lat="45.7749082499325" lon="12.068978349342537"><ele>108.0</ele><time>2026-04-04T14:08:24Z</time></trkpt><trkpt lat="45.774776836102134" lon="12.069073389576968"><ele>107.5</ele><time>2026-04-04T14:08:25Z</time></trkpt><trkpt lat="45.77464181333929" lon="12.069182235471027"><ele>107.0</ele><time>2026-04-04T14:08:26Z</time></trkpt><trkpt lat="45.77450274115739" lon="12.069307566873885"><ele>106.66666666666666</ele><time>2026-04-04T14:08:27Z</time></trkpt><trkpt lat="45.77436493143515" lon="12.0694487519737"><ele>106.33333333333334</ele><time>2026-04-04T14:08:28Z</time></trkpt><trkpt lat="45.774222031585104" lon="12.069603994592306"><ele>106.0</ele><time>2026-04-04T14:08:29Z</time></trkpt><trkpt lat="45.77408538651234" lon="12.069767654582359"><ele>106.0</ele><time>2026-04-04T14:08:30Z</time></trkpt><trkpt lat="45.77394917396287" lon="12.069941521471714"><ele>106.0</ele><time>2026-04-04T14:08:31Z</time></trkpt><trkpt lat="45.77381048441664" lon="12.070124938578571"><ele>106.0</ele><time>2026-04-04T14:08:32Z</time></trkpt><trkpt lat="45.77367768015119" lon="12.070325052395347"><ele>105.66666666666667</ele><time>2026-04-04T14:08:33Z</time></trkpt><trkpt lat="45.77354225247135" lon="12.07053487074023"><ele>105.33333333333334</ele><time>2026-04-04T14:08:34Z</time></trkpt><trkpt lat="45.77340461677029" lon="12.070752872629322"><ele>105.0</ele><time>2026-04-04T14:08:35Z</time></trkpt><trkpt lat="45.77326716159432" lon="12.070974272211451"><ele>105.0</ele><time>2026-04-04T14:08:36Z</time></trkpt><trkpt lat="45.77312654667484" lon="12.071193102386296"><ele>105.0</ele><time>2026-04-04T14:08:37Z</time></trkpt><trkpt lat="45.77298588807652" lon="12.07140678788715"><ele>105.0</ele><time>2026-04-04T14:08:38Z</time></trkpt><trkpt lat="45.77284621716914" lon="12.071626083753427"><ele>105.0</ele><time>2026-04-04T14:08:39Z</time></trkpt><trkpt lat="45.77271138752658" lon="12.071848063713178"><ele>105.0</ele><time>2026-04-04T14:08:40Z</time></trkpt><trkpt lat="45.77255665637748" lon="12.072053709471646"><ele>105.0</ele><time>2026-04-04T14:08:41Z</time></trkpt><trkpt lat="45.77241214111791" lon="12.072279689068747"><ele>104.0</ele><time>2026-04-04T14:08:42Z</time></trkpt><trkpt lat="45.77228024098451" lon="12.072520497175658"><ele>103.0</ele><time>2026-04-04T14:08:43Z</time></trkpt><trkpt lat="45.772132022447444" lon="12.072748060584987"><ele>102.0</ele><time>2026-04-04T14:08:44Z</time></trkpt><trkpt lat="45.77199424533115" lon="12.07296990369971"><ele>102.0</ele><time>2026-04-04T14:08:45Z</time></trkpt><trkpt lat="45.771862138799115" lon="12.073172920351997"><ele>102.0</ele><time>2026-04-04T14:08:46Z</time></trkpt><trkpt lat="45.7717435215358" lon="12.073363043969186"><ele>102.0</ele><time>2026-04-04T14:08:47Z</time></trkpt><trkpt lat="45.77161942964326" lon="12.073529604023106"><ele>102.33333333333334</ele><time>2026-04-04T14:08:48Z</time></trkpt><trkpt lat="45.77151376656497" lon="12.073721436694614"><ele>102.66666666666667</ele><time>2026-04-04T14:08:49Z</time></trkpt><trkpt lat="45.77140145335802" lon="12.073895093866975"><ele>103.0</ele><time>2026-04-04T14:08:50Z</time></trkpt><trkpt lat="45.77129871486751" lon="12.074074077069858"><ele>102.66666666666667</ele><time>2026-04-04T14:08:51Z</time></trkpt><trkpt lat="45.77120158038048" lon="12.074258805813969"><ele>102.33333333333334</ele><time>2026-04-04T14:08:52Z</time></trkpt><trkpt lat="45.77111101650073" lon="12.074455551844276"><ele>102.0</ele><time>2026-04-04T14:08:53Z</time></trkpt><trkpt lat="45.77101555665941" lon="12.0746417661559"><ele>101.66666666666666</ele><time>2026-04-04T14:08:54Z</time></trkpt><trkpt lat="45.77092703091473" lon="12.074854099213416"><ele>101.33333333333333</ele><time>2026-04-04T14:08:55Z</time></trkpt><trkpt lat="45.77084045266647" lon="12.075058142402167"><ele>101.0</ele><time>2026-04-04T14:08:56Z</time></trkpt><trkpt lat="45.770769681423204" lon="12.075268145664092"><ele>101.0</ele><time>2026-04-04T14:08:57Z</time></trkpt><trkpt lat="45.77068869944872" lon="12.075450624137353"><ele>101.0</ele><time>2026-04-04T14:08:58Z</time></trkpt><trkpt lat="45.770604293813996" lon="12.075637579318085"><ele>101.0</ele><time>2026-04-04T14:08:59Z</time></trkpt><trkpt lat="45.77052878863545" lon="12.075821268788205"><ele>101.0</ele><time>2026-04-04T14:09:00Z</time></trkpt><trkpt lat="45.770450773802565" lon="12.076003699007527"><ele>101.0</ele><time>2026-04-04T14:09:01Z</time></trkpt><trkpt lat="45.77037261818614" lon="12.07619123479674"><ele>101.0</ele><time>2026-04-04T14:09:02Z</time></trkpt><trkpt lat="45.77028808766261" lon="12.076372462145205"><ele>101.0</ele><time>2026-04-04T14:09:03Z</time></trkpt><trkpt lat="45.77018522194634" lon="12.07653144031061"><ele>101.0</ele><time>2026-04-04T14:09:04Z</time></trkpt><trkpt lat="45.770105472937544" lon="12.07670501719915"><ele>101.0</ele><time>2026-04-04T14:09:05Z</time></trkpt><trkpt lat="45.77000440284903" lon="12.07686344108762"><ele>101.0</ele><time>2026-04-04T14:09:06Z</time></trkpt><trkpt lat="45.769907185458266" lon="12.077018327557772"><ele>100.75</ele><time>2026-04-04T14:09:07Z</time></trkpt><trkpt lat="45.76980714848483" lon="12.077173747706379"><ele>100.5</ele><time>2026-04-04T14:09:08Z</time></trkpt><trkpt lat="45.769706417185674" lon="12.077330906082027"><ele>100.25</ele><time>2026-04-04T14:09:09Z</time></trkpt><trkpt lat="45.76960305968511" lon="12.077480473676102"><ele>100.0</ele><time>2026-04-04T14:09:10Z</time></trkpt><trkpt lat="45.76949833087443" lon="12.077636476112412"><ele>100.0</ele><time>2026-04-04T14:09:11Z</time></trkpt><trkpt lat="45.76938985398686" lon="12.077793637680756"><ele>100.0</ele><time>2026-04-04T14:09:12Z</time></trkpt><trkpt lat="45.769277646376274" lon="12.077949434713506"><ele>100.0</ele><time>2026-04-04T14:09:13Z</time></trkpt><trkpt lat="45.7691619460338" lon="12.07810678806456"><ele>99.66666666666667</ele><time>2026-04-04T14:09:14Z</time></trkpt><trkpt lat="45.76903570152537" lon="12.078263806880774"><ele>99.33333333333334</ele><time>2026-04-04T14:09:15Z</time></trkpt><trkpt lat="45.76891156259476" lon="12.078411596989294"><ele>99.0</ele><time>2026-04-04T14:09:16Z</time></trkpt><trkpt lat="45.76879521035114" lon="12.078545885474044"><ele>98.75</ele><time>2026-04-04T14:09:17Z</time></trkpt><trkpt lat="45.76868074480346" lon="12.078668397067306"><ele>98.5</ele><time>2026-04-04T14:09:18Z</time></trkpt><trkpt lat="45.76857418092355" lon="12.07878655967828"><ele>98.25</ele><time>2026-04-04T14:09:19Z</time></trkpt><trkpt lat="45.76845522526643" lon="12.078899525043052"><ele>98.0</ele><time>2026-04-04T14:09:20Z</time></trkpt><trkpt lat="45.76834611524944" lon="12.079013004548033"><ele>98.0</ele><time>2026-04-04T14:09:21Z</time></trkpt><trkpt lat="45.76822938040479" lon="12.079126016645104"><ele>98.0</ele><time>2026-04-04T14:09:22Z</time></trkpt><trkpt lat="45.76810972120664" lon="12.079239028436497"><ele>98.0</ele><time>2026-04-04T14:09:23Z</time></trkpt><trkpt lat="45.76798971246262" lon="12.079351151923582"><ele>98.0</ele><time>2026-04-04T14:09:24Z</time></trkpt><trkpt lat="45.76786833718744" lon="12.079467523057245"><ele>98.0</ele><time>2026-04-04T14:09:25Z</time></trkpt><trkpt lat="45.767735657734725" lon="12.079591663407168"><ele>98.0</ele><time>2026-04-04T14:09:26Z</time></trkpt><trkpt lat="45.76759584405786" lon="12.079718680076244"><ele>98.0</ele><time>2026-04-04T14:09:27Z</time></trkpt><trkpt lat="45.76744979409906" lon="12.079850069413084"><ele>98.33333333333333</ele><time>2026-04-04T14:09:28Z</time></trkpt><trkpt lat="45.76730761603606" lon="12.079981550837795"><ele>98.66666666666666</ele><time>2026-04-04T14:09:29Z</time></trkpt><trkpt lat="45.76716466759393" lon="12.080113646795137"><ele>99.0</ele><time>2026-04-04T14:09:30Z</time></trkpt><trkpt lat="45.767026737637785" lon="12.080247740401038"><ele>99.0</ele><time>2026-04-04T14:09:31Z</time></trkpt><trkpt lat="45.76688782279253" lon="12.08037706176583"><ele>99.0</ele><time>2026-04-04T14:09:32Z</time></trkpt><trkpt lat="45.766755552670254" lon="12.080510124849697"><ele>99.0</ele><time>2026-04-04T14:09:33Z</time></trkpt><trkpt lat="45.7666173239555" lon="12.080636482235672"><ele>98.33333333333334</ele><time>2026-04-04T14:09:34Z</time></trkpt><trkpt lat="45.76647112416069" lon="12.080767113969689"><ele>97.66666666666667</ele><time>2026-04-04T14:09:35Z</time></trkpt><trkpt lat="45.76632773689606" lon="12.080905651542674"><ele>97.0</ele><time>2026-04-04T14:09:36Z</time></trkpt><trkpt lat="45.76618563032237" lon="12.081041009107274"><ele>97.0</ele><time>2026-04-04T14:09:37Z</time></trkpt><trkpt lat="45.7660501160182" lon="12.081187940963362"><ele>97.0</ele><time>2026-04-04T14:09:38Z</time></trkpt><trkpt lat="45.76591575892688" lon="12.08134256311187"><ele>97.0</ele><time>2026-04-04T14:09:39Z</time></trkpt><trkpt lat="45.76578669656931" lon="12.081503377891291"><ele>96.66666666666667</ele><time>2026-04-04T14:09:40Z</time></trkpt><trkpt lat="45.76566684805674" lon="12.081667685681035"><ele>96.33333333333334</ele><time>2026-04-04T14:09:41Z</time></trkpt><trkpt lat="45.7655450324277" lon="12.081836779782387"><ele>96.0</ele><time>2026-04-04T14:09:42Z</time></trkpt><trkpt lat="45.76542707380388" lon="12.082007932457726"><ele>96.0</ele><time>2026-04-04T14:09:43Z</time></trkpt><trkpt lat="45.76531313269252" lon="12.082185671441053"><ele>96.0</ele><time>2026-04-04T14:09:44Z</time></trkpt><trkpt lat="45.76519911466778" lon="12.08237053559621"><ele>96.0</ele><time>2026-04-04T14:09:45Z</time></trkpt><trkpt lat="45.76509241625014" lon="12.08256272730862"><ele>95.0</ele><time>2026-04-04T14:09:46Z</time></trkpt><trkpt lat="45.7649936185436" lon="12.082757666647877"><ele>94.0</ele><time>2026-04-04T14:09:47Z</time></trkpt><trkpt lat="45.7648946639113" lon="12.082955014837184"><ele>93.0</ele><time>2026-04-04T14:09:48Z</time></trkpt><trkpt lat="45.76478221978352" lon="12.083134676772612"><ele>93.33333333333333</ele><time>2026-04-04T14:09:49Z</time></trkpt><trkpt lat="45.76469377043954" lon="12.08333765365413"><ele>93.66666666666666</ele><time>2026-04-04T14:09:50Z</time></trkpt><trkpt lat="45.76458783693018" lon="12.083529830060241"><ele>94.0</ele><time>2026-04-04T14:09:51Z</time></trkpt><trkpt lat="45.76448333641695" lon="12.083721771001482"><ele>94.0</ele><time>2026-04-04T14:09:52Z</time></trkpt><trkpt lat="45.764376366228056" lon="12.083921182648702"><ele>94.0</ele><time>2026-04-04T14:09:53Z</time></trkpt><trkpt lat="45.7642800492425" lon="12.084107456273369"><ele>94.0</ele><time>2026-04-04T14:09:54Z</time></trkpt><trkpt lat="45.76417905051787" lon="12.08429882556441"><ele>95.0</ele><time>2026-04-04T14:09:55Z</time></trkpt><trkpt lat="45.76407610995111" lon="12.084493510585835"><ele>96.0</ele><time>2026-04-04T14:09:56Z</time></trkpt><trkpt lat="45.763975960733994" lon="12.084688737707134"><ele>97.0</ele><time>2026-04-04T14:09:57Z</time></trkpt><trkpt lat="45.763874103103106" lon="12.084885677086458"><ele>96.0</ele><time>2026-04-04T14:09:58Z</time></trkpt><trkpt lat="45.76377064907375" lon="12.085079976373104"><ele>95.0</ele><time>2026-04-04T14:09:59Z</time></trkpt><trkpt lat="45.76366735564317" lon="12.085267352736851"><ele>94.0</ele><time>2026-04-04T14:10:00Z</time></trkpt><trkpt lat="45.763566824483014" lon="12.085461254704004"><ele>94.33333333333333</ele><time>2026-04-04T14:10:01Z</time></trkpt><trkpt lat="45.7634651639235" lon="12.085652714457554"><ele>94.66666666666667</ele><time>2026-04-04T14:10:02Z</time></trkpt><trkpt lat="45.763353036185826" lon="12.085828583030496"><ele>95.0</ele><time>2026-04-04T14:10:03Z</time></trkpt><trkpt lat="45.76325017156393" lon="12.086023761359817"><ele>95.0</ele><time>2026-04-04T14:10:04Z</time></trkpt><trkpt lat="45.763158086871364" lon="12.086229060416317"><ele>95.0</ele><time>2026-04-04T14:10:05Z</time></trkpt><trkpt lat="45.763051574946886" lon="12.086421096139398"><ele>95.0</ele><time>2026-04-04T14:10:06Z</time></trkpt><trkpt lat="45.76295039790712" lon="12.086616468783873"><ele>94.33333333333334</ele><time>2026-04-04T14:10:07Z</time></trkpt><trkpt lat="45.762845891763554" lon="12.086810360352679"><ele>93.66666666666667</ele><time>2026-04-04T14:10:08Z</time></trkpt><trkpt lat="45.76274633975351" lon="12.087000917101712"><ele>93.0</ele><time>2026-04-04T14:10:09Z</time></trkpt><trkpt lat="45.7626434509225" lon="12.087190912605248"><ele>93.0</ele><time>2026-04-04T14:10:10Z</time></trkpt><trkpt lat="45.76254394850539" lon="12.087378829182985"><ele>93.0</ele><time>2026-04-04T14:10:11Z</time></trkpt><trkpt lat="45.762441352203396" lon="12.087571584030805"><ele>93.0</ele><time>2026-04-04T14:10:12Z</time></trkpt><trkpt lat="45.76233992146918" lon="12.087765202380487"><ele>92.66666666666667</ele><time>2026-04-04T14:10:13Z</time></trkpt><trkpt lat="45.762235527572784" lon="12.087961258462212"><ele>92.33333333333334</ele><time>2026-04-04T14:10:14Z</time></trkpt><trkpt lat="45.76213239623168" lon="12.088159322878951"><ele>92.0</ele><time>2026-04-04T14:10:15Z</time></trkpt><trkpt lat="45.7620365909307" lon="12.088355089015508"><ele>91.75</ele><time>2026-04-04T14:10:16Z</time></trkpt><trkpt lat="45.761951220151396" lon="12.08853461242554"><ele>91.5</ele><time>2026-04-04T14:10:17Z</time></trkpt><trkpt lat="45.761869756278955" lon="12.08870407838975"><ele>91.25</ele><time>2026-04-04T14:10:18Z</time></trkpt><trkpt lat="45.761795451360285" lon="12.088865357139603"><ele>91.0</ele><time>2026-04-04T14:10:19Z</time></trkpt><trkpt lat="45.76172554926679" lon="12.089016928182913"><ele>90.75</ele><time>2026-04-04T14:10:20Z</time></trkpt><trkpt lat="45.76165355814616" lon="12.08916312237634"><ele>90.5</ele><time>2026-04-04T14:10:21Z</time></trkpt><trkpt lat="45.76158645986057" lon="12.08930015342429"><ele>90.25</ele><time>2026-04-04T14:10:22Z</time></trkpt><trkpt lat="45.7615222333524" lon="12.089434503221572"><ele>90.0</ele><time>2026-04-04T14:10:23Z</time></trkpt><trkpt lat="45.761463398231186" lon="12.089564237250006"><ele>90.0</ele><time>2026-04-04T14:10:24Z</time></trkpt><trkpt lat="45.76140220280356" lon="12.089686768072557"><ele>90.0</ele><time>2026-04-04T14:10:25Z</time></trkpt><trkpt lat="45.76133939999449" lon="12.089805579131724"><ele>90.0</ele><time>2026-04-04T14:10:26Z</time></trkpt><trkpt lat="45.76128007979594" lon="12.089917202483987"><ele>90.0</ele><time>2026-04-04T14:10:27Z</time></trkpt><trkpt lat="45.761214242511926" lon="12.090015271303619"><ele>90.0</ele><time>2026-04-04T14:10:28Z</time></trkpt><trkpt lat="45.761130595436605" lon="12.090089316112772"><ele>90.2</ele><time>2026-04-04T14:10:29Z</time></trkpt><trkpt lat="45.76103008137258" lon="12.090116834478627"><ele>90.4</ele><time>2026-04-04T14:10:30Z</time></trkpt><trkpt lat="45.76094946131062" lon="12.090163296112575"><ele>90.6</ele><time>2026-04-04T14:10:31Z</time></trkpt><trkpt lat="45.76087514631399" lon="12.090243380695073"><ele>90.8</ele><time>2026-04-04T14:10:32Z</time></trkpt><trkpt lat="45.7607989836436" lon="12.090332140285067"><ele>91.0</ele><time>2026-04-04T14:10:33Z</time></trkpt><trkpt lat="45.76076512582019" lon="12.090476626577232"><ele>91.0</ele><time>2026-04-04T14:10:34Z</time></trkpt><trkpt lat="45.76071094496357" lon="12.090608825075353"><ele>91.0</ele><time>2026-04-04T14:10:35Z</time></trkpt><trkpt lat="45.76062776664386" lon="12.09072106395635"><ele>91.0</ele><time>2026-04-04T14:10:36Z</time></trkpt><trkpt lat="45.76052632453854" lon="12.090796626962426"><ele>91.0</ele><time>2026-04-04T14:10:37Z</time></trkpt><trkpt lat="45.76040884644956" lon="12.090861657897271"><ele>91.0</ele><time>2026-04-04T14:10:38Z</time></trkpt><trkpt lat="45.76029021851483" lon="12.09093042748568"><ele>91.0</ele><time>2026-04-04T14:10:39Z</time></trkpt><trkpt lat="45.76018619793216" lon="12.091006386869687"><ele>91.0</ele><time>2026-04-04T14:10:40Z</time></trkpt><trkpt lat="45.76009280858425" lon="12.09108387587497"><ele>91.0</ele><time>2026-04-04T14:10:41Z</time></trkpt><trkpt lat="45.760006996790764" lon="12.091165667075712"><ele>91.0</ele><time>2026-04-04T14:10:42Z</time></trkpt><trkpt lat="45.75992318436178" lon="12.091249624777582"><ele>91.0</ele><time>2026-04-04T14:10:43Z</time></trkpt><trkpt lat="45.7598337872595" lon="12.091329512073578"><ele>91.0</ele><time>2026-04-04T14:10:44Z</time></trkpt><trkpt lat="45.75974334981944" lon="12.091415334378162"><ele>91.0</ele><time>2026-04-04T14:10:45Z</time></trkpt><trkpt lat="45.75967453892633" lon="12.091518049641092"><ele>91.0</ele><time>2026-04-04T14:10:46Z</time></trkpt><trkpt lat="45.759608958726524" lon="12.091607243342276"><ele>90.8</ele><time>2026-04-04T14:10:47Z</time></trkpt><trkpt lat="45.75954223098473" lon="12.091689997917843"><ele>90.6</ele><time>2026-04-04T14:10:48Z</time></trkpt><trkpt lat="45.759469209018405" lon="12.091772156787796"><ele>90.4</ele><time>2026-04-04T14:10:49Z</time></trkpt><trkpt lat="45.759392991596954" lon="12.09184228067203"><ele>90.2</ele><time>2026-04-04T14:10:50Z</time></trkpt><trkpt lat="45.75931386119339" lon="12.091901177834233"><ele>90.0</ele><time>2026-04-04T14:10:51Z</time></trkpt><trkpt lat="45.75923189804369" lon="12.091960390955464"><ele>89.66666666666667</ele><time>2026-04-04T14:10:52Z</time></trkpt><trkpt lat="45.759150330772215" lon="12.092007581684511"><ele>89.33333333333333</ele><time>2026-04-04T14:10:53Z</time></trkpt><trkpt lat="45.75906331432994" lon="12.092035154687581"><ele>89.0</ele><time>2026-04-04T14:10:54Z</time></trkpt><trkpt lat="45.758975003193015" lon="12.092055660928686"><ele>88.66666666666666</ele><time>2026-04-04T14:10:55Z</time></trkpt><trkpt lat="45.75888806416116" lon="12.092080548577561"><ele>88.33333333333333</ele><time>2026-04-04T14:10:56Z</time></trkpt><trkpt lat="45.758800963892824" lon="12.092105214002487"><ele>88.0</ele><time>2026-04-04T14:10:57Z</time></trkpt><trkpt lat="45.75871746195831" lon="12.092133785825226"><ele>88.0</ele><time>2026-04-04T14:10:58Z</time></trkpt><trkpt lat="45.75864160515921" lon="12.092147576874389"><ele>88.0</ele><time>2026-04-04T14:10:59Z</time></trkpt><trkpt lat="45.75856018047719" lon="12.092136973907449"><ele>88.0</ele><time>2026-04-04T14:11:00Z</time></trkpt><trkpt lat="45.75847944860331" lon="12.092114442861847"><ele>88.0</ele><time>2026-04-04T14:11:01Z</time></trkpt><trkpt lat="45.75839589723728" lon="12.092103308010131"><ele>88.0</ele><time>2026-04-04T14:11:02Z</time></trkpt><trkpt lat="45.758314338865205" lon="12.092120163148815"><ele>88.0</ele><time>2026-04-04T14:11:03Z</time></trkpt><trkpt lat="45.758241014492995" lon="12.092149743542278"><ele>88.0</ele><time>2026-04-04T14:11:04Z</time></trkpt><trkpt lat="45.75817414936005" lon="12.092197812866301"><ele>88.0</ele><time>2026-04-04T14:11:05Z</time></trkpt><trkpt lat="45.75813458917592" lon="12.092332965492107"><ele>88.0</ele><time>2026-04-04T14:11:06Z</time></trkpt><trkpt lat="45.75813674780612" lon="12.092456609470588"><ele>88.0</ele><time>2026-04-04T14:11:07Z</time></trkpt><trkpt lat="45.75814109205644" lon="12.092572736121443"><ele>88.0</ele><time>2026-04-04T14:11:08Z</time></trkpt><trkpt lat="45.75815562446757" lon="12.092693340437487"><ele>88.0</ele><time>2026-04-04T14:11:09Z</time></trkpt><trkpt lat="45.758160900711644" lon="12.092818366500188"><ele>88.0</ele><time>2026-04-04T14:11:10Z</time></trkpt><trkpt lat="45.75816701825657" lon="12.092947233528735"><ele>88.0</ele><time>2026-04-04T14:11:11Z</time></trkpt><trkpt lat="45.75811586384324" lon="12.093097754803912"><ele>88.0</ele><time>2026-04-04T14:11:12Z</time></trkpt><trkpt lat="45.75807183576825" lon="12.093247879183373"><ele>88.0</ele><time>2026-04-04T14:11:13Z</time></trkpt><trkpt lat="45.758015877805114" lon="12.093397731474987"><ele>88.0</ele><time>2026-04-04T14:11:14Z</time></trkpt><trkpt lat="45.75794547420994" lon="12.093549639608542"><ele>88.25</ele><time>2026-04-04T14:11:15Z</time></trkpt><trkpt lat="45.757863433487984" lon="12.093697660762453"><ele>88.5</ele><time>2026-04-04T14:11:16Z</time></trkpt><trkpt lat="45.75776735399942" lon="12.093841562664837"><ele>88.75</ele><time>2026-04-04T14:11:17Z</time></trkpt><trkpt lat="45.757666535564894" lon="12.093981415951967"><ele>89.0</ele><time>2026-04-04T14:11:18Z</time></trkpt><trkpt lat="45.75756146890882" lon="12.094129754254203"><ele>88.33333333333334</ele><time>2026-04-04T14:11:19Z</time></trkpt><trkpt lat="45.757451982345195" lon="12.094295619861574"><ele>87.66666666666667</ele><time>2026-04-04T14:11:20Z</time></trkpt><trkpt lat="45.75734711224191" lon="12.094459146377854"><ele>87.0</ele><time>2026-04-04T14:11:21Z</time></trkpt><trkpt lat="45.757244938339156" lon="12.09461709881363"><ele>87.0</ele><time>2026-04-04T14:11:22Z</time></trkpt><trkpt lat="45.757138931393115" lon="12.09477737224542"><ele>87.0</ele><time>2026-04-04T14:11:23Z</time></trkpt><trkpt lat="45.75703361123399" lon="12.094941753451733"><ele>87.0</ele><time>2026-04-04T14:11:24Z</time></trkpt><trkpt lat="45.756928166423364" lon="12.095111463574987"><ele>87.66666666666667</ele><time>2026-04-04T14:11:25Z</time></trkpt><trkpt lat="45.756819947212634" lon="12.095277546025057"><ele>88.33333333333334</ele><time>2026-04-04T14:11:26Z</time></trkpt><trkpt lat="45.75671205186017" lon="12.095451609008375"><ele>89.0</ele><time>2026-04-04T14:11:27Z</time></trkpt><trkpt lat="45.75660280823642" lon="12.095626887587358"><ele>88.66666666666667</ele><time>2026-04-04T14:11:28Z</time></trkpt><trkpt lat="45.75649563606326" lon="12.095803288326124"><ele>88.33333333333333</ele><time>2026-04-04T14:11:29Z</time></trkpt><trkpt lat="45.75638866947728" lon="12.0959824449104"><ele>88.0</ele><time>2026-04-04T14:11:30Z</time></trkpt><trkpt lat="45.75628420402008" lon="12.096152669107235"><ele>88.0</ele><time>2026-04-04T14:11:31Z</time></trkpt><trkpt lat="45.756180267042566" lon="12.09632311384733"><ele>88.0</ele><time>2026-04-04T14:11:32Z</time></trkpt><trkpt lat="45.756076290883485" lon="12.096488486933845"><ele>88.0</ele><time>2026-04-04T14:11:33Z</time></trkpt><trkpt lat="45.75597124140291" lon="12.096649857066401"><ele>88.0</ele><time>2026-04-04T14:11:34Z</time></trkpt><trkpt lat="45.755865455123846" lon="12.09680058278646"><ele>88.0</ele><time>2026-04-04T14:11:35Z</time></trkpt><trkpt lat="45.75576540069571" lon="12.096932255182574"><ele>88.0</ele><time>2026-04-04T14:11:36Z</time></trkpt><trkpt lat="45.7556722516516" lon="12.09704943560966"><ele>88.0</ele><time>2026-04-04T14:11:37Z</time></trkpt><trkpt lat="45.75558358762795" lon="12.097164867370482"><ele>88.0</ele><time>2026-04-04T14:11:38Z</time></trkpt><trkpt lat="45.755495333248724" lon="12.097271708019"><ele>88.0</ele><time>2026-04-04T14:11:39Z</time></trkpt><trkpt lat="45.75541213471414" lon="12.097356851626163"><ele>88.0</ele><time>2026-04-04T14:11:40Z</time></trkpt><trkpt lat="45.75530996951658" lon="12.09742817310538"><ele>88.0</ele><time>2026-04-04T14:11:41Z</time></trkpt><trkpt lat="45.75523904326983" lon="12.097550951548813"><ele>88.0</ele><time>2026-04-04T14:11:42Z</time></trkpt><trkpt lat="45.75522733691956" lon="12.097721115060208"><ele>87.25</ele><time>2026-04-04T14:11:43Z</time></trkpt><trkpt lat="45.75519288088225" lon="12.097865882004472"><ele>86.5</ele><time>2026-04-04T14:11:44Z</time></trkpt><trkpt lat="45.75513615164103" lon="12.098004951479261"><ele>85.75</ele><time>2026-04-04T14:11:45Z</time></trkpt><trkpt lat="45.75505787045192" lon="12.09814104963466"><ele>85.0</ele><time>2026-04-04T14:11:46Z</time></trkpt><trkpt lat="45.75497176788968" lon="12.098276691114982"><ele>85.0</ele><time>2026-04-04T14:11:47Z</time></trkpt><trkpt lat="45.75488867479703" lon="12.098414248486927"><ele>85.0</ele><time>2026-04-04T14:11:48Z</time></trkpt><trkpt lat="45.75478951846731" lon="12.09854144478242"><ele>85.0</ele><time>2026-04-04T14:11:49Z</time></trkpt><trkpt lat="45.754698028261046" lon="12.098685297343076"><ele>85.0</ele><time>2026-04-04T14:11:50Z</time></trkpt><trkpt lat="45.75460408124484" lon="12.098834495074492"><ele>85.0</ele><time>2026-04-04T14:11:51Z</time></trkpt><trkpt lat="45.754508919041506" lon="12.098982002129357"><ele>85.0</ele><time>2026-04-04T14:11:52Z</time></trkpt><trkpt lat="45.754404521768876" lon="12.099139217538168"><ele>85.0</ele><time>2026-04-04T14:11:53Z</time></trkpt><trkpt lat="45.75429116450223" lon="12.09930151984702"><ele>84.66666666666666</ele><time>2026-04-04T14:11:54Z</time></trkpt><trkpt lat="45.75417192654673" lon="12.099464299095976"><ele>84.33333333333333</ele><time>2026-04-04T14:11:55Z</time></trkpt><trkpt lat="45.75404650977422" lon="12.099631572865993"><ele>84.0</ele><time>2026-04-04T14:11:56Z</time></trkpt><trkpt lat="45.75391939825826" lon="12.0998005693387"><ele>84.0</ele><time>2026-04-04T14:11:57Z</time></trkpt><trkpt lat="45.75378600021839" lon="12.099977923857562"><ele>84.0</ele><time>2026-04-04T14:11:58Z</time></trkpt><trkpt lat="45.753656512110204" lon="12.100150302744884"><ele>84.0</ele><time>2026-04-04T14:11:59Z</time></trkpt><trkpt lat="45.753530603151674" lon="12.100318010951254"><ele>84.66666666666667</ele><time>2026-04-04T14:12:00Z</time></trkpt><trkpt lat="45.75341510362041" lon="12.100501081184142"><ele>85.33333333333334</ele><time>2026-04-04T14:12:01Z</time></trkpt><trkpt lat="45.75329231355239" lon="12.100666477223436"><ele>86.0</ele><time>2026-04-04T14:12:02Z</time></trkpt><trkpt lat="45.75315345100376" lon="12.100817551938377"><ele>86.0</ele><time>2026-04-04T14:12:03Z</time></trkpt><trkpt lat="45.75302504817391" lon="12.100986391371189"><ele>86.0</ele><time>2026-04-04T14:12:04Z</time></trkpt><trkpt lat="45.75290041637859" lon="12.101150575035607"><ele>86.0</ele><time>2026-04-04T14:12:05Z</time></trkpt><trkpt lat="45.75278308135711" lon="12.101306486052781"><ele>85.33333333333334</ele><time>2026-04-04T14:12:06Z</time></trkpt><trkpt lat="45.75266681536251" lon="12.10146097500406"><ele>84.66666666666667</ele><time>2026-04-04T14:12:07Z</time></trkpt><trkpt lat="45.75255832902089" lon="12.101637309470053"><ele>84.0</ele><time>2026-04-04T14:12:08Z</time></trkpt><trkpt lat="45.75243955148961" lon="12.101792855352674"><ele>83.66666666666667</ele><time>2026-04-04T14:12:09Z</time></trkpt><trkpt lat="45.75231871077674" lon="12.101951633990552"><ele>83.33333333333334</ele><time>2026-04-04T14:12:10Z</time></trkpt><trkpt lat="45.752201098279286" lon="12.102112030394641"><ele>83.0</ele><time>2026-04-04T14:12:11Z</time></trkpt><trkpt lat="45.7520767095398" lon="12.102273750834318"><ele>83.0</ele><time>2026-04-04T14:12:12Z</time></trkpt><trkpt lat="45.7519472401385" lon="12.102414117457052"><ele>83.0</ele><time>2026-04-04T14:12:13Z</time></trkpt><trkpt lat="45.751826866603125" lon="12.102573155622036"><ele>83.0</ele><time>2026-04-04T14:12:14Z</time></trkpt><trkpt lat="45.75159121117904" lon="12.10289195321859"><ele>82.66666666666667</ele><time>2026-04-04T14:12:16Z</time></trkpt><trkpt lat="45.7514878341703" lon="12.103069292032252"><ele>82.33333333333333</ele><time>2026-04-04T14:12:17Z</time></trkpt><trkpt lat="45.75139132617465" lon="12.103226527257418"><ele>82.0</ele><time>2026-04-04T14:12:18Z</time></trkpt><trkpt lat="45.75129585589744" lon="12.103386392635604"><ele>82.0</ele><time>2026-04-04T14:12:19Z</time></trkpt><trkpt lat="45.751189907691945" lon="12.103536908847895"><ele>82.0</ele><time>2026-04-04T14:12:20Z</time></trkpt><trkpt lat="45.7511101073736" lon="12.103730845252521"><ele>82.0</ele><time>2026-04-04T14:12:21Z</time></trkpt><trkpt lat="45.7510229445548" lon="12.10391566034513"><ele>81.66666666666666</ele><time>2026-04-04T14:12:22Z</time></trkpt><trkpt lat="45.75093936575111" lon="12.104111051394202"><ele>81.33333333333333</ele><time>2026-04-04T14:12:23Z</time></trkpt><trkpt lat="45.750851765015874" lon="12.104295395731443"><ele>81.0</ele><time>2026-04-04T14:12:24Z</time></trkpt><trkpt lat="45.750778499339376" lon="12.104487007703561"><ele>81.0</ele><time>2026-04-04T14:12:25Z</time></trkpt><trkpt lat="45.75071074127275" lon="12.104680808526485"><ele>81.0</ele><time>2026-04-04T14:12:26Z</time></trkpt><trkpt lat="45.750660997369415" lon="12.104881299120484"><ele>81.0</ele><time>2026-04-04T14:12:27Z</time></trkpt><trkpt lat="45.75059611868743" lon="12.105068462270022"><ele>81.0</ele><time>2026-04-04T14:12:28Z</time></trkpt><trkpt lat="45.75052407749645" lon="12.10525376188555"><ele>81.25</ele><time>2026-04-04T14:12:29Z</time></trkpt><trkpt lat="45.750459920609046" lon="12.10544103604373"><ele>81.5</ele><time>2026-04-04T14:12:30Z</time></trkpt><trkpt lat="45.750388914368735" lon="12.105632130546987"><ele>81.75</ele><time>2026-04-04T14:12:31Z</time></trkpt><trkpt lat="45.750318397469705" lon="12.105808021871981"><ele>82.0</ele><time>2026-04-04T14:12:32Z</time></trkpt><trkpt lat="45.750246888304154" lon="12.1059919822191"><ele>82.0</ele><time>2026-04-04T14:12:33Z</time></trkpt><trkpt lat="45.75016035658337" lon="12.106144874343943"><ele>82.0</ele><time>2026-04-04T14:12:34Z</time></trkpt><trkpt lat="45.750107210865046" lon="12.10631198021059"><ele>82.0</ele><time>2026-04-04T14:12:35Z</time></trkpt><trkpt lat="45.750040981013306" lon="12.106458970197366"><ele>82.0</ele><time>2026-04-04T14:12:36Z</time></trkpt><trkpt lat="45.749975676237305" lon="12.106596250619333"><ele>82.0</ele><time>2026-04-04T14:12:37Z</time></trkpt><trkpt lat="45.74991767181969" lon="12.106718553503633"><ele>82.0</ele><time>2026-04-04T14:12:38Z</time></trkpt><trkpt lat="45.74986257281892" lon="12.106833960364465"><ele>82.0</ele><time>2026-04-04T14:12:39Z</time></trkpt><trkpt lat="45.7498103596989" lon="12.106945558400247"><ele>82.0</ele><time>2026-04-04T14:12:40Z</time></trkpt><trkpt lat="45.7497568247641" lon="12.107053354449567"><ele>82.0</ele><time>2026-04-04T14:12:41Z</time></trkpt><trkpt lat="45.74970529796859" lon="12.107159532246527"><ele>82.0</ele><time>2026-04-04T14:12:42Z</time></trkpt><trkpt lat="45.74965628386837" lon="12.107263025279682"><ele>82.0</ele><time>2026-04-04T14:12:43Z</time></trkpt><trkpt lat="45.74960189731602" lon="12.107353402332073"><ele>82.0</ele><time>2026-04-04T14:12:44Z</time></trkpt><trkpt lat="45.74952997137552" lon="12.107406411024094"><ele>82.0</ele><time>2026-04-04T14:12:45Z</time></trkpt><trkpt lat="45.74950723858035" lon="12.107500460034665"><ele>82.0</ele><time>2026-04-04T14:12:46Z</time></trkpt><trkpt lat="45.749438257366315" lon="12.107615518331693"><ele>82.0</ele><time>2026-04-04T14:12:48Z</time></trkpt><trkpt lat="45.74936614586534" lon="12.107677647826542"><ele>81.83333333333333</ele><time>2026-04-04T14:12:50Z</time></trkpt><trkpt lat="45.74933492635581" lon="12.10775777331834"><ele>81.66666666666666</ele><time>2026-04-04T14:12:54Z</time></trkpt><trkpt lat="45.74926219807026" lon="12.107875016714209"><ele>81.5</ele><time>2026-04-04T14:13:34Z</time></trkpt><trkpt lat="45.749212889932565" lon="12.107952258448998"><ele>81.33333333333333</ele><time>2026-04-04T14:13:35Z</time></trkpt><trkpt lat="45.74915209265489" lon="12.108046024392918"><ele>81.16666666666667</ele><time>2026-04-04T14:13:36Z</time></trkpt><trkpt lat="45.74908508916186" lon="12.108148303201444"><ele>81.0</ele><time>2026-04-04T14:13:37Z</time></trkpt><trkpt lat="45.74901406470954" lon="12.10825963628625"><ele>80.75</ele><time>2026-04-04T14:13:38Z</time></trkpt><trkpt lat="45.748927372655245" lon="12.108395877144664"><ele>80.5</ele><time>2026-04-04T14:13:39Z</time></trkpt><trkpt lat="45.74884067741867" lon="12.108533009578174"><ele>80.25</ele><time>2026-04-04T14:13:40Z</time></trkpt><trkpt lat="45.748737683951624" lon="12.108662828063322"><ele>80.0</ele><time>2026-04-04T14:13:41Z</time></trkpt><trkpt lat="45.74863246619915" lon="12.108824304284532"><ele>79.66666666666667</ele><time>2026-04-04T14:13:42Z</time></trkpt><trkpt lat="45.74851999693278" lon="12.108997229028684"><ele>79.33333333333333</ele><time>2026-04-04T14:13:43Z</time></trkpt><trkpt lat="45.74841809472254" lon="12.109207039089464"><ele>79.0</ele><time>2026-04-04T14:13:44Z</time></trkpt><trkpt lat="45.74830030487865" lon="12.1093845633802"><ele>79.0</ele><time>2026-04-04T14:13:45Z</time></trkpt><trkpt lat="45.74817934795034" lon="12.109565035929364"><ele>79.0</ele><time>2026-04-04T14:13:46Z</time></trkpt><trkpt lat="45.748051485211576" lon="12.10975562088219"><ele>79.0</ele><time>2026-04-04T14:13:47Z</time></trkpt><trkpt lat="45.747913993895125" lon="12.109936124752403"><ele>78.66666666666666</ele><time>2026-04-04T14:13:48Z</time></trkpt><trkpt lat="45.74778385714154" lon="12.110139183167519"><ele>78.33333333333333</ele><time>2026-04-04T14:13:49Z</time></trkpt><trkpt lat="45.74765402428565" lon="12.110342065960756"><ele>78.0</ele><time>2026-04-04T14:13:50Z</time></trkpt><trkpt lat="45.74753007527115" lon="12.110535693602566"><ele>78.0</ele><time>2026-04-04T14:13:51Z</time></trkpt><trkpt lat="45.7473987351477" lon="12.110740294890384"><ele>78.0</ele><time>2026-04-04T14:13:52Z</time></trkpt><trkpt lat="45.747267370705444" lon="12.110944958905414"><ele>78.0</ele><time>2026-04-04T14:13:53Z</time></trkpt><trkpt lat="45.747132216268334" lon="12.111156105628156"><ele>78.0</ele><time>2026-04-04T14:13:54Z</time></trkpt><trkpt lat="45.74699531111737" lon="12.111368712580852"><ele>78.0</ele><time>2026-04-04T14:13:55Z</time></trkpt><trkpt lat="45.74685817628127" lon="12.111580581835417"><ele>78.0</ele><time>2026-04-04T14:13:56Z</time></trkpt><trkpt lat="45.74671887289473" lon="12.111795801306716"><ele>78.0</ele><time>2026-04-04T14:13:57Z</time></trkpt><trkpt lat="45.74657490171676" lon="12.112018232335167"><ele>78.0</ele><time>2026-04-04T14:13:58Z</time></trkpt><trkpt lat="45.746430768252324" lon="12.112240773470154"><ele>78.0</ele><time>2026-04-04T14:13:59Z</time></trkpt><trkpt lat="45.746286499686285" lon="12.112464589731172"><ele>77.66666666666667</ele><time>2026-04-04T14:14:00Z</time></trkpt><trkpt lat="45.74614358937621" lon="12.112690077234168"><ele>77.33333333333334</ele><time>2026-04-04T14:14:01Z</time></trkpt><trkpt lat="45.74602032250401" lon="12.112925530182002"><ele>77.0</ele><time>2026-04-04T14:14:02Z</time></trkpt><trkpt lat="45.745890289605285" lon="12.113126378843365"><ele>76.66666666666667</ele><time>2026-04-04T14:14:03Z</time></trkpt><trkpt lat="45.74576874928429" lon="12.113316680968884"><ele>76.33333333333333</ele><time>2026-04-04T14:14:04Z</time></trkpt><trkpt lat="45.74566110734358" lon="12.11348860012186"><ele>76.0</ele><time>2026-04-04T14:14:05Z</time></trkpt><trkpt lat="45.74554594864322" lon="12.113630804594736"><ele>76.0</ele><time>2026-04-04T14:14:06Z</time></trkpt><trkpt lat="45.745457894203774" lon="12.113776809391151"><ele>76.0</ele><time>2026-04-04T14:14:07Z</time></trkpt><trkpt lat="45.745385359145835" lon="12.113920624128536"><ele>76.0</ele><time>2026-04-04T14:14:08Z</time></trkpt><trkpt lat="45.745288773284436" lon="12.114014050217097"><ele>76.0</ele><time>2026-04-04T14:14:09Z</time></trkpt><trkpt lat="45.74518012017053" lon="12.114062462177218"><ele>76.0</ele><time>2026-04-04T14:14:10Z</time></trkpt><trkpt lat="45.745079274761466" lon="12.114108991388827"><ele>76.0</ele><time>2026-04-04T14:14:11Z</time></trkpt><trkpt lat="45.74499236518777" lon="12.114189863833621"><ele>76.0</ele><time>2026-04-04T14:14:12Z</time></trkpt><trkpt lat="45.744935083260806" lon="12.114308079597205"><ele>76.0</ele><time>2026-04-04T14:14:13Z</time></trkpt><trkpt lat="45.74490976484689" lon="12.11444796524385"><ele>76.0</ele><time>2026-04-04T14:14:14Z</time></trkpt><trkpt lat="45.74491402725377" lon="12.114592342401854"><ele>76.0</ele><time>2026-04-04T14:14:15Z</time></trkpt><trkpt lat="45.744904200659214" lon="12.114741190971712"><ele>76.0</ele><time>2026-04-04T14:14:16Z</time></trkpt><trkpt lat="45.74490625548955" lon="12.114874616434054"><ele>76.0</ele><time>2026-04-04T14:14:17Z</time></trkpt><trkpt lat="45.74476334763268" lon="12.114986504521061"><ele>76.0</ele><time>2026-04-04T14:14:18Z</time></trkpt><trkpt lat="45.74465068885415" lon="12.11510293012361"><ele>76.0</ele><time>2026-04-04T14:14:19Z</time></trkpt><trkpt lat="45.74453526019131" lon="12.115247834226434"><ele>76.0</ele><time>2026-04-04T14:14:20Z</time></trkpt><trkpt lat="45.74442189810899" lon="12.115432248283415"><ele>76.0</ele><time>2026-04-04T14:14:21Z</time></trkpt><trkpt lat="45.74429575108917" lon="12.115643567114645"><ele>75.66666666666666</ele><time>2026-04-04T14:14:22Z</time></trkpt><trkpt lat="45.744158289943975" lon="12.115858996700705"><ele>75.33333333333333</ele><time>2026-04-04T14:14:23Z</time></trkpt><trkpt lat="45.744014666408596" lon="12.11608309909138"><ele>75.0</ele><time>2026-04-04T14:14:24Z</time></trkpt><trkpt lat="45.743870775230285" lon="12.116308795357236"><ele>75.0</ele><time>2026-04-04T14:14:25Z</time></trkpt><trkpt lat="45.743711405168646" lon="12.116520556135203"><ele>75.0</ele><time>2026-04-04T14:14:26Z</time></trkpt><trkpt lat="45.74355306625083" lon="12.116755904834136"><ele>75.0</ele><time>2026-04-04T14:14:27Z</time></trkpt><trkpt lat="45.74340093210116" lon="12.116981859013478"><ele>75.0</ele><time>2026-04-04T14:14:28Z</time></trkpt><trkpt lat="45.74326261907228" lon="12.117221455307567"><ele>75.0</ele><time>2026-04-04T14:14:29Z</time></trkpt><trkpt lat="45.74311286546929" lon="12.117445003877261"><ele>75.0</ele><time>2026-04-04T14:14:30Z</time></trkpt><trkpt lat="45.742966083582544" lon="12.117666303120654"><ele>75.0</ele><time>2026-04-04T14:14:31Z</time></trkpt><trkpt lat="45.74280656222705" lon="12.117871739278996"><ele>75.0</ele><time>2026-04-04T14:14:32Z</time></trkpt><trkpt lat="45.74265802288216" lon="12.118094311461048"><ele>75.0</ele><time>2026-04-04T14:14:33Z</time></trkpt><trkpt lat="45.742523823039576" lon="12.11833022315756"><ele>75.0</ele><time>2026-04-04T14:14:34Z</time></trkpt><trkpt lat="45.74237564578065" lon="12.118549053017881"><ele>75.0</ele><time>2026-04-04T14:14:35Z</time></trkpt><trkpt lat="45.742226969060795" lon="12.118767682577767"><ele>75.0</ele><time>2026-04-04T14:14:36Z</time></trkpt><trkpt lat="45.74208491999847" lon="12.11899569319059"><ele>74.66666666666667</ele><time>2026-04-04T14:14:37Z</time></trkpt><trkpt lat="45.74194692742514" lon="12.11922500881798"><ele>74.33333333333334</ele><time>2026-04-04T14:14:38Z</time></trkpt><trkpt lat="45.741803351571484" lon="12.119432761730607"><ele>74.0</ele><time>2026-04-04T14:14:39Z</time></trkpt><trkpt lat="45.741673497003276" lon="12.119645797352351"><ele>74.0</ele><time>2026-04-04T14:14:40Z</time></trkpt><trkpt lat="45.74154413113169" lon="12.119860057618663"><ele>74.0</ele><time>2026-04-04T14:14:41Z</time></trkpt><trkpt lat="45.74141999275486" lon="12.120065840278562"><ele>74.0</ele><time>2026-04-04T14:14:42Z</time></trkpt><trkpt lat="45.74129774040953" lon="12.12027385178098"><ele>73.66666666666667</ele><time>2026-04-04T14:14:43Z</time></trkpt><trkpt lat="45.74118724089598" lon="12.120497074131544"><ele>73.33333333333333</ele><time>2026-04-04T14:14:44Z</time></trkpt><trkpt lat="45.74106530834355" lon="12.120701197994887"><ele>73.0</ele><time>2026-04-04T14:14:45Z</time></trkpt><trkpt lat="45.74094227749402" lon="12.120911294763062"><ele>73.0</ele><time>2026-04-04T14:14:46Z</time></trkpt><trkpt lat="45.7408219663824" lon="12.121121772374122"><ele>73.0</ele><time>2026-04-04T14:14:47Z</time></trkpt><trkpt lat="45.740695054492726" lon="12.12131513289749"><ele>73.0</ele><time>2026-04-04T14:14:48Z</time></trkpt><trkpt lat="45.74057557822168" lon="12.121520456389222"><ele>73.0</ele><time>2026-04-04T14:14:49Z</time></trkpt><trkpt lat="45.74045277165998" lon="12.121728809375679"><ele>73.0</ele><time>2026-04-04T14:14:50Z</time></trkpt><trkpt lat="45.74032960707723" lon="12.121937769870827"><ele>73.0</ele><time>2026-04-04T14:14:51Z</time></trkpt><trkpt lat="45.7402204506025" lon="12.122154084333157"><ele>73.0</ele><time>2026-04-04T14:14:52Z</time></trkpt><trkpt lat="45.74009509457485" lon="12.12233974626756"><ele>73.0</ele><time>2026-04-04T14:14:53Z</time></trkpt><trkpt lat="45.73997860337153" lon="12.122537459715868"><ele>73.0</ele><time>2026-04-04T14:14:54Z</time></trkpt><trkpt lat="45.73985239000502" lon="12.12274764042661"><ele>73.0</ele><time>2026-04-04T14:14:55Z</time></trkpt><trkpt lat="45.73972897215166" lon="12.122946365994512"><ele>73.0</ele><time>2026-04-04T14:14:56Z</time></trkpt><trkpt lat="45.73960449822003" lon="12.123136064305037"><ele>73.0</ele><time>2026-04-04T14:14:57Z</time></trkpt><trkpt lat="45.73947102706383" lon="12.123316804585514"><ele>72.33333333333333</ele><time>2026-04-04T14:14:58Z</time></trkpt><trkpt lat="45.7393233539729" lon="12.123491204992346"><ele>71.66666666666667</ele><time>2026-04-04T14:14:59Z</time></trkpt><trkpt lat="45.739175547720585" lon="12.123661955600568"><ele>71.0</ele><time>2026-04-04T14:15:00Z</time></trkpt><trkpt lat="45.73903528843958" lon="12.123853969719667"><ele>71.0</ele><time>2026-04-04T14:15:01Z</time></trkpt><trkpt lat="45.73888343108307" lon="12.124028045460882"><ele>71.0</ele><time>2026-04-04T14:15:02Z</time></trkpt><trkpt lat="45.738733681309455" lon="12.124197693165465"><ele>71.0</ele><time>2026-04-04T14:15:03Z</time></trkpt><trkpt lat="45.73859874868099" lon="12.124355408811555"><ele>71.0</ele><time>2026-04-04T14:15:04Z</time></trkpt><trkpt lat="45.73846370036009" lon="12.124513578896497"><ele>71.0</ele><time>2026-04-04T14:15:05Z</time></trkpt><trkpt lat="45.738317844153855" lon="12.124674748080237"><ele>71.0</ele><time>2026-04-04T14:15:06Z</time></trkpt><trkpt lat="45.73817386902524" lon="12.124836868131183"><ele>70.66666666666667</ele><time>2026-04-04T14:15:07Z</time></trkpt><trkpt lat="45.738032601435975" lon="12.124992886059546"><ele>70.33333333333333</ele><time>2026-04-04T14:15:08Z</time></trkpt><trkpt lat="45.73789349280772" lon="12.125152842436446"><ele>70.0</ele><time>2026-04-04T14:15:09Z</time></trkpt><trkpt lat="45.737761005489965" lon="12.125313465838495"><ele>70.0</ele><time>2026-04-04T14:15:10Z</time></trkpt><trkpt lat="45.73762685012502" lon="12.125476224537328"><ele>70.0</ele><time>2026-04-04T14:15:11Z</time></trkpt><trkpt lat="45.73748467324914" lon="12.125640100465978"><ele>70.0</ele><time>2026-04-04T14:15:12Z</time></trkpt><trkpt lat="45.73734224532386" lon="12.125803626452013"><ele>70.0</ele><time>2026-04-04T14:15:13Z</time></trkpt><trkpt lat="45.73720473397432" lon="12.125959595888942"><ele>70.0</ele><time>2026-04-04T14:15:14Z</time></trkpt><trkpt lat="45.73705899738917" lon="12.126114490294361"><ele>70.0</ele><time>2026-04-04T14:15:15Z</time></trkpt><trkpt lat="45.73692218780824" lon="12.126275908379812"><ele>70.0</ele><time>2026-04-04T14:15:16Z</time></trkpt><trkpt lat="45.73678957988168" lon="12.126439286584175"><ele>70.0</ele><time>2026-04-04T14:15:17Z</time></trkpt><trkpt lat="45.736659814479786" lon="12.126610237124378"><ele>70.0</ele><time>2026-04-04T14:15:18Z</time></trkpt><trkpt lat="45.73653945717843" lon="12.126791989694144"><ele>69.33333333333333</ele><time>2026-04-04T14:15:19Z</time></trkpt><trkpt lat="45.736410297923186" lon="12.126983262501334"><ele>68.66666666666667</ele><time>2026-04-04T14:15:20Z</time></trkpt><trkpt lat="45.73629805697729" lon="12.12718428009789"><ele>68.0</ele><time>2026-04-04T14:15:21Z</time></trkpt><trkpt lat="45.73619074474917" lon="12.127375023501695"><ele>67.66666666666667</ele><time>2026-04-04T14:15:22Z</time></trkpt><trkpt lat="45.73608884831697" lon="12.127586302985982"><ele>67.33333333333333</ele><time>2026-04-04T14:15:23Z</time></trkpt><trkpt lat="45.73599628780091" lon="12.127817212447"><ele>67.0</ele><time>2026-04-04T14:15:24Z</time></trkpt><trkpt lat="45.73588807585575" lon="12.128009900368557"><ele>66.66666666666666</ele><time>2026-04-04T14:15:25Z</time></trkpt><trkpt lat="45.73578351366034" lon="12.128228649177467"><ele>66.33333333333333</ele><time>2026-04-04T14:15:26Z</time></trkpt><trkpt lat="45.735681749629535" lon="12.128441544167105"><ele>66.0</ele><time>2026-04-04T14:15:27Z</time></trkpt><trkpt lat="45.735590942932255" lon="12.128666171911055"><ele>66.0</ele><time>2026-04-04T14:15:28Z</time></trkpt><trkpt lat="45.73548722930785" lon="12.128875391201408"><ele>66.0</ele><time>2026-04-04T14:15:29Z</time></trkpt><trkpt lat="45.73537674027182" lon="12.129066767917429"><ele>66.0</ele><time>2026-04-04T14:15:30Z</time></trkpt><trkpt lat="45.73527126804562" lon="12.129279494408165"><ele>66.33333333333333</ele><time>2026-04-04T14:15:31Z</time></trkpt><trkpt lat="45.735165286597606" lon="12.129495460709201"><ele>66.66666666666666</ele><time>2026-04-04T14:15:32Z</time></trkpt><trkpt lat="45.735064107402366" lon="12.129701546996817"><ele>67.0</ele><time>2026-04-04T14:15:33Z</time></trkpt><trkpt lat="45.734959566279706" lon="12.129910517901388"><ele>67.0</ele><time>2026-04-04T14:15:34Z</time></trkpt><trkpt lat="45.73484510203336" lon="12.130112160261412"><ele>67.0</ele><time>2026-04-04T14:15:35Z</time></trkpt><trkpt lat="45.73474419286229" lon="12.130325402646918"><ele>67.0</ele><time>2026-04-04T14:15:36Z</time></trkpt><trkpt lat="45.73461934661958" lon="12.130503285268244"><ele>67.0</ele><time>2026-04-04T14:15:37Z</time></trkpt><trkpt lat="45.734507111413066" lon="12.130694201777343"><ele>67.0</ele><time>2026-04-04T14:15:38Z</time></trkpt><trkpt lat="45.73440251581239" lon="12.130903493678177"><ele>67.0</ele><time>2026-04-04T14:15:39Z</time></trkpt><trkpt lat="45.7342772200275" lon="12.131084427582612"><ele>67.0</ele><time>2026-04-04T14:15:40Z</time></trkpt><trkpt lat="45.73416233025226" lon="12.131279445531344"><ele>67.0</ele><time>2026-04-04T14:15:41Z</time></trkpt><trkpt lat="45.734051318566706" lon="12.131497512453247"><ele>67.0</ele><time>2026-04-04T14:15:42Z</time></trkpt><trkpt lat="45.733927699563566" lon="12.131676928852825"><ele>67.0</ele><time>2026-04-04T14:15:43Z</time></trkpt><trkpt lat="45.73381299053356" lon="12.131870421737737"><ele>67.0</ele><time>2026-04-04T14:15:44Z</time></trkpt><trkpt lat="45.7336979844229" lon="12.132064415538586"><ele>67.0</ele><time>2026-04-04T14:15:45Z</time></trkpt><trkpt lat="45.73358911457762" lon="12.132279508490559"><ele>67.0</ele><time>2026-04-04T14:15:46Z</time></trkpt><trkpt lat="45.73347651239333" lon="12.132472930775798"><ele>67.0</ele><time>2026-04-04T14:15:47Z</time></trkpt><trkpt lat="45.73336987760653" lon="12.132666586156162"><ele>67.0</ele><time>2026-04-04T14:15:48Z</time></trkpt><trkpt lat="45.73325411605929" lon="12.132861089964956"><ele>67.0</ele><time>2026-04-04T14:15:49Z</time></trkpt><trkpt lat="45.733133866249425" lon="12.133058505498678"><ele>67.0</ele><time>2026-04-04T14:15:50Z</time></trkpt><trkpt lat="45.73299874551341" lon="12.133241506548009"><ele>67.0</ele><time>2026-04-04T14:15:51Z</time></trkpt><trkpt lat="45.732885456053374" lon="12.13343264717625"><ele>67.33333333333333</ele><time>2026-04-04T14:15:52Z</time></trkpt><trkpt lat="45.73277503541808" lon="12.133619738052113"><ele>67.66666666666667</ele><time>2026-04-04T14:15:53Z</time></trkpt><trkpt lat="45.732674920748394" lon="12.13378936710977"><ele>68.0</ele><time>2026-04-04T14:15:54Z</time></trkpt><trkpt lat="45.732577718405466" lon="12.133954061663735"><ele>68.33333333333334</ele><time>2026-04-04T14:15:55Z</time></trkpt><trkpt lat="45.7324754222761" lon="12.134127417537519"><ele>68.66666666666667</ele><time>2026-04-04T14:15:56Z</time></trkpt><trkpt lat="45.732370527233854" lon="12.13430517980581"><ele>69.0</ele><time>2026-04-04T14:15:57Z</time></trkpt><trkpt lat="45.73226606149311" lon="12.134482214622402"><ele>69.0</ele><time>2026-04-04T14:15:58Z</time></trkpt><trkpt lat="45.73215749798925" lon="12.134666193670355"><ele>69.0</ele><time>2026-04-04T14:15:59Z</time></trkpt><trkpt lat="45.73205050098622" lon="12.134847518187884"><ele>69.0</ele><time>2026-04-04T14:16:00Z</time></trkpt><trkpt lat="45.731941650549565" lon="12.13503151098869"><ele>67.66666666666667</ele><time>2026-04-04T14:16:01Z</time></trkpt><trkpt lat="45.73182913440247" lon="12.1352210408734"><ele>66.33333333333334</ele><time>2026-04-04T14:16:02Z</time></trkpt><trkpt lat="45.73171529721978" lon="12.135412796133279"><ele>65.0</ele><time>2026-04-04T14:16:03Z</time></trkpt><trkpt lat="45.73160287020115" lon="12.135602176066588"><ele>65.0</ele><time>2026-04-04T14:16:04Z</time></trkpt><trkpt lat="45.731487829413254" lon="12.13579463783994"><ele>65.0</ele><time>2026-04-04T14:16:05Z</time></trkpt><trkpt lat="45.73137053050836" lon="12.135989285126369"><ele>65.0</ele><time>2026-04-04T14:16:06Z</time></trkpt><trkpt lat="45.73125189025672" lon="12.136185761698293"><ele>65.0</ele><time>2026-04-04T14:16:07Z</time></trkpt><trkpt lat="45.73113275927952" lon="12.136379406596708"><ele>65.0</ele><time>2026-04-04T14:16:08Z</time></trkpt><trkpt lat="45.73101288528086" lon="12.136570593592692"><ele>65.0</ele><time>2026-04-04T14:16:09Z</time></trkpt><trkpt lat="45.730891762008135" lon="12.136752556085906"><ele>64.66666666666667</ele><time>2026-04-04T14:16:10Z</time></trkpt><trkpt lat="45.73076316300485" lon="12.136933874636389"><ele>64.33333333333333</ele><time>2026-04-04T14:16:11Z</time></trkpt><trkpt lat="45.73062552384258" lon="12.137118548449491"><ele>64.0</ele><time>2026-04-04T14:16:12Z</time></trkpt><trkpt lat="45.730490041793495" lon="12.137300327654774"><ele>64.0</ele><time>2026-04-04T14:16:13Z</time></trkpt><trkpt lat="45.73035077153284" lon="12.13748745948264"><ele>64.0</ele><time>2026-04-04T14:16:14Z</time></trkpt><trkpt lat="45.73021907971013" lon="12.137665012144671"><ele>64.0</ele><time>2026-04-04T14:16:15Z</time></trkpt><trkpt lat="45.73009750941167" lon="12.137829896605917"><ele>64.0</ele><time>2026-04-04T14:16:16Z</time></trkpt><trkpt lat="45.72998452234726" lon="12.137981838992557"><ele>64.0</ele><time>2026-04-04T14:16:17Z</time></trkpt><trkpt lat="45.72986696849348" lon="12.138138477486446"><ele>64.0</ele><time>2026-04-04T14:16:18Z</time></trkpt><trkpt lat="45.72975165622215" lon="12.138292128763718"><ele>63.666666666666664</ele><time>2026-04-04T14:16:19Z</time></trkpt><trkpt lat="45.729635351901784" lon="12.138447102223221"><ele>63.33333333333333</ele><time>2026-04-04T14:16:20Z</time></trkpt><trkpt lat="45.72951987043276" lon="12.13860150176125"><ele>63.0</ele><time>2026-04-04T14:16:21Z</time></trkpt><trkpt lat="45.72939965868328" lon="12.138762957337907"><ele>62.33333333333333</ele><time>2026-04-04T14:16:22Z</time></trkpt><trkpt lat="45.72928189299669" lon="12.138921127339382"><ele>61.666666666666664</ele><time>2026-04-04T14:16:23Z</time></trkpt><trkpt lat="45.72916022108871" lon="12.139084529092749"><ele>61.0</ele><time>2026-04-04T14:16:24Z</time></trkpt><trkpt lat="45.72903979773738" lon="12.139246176563901"><ele>60.666666666666664</ele><time>2026-04-04T14:16:25Z</time></trkpt><trkpt lat="45.72891572456902" lon="12.139410972644434"><ele>60.33333333333333</ele><time>2026-04-04T14:16:26Z</time></trkpt><trkpt lat="45.728789190676785" lon="12.13957825019706"><ele>60.0</ele><time>2026-04-04T14:16:27Z</time></trkpt><trkpt lat="45.72867165202238" lon="12.139763182238111"><ele>60.33333333333333</ele><time>2026-04-04T14:16:28Z</time></trkpt><trkpt lat="45.72854424903789" lon="12.139931935846143"><ele>60.666666666666664</ele><time>2026-04-04T14:16:29Z</time></trkpt><trkpt lat="45.72841475727343" lon="12.140105552701048"><ele>61.0</ele><time>2026-04-04T14:16:30Z</time></trkpt><trkpt lat="45.72828513271564" lon="12.140281043272434"><ele>61.0</ele><time>2026-04-04T14:16:31Z</time></trkpt><trkpt lat="45.72815667440295" lon="12.140454786900554"><ele>61.0</ele><time>2026-04-04T14:16:32Z</time></trkpt><trkpt lat="45.72802585521361" lon="12.140634603301935"><ele>61.0</ele><time>2026-04-04T14:16:33Z</time></trkpt><trkpt lat="45.72789002783657" lon="12.140810269020276"><ele>61.0</ele><time>2026-04-04T14:16:34Z</time></trkpt><trkpt lat="45.72775947621164" lon="12.140986569388696"><ele>61.0</ele><time>2026-04-04T14:16:35Z</time></trkpt><trkpt lat="45.72762251846536" lon="12.141161909684389"><ele>61.0</ele><time>2026-04-04T14:16:36Z</time></trkpt><trkpt lat="45.727496005509074" lon="12.141340285487532"><ele>61.0</ele><time>2026-04-04T14:16:37Z</time></trkpt><trkpt lat="45.72736003756656" lon="12.141516626428261"><ele>61.0</ele><time>2026-04-04T14:16:38Z</time></trkpt><trkpt lat="45.727221537675085" lon="12.141679791055457"><ele>61.0</ele><time>2026-04-04T14:16:39Z</time></trkpt><trkpt lat="45.72709810117106" lon="12.141873220019834"><ele>60.33333333333333</ele><time>2026-04-04T14:16:40Z</time></trkpt><trkpt lat="45.726965787056" lon="12.142048659459803"><ele>59.66666666666667</ele><time>2026-04-04T14:16:41Z</time></trkpt><trkpt lat="45.72682677785309" lon="12.14222043624017"><ele>59.0</ele><time>2026-04-04T14:16:42Z</time></trkpt><trkpt lat="45.726690747024264" lon="12.142383048533478"><ele>58.66666666666667</ele><time>2026-04-04T14:16:43Z</time></trkpt><trkpt lat="45.726559228475494" lon="12.142557458062798"><ele>58.33333333333333</ele><time>2026-04-04T14:16:44Z</time></trkpt><trkpt lat="45.726426610741214" lon="12.14273416828469"><ele>58.0</ele><time>2026-04-04T14:16:45Z</time></trkpt><trkpt lat="45.72629593547939" lon="12.142909479499538"><ele>58.0</ele><time>2026-04-04T14:16:46Z</time></trkpt><trkpt lat="45.726174719644284" lon="12.143103026799183"><ele>58.0</ele><time>2026-04-04T14:16:47Z</time></trkpt><trkpt lat="45.726030680158196" lon="12.143263910394161"><ele>58.0</ele><time>2026-04-04T14:16:48Z</time></trkpt><trkpt lat="45.72589959886418" lon="12.143439837594508"><ele>57.666666666666664</ele><time>2026-04-04T14:16:49Z</time></trkpt><trkpt lat="45.72576606848891" lon="12.143616455838341"><ele>57.33333333333333</ele><time>2026-04-04T14:16:50Z</time></trkpt><trkpt lat="45.7256333892486" lon="12.14379355923863"><ele>57.0</ele><time>2026-04-04T14:16:51Z</time></trkpt><trkpt lat="45.72550095737645" lon="12.143970332444265"><ele>56.66666666666667</ele><time>2026-04-04T14:16:52Z</time></trkpt><trkpt lat="45.725377297870324" lon="12.14416698398303"><ele>56.333333333333336</ele><time>2026-04-04T14:16:53Z</time></trkpt><trkpt lat="45.7252343622667" lon="12.144326189942225"><ele>56.0</ele><time>2026-04-04T14:16:54Z</time></trkpt><trkpt lat="45.72511206120622" lon="12.14452090167553"><ele>57.0</ele><time>2026-04-04T14:16:55Z</time></trkpt><trkpt lat="45.72496901626864" lon="12.144680382604397"><ele>58.0</ele><time>2026-04-04T14:16:56Z</time></trkpt><trkpt lat="45.724845612057095" lon="12.144873827826293"><ele>59.0</ele><time>2026-04-04T14:16:57Z</time></trkpt><trkpt lat="45.724716192556194" lon="12.14505126543804"><ele>59.0</ele><time>2026-04-04T14:16:58Z</time></trkpt><trkpt lat="45.72457913309172" lon="12.145225612569998"><ele>59.0</ele><time>2026-04-04T14:16:59Z</time></trkpt><trkpt lat="45.72444162418516" lon="12.145387525368802"><ele>59.0</ele><time>2026-04-04T14:17:00Z</time></trkpt><trkpt lat="45.7243319700441" lon="12.14556021643368"><ele>58.75</ele><time>2026-04-04T14:17:01Z</time></trkpt><trkpt lat="45.72422072796809" lon="12.145706705828259"><ele>58.5</ele><time>2026-04-04T14:17:02Z</time></trkpt><trkpt lat="45.7241055875875" lon="12.145831692541066"><ele>58.25</ele><time>2026-04-04T14:17:03Z</time></trkpt><trkpt lat="45.72400535292815" lon="12.145962572199707"><ele>58.0</ele><time>2026-04-04T14:17:04Z</time></trkpt><trkpt lat="45.723903785777246" lon="12.14609317490714"><ele>58.25</ele><time>2026-04-04T14:17:05Z</time></trkpt><trkpt lat="45.72379805257048" lon="12.146224249059319"><ele>58.5</ele><time>2026-04-04T14:17:06Z</time></trkpt><trkpt lat="45.72368852344126" lon="12.14636004968464"><ele>58.75</ele><time>2026-04-04T14:17:07Z</time></trkpt><trkpt lat="45.723576570781994" lon="12.146492481178848"><ele>59.0</ele><time>2026-04-04T14:17:08Z</time></trkpt><trkpt lat="45.72346085349043" lon="12.14664483195331"><ele>59.0</ele><time>2026-04-04T14:17:09Z</time></trkpt><trkpt lat="45.7233171507215" lon="12.146762534408248"><ele>59.0</ele><time>2026-04-04T14:17:10Z</time></trkpt><trkpt lat="45.72317218578313" lon="12.14690218981908"><ele>59.0</ele><time>2026-04-04T14:17:11Z</time></trkpt><trkpt lat="45.72301949459338" lon="12.14704730889802"><ele>59.0</ele><time>2026-04-04T14:17:12Z</time></trkpt><trkpt lat="45.72286432611162" lon="12.147194051281003"><ele>59.0</ele><time>2026-04-04T14:17:13Z</time></trkpt><trkpt lat="45.72270479488565" lon="12.147341084810055"><ele>59.0</ele><time>2026-04-04T14:17:14Z</time></trkpt><trkpt lat="45.72254324643833" lon="12.147489680991642"><ele>57.5</ele><time>2026-04-04T14:17:15Z</time></trkpt><trkpt lat="45.72237638973902" lon="12.147643159722218"><ele>56.0</ele><time>2026-04-04T14:17:16Z</time></trkpt><trkpt lat="45.72207807274038" lon="12.147938660775521"><ele>56.0</ele><time>2026-04-04T14:17:18Z</time></trkpt><trkpt lat="45.72194324718619" lon="12.148064048989704"><ele>56.0</ele><time>2026-04-04T14:17:19Z</time></trkpt><trkpt lat="45.7218192257269" lon="12.148185777665006"><ele>56.0</ele><time>2026-04-04T14:17:20Z</time></trkpt><trkpt lat="45.72168906733134" lon="12.148309172740658"><ele>56.25</ele><time>2026-04-04T14:17:21Z</time></trkpt><trkpt lat="45.721574858586244" lon="12.148433344827463"><ele>56.5</ele><time>2026-04-04T14:17:22Z</time></trkpt><trkpt lat="45.72146130143272" lon="12.148559728770131"><ele>56.75</ele><time>2026-04-04T14:17:23Z</time></trkpt><trkpt lat="45.721351527167094" lon="12.148689351235575"><ele>57.0</ele><time>2026-04-04T14:17:24Z</time></trkpt><trkpt lat="45.721245377581134" lon="12.14882571062376"><ele>57.0</ele><time>2026-04-04T14:17:25Z</time></trkpt><trkpt lat="45.72113024824659" lon="12.1489446609259"><ele>57.0</ele><time>2026-04-04T14:17:26Z</time></trkpt><trkpt lat="45.72102476017754" lon="12.149086847879424"><ele>57.0</ele><time>2026-04-04T14:17:27Z</time></trkpt><trkpt lat="45.720923209188356" lon="12.149231996953525"><ele>57.0</ele><time>2026-04-04T14:17:28Z</time></trkpt><trkpt lat="45.720835592775195" lon="12.149391562758593"><ele>57.0</ele><time>2026-04-04T14:17:29Z</time></trkpt><trkpt lat="45.72073513207005" lon="12.14950558269193"><ele>57.0</ele><time>2026-04-04T14:17:30Z</time></trkpt><trkpt lat="45.72064750175481" lon="12.149633053754947"><ele>57.0</ele><time>2026-04-04T14:17:31Z</time></trkpt><trkpt lat="45.72057138007095" lon="12.149745955451996"><ele>57.0</ele><time>2026-04-04T14:17:32Z</time></trkpt><trkpt lat="45.72050705390615" lon="12.149841690264997"><ele>57.0</ele><time>2026-04-04T14:17:33Z</time></trkpt><trkpt lat="45.72045494296845" lon="12.149919245797934"><ele>57.0</ele><time>2026-04-04T14:17:34Z</time></trkpt><trkpt lat="45.72039360129878" lon="12.150041333505499"><ele>57.0</ele><time>2026-04-04T14:17:36Z</time></trkpt><trkpt lat="45.72033830201414" lon="12.150107057790905"><ele>57.0</ele><time>2026-04-04T14:17:38Z</time></trkpt><trkpt lat="45.720284761420295" lon="12.150168798529908"><ele>57.0</ele><time>2026-04-04T14:17:40Z</time></trkpt><trkpt lat="45.72024010993541" lon="12.150244063690595"><ele>57.0</ele><time>2026-04-04T14:17:43Z</time></trkpt><trkpt lat="45.720182930287805" lon="12.150332686800695"><ele>56.2</ele><time>2026-04-04T14:18:14Z</time></trkpt><trkpt lat="45.72014829373085" lon="12.150423403086926"><ele>55.400000000000006</ele><time>2026-04-04T14:18:15Z</time></trkpt><trkpt lat="45.72008564582216" lon="12.150516506616873"><ele>54.599999999999994</ele><time>2026-04-04T14:18:16Z</time></trkpt><trkpt lat="45.72002081183153" lon="12.150613446271862"><ele>53.8</ele><time>2026-04-04T14:18:17Z</time></trkpt><trkpt lat="45.71994528073558" lon="12.150730678402477"><ele>53.0</ele><time>2026-04-04T14:18:18Z</time></trkpt><trkpt lat="45.719844133096025" lon="12.15084131594607"><ele>53.0</ele><time>2026-04-04T14:18:19Z</time></trkpt><trkpt lat="45.71975078556991" lon="12.150983893185444"><ele>53.0</ele><time>2026-04-04T14:18:20Z</time></trkpt><trkpt lat="45.71965225899961" lon="12.151137795343853"><ele>53.0</ele><time>2026-04-04T14:18:21Z</time></trkpt><trkpt lat="45.71956762848144" lon="12.151309144068225"><ele>53.0</ele><time>2026-04-04T14:18:22Z</time></trkpt><trkpt lat="45.71945972978727" lon="12.15145572627761"><ele>53.25</ele><time>2026-04-04T14:18:23Z</time></trkpt><trkpt lat="45.719367919546954" lon="12.151623979208765"><ele>53.5</ele><time>2026-04-04T14:18:24Z</time></trkpt><trkpt lat="45.71928869763625" lon="12.151784514642399"><ele>53.75</ele><time>2026-04-04T14:18:24.999Z</time></trkpt><trkpt lat="45.71921495676156" lon="12.151934781666732"><ele>54.0</ele><time>2026-04-04T14:18:25.999Z</time></trkpt><trkpt lat="45.719147192885366" lon="12.152071073286839"><ele>54.0</ele><time>2026-04-04T14:18:26.999Z</time></trkpt><trkpt lat="45.71908833162841" lon="12.15218945900034"><ele>54.0</ele><time>2026-04-04T14:18:27.999Z</time></trkpt><trkpt lat="45.719050015541555" lon="12.152266522826329"><ele>54.0</ele><time>2026-04-04T14:18:28.999Z</time></trkpt><trkpt lat="45.718988413838524" lon="12.152286099198083"><ele>54.0</ele><time>2026-04-04T14:18:30.999Z</time></trkpt><trkpt lat="45.718885637590326" lon="12.152209068406169"><ele>54.0</ele><time>2026-04-04T14:18:32.999Z</time></trkpt><trkpt lat="45.718822984224765" lon="12.152190163135483"><ele>54.0</ele><time>2026-04-04T14:18:33.999Z</time></trkpt><trkpt lat="45.718755644352804" lon="12.152140934965772"><ele>54.0</ele><time>2026-04-04T14:18:34.999Z</time></trkpt><trkpt lat="45.718695638354504" lon="12.152057782916689"><ele>54.0</ele><time>2026-04-04T14:18:35.999Z</time></trkpt><trkpt lat="45.718645577417966" lon="12.151954010665818"><ele>54.0</ele><time>2026-04-04T14:18:36.999Z</time></trkpt><trkpt lat="45.71860059633277" lon="12.15186011359524"><ele>54.0</ele><time>2026-04-04T14:18:37.999Z</time></trkpt><trkpt lat="45.7185545335528" lon="12.151794225482638"><ele>54.0</ele><time>2026-04-04T14:18:38.999Z</time></trkpt><trkpt lat="45.71851087559407" lon="12.151698943243733"><ele>54.0</ele><time>2026-04-04T14:18:40.999Z</time></trkpt><trkpt lat="45.718361304411275" lon="12.151823261214219"><ele>54.0</ele><time>2026-04-04T14:18:42.999Z</time></trkpt><trkpt lat="45.71829030308368" lon="12.151917681205086"><ele>54.00000000000001</ele><time>2026-04-04T14:18:43.999Z</time></trkpt><trkpt lat="45.71821590336859" lon="12.152016618779284"><ele>54.00000000000001</ele><time>2026-04-04T14:18:44.999Z</time></trkpt><trkpt lat="45.71813678019936" lon="12.152121837617768"><ele>54.0</ele><time>2026-04-04T14:18:45.999Z</time></trkpt><trkpt lat="45.71804825201844" lon="12.152239810145185"><ele>54.0</ele><time>2026-04-04T14:18:46.999Z</time></trkpt><trkpt lat="45.71795225410925" lon="12.152367798248953"><ele>53.6</ele><time>2026-04-04T14:18:47.999Z</time></trkpt><trkpt lat="45.7178586213161" lon="12.152492633039278"><ele>53.2</ele><time>2026-04-04T14:18:49Z</time></trkpt><trkpt lat="45.71778089270371" lon="12.152596263792603"><ele>52.800000000000004</ele><time>2026-04-04T14:18:50Z</time></trkpt><trkpt lat="45.71772143255812" lon="12.152706585308238"><ele>52.400000000000006</ele><time>2026-04-04T14:18:51Z</time></trkpt><trkpt lat="45.717644597116156" lon="12.15277490727379"><ele>52.0</ele><time>2026-04-04T14:18:52Z</time></trkpt><trkpt lat="45.71758486241746" lon="12.15285307546717"><ele>51.99999999999999</ele><time>2026-04-04T14:18:53Z</time></trkpt><trkpt lat="45.717532760858504" lon="12.152920919647608"><ele>52.0</ele><time>2026-04-04T14:18:54Z</time></trkpt><trkpt lat="45.71748926340121" lon="12.153007786591125"><ele>52.0</ele><time>2026-04-04T14:18:56Z</time></trkpt><trkpt lat="45.71741723660783" lon="12.152927620108406"><ele>52.0</ele><time>2026-04-04T14:18:59Z</time></trkpt><trkpt lat="45.71736103605855" lon="12.152833197601872"><ele>51.99999999999999</ele><time>2026-04-04T14:19:00Z</time></trkpt><trkpt lat="45.71728881649744" lon="12.152728294287805"><ele>52.0</ele><time>2026-04-04T14:19:01Z</time></trkpt><trkpt lat="45.71722021196798" lon="12.152606933073299"><ele>52.0</ele><time>2026-04-04T14:19:02Z</time></trkpt><trkpt lat="45.71714039906927" lon="12.152481120523907"><ele>52.0</ele><time>2026-04-04T14:19:03Z</time></trkpt><trkpt lat="45.717064044738436" lon="12.152375007298822"><ele>52.0</ele><time>2026-04-04T14:19:04Z</time></trkpt><trkpt lat="45.7169825397934" lon="12.152263140857439"><ele>52.0</ele><time>2026-04-04T14:19:05Z</time></trkpt><trkpt lat="45.716898412095105" lon="12.152150509617762"><ele>51.8</ele><time>2026-04-04T14:19:06Z</time></trkpt><trkpt lat="45.716817171790275" lon="12.152044204865076"><ele>51.6</ele><time>2026-04-04T14:19:07Z</time></trkpt><trkpt lat="45.71673253925857" lon="12.151937882104523"><ele>51.4</ele><time>2026-04-04T14:19:08Z</time></trkpt><trkpt lat="45.71664927183584" lon="12.151832420770432"><ele>51.199999999999996</ele><time>2026-04-04T14:19:09Z</time></trkpt><trkpt lat="45.71656325393376" lon="12.151726581800963"><ele>51.0</ele><time>2026-04-04T14:19:10Z</time></trkpt><trkpt lat="45.7164766382528" lon="12.15161530503345"><ele>51.199999999999996</ele><time>2026-04-04T14:19:11Z</time></trkpt><trkpt lat="45.71640015525773" lon="12.151500417289594"><ele>51.4</ele><time>2026-04-04T14:19:12Z</time></trkpt><trkpt lat="45.71631422370594" lon="12.151391261802999"><ele>51.6</ele><time>2026-04-04T14:19:13Z</time></trkpt><trkpt lat="45.71623302751996" lon="12.151286650712446"><ele>51.8</ele><time>2026-04-04T14:19:14Z</time></trkpt><trkpt lat="45.71615337952574" lon="12.151185174465901"><ele>52.0</ele><time>2026-04-04T14:19:15Z</time></trkpt><trkpt lat="45.716088293219876" lon="12.151089342014757"><ele>52.0</ele><time>2026-04-04T14:19:16Z</time></trkpt><trkpt lat="45.71601129184936" lon="12.150996693395784"><ele>52.0</ele><time>2026-04-04T14:19:17Z</time></trkpt><trkpt lat="45.71594055436238" lon="12.150893967834078"><ele>52.0</ele><time>2026-04-04T14:19:18Z</time></trkpt><trkpt lat="45.715871700746234" lon="12.150806570306809"><ele>52.0</ele><time>2026-04-04T14:19:19Z</time></trkpt><trkpt lat="45.71580670787743" lon="12.150718405446426"><ele>52.0</ele><time>2026-04-04T14:19:20Z</time></trkpt><trkpt lat="45.71574746056254" lon="12.150635274970451"><ele>52.0</ele><time>2026-04-04T14:19:21Z</time></trkpt><trkpt lat="45.71569489023168" lon="12.150564134330226"><ele>52.0</ele><time>2026-04-04T14:19:22Z</time></trkpt><trkpt lat="45.7156477079297" lon="12.150487277939646"><ele>52.0</ele><time>2026-04-04T14:19:23Z</time></trkpt><trkpt lat="45.7156031965145" lon="12.150409422424191"><ele>52.0</ele><time>2026-04-04T14:19:24Z</time></trkpt><trkpt lat="45.715573730646845" lon="12.150321404640291"><ele>52.0</ele><time>2026-04-04T14:19:25Z</time></trkpt><trkpt lat="45.71553305355717" lon="12.150249222932032"><ele>52.0</ele><time>2026-04-04T14:19:26Z</time></trkpt><trkpt lat="45.7154844663881" lon="12.150181567378127"><ele>52.0</ele><time>2026-04-04T14:19:27Z</time></trkpt><trkpt lat="45.715414447503534" lon="12.150058391109688"><ele>51.99999999999999</ele><time>2026-04-04T14:19:29Z</time></trkpt><trkpt lat="45.715376091941394" lon="12.149963600689443"><ele>52.0</ele><time>2026-04-04T14:19:31Z</time></trkpt><trkpt lat="45.715327092553196" lon="12.149904946960824"><ele>52.0</ele><time>2026-04-04T14:20:01Z</time></trkpt><trkpt lat="45.71527256815872" lon="12.149784789881965"><ele>52.0</ele><time>2026-04-04T14:20:04Z</time></trkpt><trkpt lat="45.715223505351794" lon="12.149691617073978"><ele>51.99999999999999</ele><time>2026-04-04T14:20:06Z</time></trkpt><trkpt lat="45.71517984511801" lon="12.14961875236803"><ele>52.0</ele><time>2026-04-04T14:20:08Z</time></trkpt><trkpt lat="45.7151374561546" lon="12.149540637631631"><ele>52.0</ele><time>2026-04-04T14:20:10Z</time></trkpt><trkpt lat="45.71509500570747" lon="12.149452226224245"><ele>52.0</ele><time>2026-04-04T14:20:13Z</time></trkpt><trkpt lat="45.71504023267816" lon="12.14935784398751"><ele>52.0</ele><time>2026-04-04T14:20:22Z</time></trkpt><trkpt lat="45.714976495952776" lon="12.149237971270507"><ele>52.0</ele><time>2026-04-04T14:20:23.999Z</time></trkpt><trkpt lat="45.71490844169112" lon="12.149101406291948"><ele>52.0</ele><time>2026-04-04T14:20:25.999Z</time></trkpt><trkpt lat="45.71485074354482" lon="12.149007084061575"><ele>51.75</ele><time>2026-04-04T14:20:26.999Z</time></trkpt><trkpt lat="45.71479445285657" lon="12.148911798771552"><ele>51.5</ele><time>2026-04-04T14:20:27.999Z</time></trkpt><trkpt lat="45.71474551124602" lon="12.148783519042341"><ele>51.25</ele><time>2026-04-04T14:20:28.999Z</time></trkpt><trkpt lat="45.7146592783433" lon="12.148652716170588"><ele>51.0</ele><time>2026-04-04T14:20:29.999Z</time></trkpt><trkpt lat="45.714579803397214" lon="12.148476973507014"><ele>51.0</ele><time>2026-04-04T14:20:30.999Z</time></trkpt><trkpt lat="45.71449099862482" lon="12.148284935705384"><ele>51.0</ele><time>2026-04-04T14:20:31.999Z</time></trkpt><trkpt lat="45.71441124855" lon="12.148098571248273"><ele>51.0</ele><time>2026-04-04T14:20:32.999Z</time></trkpt><trkpt lat="45.714263044471004" lon="12.147868274781613"><ele>50.66666666666667</ele><time>2026-04-04T14:20:33.999Z</time></trkpt><trkpt lat="45.71416290093743" lon="12.14766123231887"><ele>50.333333333333336</ele><time>2026-04-04T14:20:34.999Z</time></trkpt><trkpt lat="45.71406266966857" lon="12.147464908355515"><ele>50.0</ele><time>2026-04-04T14:20:35.999Z</time></trkpt><trkpt lat="45.71397085458526" lon="12.14729299694686"><ele>49.75</ele><time>2026-04-04T14:20:36.999Z</time></trkpt><trkpt lat="45.71389046516811" lon="12.147138959343758"><ele>49.5</ele><time>2026-04-04T14:20:37.999Z</time></trkpt><trkpt lat="45.713807637544924" lon="12.146987461024644"><ele>49.25</ele><time>2026-04-04T14:20:38.999Z</time></trkpt><trkpt lat="45.7137314834715" lon="12.146837143317008"><ele>49.0</ele><time>2026-04-04T14:20:39.999Z</time></trkpt><trkpt lat="45.71364492772401" lon="12.146680422811993"><ele>49.5</ele><time>2026-04-04T14:20:40.999Z</time></trkpt><trkpt lat="45.713561494490236" lon="12.146518796906454"><ele>50.0</ele><time>2026-04-04T14:20:41.999Z</time></trkpt><trkpt lat="45.713483222646566" lon="12.146347694608478"><ele>50.5</ele><time>2026-04-04T14:20:42.999Z</time></trkpt><trkpt lat="45.71340933339995" lon="12.146205538000961"><ele>51.0</ele><time>2026-04-04T14:20:43.999Z</time></trkpt><trkpt lat="45.71333432866994" lon="12.146063069600526"><ele>51.0</ele><time>2026-04-04T14:20:44.999Z</time></trkpt><trkpt lat="45.71323004905222" lon="12.14591469834364"><ele>51.0</ele><time>2026-04-04T14:20:45.999Z</time></trkpt><trkpt lat="45.713111974798814" lon="12.145759092117931"><ele>51.0</ele><time>2026-04-04T14:20:46.999Z</time></trkpt><trkpt lat="45.71296925071765" lon="12.145616045786547"><ele>51.0</ele><time>2026-04-04T14:20:47.999Z</time></trkpt><trkpt lat="45.71280750333269" lon="12.145464023305754"><ele>51.0</ele><time>2026-04-04T14:20:48.999Z</time></trkpt><trkpt lat="45.71263916100049" lon="12.145294587618396"><ele>51.0</ele><time>2026-04-04T14:20:49.999Z</time></trkpt><trkpt lat="45.71245806790612" lon="12.145114051180416"><ele>51.0</ele><time>2026-04-04T14:20:50.999Z</time></trkpt><trkpt lat="45.712276707937335" lon="12.144935592902836"><ele>51.0</ele><time>2026-04-04T14:20:51.999Z</time></trkpt><trkpt lat="45.7121027490906" lon="12.144766484410761"><ele>51.0</ele><time>2026-04-04T14:20:52.999Z</time></trkpt><trkpt lat="45.71193653827116" lon="12.144602637205171"><ele>50.0</ele><time>2026-04-04T14:20:53.999Z</time></trkpt><trkpt lat="45.71177873581593" lon="12.144444704669114"><ele>49.0</ele><time>2026-04-04T14:20:55Z</time></trkpt><trkpt lat="45.71163262063364" lon="12.14429713625551"><ele>48.0</ele><time>2026-04-04T14:20:56Z</time></trkpt><trkpt lat="45.71150076190384" lon="12.144162200881908"><ele>48.25</ele><time>2026-04-04T14:20:57Z</time></trkpt><trkpt lat="45.711381144956405" lon="12.144040320512229"><ele>48.5</ele><time>2026-04-04T14:20:58Z</time></trkpt><trkpt lat="45.7112609404247" lon="12.143921675572486"><ele>48.75</ele><time>2026-04-04T14:20:59Z</time></trkpt><trkpt lat="45.71114027634014" lon="12.143836953377525"><ele>49.0</ele><time>2026-04-04T14:21:00Z</time></trkpt><trkpt lat="45.71099446842293" lon="12.143774548678781"><ele>49.33333333333333</ele><time>2026-04-04T14:21:01Z</time></trkpt><trkpt lat="45.71084249772622" lon="12.143740534933732"><ele>49.66666666666667</ele><time>2026-04-04T14:21:02Z</time></trkpt><trkpt lat="45.710695751159435" lon="12.14369552239382"><ele>50.0</ele><time>2026-04-04T14:21:03Z</time></trkpt><trkpt lat="45.7105470776714" lon="12.143666143564511"><ele>50.0</ele><time>2026-04-04T14:21:04Z</time></trkpt><trkpt lat="45.71039455265262" lon="12.143642075651579"><ele>50.0</ele><time>2026-04-04T14:21:05Z</time></trkpt><trkpt lat="45.71024647113162" lon="12.14357438368074"><ele>50.0</ele><time>2026-04-04T14:21:06Z</time></trkpt><trkpt lat="45.71009974170584" lon="12.143478927684358"><ele>49.333333333333336</ele><time>2026-04-04T14:21:07Z</time></trkpt><trkpt lat="45.709950837593304" lon="12.1433478570551"><ele>48.66666666666667</ele><time>2026-04-04T14:21:08Z</time></trkpt><trkpt lat="45.70982358669466" lon="12.143182387547116"><ele>48.0</ele><time>2026-04-04T14:21:09Z</time></trkpt><trkpt lat="45.70968205995196" lon="12.143040521128091"><ele>48.0</ele><time>2026-04-04T14:21:10Z</time></trkpt><trkpt lat="45.709556208325914" lon="12.14289237171211"><ele>48.0</ele><time>2026-04-04T14:21:11Z</time></trkpt><trkpt lat="45.709428329028064" lon="12.142748796606309"><ele>48.0</ele><time>2026-04-04T14:21:12Z</time></trkpt><trkpt lat="45.7092966371715" lon="12.142612762922502"><ele>48.0</ele><time>2026-04-04T14:21:13Z</time></trkpt><trkpt lat="45.70916257471043" lon="12.142468677766177"><ele>48.0</ele><time>2026-04-04T14:21:14Z</time></trkpt><trkpt lat="45.709024625945894" lon="12.142321063064855"><ele>48.0</ele><time>2026-04-04T14:21:15Z</time></trkpt><trkpt lat="45.7088934924733" lon="12.142176928790422"><ele>48.0</ele><time>2026-04-04T14:21:16Z</time></trkpt><trkpt lat="45.70876628395009" lon="12.14202650761737"><ele>48.0</ele><time>2026-04-04T14:21:17Z</time></trkpt><trkpt lat="45.70864380807502" lon="12.141862914229435"><ele>48.0</ele><time>2026-04-04T14:21:18Z</time></trkpt><trkpt lat="45.708527070493425" lon="12.141687506009033"><ele>47.5</ele><time>2026-04-04T14:21:19Z</time></trkpt><trkpt lat="45.70842962286294" lon="12.141513391296183"><ele>47.0</ele><time>2026-04-04T14:21:20Z</time></trkpt><trkpt lat="45.70834000633969" lon="12.14134667939812"><ele>46.5</ele><time>2026-04-04T14:21:21Z</time></trkpt><trkpt lat="45.708259151838185" lon="12.14120127803773"><ele>46.0</ele><time>2026-04-04T14:21:22Z</time></trkpt><trkpt lat="45.70817492230381" lon="12.141055817324593"><ele>46.0</ele><time>2026-04-04T14:21:23Z</time></trkpt><trkpt lat="45.708088380004945" lon="12.140901126465065"><ele>46.0</ele><time>2026-04-04T14:21:24Z</time></trkpt><trkpt lat="45.708000212492735" lon="12.140756654642692"><ele>46.0</ele><time>2026-04-04T14:21:25Z</time></trkpt><trkpt lat="45.707903386743595" lon="12.140624703709344"><ele>46.0</ele><time>2026-04-04T14:21:26Z</time></trkpt><trkpt lat="45.70779600057851" lon="12.140510116490958"><ele>47.0</ele><time>2026-04-04T14:21:27Z</time></trkpt><trkpt lat="45.707682789560266" lon="12.140408480675077"><ele>48.0</ele><time>2026-04-04T14:21:28Z</time></trkpt><trkpt lat="45.70757468471372" lon="12.14031920048475"><ele>49.0</ele><time>2026-04-04T14:21:29Z</time></trkpt><trkpt lat="45.70748046652898" lon="12.14023111350119"><ele>50.0</ele><time>2026-04-04T14:21:30Z</time></trkpt><trkpt lat="45.70739606667918" lon="12.140156834840914"><ele>50.00000000000001</ele><time>2026-04-04T14:21:31Z</time></trkpt><trkpt lat="45.70731542434559" lon="12.140096271835327"><ele>50.0</ele><time>2026-04-04T14:21:32Z</time></trkpt><trkpt lat="45.70724561278848" lon="12.140044070163874"><ele>50.0</ele><time>2026-04-04T14:21:33Z</time></trkpt><trkpt lat="45.70719306001134" lon="12.13998418858759"><ele>50.0</ele><time>2026-04-04T14:21:34Z</time></trkpt><trkpt lat="45.70714965479612" lon="12.139908909901802"><ele>50.00000000000001</ele><time>2026-04-04T14:21:37Z</time></trkpt><trkpt lat="45.70704226724407" lon="12.139915481133746"><ele>50.0</ele><time>2026-04-04T14:21:41Z</time></trkpt><trkpt lat="45.70696946210282" lon="12.140021820295658"><ele>49.75</ele><time>2026-04-04T14:21:42Z</time></trkpt><trkpt lat="45.706888382189724" lon="12.140149249240359"><ele>49.5</ele><time>2026-04-04T14:21:43Z</time></trkpt><trkpt lat="45.70677706264293" lon="12.140253413084201"><ele>49.25</ele><time>2026-04-04T14:21:44Z</time></trkpt><trkpt lat="45.706703781539716" lon="12.140367407703199"><ele>49.0</ele><time>2026-04-04T14:21:45Z</time></trkpt><trkpt lat="45.7066340325581" lon="12.140475907782783"><ele>49.0</ele><time>2026-04-04T14:21:46Z</time></trkpt><trkpt lat="45.70657015247924" lon="12.140606452818433"><ele>49.0</ele><time>2026-04-04T14:21:47Z</time></trkpt><trkpt lat="45.706487919660496" lon="12.14073134728286"><ele>49.0</ele><time>2026-04-04T14:21:48Z</time></trkpt><trkpt lat="45.70639664947004" lon="12.14085453995344"><ele>49.0</ele><time>2026-04-04T14:21:49Z</time></trkpt><trkpt lat="45.70630049830479" lon="12.14097614848203"><ele>49.0</ele><time>2026-04-04T14:21:50Z</time></trkpt><trkpt lat="45.70619933794458" lon="12.14109968367506"><ele>49.0</ele><time>2026-04-04T14:21:51Z</time></trkpt><trkpt lat="45.70609408422898" lon="12.141232478995246"><ele>49.0</ele><time>2026-04-04T14:21:52Z</time></trkpt><trkpt lat="45.7059770551159" lon="12.141357977434472"><ele>49.0</ele><time>2026-04-04T14:21:53Z</time></trkpt><trkpt lat="45.70587159877565" lon="12.141479589534354"><ele>49.0</ele><time>2026-04-04T14:21:54Z</time></trkpt><trkpt lat="45.70578057244701" lon="12.141596677269941"><ele>49.0</ele><time>2026-04-04T14:21:55Z</time></trkpt><trkpt lat="45.70569332148298" lon="12.141708065131793"><ele>49.0</ele><time>2026-04-04T14:21:56Z</time></trkpt><trkpt lat="45.70563005919917" lon="12.141838973850604"><ele>49.0</ele><time>2026-04-04T14:21:57Z</time></trkpt><trkpt lat="45.70558179916538" lon="12.141960058825383"><ele>49.0</ele><time>2026-04-04T14:21:58Z</time></trkpt><trkpt lat="45.70553807152215" lon="12.14205734631671"><ele>48.99999999999999</ele><time>2026-04-04T14:21:59Z</time></trkpt><trkpt lat="45.70548786012799" lon="12.142139633188801"><ele>49.0</ele><time>2026-04-04T14:22:00Z</time></trkpt><trkpt lat="45.7054256331783" lon="12.142198218330941"><ele>49.0</ele><time>2026-04-04T14:22:01Z</time></trkpt><trkpt lat="45.70534726911204" lon="12.142210024472996"><ele>49.0</ele><time>2026-04-04T14:22:02Z</time></trkpt><trkpt lat="45.70527029271788" lon="12.142189702332267"><ele>48.99999999999999</ele><time>2026-04-04T14:22:03Z</time></trkpt><trkpt lat="45.705203551874924" lon="12.142133874989371"><ele>49.0</ele><time>2026-04-04T14:22:04Z</time></trkpt><trkpt lat="45.70514545797948" lon="12.142059696807605"><ele>48.99999999999999</ele><time>2026-04-04T14:22:05Z</time></trkpt><trkpt lat="45.705087534715204" lon="12.14197369360543"><ele>49.0</ele><time>2026-04-04T14:22:06Z</time></trkpt><trkpt lat="45.70502336353135" lon="12.141877151441312"><ele>49.0</ele><time>2026-04-04T14:22:07Z</time></trkpt><trkpt lat="45.704958884777916" lon="12.141777066279424"><ele>49.0</ele><time>2026-04-04T14:22:08Z</time></trkpt><trkpt lat="45.704898241132256" lon="12.141688737991492"><ele>48.99999999999999</ele><time>2026-04-04T14:22:09Z</time></trkpt><trkpt lat="45.704846420209016" lon="12.141608384632017"><ele>49.0</ele><time>2026-04-04T14:22:10Z</time></trkpt><trkpt lat="45.70480443832518" lon="12.14153577873584"><ele>49.0</ele><time>2026-04-04T14:22:11Z</time></trkpt><trkpt lat="45.70471269532986" lon="12.14144427363445"><ele>49.0</ele><time>2026-04-04T14:22:13Z</time></trkpt><trkpt lat="45.70464834233877" lon="12.141450695831907"><ele>49.0</ele><time>2026-04-04T14:22:14Z</time></trkpt><trkpt lat="45.70456737956587" lon="12.141498004481024"><ele>49.0</ele><time>2026-04-04T14:22:15Z</time></trkpt><trkpt lat="45.70446212172563" lon="12.141543249323039"><ele>49.0</ele><time>2026-04-04T14:22:16Z</time></trkpt><trkpt lat="45.70433549021437" lon="12.14161502397632"><ele>49.0</ele><time>2026-04-04T14:22:17Z</time></trkpt><trkpt lat="45.70419455029127" lon="12.141698633217779"><ele>49.0</ele><time>2026-04-04T14:22:18Z</time></trkpt><trkpt lat="45.70405024424146" lon="12.141784241850305"><ele>49.0</ele><time>2026-04-04T14:22:19Z</time></trkpt><trkpt lat="45.70390244135695" lon="12.141873826207659"><ele>49.0</ele><time>2026-04-04T14:22:20Z</time></trkpt><trkpt lat="45.70374869178076" lon="12.14196785583425"><ele>49.0</ele><time>2026-04-04T14:22:21Z</time></trkpt><trkpt lat="45.70359623520261" lon="12.14205967006877"><ele>49.0</ele><time>2026-04-04T14:22:22Z</time></trkpt><trkpt lat="45.70346198431914" lon="12.142136167775952"><ele>48.75</ele><time>2026-04-04T14:22:23Z</time></trkpt><trkpt lat="45.70333433155008" lon="12.14218661507828"><ele>48.5</ele><time>2026-04-04T14:22:24Z</time></trkpt><trkpt lat="45.70320185658691" lon="12.142197480796654"><ele>48.25</ele><time>2026-04-04T14:22:25Z</time></trkpt><trkpt lat="45.70305157339518" lon="12.142172973854208"><ele>48.0</ele><time>2026-04-04T14:22:26Z</time></trkpt><trkpt lat="45.702876624111425" lon="12.142125112118284"><ele>47.0</ele><time>2026-04-04T14:22:27Z</time></trkpt><trkpt lat="45.70266887975144" lon="12.14209026669142"><ele>46.0</ele><time>2026-04-04T14:22:28Z</time></trkpt><trkpt lat="45.70245120035756" lon="12.142024787455242"><ele>45.0</ele><time>2026-04-04T14:22:29Z</time></trkpt><trkpt lat="45.70222520373619" lon="12.14196254357555"><ele>45.0</ele><time>2026-04-04T14:22:30Z</time></trkpt><trkpt lat="45.70197007120187" lon="12.141891383394944"><ele>45.0</ele><time>2026-04-04T14:22:30.999Z</time></trkpt><trkpt lat="45.70171643447025" lon="12.141823733542484"><ele>44.666666666666664</ele><time>2026-04-04T14:22:31.999Z</time></trkpt><trkpt lat="45.70150169211225" lon="12.141768486732767"><ele>44.33333333333333</ele><time>2026-04-04T14:22:32.999Z</time></trkpt><trkpt lat="45.70130255398831" lon="12.141717756258867"><ele>44.0</ele><time>2026-04-04T14:22:33.999Z</time></trkpt><trkpt lat="45.70110847948876" lon="12.141666799366945"><ele>44.666666666666664</ele><time>2026-04-04T14:22:34.999Z</time></trkpt><trkpt lat="45.70092920549443" lon="12.141618102548554"><ele>45.333333333333336</ele><time>2026-04-04T14:22:35.999Z</time></trkpt><trkpt lat="45.700743133466766" lon="12.141567903921098"><ele>46.0</ele><time>2026-04-04T14:22:36.999Z</time></trkpt><trkpt lat="45.70055971717594" lon="12.141521646195786"><ele>46.0</ele><time>2026-04-04T14:22:37.999Z</time></trkpt><trkpt lat="45.700375311802404" lon="12.141478947799664"><ele>46.0</ele><time>2026-04-04T14:22:38.999Z</time></trkpt><trkpt lat="45.70019203351948" lon="12.141462440561543"><ele>46.0</ele><time>2026-04-04T14:22:39.999Z</time></trkpt><trkpt lat="45.70001485519857" lon="12.141470626185177"><ele>46.0</ele><time>2026-04-04T14:22:40.999Z</time></trkpt><trkpt lat="45.69983442245218" lon="12.141452815447945"><ele>46.0</ele><time>2026-04-04T14:22:41.999Z</time></trkpt><trkpt lat="45.69966075816135" lon="12.141454742210033"><ele>46.0</ele><time>2026-04-04T14:22:42.999Z</time></trkpt><trkpt lat="45.699499349869534" lon="12.141474577288333"><ele>46.0</ele><time>2026-04-04T14:22:43.999Z</time></trkpt><trkpt lat="45.6993462034375" lon="12.14147869490155"><ele>46.0</ele><time>2026-04-04T14:22:44.999Z</time></trkpt><trkpt lat="45.69920569646602" lon="12.14147236374011"><ele>46.0</ele><time>2026-04-04T14:22:45.999Z</time></trkpt><trkpt lat="45.699068683673744" lon="12.14151816111699"><ele>46.0</ele><time>2026-04-04T14:22:46.999Z</time></trkpt><trkpt lat="45.69894535837597" lon="12.141607350985694"><ele>46.0</ele><time>2026-04-04T14:22:47.999Z</time></trkpt><trkpt lat="45.69882948035193" lon="12.141738198097983"><ele>46.0</ele><time>2026-04-04T14:22:48.999Z</time></trkpt><trkpt lat="45.69871992984613" lon="12.141905648569047"><ele>46.0</ele><time>2026-04-04T14:22:49.999Z</time></trkpt><trkpt lat="45.69860533269112" lon="12.142078152045888"><ele>46.333333333333336</ele><time>2026-04-04T14:22:50.999Z</time></trkpt><trkpt lat="45.69847956839916" lon="12.142267502493347"><ele>46.666666666666664</ele><time>2026-04-04T14:22:51.999Z</time></trkpt><trkpt lat="45.69835136437442" lon="12.142460806714158"><ele>47.0</ele><time>2026-04-04T14:22:52.999Z</time></trkpt><trkpt lat="45.69823005662806" lon="12.142643714458384"><ele>46.33333333333333</ele><time>2026-04-04T14:22:53.999Z</time></trkpt><trkpt lat="45.69810350421551" lon="12.142834709462663"><ele>45.666666666666664</ele><time>2026-04-04T14:22:54.999Z</time></trkpt><trkpt lat="45.69797411301321" lon="12.143029988796728"><ele>45.0</ele><time>2026-04-04T14:22:55.999Z</time></trkpt><trkpt lat="45.6978441655627" lon="12.143224732804988"><ele>43.666666666666664</ele><time>2026-04-04T14:22:56.999Z</time></trkpt><trkpt lat="45.697715606111146" lon="12.143417361433388"><ele>42.33333333333333</ele><time>2026-04-04T14:22:57.999Z</time></trkpt><trkpt lat="45.69758414608426" lon="12.14361433614123"><ele>41.0</ele><time>2026-04-04T14:22:58.999Z</time></trkpt><trkpt lat="45.69744916172917" lon="12.143816591571474"><ele>41.0</ele><time>2026-04-04T14:22:59.999Z</time></trkpt><trkpt lat="45.69731564102029" lon="12.144016653966347"><ele>41.0</ele><time>2026-04-04T14:23:01Z</time></trkpt><trkpt lat="45.69718438738701" lon="12.144213319455595"><ele>41.0</ele><time>2026-04-04T14:23:02Z</time></trkpt><trkpt lat="45.69705388346189" lon="12.144409401970726"><ele>41.0</ele><time>2026-04-04T14:23:03Z</time></trkpt><trkpt lat="45.69692168112071" lon="12.144612374629837"><ele>41.0</ele><time>2026-04-04T14:23:04Z</time></trkpt><trkpt lat="45.69679139978743" lon="12.144817120504712"><ele>41.0</ele><time>2026-04-04T14:23:05Z</time></trkpt><trkpt lat="45.69666445202488" lon="12.145020640450277"><ele>41.666666666666664</ele><time>2026-04-04T14:23:06Z</time></trkpt><trkpt lat="45.696536909317985" lon="12.145230040015594"><ele>42.333333333333336</ele><time>2026-04-04T14:23:07Z</time></trkpt><trkpt lat="45.69641067156999" lon="12.14544007823107"><ele>43.0</ele><time>2026-04-04T14:23:08Z</time></trkpt><trkpt lat="45.69628580320185" lon="12.145647979893619"><ele>43.0</ele><time>2026-04-04T14:23:09Z</time></trkpt><trkpt lat="45.696156976593585" lon="12.14585148937003"><ele>43.0</ele><time>2026-04-04T14:23:10Z</time></trkpt><trkpt lat="45.6960194607185" lon="12.146050820854"><ele>43.0</ele><time>2026-04-04T14:23:11Z</time></trkpt><trkpt lat="45.695881748303265" lon="12.146250121201236"><ele>41.66666666666667</ele><time>2026-04-04T14:23:12Z</time></trkpt><trkpt lat="45.69575549236737" lon="12.146461794755117"><ele>40.333333333333336</ele><time>2026-04-04T14:23:13Z</time></trkpt><trkpt lat="45.695619674276514" lon="12.14665295633599"><ele>39.0</ele><time>2026-04-04T14:23:14Z</time></trkpt><trkpt lat="45.695472569801375" lon="12.146829354697308"><ele>38.666666666666664</ele><time>2026-04-04T14:23:15Z</time></trkpt><trkpt lat="45.69533724339678" lon="12.147024682183616"><ele>38.33333333333333</ele><time>2026-04-04T14:23:16Z</time></trkpt><trkpt lat="45.69520254320499" lon="12.147219520041718"><ele>38.0</ele><time>2026-04-04T14:23:17Z</time></trkpt><trkpt lat="45.69506305967902" lon="12.147417327250007"><ele>38.666666666666664</ele><time>2026-04-04T14:23:18Z</time></trkpt><trkpt lat="45.694925392746896" lon="12.147612430408104"><ele>39.333333333333336</ele><time>2026-04-04T14:23:19Z</time></trkpt><trkpt lat="45.69478637919626" lon="12.147809441976126"><ele>40.0</ele><time>2026-04-04T14:23:20Z</time></trkpt><trkpt lat="45.69465123963465" lon="12.148000963304439"><ele>40.0</ele><time>2026-04-04T14:23:21Z</time></trkpt><trkpt lat="45.69450940878061" lon="12.148178000256957"><ele>40.0</ele><time>2026-04-04T14:23:22Z</time></trkpt><trkpt lat="45.69435638942678" lon="12.148334912094622"><ele>40.0</ele><time>2026-04-04T14:23:23Z</time></trkpt><trkpt lat="45.694193664550795" lon="12.148480306989674"><ele>39.333333333333336</ele><time>2026-04-04T14:23:24Z</time></trkpt><trkpt lat="45.69402699800232" lon="12.148623336986416"><ele>38.666666666666664</ele><time>2026-04-04T14:23:25Z</time></trkpt><trkpt lat="45.69386275951172" lon="12.148764067298437"><ele>38.0</ele><time>2026-04-04T14:23:26Z</time></trkpt><trkpt lat="45.69369533852402" lon="12.148907524582732"><ele>38.33333333333333</ele><time>2026-04-04T14:23:27Z</time></trkpt><trkpt lat="45.69353647248686" lon="12.149069556799173"><ele>38.666666666666664</ele><time>2026-04-04T14:23:28Z</time></trkpt><trkpt lat="45.69338133811032" lon="12.149200526661915"><ele>39.0</ele><time>2026-04-04T14:23:29Z</time></trkpt><trkpt lat="45.69323927369245" lon="12.149324322047413"><ele>39.0</ele><time>2026-04-04T14:23:30Z</time></trkpt><trkpt lat="45.693099727756" lon="12.149462460902411"><ele>39.0</ele><time>2026-04-04T14:23:31Z</time></trkpt><trkpt lat="45.69296304781323" lon="12.149624909873975"><ele>39.0</ele><time>2026-04-04T14:23:32Z</time></trkpt><trkpt lat="45.69283330503142" lon="12.149804712888068"><ele>38.333333333333336</ele><time>2026-04-04T14:23:33Z</time></trkpt><trkpt lat="45.69270314663121" lon="12.149978093027203"><ele>37.66666666666667</ele><time>2026-04-04T14:23:34Z</time></trkpt><trkpt lat="45.69257494207098" lon="12.150170811442297"><ele>37.0</ele><time>2026-04-04T14:23:35Z</time></trkpt><trkpt lat="45.69244766605851" lon="12.15036173686116"><ele>37.0</ele><time>2026-04-04T14:23:36Z</time></trkpt><trkpt lat="45.6923211419202" lon="12.15055080194482"><ele>37.0</ele><time>2026-04-04T14:23:37Z</time></trkpt><trkpt lat="45.69220362758322" lon="12.150726747246788"><ele>37.0</ele><time>2026-04-04T14:23:38Z</time></trkpt><trkpt lat="45.69208886707937" lon="12.15089689608912"><ele>37.333333333333336</ele><time>2026-04-04T14:23:39Z</time></trkpt><trkpt lat="45.6919787151729" lon="12.151061676509133"><ele>37.666666666666664</ele><time>2026-04-04T14:23:40Z</time></trkpt><trkpt lat="45.69186107407952" lon="12.151237660284197"><ele>38.0</ele><time>2026-04-04T14:23:41Z</time></trkpt><trkpt lat="45.69174702435713" lon="12.1514104731145"><ele>38.0</ele><time>2026-04-04T14:23:42Z</time></trkpt><trkpt lat="45.69163710048529" lon="12.151577487221726"><ele>38.0</ele><time>2026-04-04T14:23:43Z</time></trkpt><trkpt lat="45.691521094935844" lon="12.151753741595934"><ele>38.0</ele><time>2026-04-04T14:23:44Z</time></trkpt><trkpt lat="45.69140521878696" lon="12.1519288471823"><ele>38.0</ele><time>2026-04-04T14:23:45Z</time></trkpt><trkpt lat="45.691294065625826" lon="12.152095753767767"><ele>38.0</ele><time>2026-04-04T14:23:46Z</time></trkpt><trkpt lat="45.69117834822288" lon="12.15226951397318"><ele>38.0</ele><time>2026-04-04T14:23:47Z</time></trkpt><trkpt lat="45.69106382183292" lon="12.152443444968197"><ele>37.666666666666664</ele><time>2026-04-04T14:23:48Z</time></trkpt><trkpt lat="45.69095290361511" lon="12.1526144122763"><ele>37.333333333333336</ele><time>2026-04-04T14:23:49Z</time></trkpt><trkpt lat="45.690839467342855" lon="12.15278926086357"><ele>37.0</ele><time>2026-04-04T14:23:50Z</time></trkpt><trkpt lat="45.69072899751974" lon="12.152960137309714"><ele>37.0</ele><time>2026-04-04T14:23:51Z</time></trkpt><trkpt lat="45.69061933582316" lon="12.153129886676098"><ele>37.0</ele><time>2026-04-04T14:23:52Z</time></trkpt><trkpt lat="45.69050698724435" lon="12.153303795161136"><ele>37.0</ele><time>2026-04-04T14:23:53Z</time></trkpt><trkpt lat="45.69039566361252" lon="12.153476191813477"><ele>37.333333333333336</ele><time>2026-04-04T14:23:54Z</time></trkpt><trkpt lat="45.690291897951205" lon="12.153672335067299"><ele>37.666666666666664</ele><time>2026-04-04T14:23:55Z</time></trkpt><trkpt lat="45.690181866564515" lon="12.153848108159428"><ele>38.0</ele><time>2026-04-04T14:23:56Z</time></trkpt><trkpt lat="45.690070244916505" lon="12.15402937345364"><ele>37.33333333333333</ele><time>2026-04-04T14:23:57Z</time></trkpt><trkpt lat="45.68995920282984" lon="12.154213949637215"><ele>36.666666666666664</ele><time>2026-04-04T14:23:58Z</time></trkpt><trkpt lat="45.689832975844645" lon="12.154385539479437"><ele>36.0</ele><time>2026-04-04T14:23:59Z</time></trkpt><trkpt lat="45.68971740601469" lon="12.154573480536857"><ele>36.0</ele><time>2026-04-04T14:24:00Z</time></trkpt><trkpt lat="45.689602571577" lon="12.15475971600929"><ele>36.0</ele><time>2026-04-04T14:24:01Z</time></trkpt><trkpt lat="45.689486499087856" lon="12.15494917219538"><ele>36.0</ele><time>2026-04-04T14:24:02Z</time></trkpt><trkpt lat="45.68936854055238" lon="12.155141706972286"><ele>36.333333333333336</ele><time>2026-04-04T14:24:03Z</time></trkpt><trkpt lat="45.6892497172577" lon="12.155334444168082"><ele>36.66666666666667</ele><time>2026-04-04T14:24:04Z</time></trkpt><trkpt lat="45.68912872386363" lon="12.155529774198264"><ele>37.0</ele><time>2026-04-04T14:24:05Z</time></trkpt><trkpt lat="45.68900136620504" lon="12.155734004472494"><ele>37.0</ele><time>2026-04-04T14:24:06Z</time></trkpt><trkpt lat="45.68886888952746" lon="12.155936980174271"><ele>37.0</ele><time>2026-04-04T14:24:07Z</time></trkpt><trkpt lat="45.68873135357651" lon="12.15613674224099"><ele>37.0</ele><time>2026-04-04T14:24:08Z</time></trkpt><trkpt lat="45.68857633096787" lon="12.156344736120047"><ele>34.5</ele><time>2026-04-04T14:24:09Z</time></trkpt><trkpt lat="45.68840242555049" lon="12.156577036711816"><ele>32.0</ele><time>2026-04-04T14:24:10Z</time></trkpt><trkpt lat="45.688219364741265" lon="12.156821566841703"><ele>32.0</ele><time>2026-04-04T14:24:11Z</time></trkpt><trkpt lat="45.68803536797353" lon="12.157064869184296"><ele>32.0</ele><time>2026-04-04T14:24:12Z</time></trkpt><trkpt lat="45.687870387919205" lon="12.15730886863429"><ele>33.5</ele><time>2026-04-04T14:24:13Z</time></trkpt><trkpt lat="45.68769993636599" lon="12.157525380559765"><ele>35.0</ele><time>2026-04-04T14:24:14Z</time></trkpt><trkpt lat="45.6875374560295" lon="12.157743051150245"><ele>35.0</ele><time>2026-04-04T14:24:15Z</time></trkpt><trkpt lat="45.687382694658545" lon="12.157955803536545"><ele>35.0</ele><time>2026-04-04T14:24:16Z</time></trkpt><trkpt lat="45.687227056569256" lon="12.15816352564319"><ele>35.0</ele><time>2026-04-04T14:24:17Z</time></trkpt><trkpt lat="45.687074766342555" lon="12.158367657184906"><ele>35.0</ele><time>2026-04-04T14:24:18Z</time></trkpt><trkpt lat="45.686923109557355" lon="12.158571503642781"><ele>35.0</ele><time>2026-04-04T14:24:19Z</time></trkpt><trkpt lat="45.68676714064839" lon="12.158773811500563"><ele>35.0</ele><time>2026-04-04T14:24:20Z</time></trkpt><trkpt lat="45.68661775178738" lon="12.158973828543365"><ele>34.33333333333333</ele><time>2026-04-04T14:24:21Z</time></trkpt><trkpt lat="45.68646554168087" lon="12.15917665002921"><ele>33.666666666666664</ele><time>2026-04-04T14:24:22Z</time></trkpt><trkpt lat="45.686313678117024" lon="12.159376756977728"><ele>33.0</ele><time>2026-04-04T14:24:23Z</time></trkpt><trkpt lat="45.6861583679909" lon="12.159578981290267"><ele>32.666666666666664</ele><time>2026-04-04T14:24:24Z</time></trkpt><trkpt lat="45.68600274983091" lon="12.159783696747427"><ele>32.33333333333333</ele><time>2026-04-04T14:24:25Z</time></trkpt><trkpt lat="45.685849947157585" lon="12.159986729831259"><ele>32.0</ele><time>2026-04-04T14:24:26Z</time></trkpt><trkpt lat="45.68570510311472" lon="12.160183247548167"><ele>32.0</ele><time>2026-04-04T14:24:27Z</time></trkpt><trkpt lat="45.68556540085776" lon="12.160371121407646"><ele>32.0</ele><time>2026-04-04T14:24:28Z</time></trkpt><trkpt lat="45.68543446425555" lon="12.160547345057944"><ele>32.0</ele><time>2026-04-04T14:24:29Z</time></trkpt><trkpt lat="45.68531318052144" lon="12.160710500943845"><ele>32.666666666666664</ele><time>2026-04-04T14:24:30Z</time></trkpt><trkpt lat="45.68519612744548" lon="12.160865854175045"><ele>33.333333333333336</ele><time>2026-04-04T14:24:31Z</time></trkpt><trkpt lat="45.68508146092588" lon="12.161013389658716"><ele>34.0</ele><time>2026-04-04T14:24:32Z</time></trkpt><trkpt lat="45.68497615670926" lon="12.161153691059281"><ele>34.0</ele><time>2026-04-04T14:24:33Z</time></trkpt><trkpt lat="45.68486680527897" lon="12.161276461752873"><ele>34.0</ele><time>2026-04-04T14:24:34Z</time></trkpt><trkpt lat="45.684759249525406" lon="12.161420060344174"><ele>34.0</ele><time>2026-04-04T14:24:35Z</time></trkpt><trkpt lat="45.6846539767207" lon="12.16156061096834"><ele>34.0</ele><time>2026-04-04T14:24:36Z</time></trkpt><trkpt lat="45.684561046996556" lon="12.161716879254293"><ele>33.75</ele><time>2026-04-04T14:24:37Z</time></trkpt><trkpt lat="45.68445240382146" lon="12.16185788215601"><ele>33.5</ele><time>2026-04-04T14:24:38Z</time></trkpt><trkpt lat="45.68434662125687" lon="12.161997174487704"><ele>33.25</ele><time>2026-04-04T14:24:39Z</time></trkpt><trkpt lat="45.68423966439374" lon="12.162139229023744"><ele>33.0</ele><time>2026-04-04T14:24:39.999Z</time></trkpt><trkpt lat="45.684133367699886" lon="12.162277545877174"><ele>33.0</ele><time>2026-04-04T14:24:40.999Z</time></trkpt><trkpt lat="45.68403020848131" lon="12.16241909900553"><ele>33.0</ele><time>2026-04-04T14:24:41.999Z</time></trkpt><trkpt lat="45.683911858923445" lon="12.162549243842259"><ele>33.0</ele><time>2026-04-04T14:24:42.999Z</time></trkpt><trkpt lat="45.68380737455066" lon="12.162705615019375"><ele>33.0</ele><time>2026-04-04T14:24:43.999Z</time></trkpt><trkpt lat="45.683680311265334" lon="12.162842166577068"><ele>32.333333333333336</ele><time>2026-04-04T14:24:44.999Z</time></trkpt><trkpt lat="45.68354009393924" lon="12.162963048446372"><ele>31.666666666666668</ele><time>2026-04-04T14:24:45.999Z</time></trkpt><trkpt lat="45.68337890618417" lon="12.163076264073197"><ele>31.0</ele><time>2026-04-04T14:24:46.999Z</time></trkpt><trkpt lat="45.68319902129736" lon="12.163181433816582"><ele>30.666666666666668</ele><time>2026-04-04T14:24:47.999Z</time></trkpt><trkpt lat="45.683000327909006" lon="12.163275720986524"><ele>30.333333333333336</ele><time>2026-04-04T14:24:48.999Z</time></trkpt><trkpt lat="45.682802011648626" lon="12.16336633960263"><ele>30.0</ele><time>2026-04-04T14:24:49.999Z</time></trkpt><trkpt lat="45.68261568660815" lon="12.163457850546216"><ele>30.666666666666664</ele><time>2026-04-04T14:24:50.999Z</time></trkpt><trkpt lat="45.682437657196" lon="12.163549727981122"><ele>31.333333333333332</ele><time>2026-04-04T14:24:51.999Z</time></trkpt><trkpt lat="45.68226772895641" lon="12.163634605788689"><ele>32.0</ele><time>2026-04-04T14:24:52.999Z</time></trkpt><trkpt lat="45.68210527699847" lon="12.163717862666623"><ele>32.0</ele><time>2026-04-04T14:24:53.999Z</time></trkpt><trkpt lat="45.68195797842626" lon="12.163797634971518"><ele>32.0</ele><time>2026-04-04T14:24:54.999Z</time></trkpt><trkpt lat="45.68182423462129" lon="12.163869396463623"><ele>32.0</ele><time>2026-04-04T14:24:55.999Z</time></trkpt><trkpt lat="45.68169633725034" lon="12.163937276031902"><ele>32.0</ele><time>2026-04-04T14:24:56.999Z</time></trkpt><trkpt lat="45.681574261969374" lon="12.163999500269599"><ele>31.6</ele><time>2026-04-04T14:24:57.999Z</time></trkpt><trkpt lat="45.681463711295734" lon="12.16405332581966"><ele>31.200000000000003</ele><time>2026-04-04T14:24:58.999Z</time></trkpt><trkpt lat="45.68137338596673" lon="12.164093614127824"><ele>30.8</ele><time>2026-04-04T14:24:59.999Z</time></trkpt><trkpt lat="45.681285321230206" lon="12.164114093669681"><ele>30.4</ele><time>2026-04-04T14:25:00.999Z</time></trkpt><trkpt lat="45.681207130923966" lon="12.164111772404944"><ele>30.0</ele><time>2026-04-04T14:25:01.999Z</time></trkpt><trkpt lat="45.68113395536663" lon="12.16409727325534"><ele>30.0</ele><time>2026-04-04T14:25:02.999Z</time></trkpt><trkpt lat="45.681022845721216" lon="12.16412594514141"><ele>30.0</ele><time>2026-04-04T14:25:04.999Z</time></trkpt><trkpt lat="45.68098697281889" lon="12.164267393509169"><ele>30.0</ele><time>2026-04-04T14:25:05.999Z</time></trkpt><trkpt lat="45.680926621395955" lon="12.164383294040146"><ele>30.0</ele><time>2026-04-04T14:25:07Z</time></trkpt><trkpt lat="45.68085094514244" lon="12.16450618279636"><ele>30.0</ele><time>2026-04-04T14:25:08Z</time></trkpt><trkpt lat="45.6807663684521" lon="12.164639952030347"><ele>30.0</ele><time>2026-04-04T14:25:09Z</time></trkpt><trkpt lat="45.68067440676872" lon="12.16478590078553"><ele>30.0</ele><time>2026-04-04T14:25:10Z</time></trkpt><trkpt lat="45.680582624662314" lon="12.164933761994554"><ele>30.0</ele><time>2026-04-04T14:25:11Z</time></trkpt><trkpt lat="45.680483426663635" lon="12.165093796328039"><ele>30.0</ele><time>2026-04-04T14:25:12Z</time></trkpt><trkpt lat="45.680374230361856" lon="12.165262383227839"><ele>30.0</ele><time>2026-04-04T14:25:13Z</time></trkpt><trkpt lat="45.680256355403124" lon="12.165448759542679"><ele>30.0</ele><time>2026-04-04T14:25:14Z</time></trkpt><trkpt lat="45.68013813364163" lon="12.16563311368251"><ele>30.0</ele><time>2026-04-04T14:25:15Z</time></trkpt><trkpt lat="45.68001866500147" lon="12.165829450696698"><ele>29.666666666666664</ele><time>2026-04-04T14:25:16Z</time></trkpt><trkpt lat="45.67988922803042" lon="12.166029836641396"><ele>29.333333333333332</ele><time>2026-04-04T14:25:17Z</time></trkpt><trkpt lat="45.679760762776056" lon="12.166227384312528"><ele>29.0</ele><time>2026-04-04T14:25:18Z</time></trkpt><trkpt lat="45.67963085559194" lon="12.166437019819387"><ele>29.333333333333332</ele><time>2026-04-04T14:25:19Z</time></trkpt><trkpt lat="45.679500762028134" lon="12.166645339115577"><ele>29.666666666666664</ele><time>2026-04-04T14:25:20Z</time></trkpt><trkpt lat="45.679368367231646" lon="12.166853657379876"><ele>30.0</ele><time>2026-04-04T14:25:21Z</time></trkpt><trkpt lat="45.67923527709032" lon="12.167058712732866"><ele>30.0</ele><time>2026-04-04T14:25:22Z</time></trkpt><trkpt lat="45.679107762283735" lon="12.167253904229623"><ele>30.0</ele><time>2026-04-04T14:25:23Z</time></trkpt><trkpt lat="45.6789926861606" lon="12.167438844751997"><ele>30.0</ele><time>2026-04-04T14:25:24Z</time></trkpt><trkpt lat="45.678880175023764" lon="12.167631247260323"><ele>29.333333333333336</ele><time>2026-04-04T14:25:25Z</time></trkpt><trkpt lat="45.678784218326754" lon="12.167819367156454"><ele>28.666666666666668</ele><time>2026-04-04T14:25:26Z</time></trkpt><trkpt lat="45.67869014878338" lon="12.168008385176739"><ele>28.0</ele><time>2026-04-04T14:25:27Z</time></trkpt><trkpt lat="45.6786018019971" lon="12.168190291055408"><ele>28.0</ele><time>2026-04-04T14:25:28Z</time></trkpt><trkpt lat="45.6785095972096" lon="12.168375204536773"><ele>28.0</ele><time>2026-04-04T14:25:29Z</time></trkpt><trkpt lat="45.678417821507594" lon="12.168543656227564"><ele>28.0</ele><time>2026-04-04T14:25:30Z</time></trkpt><trkpt lat="45.678308008107706" lon="12.168672078294291"><ele>28.0</ele><time>2026-04-04T14:25:31Z</time></trkpt><trkpt lat="45.67822404851627" lon="12.168811253427936"><ele>27.999999999999996</ele><time>2026-04-04T14:25:32Z</time></trkpt><trkpt lat="45.67813406384208" lon="12.168918936119185"><ele>27.999999999999996</ele><time>2026-04-04T14:25:33Z</time></trkpt><trkpt lat="45.67805583527753" lon="12.169019908419441"><ele>28.0</ele><time>2026-04-04T14:25:34Z</time></trkpt><trkpt lat="45.67798658285595" lon="12.169111355587972"><ele>28.0</ele><time>2026-04-04T14:25:35Z</time></trkpt><trkpt lat="45.677925917064876" lon="12.169183411781159"><ele>28.000000000000004</ele><time>2026-04-04T14:25:36Z</time></trkpt><trkpt lat="45.67783258088427" lon="12.169254185682272"><ele>28.0</ele><time>2026-04-04T14:25:38Z</time></trkpt><trkpt lat="45.67774924000319" lon="12.169231903021954"><ele>28.0</ele><time>2026-04-04T14:25:40Z</time></trkpt><trkpt lat="45.6776887204397" lon="12.169192870208649"><ele>28.0</ele><time>2026-04-04T14:25:41Z</time></trkpt><trkpt lat="45.677613970681435" lon="12.169123621537018"><ele>28.000000000000004</ele><time>2026-04-04T14:25:42Z</time></trkpt><trkpt lat="45.677531333413405" lon="12.169035137299199"><ele>28.0</ele><time>2026-04-04T14:25:43Z</time></trkpt><trkpt lat="45.677435477206146" lon="12.16894357699237"><ele>27.75</ele><time>2026-04-04T14:25:44Z</time></trkpt><trkpt lat="45.67732478114955" lon="12.168845399669909"><ele>27.5</ele><time>2026-04-04T14:25:45Z</time></trkpt><trkpt lat="45.67721863230866" lon="12.168760641708117"><ele>27.25</ele><time>2026-04-04T14:25:46Z</time></trkpt><trkpt lat="45.67710827815715" lon="12.168684796508412"><ele>27.0</ele><time>2026-04-04T14:25:47Z</time></trkpt><trkpt lat="45.67699397313345" lon="12.168626050146974"><ele>27.5</ele><time>2026-04-04T14:25:48Z</time></trkpt><trkpt lat="45.676868147735256" lon="12.168571668723267"><ele>28.0</ele><time>2026-04-04T14:25:49Z</time></trkpt><trkpt lat="45.67673474290377" lon="12.168521747010592"><ele>28.5</ele><time>2026-04-04T14:25:50Z</time></trkpt><trkpt lat="45.676607172345165" lon="12.16847975497799"><ele>29.0</ele><time>2026-04-04T14:25:51Z</time></trkpt><trkpt lat="45.67648582150147" lon="12.168433660762872"><ele>29.0</ele><time>2026-04-04T14:25:52Z</time></trkpt><trkpt lat="45.67636745985268" lon="12.168387848865857"><ele>29.0</ele><time>2026-04-04T14:25:53Z</time></trkpt><trkpt lat="45.67625258749243" lon="12.16834982143192"><ele>29.0</ele><time>2026-04-04T14:25:54Z</time></trkpt><trkpt lat="45.67612920203775" lon="12.168299715769"><ele>29.0</ele><time>2026-04-04T14:25:55Z</time></trkpt><trkpt lat="45.67600561256335" lon="12.16823775012746"><ele>29.0</ele><time>2026-04-04T14:25:56Z</time></trkpt><trkpt lat="45.67587593449088" lon="12.168183832504157"><ele>29.0</ele><time>2026-04-04T14:25:57Z</time></trkpt><trkpt lat="45.675742529597436" lon="12.168137934039349"><ele>29.0</ele><time>2026-04-04T14:25:58Z</time></trkpt><trkpt lat="45.67560747680925" lon="12.168090950300115"><ele>29.0</ele><time>2026-04-04T14:25:59Z</time></trkpt><trkpt lat="45.67546616771324" lon="12.168034456978242"><ele>29.0</ele><time>2026-04-04T14:26:00Z</time></trkpt><trkpt lat="45.67532434828169" lon="12.167985134988864"><ele>29.0</ele><time>2026-04-04T14:26:01Z</time></trkpt><trkpt lat="45.67518327902555" lon="12.167934839982602"><ele>29.0</ele><time>2026-04-04T14:26:02Z</time></trkpt><trkpt lat="45.675045855919784" lon="12.16787700240492"><ele>29.0</ele><time>2026-04-04T14:26:03Z</time></trkpt><trkpt lat="45.67490140997223" lon="12.167818831126095"><ele>29.0</ele><time>2026-04-04T14:26:04Z</time></trkpt><trkpt lat="45.674766929963695" lon="12.167731259695211"><ele>29.0</ele><time>2026-04-04T14:26:05Z</time></trkpt><trkpt lat="45.674631226151455" lon="12.167673534244253"><ele>29.0</ele><time>2026-04-04T14:26:06Z</time></trkpt><trkpt lat="45.674504536959574" lon="12.167561074501892"><ele>29.0</ele><time>2026-04-04T14:26:07Z</time></trkpt><trkpt lat="45.6743832300408" lon="12.167426586941925"><ele>28.333333333333332</ele><time>2026-04-04T14:26:08Z</time></trkpt><trkpt lat="45.67426856562919" lon="12.167268559991978"><ele>27.666666666666664</ele><time>2026-04-04T14:26:09Z</time></trkpt><trkpt lat="45.67416098289735" lon="12.167092511753127"><ele>27.0</ele><time>2026-04-04T14:26:10Z</time></trkpt><trkpt lat="45.67406674056381" lon="12.166925440061439"><ele>27.0</ele><time>2026-04-04T14:26:11Z</time></trkpt><trkpt lat="45.673976674992545" lon="12.16676622564709"><ele>27.0</ele><time>2026-04-04T14:26:12Z</time></trkpt><trkpt lat="45.67389893535829" lon="12.166619390934589"><ele>27.0</ele><time>2026-04-04T14:26:13Z</time></trkpt><trkpt lat="45.67383255423481" lon="12.166472699970019"><ele>27.0</ele><time>2026-04-04T14:26:14Z</time></trkpt><trkpt lat="45.67378438526435" lon="12.166330105550133"><ele>27.200000000000003</ele><time>2026-04-04T14:26:15Z</time></trkpt><trkpt lat="45.67374849653746" lon="12.166187493044006"><ele>27.400000000000002</ele><time>2026-04-04T14:26:16Z</time></trkpt><trkpt lat="45.6737203810295" lon="12.166051406061838"><ele>27.599999999999998</ele><time>2026-04-04T14:26:17Z</time></trkpt><trkpt lat="45.67369404216248" lon="12.165931432641358"><ele>27.799999999999997</ele><time>2026-04-04T14:26:18Z</time></trkpt><trkpt lat="45.67367486130445" lon="12.165821637061685"><ele>28.0</ele><time>2026-04-04T14:26:19Z</time></trkpt><trkpt lat="45.67366187762773" lon="12.165661310496459"><ele>28.0</ele><time>2026-04-04T14:26:21Z</time></trkpt><trkpt lat="45.673611299067346" lon="12.165554640199343"><ele>27.999999999999996</ele><time>2026-04-04T14:26:23Z</time></trkpt><trkpt lat="45.67350554622344" lon="12.165567862873294"><ele>27.999999999999996</ele><time>2026-04-04T14:26:25Z</time></trkpt><trkpt lat="45.67341397505482" lon="12.165711605519995"><ele>28.0</ele><time>2026-04-04T14:26:27Z</time></trkpt><trkpt lat="45.67334599075505" lon="12.165764200094493"><ele>28.0</ele><time>2026-04-04T14:26:28Z</time></trkpt><trkpt lat="45.67327569181501" lon="12.165844088782332"><ele>27.833333333333336</ele><time>2026-04-04T14:26:29Z</time></trkpt><trkpt lat="45.673200158646154" lon="12.165927411046914"><ele>27.666666666666668</ele><time>2026-04-04T14:26:30Z</time></trkpt><trkpt lat="45.673121745556756" lon="12.166027503014108"><ele>27.5</ele><time>2026-04-04T14:26:31Z</time></trkpt><trkpt lat="45.67307558993458" lon="12.166119090622384"><ele>27.333333333333336</ele><time>2026-04-04T14:26:32Z</time></trkpt><trkpt lat="45.67301925216845" lon="12.166176359216196"><ele>27.166666666666668</ele><time>2026-04-04T14:26:33Z</time></trkpt><trkpt lat="45.67295051889033" lon="12.166194401264383"><ele>27.0</ele><time>2026-04-04T14:26:34Z</time></trkpt><trkpt lat="45.67279691782515" lon="12.166136984948452"><ele>27.0</ele><time>2026-04-04T14:26:36Z</time></trkpt><trkpt lat="45.67272227049417" lon="12.166062360081401"><ele>27.000000000000004</ele><time>2026-04-04T14:26:37Z</time></trkpt><trkpt lat="45.67263577133574" lon="12.165966662234784"><ele>27.000000000000004</ele><time>2026-04-04T14:26:37.999Z</time></trkpt><trkpt lat="45.6725341876113" lon="12.165882043357092"><ele>27.0</ele><time>2026-04-04T14:26:38.999Z</time></trkpt><trkpt lat="45.67243172338" lon="12.165803438205705"><ele>27.0</ele><time>2026-04-04T14:26:39.999Z</time></trkpt><trkpt lat="45.67234904806618" lon="12.165731334607564"><ele>27.0</ele><time>2026-04-04T14:26:40.999Z</time></trkpt><trkpt lat="45.67226590273067" lon="12.165677486018131"><ele>27.000000000000004</ele><time>2026-04-04T14:26:41.999Z</time></trkpt><trkpt lat="45.67220144067334" lon="12.165629020719852"><ele>27.000000000000004</ele><time>2026-04-04T14:26:42.999Z</time></trkpt><trkpt lat="45.67211111636594" lon="12.165533571189593"><ele>27.0</ele><time>2026-04-04T14:26:44.999Z</time></trkpt><trkpt lat="45.672084946420185" lon="12.165379736034446"><ele>27.0</ele><time>2026-04-04T14:26:46.999Z</time></trkpt><trkpt lat="45.672089732281975" lon="12.165256593428028"><ele>27.0</ele><time>2026-04-04T14:26:47.999Z</time></trkpt><trkpt lat="45.67208848143604" lon="12.165110002788253"><ele>27.000000000000004</ele><time>2026-04-04T14:26:48.999Z</time></trkpt><trkpt lat="45.67208196425408" lon="12.164958003439512"><ele>27.000000000000004</ele><time>2026-04-04T14:26:49.999Z</time></trkpt><trkpt lat="45.67207347662165" lon="12.164803576451032"><ele>27.0</ele><time>2026-04-04T14:26:50.999Z</time></trkpt><trkpt lat="45.67205522892522" lon="12.164675323704571"><ele>27.0</ele><time>2026-04-04T14:26:51.999Z</time></trkpt><trkpt lat="45.672038032024005" lon="12.164540897574938"><ele>27.0</ele><time>2026-04-04T14:26:52.999Z</time></trkpt><trkpt lat="45.6720324041584" lon="12.164403312864021"><ele>27.0</ele><time>2026-04-04T14:26:53.999Z</time></trkpt><trkpt lat="45.67202824623599" lon="12.164270420496965"><ele>27.0</ele><time>2026-04-04T14:26:54.999Z</time></trkpt><trkpt lat="45.67201414863347" lon="12.164153316607946"><ele>27.0</ele><time>2026-04-04T14:26:55.999Z</time></trkpt><trkpt lat="45.67197437127834" lon="12.164060436863545"><ele>27.0</ele><time>2026-04-04T14:26:56.999Z</time></trkpt><trkpt lat="45.6719122464072" lon="12.163994493529461"><ele>27.0</ele><time>2026-04-04T14:26:57.999Z</time></trkpt><trkpt lat="45.67182785565215" lon="12.163971666146995"><ele>27.0</ele><time>2026-04-04T14:26:58.999Z</time></trkpt><trkpt lat="45.67174256452127" lon="12.163985151570749"><ele>27.000000000000004</ele><time>2026-04-04T14:26:59.999Z</time></trkpt><trkpt lat="45.67166621419852" lon="12.164045538554095"><ele>27.000000000000004</ele><time>2026-04-04T14:27:00.999Z</time></trkpt><trkpt lat="45.671602286389934" lon="12.164140568331415"><ele>27.0</ele><time>2026-04-04T14:27:01.999Z</time></trkpt><trkpt lat="45.67154151596795" lon="12.164242447123014"><ele>27.0</ele><time>2026-04-04T14:27:02.999Z</time></trkpt><trkpt lat="45.67146228194016" lon="12.164315122973923"><ele>26.75</ele><time>2026-04-04T14:27:03.999Z</time></trkpt><trkpt lat="45.67134924206258" lon="12.164349785328358"><ele>26.5</ele><time>2026-04-04T14:27:04.999Z</time></trkpt><trkpt lat="45.671216892058396" lon="12.164364803744819"><ele>26.25</ele><time>2026-04-04T14:27:05.999Z</time></trkpt><trkpt lat="45.671068233733344" lon="12.164355889258873"><ele>26.0</ele><time>2026-04-04T14:27:06.999Z</time></trkpt><trkpt lat="45.67091352745086" lon="12.164330327194955"><ele>27.0</ele><time>2026-04-04T14:27:07.999Z</time></trkpt><trkpt lat="45.67074905662961" lon="12.164288040270826"><ele>28.0</ele><time>2026-04-04T14:27:08.999Z</time></trkpt><trkpt lat="45.67057666794525" lon="12.164226309666038"><ele>29.0</ele><time>2026-04-04T14:27:09.999Z</time></trkpt><trkpt lat="45.67039994205873" lon="12.164146120650976"><ele>28.333333333333332</ele><time>2026-04-04T14:27:10.999Z</time></trkpt><trkpt lat="45.67021747847254" lon="12.164043781501954"><ele>27.666666666666664</ele><time>2026-04-04T14:27:11.999Z</time></trkpt><trkpt lat="45.670043538172095" lon="12.163917952949568"><ele>27.0</ele><time>2026-04-04T14:27:13Z</time></trkpt><trkpt lat="45.66986277430718" lon="12.163780755912157"><ele>27.0</ele><time>2026-04-04T14:27:14Z</time></trkpt><trkpt lat="45.66967366726732" lon="12.163648725008509"><ele>27.0</ele><time>2026-04-04T14:27:15Z</time></trkpt><trkpt lat="45.66947856188445" lon="12.163520806945975"><ele>27.0</ele><time>2026-04-04T14:27:16Z</time></trkpt><trkpt lat="45.669281421311595" lon="12.163394333977973"><ele>27.0</ele><time>2026-04-04T14:27:17Z</time></trkpt><trkpt lat="45.66909237789487" lon="12.163271481280546"><ele>27.0</ele><time>2026-04-04T14:27:18Z</time></trkpt><trkpt lat="45.66891886866784" lon="12.163163466699183"><ele>27.0</ele><time>2026-04-04T14:27:19Z</time></trkpt><trkpt lat="45.66874939336431" lon="12.163070108756898"><ele>26.333333333333336</ele><time>2026-04-04T14:27:20Z</time></trkpt><trkpt lat="45.668569256749684" lon="12.162993600737172"><ele>25.666666666666668</ele><time>2026-04-04T14:27:21Z</time></trkpt><trkpt lat="45.66841462591571" lon="12.162975784916632"><ele>25.0</ele><time>2026-04-04T14:27:22Z</time></trkpt><trkpt lat="45.668257762066965" lon="12.162981846392801"><ele>25.0</ele><time>2026-04-04T14:27:23Z</time></trkpt><trkpt lat="45.66811547734351" lon="12.163014288858829"><ele>25.0</ele><time>2026-04-04T14:27:24Z</time></trkpt><trkpt lat="45.66796679324569" lon="12.163070253527541"><ele>25.0</ele><time>2026-04-04T14:27:25Z</time></trkpt><trkpt lat="45.66781071179106" lon="12.163148369195058"><ele>24.666666666666668</ele><time>2026-04-04T14:27:26Z</time></trkpt><trkpt lat="45.66764987615138" lon="12.163241384976937"><ele>24.333333333333336</ele><time>2026-04-04T14:27:27Z</time></trkpt><trkpt lat="45.667481225867576" lon="12.163328721094215"><ele>24.0</ele><time>2026-04-04T14:27:28Z</time></trkpt><trkpt lat="45.66730600059941" lon="12.163399540371675"><ele>24.0</ele><time>2026-04-04T14:27:29Z</time></trkpt><trkpt lat="45.667130812729646" lon="12.163421415212841"><ele>24.0</ele><time>2026-04-04T14:27:30Z</time></trkpt><trkpt lat="45.66696329820747" lon="12.163477729574014"><ele>24.0</ele><time>2026-04-04T14:27:31Z</time></trkpt><trkpt lat="45.666812200272254" lon="12.16349912178185"><ele>24.25</ele><time>2026-04-04T14:27:32Z</time></trkpt><trkpt lat="45.66667012860544" lon="12.16352563045758"><ele>24.5</ele><time>2026-04-04T14:27:33Z</time></trkpt><trkpt lat="45.66654657934888" lon="12.163570245474922"><ele>24.75</ele><time>2026-04-04T14:27:34Z</time></trkpt><trkpt lat="45.66643392669351" lon="12.163622719452176"><ele>25.0</ele><time>2026-04-04T14:27:35Z</time></trkpt><trkpt lat="45.666327361874565" lon="12.163663264934941"><ele>25.0</ele><time>2026-04-04T14:27:36Z</time></trkpt><trkpt lat="45.666202149131465" lon="12.163682759069575"><ele>25.0</ele><time>2026-04-04T14:27:37Z</time></trkpt><trkpt lat="45.666065821341256" lon="12.163688167516264"><ele>25.0</ele><time>2026-04-04T14:27:38Z</time></trkpt><trkpt lat="45.66592050187841" lon="12.163664504939558"><ele>25.0</ele><time>2026-04-04T14:27:39Z</time></trkpt><trkpt lat="45.66576839020916" lon="12.163566558942982"><ele>23.5</ele><time>2026-04-04T14:27:40Z</time></trkpt><trkpt lat="45.665401810217816" lon="12.163421719155053"><ele>22.0</ele><time>2026-04-04T14:27:42Z</time></trkpt><trkpt lat="45.66520237132149" lon="12.163347988387638"><ele>21.666666666666664</ele><time>2026-04-04T14:27:43Z</time></trkpt><trkpt lat="45.66500969241664" lon="12.163275872136618"><ele>21.333333333333332</ele><time>2026-04-04T14:27:44Z</time></trkpt><trkpt lat="45.66481203280348" lon="12.163198326590726"><ele>21.0</ele><time>2026-04-04T14:27:45Z</time></trkpt><trkpt lat="45.66462081301102" lon="12.163124816404801"><ele>21.333333333333332</ele><time>2026-04-04T14:27:46Z</time></trkpt><trkpt lat="45.66442904712178" lon="12.163051617437429"><ele>21.666666666666664</ele><time>2026-04-04T14:27:47Z</time></trkpt><trkpt lat="45.664242446886504" lon="12.162980665400097"><ele>22.0</ele><time>2026-04-04T14:27:48Z</time></trkpt><trkpt lat="45.66405737232901" lon="12.162909922499754"><ele>22.0</ele><time>2026-04-04T14:27:49Z</time></trkpt><trkpt lat="45.66387013093716" lon="12.162837401176956"><ele>22.0</ele><time>2026-04-04T14:27:50Z</time></trkpt><trkpt lat="45.66368082152894" lon="12.162765848436798"><ele>22.0</ele><time>2026-04-04T14:27:51Z</time></trkpt><trkpt lat="45.663491689274764" lon="12.162694988090346"><ele>22.333333333333332</ele><time>2026-04-04T14:27:52Z</time></trkpt><trkpt lat="45.66331066847406" lon="12.162627657211544"><ele>22.666666666666668</ele><time>2026-04-04T14:27:53Z</time></trkpt><trkpt lat="45.66313262816147" lon="12.16256179655347"><ele>23.0</ele><time>2026-04-04T14:27:54Z</time></trkpt><trkpt lat="45.662958207270194" lon="12.162506859624761"><ele>23.0</ele><time>2026-04-04T14:27:55Z</time></trkpt><trkpt lat="45.66278061609875" lon="12.162454835793334"><ele>23.0</ele><time>2026-04-04T14:27:56Z</time></trkpt><trkpt lat="45.66260022085083" lon="12.162410519751758"><ele>23.0</ele><time>2026-04-04T14:27:57Z</time></trkpt><trkpt lat="45.66242408411611" lon="12.16238055914197"><ele>22.666666666666668</ele><time>2026-04-04T14:27:58Z</time></trkpt><trkpt lat="45.662242817815006" lon="12.162347448771536"><ele>22.333333333333332</ele><time>2026-04-04T14:27:59Z</time></trkpt><trkpt lat="45.6620617622088" lon="12.162315305497527"><ele>22.0</ele><time>2026-04-04T14:28:00Z</time></trkpt><trkpt lat="45.66188258838287" lon="12.16228146024465"><ele>21.666666666666664</ele><time>2026-04-04T14:28:01Z</time></trkpt><trkpt lat="45.661701757412196" lon="12.162248658477623"><ele>21.333333333333332</ele><time>2026-04-04T14:28:02Z</time></trkpt><trkpt lat="45.661515462549524" lon="12.162214848751091"><ele>21.0</ele><time>2026-04-04T14:28:03Z</time></trkpt><trkpt lat="45.66133492731914" lon="12.162190297864228"><ele>21.0</ele><time>2026-04-04T14:28:04Z</time></trkpt><trkpt lat="45.66114900573755" lon="12.162171654573342"><ele>21.0</ele><time>2026-04-04T14:28:05Z</time></trkpt><trkpt lat="45.66095439402252" lon="12.162157333095399"><ele>21.0</ele><time>2026-04-04T14:28:06Z</time></trkpt><trkpt lat="45.66075876897684" lon="12.162154069441568"><ele>20.666666666666668</ele><time>2026-04-04T14:28:07Z</time></trkpt><trkpt lat="45.66056474028244" lon="12.162156979080306"><ele>20.333333333333336</ele><time>2026-04-04T14:28:08Z</time></trkpt><trkpt lat="45.66036854203627" lon="12.162161453190365"><ele>20.0</ele><time>2026-04-04T14:28:09Z</time></trkpt><trkpt lat="45.6601653259466" lon="12.162161439603093"><ele>20.0</ele><time>2026-04-04T14:28:10Z</time></trkpt><trkpt lat="45.65996111685718" lon="12.162158515021744"><ele>20.0</ele><time>2026-04-04T14:28:11Z</time></trkpt><trkpt lat="45.65975838999357" lon="12.162148739899129"><ele>20.0</ele><time>2026-04-04T14:28:12Z</time></trkpt><trkpt lat="45.6595561861437" lon="12.16212595274045"><ele>19.333333333333336</ele><time>2026-04-04T14:28:13Z</time></trkpt><trkpt lat="45.659357255000884" lon="12.16207528977114"><ele>18.666666666666668</ele><time>2026-04-04T14:28:14Z</time></trkpt><trkpt lat="45.659161857612425" lon="12.161995755954631"><ele>18.0</ele><time>2026-04-04T14:28:15Z</time></trkpt><trkpt lat="45.65897488726243" lon="12.161885141361958"><ele>18.0</ele><time>2026-04-04T14:28:16Z</time></trkpt><trkpt lat="45.658791265945396" lon="12.161760885110017"><ele>18.0</ele><time>2026-04-04T14:28:17Z</time></trkpt><trkpt lat="45.65861043267075" lon="12.161635119417008"><ele>18.0</ele><time>2026-04-04T14:28:18Z</time></trkpt><trkpt lat="45.65842629750457" lon="12.161513467150874"><ele>18.333333333333332</ele><time>2026-04-04T14:28:19Z</time></trkpt><trkpt lat="45.65824329482484" lon="12.16139858561488"><ele>18.666666666666664</ele><time>2026-04-04T14:28:20Z</time></trkpt><trkpt lat="45.65805639790963" lon="12.161284735266774"><ele>19.0</ele><time>2026-04-04T14:28:21Z</time></trkpt><trkpt lat="45.65787355893197" lon="12.161174395928791"><ele>19.333333333333332</ele><time>2026-04-04T14:28:22Z</time></trkpt><trkpt lat="45.65768994905941" lon="12.161065552820236"><ele>19.666666666666668</ele><time>2026-04-04T14:28:23Z</time></trkpt><trkpt lat="45.65751362563352" lon="12.16097128230229"><ele>20.0</ele><time>2026-04-04T14:28:24Z</time></trkpt><trkpt lat="45.65734125559236" lon="12.160878864525193"><ele>20.0</ele><time>2026-04-04T14:28:25Z</time></trkpt><trkpt lat="45.657165290437185" lon="12.16077886547734"><ele>20.0</ele><time>2026-04-04T14:28:26Z</time></trkpt><trkpt lat="45.65699022305292" lon="12.160674715460091"><ele>20.0</ele><time>2026-04-04T14:28:27Z</time></trkpt><trkpt lat="45.65681695197025" lon="12.160567180509098"><ele>19.333333333333336</ele><time>2026-04-04T14:28:28Z</time></trkpt><trkpt lat="45.656643509138085" lon="12.16045975240229"><ele>18.666666666666668</ele><time>2026-04-04T14:28:29Z</time></trkpt><trkpt lat="45.65646375696406" lon="12.16035205470548"><ele>18.0</ele><time>2026-04-04T14:28:30Z</time></trkpt><trkpt lat="45.6562884334634" lon="12.16024656167207"><ele>18.0</ele><time>2026-04-04T14:28:31Z</time></trkpt><trkpt lat="45.65612014566345" lon="12.160142496895846"><ele>18.0</ele><time>2026-04-04T14:28:32Z</time></trkpt><trkpt lat="45.655959055889895" lon="12.160045812649981"><ele>18.0</ele><time>2026-04-04T14:28:33Z</time></trkpt><trkpt lat="45.655801178156" lon="12.159967799248442"><ele>18.0</ele><time>2026-04-04T14:28:34Z</time></trkpt><trkpt lat="45.65563864722535" lon="12.159907305651444"><ele>18.0</ele><time>2026-04-04T14:28:35Z</time></trkpt><trkpt lat="45.65547333278608" lon="12.15985152381156"><ele>18.0</ele><time>2026-04-04T14:28:36Z</time></trkpt><trkpt lat="45.655307147250845" lon="12.159799326068097"><ele>18.333333333333332</ele><time>2026-04-04T14:28:37Z</time></trkpt><trkpt lat="45.65513778158059" lon="12.159775233274353"><ele>18.666666666666664</ele><time>2026-04-04T14:28:38Z</time></trkpt><trkpt lat="45.654963126986395" lon="12.159770614115887"><ele>19.0</ele><time>2026-04-04T14:28:38.999Z</time></trkpt><trkpt lat="45.65478310040631" lon="12.159790408153576"><ele>19.0</ele><time>2026-04-04T14:28:39.999Z</time></trkpt><trkpt lat="45.65460123321701" lon="12.159832089057293"><ele>19.0</ele><time>2026-04-04T14:28:40.999Z</time></trkpt><trkpt lat="45.654410701968324" lon="12.159886675476637"><ele>19.0</ele><time>2026-04-04T14:28:41.999Z</time></trkpt><trkpt lat="45.65422773704767" lon="12.159956303725847"><ele>18.666666666666664</ele><time>2026-04-04T14:28:42.999Z</time></trkpt><trkpt lat="45.6540412068866" lon="12.160025021431773"><ele>18.333333333333332</ele><time>2026-04-04T14:28:43.999Z</time></trkpt><trkpt lat="45.65384733914942" lon="12.160083395141339"><ele>18.0</ele><time>2026-04-04T14:28:44.999Z</time></trkpt><trkpt lat="45.653652488638706" lon="12.160137333532532"><ele>18.666666666666668</ele><time>2026-04-04T14:28:45.999Z</time></trkpt><trkpt lat="45.65345104578401" lon="12.160194672806481"><ele>19.333333333333336</ele><time>2026-04-04T14:28:46.999Z</time></trkpt><trkpt lat="45.65324710570417" lon="12.160241352081963"><ele>20.0</ele><time>2026-04-04T14:28:47.999Z</time></trkpt><trkpt lat="45.65304204768241" lon="12.160268765918426"><ele>20.0</ele><time>2026-04-04T14:28:48.999Z</time></trkpt><trkpt lat="45.65283796669012" lon="12.160249118707817"><ele>20.0</ele><time>2026-04-04T14:28:49.999Z</time></trkpt><trkpt lat="45.65265260233411" lon="12.160236455920517"><ele>20.0</ele><time>2026-04-04T14:28:50.999Z</time></trkpt><trkpt lat="45.65248173512663" lon="12.16022173217311"><ele>19.333333333333336</ele><time>2026-04-04T14:28:51.999Z</time></trkpt><trkpt lat="45.65231729666659" lon="12.16022510423517"><ele>18.666666666666668</ele><time>2026-04-04T14:28:52.999Z</time></trkpt><trkpt lat="45.6521692413449" lon="12.16020964923041"><ele>18.0</ele><time>2026-04-04T14:28:53.999Z</time></trkpt><trkpt lat="45.652029518670346" lon="12.160194850613507"><ele>17.75</ele><time>2026-04-04T14:28:54.999Z</time></trkpt><trkpt lat="45.65190163974299" lon="12.160183438906847"><ele>17.5</ele><time>2026-04-04T14:28:55.999Z</time></trkpt><trkpt lat="45.65178170928003" lon="12.160169741654173"><ele>17.25</ele><time>2026-04-04T14:28:56.999Z</time></trkpt><trkpt lat="45.65167259441418" lon="12.160158285919977"><ele>17.0</ele><time>2026-04-04T14:28:57.999Z</time></trkpt><trkpt lat="45.65157578347321" lon="12.1601524127376"><ele>17.0</ele><time>2026-04-04T14:28:58.999Z</time></trkpt><trkpt lat="45.651494326382135" lon="12.160142637549542"><ele>17.0</ele><time>2026-04-04T14:28:59.999Z</time></trkpt><trkpt lat="45.65143074592924" lon="12.160127195709082"><ele>17.0</ele><time>2026-04-04T14:29:00.999Z</time></trkpt><trkpt lat="45.65134733067923" lon="12.160059127773085"><ele>17.0</ele><time>2026-04-04T14:29:02.999Z</time></trkpt><trkpt lat="45.6511561636495" lon="12.16000563665286"><ele>17.0</ele><time>2026-04-04T14:29:05.999Z</time></trkpt><trkpt lat="45.651069232119106" lon="12.160065706788668"><ele>17.0</ele><time>2026-04-04T14:29:06.999Z</time></trkpt><trkpt lat="45.65097049910008" lon="12.160142753550272"><ele>17.0</ele><time>2026-04-04T14:29:07.999Z</time></trkpt><trkpt lat="45.65085525888092" lon="12.160197231175358"><ele>17.0</ele><time>2026-04-04T14:29:08.999Z</time></trkpt><trkpt lat="45.65072828193" lon="12.160230445403764"><ele>17.0</ele><time>2026-04-04T14:29:09.999Z</time></trkpt><trkpt lat="45.650593614853626" lon="12.160231874098752"><ele>17.0</ele><time>2026-04-04T14:29:10.999Z</time></trkpt><trkpt lat="45.65046035628178" lon="12.160256464402499"><ele>17.0</ele><time>2026-04-04T14:29:11.999Z</time></trkpt><trkpt lat="45.65031414137307" lon="12.160284035839123"><ele>17.0</ele><time>2026-04-04T14:29:12.999Z</time></trkpt><trkpt lat="45.650159086704754" lon="12.160313274133024"><ele>17.0</ele><time>2026-04-04T14:29:13.999Z</time></trkpt><trkpt lat="45.649988788187436" lon="12.160345386929015"><ele>16.666666666666668</ele><time>2026-04-04T14:29:14.999Z</time></trkpt><trkpt lat="45.64982226098086" lon="12.160377225641671"><ele>16.333333333333332</ele><time>2026-04-04T14:29:15.999Z</time></trkpt><trkpt lat="45.649659939772064" lon="12.160430067679936"><ele>16.0</ele><time>2026-04-04T14:29:16.999Z</time></trkpt><trkpt lat="45.64949911490316" lon="12.16045125248025"><ele>16.0</ele><time>2026-04-04T14:29:17.999Z</time></trkpt><trkpt lat="45.64934694736385" lon="12.160473555763309"><ele>16.0</ele><time>2026-04-04T14:29:19Z</time></trkpt><trkpt lat="45.64919906099502" lon="12.16049999050858"><ele>16.0</ele><time>2026-04-04T14:29:20Z</time></trkpt><trkpt lat="45.64904666262225" lon="12.160527161737187"><ele>16.0</ele><time>2026-04-04T14:29:21Z</time></trkpt><trkpt lat="45.648888529778816" lon="12.160554841345016"><ele>16.0</ele><time>2026-04-04T14:29:22Z</time></trkpt><trkpt lat="45.648732376078854" lon="12.16058423932073"><ele>16.0</ele><time>2026-04-04T14:29:23Z</time></trkpt><trkpt lat="45.64857976348979" lon="12.160627005804834"><ele>16.0</ele><time>2026-04-04T14:29:24Z</time></trkpt><trkpt lat="45.64843600518385" lon="12.160683420226148"><ele>16.0</ele><time>2026-04-04T14:29:25Z</time></trkpt><trkpt lat="45.64829464839808" lon="12.1607500584675"><ele>16.0</ele><time>2026-04-04T14:29:26Z</time></trkpt><trkpt lat="45.64815369534872" lon="12.160821312119767"><ele>16.0</ele><time>2026-04-04T14:29:27Z</time></trkpt><trkpt lat="45.648017197646716" lon="12.160892301712412"><ele>15.666666666666666</ele><time>2026-04-04T14:29:28Z</time></trkpt><trkpt lat="45.64786744844257" lon="12.160937077844196"><ele>15.333333333333332</ele><time>2026-04-04T14:29:29Z</time></trkpt><trkpt lat="45.64772203213599" lon="12.160988432195552"><ele>15.0</ele><time>2026-04-04T14:29:30Z</time></trkpt><trkpt lat="45.64757617996003" lon="12.161040331110517"><ele>15.5</ele><time>2026-04-04T14:29:31Z</time></trkpt><trkpt lat="45.64743600910702" lon="12.161106278547216"><ele>16.0</ele><time>2026-04-04T14:29:32Z</time></trkpt><trkpt lat="45.647304018041694" lon="12.161148020121072"><ele>16.5</ele><time>2026-04-04T14:29:33Z</time></trkpt><trkpt lat="45.647183173290536" lon="12.161194238950088"><ele>17.0</ele><time>2026-04-04T14:29:34Z</time></trkpt><trkpt lat="45.64706652201606" lon="12.161238585052248"><ele>17.0</ele><time>2026-04-04T14:29:35Z</time></trkpt><trkpt lat="45.64696110186935" lon="12.161278308710607"><ele>17.0</ele><time>2026-04-04T14:29:36Z</time></trkpt><trkpt lat="45.64685503293766" lon="12.161319154337567"><ele>17.0</ele><time>2026-04-04T14:29:37Z</time></trkpt><trkpt lat="45.646749914310035" lon="12.161347360106808"><ele>17.0</ele><time>2026-04-04T14:29:38Z</time></trkpt><trkpt lat="45.64664658333856" lon="12.16138010530467"><ele>17.0</ele><time>2026-04-04T14:29:39Z</time></trkpt><trkpt lat="45.646542536824946" lon="12.161425080560209"><ele>17.0</ele><time>2026-04-04T14:29:40Z</time></trkpt><trkpt lat="45.646439979292595" lon="12.161488394495924"><ele>17.0</ele><time>2026-04-04T14:29:41Z</time></trkpt><trkpt lat="45.646348995282715" lon="12.16157205010874"><ele>17.0</ele><time>2026-04-04T14:29:42Z</time></trkpt><trkpt lat="45.64626968929174" lon="12.161666696436152"><ele>17.0</ele><time>2026-04-04T14:29:43Z</time></trkpt><trkpt lat="45.64619398391303" lon="12.16176450106788"><ele>17.0</ele><time>2026-04-04T14:29:44Z</time></trkpt><trkpt lat="45.64612487772235" lon="12.16187846897321"><ele>17.0</ele><time>2026-04-04T14:29:45Z</time></trkpt><trkpt lat="45.64606056942977" lon="12.162009513066605"><ele>17.0</ele><time>2026-04-04T14:29:46Z</time></trkpt><trkpt lat="45.64598498352592" lon="12.162145506708415"><ele>17.0</ele><time>2026-04-04T14:29:47Z</time></trkpt><trkpt lat="45.645907405856384" lon="12.162451758760879"><ele>17.25</ele><time>2026-04-04T14:29:49Z</time></trkpt><trkpt lat="45.6458735824496" lon="12.162613271502995"><ele>17.5</ele><time>2026-04-04T14:29:50Z</time></trkpt><trkpt lat="45.64584356900959" lon="12.16277115860655"><ele>17.75</ele><time>2026-04-04T14:29:51Z</time></trkpt><trkpt lat="45.64581344898782" lon="12.162925465249751"><ele>18.0</ele><time>2026-04-04T14:29:52Z</time></trkpt><trkpt lat="45.645780963925745" lon="12.163078259103646"><ele>17.833333333333332</ele><time>2026-04-04T14:29:53Z</time></trkpt><trkpt lat="45.645764666081035" lon="12.163228018402975"><ele>17.666666666666668</ele><time>2026-04-04T14:29:54Z</time></trkpt><trkpt lat="45.645756908122436" lon="12.163360489824646"><ele>17.5</ele><time>2026-04-04T14:29:55Z</time></trkpt><trkpt lat="45.645749703212054" lon="12.163474559819635"><ele>17.333333333333336</ele><time>2026-04-04T14:29:56Z</time></trkpt><trkpt lat="45.645746032246834" lon="12.163581068470076"><ele>17.166666666666668</ele><time>2026-04-04T14:29:57Z</time></trkpt><trkpt lat="45.64574181337889" lon="12.163684620970509"><ele>17.0</ele><time>2026-04-04T14:29:58Z</time></trkpt><trkpt lat="45.64573402422606" lon="12.163794185118034"><ele>17.0</ele><time>2026-04-04T14:29:59Z</time></trkpt><trkpt lat="45.6457357122999" lon="12.163919872606291"><ele>17.0</ele><time>2026-04-04T14:30:00Z</time></trkpt><trkpt lat="45.64573049997766" lon="12.16405593733228"><ele>17.0</ele><time>2026-04-04T14:30:01Z</time></trkpt><trkpt lat="45.645727754936566" lon="12.164191521835116"><ele>17.0</ele><time>2026-04-04T14:30:02Z</time></trkpt><trkpt lat="45.645721647490454" lon="12.164337952568815"><ele>17.0</ele><time>2026-04-04T14:30:03Z</time></trkpt><trkpt lat="45.64570641516054" lon="12.164494367216252"><ele>16.8</ele><time>2026-04-04T14:30:04Z</time></trkpt><trkpt lat="45.64568284064032" lon="12.16466122085983"><ele>16.6</ele><time>2026-04-04T14:30:05Z</time></trkpt><trkpt lat="45.64565336145445" lon="12.164808125566328"><ele>16.400000000000002</ele><time>2026-04-04T14:30:06Z</time></trkpt><trkpt lat="45.64562425774703" lon="12.16495171239567"><ele>16.2</ele><time>2026-04-04T14:30:07Z</time></trkpt><trkpt lat="45.645602033258065" lon="12.165081002833714"><ele>16.0</ele><time>2026-04-04T14:30:08Z</time></trkpt><trkpt lat="45.64557576101182" lon="12.165201650558226"><ele>15.857142857142856</ele><time>2026-04-04T14:30:09Z</time></trkpt><trkpt lat="45.64555418315" lon="12.16531147622937"><ele>15.714285714285712</ele><time>2026-04-04T14:30:10Z</time></trkpt><trkpt lat="45.64553316395461" lon="12.165409516654446"><ele>15.571428571428571</ele><time>2026-04-04T14:30:11Z</time></trkpt><trkpt lat="45.64550781424923" lon="12.165504662413838"><ele>15.428571428571427</ele><time>2026-04-04T14:30:12Z</time></trkpt><trkpt lat="45.64548339790704" lon="12.16559778006157"><ele>15.285714285714285</ele><time>2026-04-04T14:30:13Z</time></trkpt><trkpt lat="45.645459299661596" lon="12.165687545228966"><ele>15.142857142857142</ele><time>2026-04-04T14:30:14Z</time></trkpt><trkpt lat="45.645437345772805" lon="12.165772453514528"><ele>15.0</ele><time>2026-04-04T14:30:15Z</time></trkpt><trkpt lat="45.6454149812367" lon="12.165859153302009"><ele>15.0</ele><time>2026-04-04T14:30:16Z</time></trkpt><trkpt lat="45.645378772113844" lon="12.166007260257496"><ele>15.0</ele><time>2026-04-04T14:30:18Z</time></trkpt><trkpt lat="45.64534439880909" lon="12.166138921699803"><ele>15.0</ele><time>2026-04-04T14:30:20Z</time></trkpt><trkpt lat="45.645308084445375" lon="12.16626595622028"><ele>15.0</ele><time>2026-04-04T14:30:22Z</time></trkpt><trkpt lat="45.64526557836006" lon="12.166402578759547"><ele>15.0</ele><time>2026-04-04T14:30:24Z</time></trkpt><trkpt lat="45.64522634964133" lon="12.16652831437859"><ele>15.0</ele><time>2026-04-04T14:30:26Z</time></trkpt><trkpt lat="45.64519925971538" lon="12.16661371677846"><ele>15.0</ele><time>2026-04-04T14:30:28Z</time></trkpt><trkpt lat="45.645143020733435" lon="12.166693188019842"><ele>15.0</ele><time>2026-04-04T14:30:53.999Z</time></trkpt><trkpt lat="45.64502033598829" lon="12.166499498900887"><ele>15.0</ele><time>2026-04-04T14:31:05.999Z</time></trkpt><trkpt lat="45.6449797885009" lon="12.166368428745765"><ele>15.0</ele><time>2026-04-04T14:31:06.999Z</time></trkpt><trkpt lat="45.64494177592062" lon="12.166257446708112"><ele>14.8</ele><time>2026-04-04T14:31:07.999Z</time></trkpt><trkpt lat="45.64489689689961" lon="12.166136966741261"><ele>14.6</ele><time>2026-04-04T14:31:08.999Z</time></trkpt><trkpt lat="45.64484791589166" lon="12.166013047740327"><ele>14.399999999999999</ele><time>2026-04-04T14:31:09.999Z</time></trkpt><trkpt lat="45.6447969066995" lon="12.165886746116202"><ele>14.2</ele><time>2026-04-04T14:31:10.999Z</time></trkpt><trkpt lat="45.64474230881874" lon="12.16576079267544"><ele>14.0</ele><time>2026-04-04T14:31:11.999Z</time></trkpt><trkpt lat="45.64468206149281" lon="12.165638190944643"><ele>14.0</ele><time>2026-04-04T14:31:12.999Z</time></trkpt><trkpt lat="45.644617367354385" lon="12.165522885955054"><ele>13.999999999999998</ele><time>2026-04-04T14:31:13.999Z</time></trkpt><trkpt lat="45.64455035765666" lon="12.165405922725958"><ele>13.999999999999998</ele><time>2026-04-04T14:31:14.999Z</time></trkpt><trkpt lat="45.644479689831876" lon="12.165287340316704"><ele>14.0</ele><time>2026-04-04T14:31:15.999Z</time></trkpt><trkpt lat="45.64439910879456" lon="12.165159678793222"><ele>14.0</ele><time>2026-04-04T14:31:16.999Z</time></trkpt><trkpt lat="45.644311376062014" lon="12.16502877595162"><ele>14.0</ele><time>2026-04-04T14:31:17.999Z</time></trkpt><trkpt lat="45.64421581511523" lon="12.164904274724147"><ele>14.0</ele><time>2026-04-04T14:31:18.999Z</time></trkpt><trkpt lat="45.644122938195515" lon="12.16478757852812"><ele>14.0</ele><time>2026-04-04T14:31:19.999Z</time></trkpt><trkpt lat="45.644034762090826" lon="12.164682381099704"><ele>14.0</ele><time>2026-04-04T14:31:20.999Z</time></trkpt><trkpt lat="45.64394301955596" lon="12.16457659590492"><ele>14.0</ele><time>2026-04-04T14:31:21.999Z</time></trkpt><trkpt lat="45.64385512050395" lon="12.164483968550059"><ele>13.999999999999998</ele><time>2026-04-04T14:31:22.999Z</time></trkpt><trkpt lat="45.64376436865438" lon="12.164397692750045"><ele>13.999999999999998</ele><time>2026-04-04T14:31:23.999Z</time></trkpt><trkpt lat="45.643674426559876" lon="12.164314193312748"><ele>14.0</ele><time>2026-04-04T14:31:25Z</time></trkpt><trkpt lat="45.64359502504079" lon="12.164247319940966"><ele>14.0</ele><time>2026-04-04T14:31:26Z</time></trkpt><trkpt lat="45.643522827539606" lon="12.164187875726103"><ele>14.0</ele><time>2026-04-04T14:31:27Z</time></trkpt><trkpt lat="45.64344984823555" lon="12.164132564214325"><ele>13.999999999999998</ele><time>2026-04-04T14:31:28Z</time></trkpt><trkpt lat="45.643378959346926" lon="12.164081944896955"><ele>13.999999999999998</ele><time>2026-04-04T14:31:29Z</time></trkpt><trkpt lat="45.64326739900606" lon="12.163986485420928"><ele>14.0</ele><time>2026-04-04T14:31:30Z</time></trkpt><trkpt lat="45.643159631922195" lon="12.16392963589026"><ele>14.0</ele><time>2026-04-04T14:31:31Z</time></trkpt><trkpt lat="45.643031794436624" lon="12.163859078718824"><ele>14.25</ele><time>2026-04-04T14:31:32Z</time></trkpt><trkpt lat="45.64289117497406" lon="12.1638042779604"><ele>14.5</ele><time>2026-04-04T14:31:33Z</time></trkpt><trkpt lat="45.64274688497616" lon="12.163721151084438"><ele>14.75</ele><time>2026-04-04T14:31:34Z</time></trkpt><trkpt lat="45.64261091977479" lon="12.163649816990358"><ele>15.0</ele><time>2026-04-04T14:31:35Z</time></trkpt><trkpt lat="45.64248465964742" lon="12.163594039511999"><ele>15.0</ele><time>2026-04-04T14:31:36Z</time></trkpt><trkpt lat="45.64235831313768" lon="12.163535706686188"><ele>15.0</ele><time>2026-04-04T14:31:37Z</time></trkpt><trkpt lat="45.64222940411231" lon="12.163488920184163"><ele>15.0</ele><time>2026-04-04T14:31:38Z</time></trkpt><trkpt lat="45.642106650526436" lon="12.163433301378223"><ele>15.0</ele><time>2026-04-04T14:31:39Z</time></trkpt><trkpt lat="45.641979751554175" lon="12.16337600238506"><ele>15.25</ele><time>2026-04-04T14:31:40Z</time></trkpt><trkpt lat="45.64185501458707" lon="12.163314277040136"><ele>15.5</ele><time>2026-04-04T14:31:41Z</time></trkpt><trkpt lat="45.64172867821267" lon="12.163253843245569"><ele>15.75</ele><time>2026-04-04T14:31:42Z</time></trkpt><trkpt lat="45.641607836337904" lon="12.163192583025513"><ele>16.0</ele><time>2026-04-04T14:31:43Z</time></trkpt><trkpt lat="45.6414830042524" lon="12.163133297084105"><ele>16.0</ele><time>2026-04-04T14:31:44Z</time></trkpt><trkpt lat="45.64135763596221" lon="12.163082155039193"><ele>16.0</ele><time>2026-04-04T14:31:45Z</time></trkpt><trkpt lat="45.641232405570804" lon="12.163034838036717"><ele>16.0</ele><time>2026-04-04T14:31:46Z</time></trkpt><trkpt lat="45.64110338792701" lon="12.162985611173681"><ele>16.0</ele><time>2026-04-04T14:31:47Z</time></trkpt><trkpt lat="45.64097026113729" lon="12.162942148254826"><ele>16.0</ele><time>2026-04-04T14:31:48Z</time></trkpt><trkpt lat="45.64083661181184" lon="12.162906349140925"><ele>16.0</ele><time>2026-04-04T14:31:49Z</time></trkpt><trkpt lat="45.64069779113741" lon="12.162882099882141"><ele>16.0</ele><time>2026-04-04T14:31:50Z</time></trkpt><trkpt lat="45.64056927244577" lon="12.162861923770752"><ele>16.0</ele><time>2026-04-04T14:31:51Z</time></trkpt><trkpt lat="45.64044333644108" lon="12.162851405534383"><ele>16.0</ele><time>2026-04-04T14:31:52Z</time></trkpt><trkpt lat="45.64033928010454" lon="12.162865826393801"><ele>16.0</ele><time>2026-04-04T14:31:53Z</time></trkpt><trkpt lat="45.640234212354144" lon="12.162868648393866"><ele>16.0</ele><time>2026-04-04T14:31:54Z</time></trkpt><trkpt lat="45.64013726777913" lon="12.162877296087638"><ele>16.0</ele><time>2026-04-04T14:31:55Z</time></trkpt><trkpt lat="45.640050176754684" lon="12.162877078405089"><ele>16.0</ele><time>2026-04-04T14:31:56Z</time></trkpt><trkpt lat="45.63996554970229" lon="12.162886023896917"><ele>15.8</ele><time>2026-04-04T14:31:57Z</time></trkpt><trkpt lat="45.63988667494476" lon="12.162905117905842"><ele>15.600000000000001</ele><time>2026-04-04T14:31:58Z</time></trkpt><trkpt lat="45.639783946630814" lon="12.162927336726923"><ele>15.4</ele><time>2026-04-04T14:32:00Z</time></trkpt><trkpt lat="45.639688042471896" lon="12.162929111376316"><ele>15.2</ele><time>2026-04-04T14:32:07Z</time></trkpt><trkpt lat="45.63958741459571" lon="12.162896382649693"><ele>15.0</ele><time>2026-04-04T14:32:10Z</time></trkpt><trkpt lat="45.63948077994348" lon="12.162820405815554"><ele>15.0</ele><time>2026-04-04T14:32:12Z</time></trkpt><trkpt lat="45.639411517318635" lon="12.162827960938767"><ele>15.0</ele><time>2026-04-04T14:32:13Z</time></trkpt><trkpt lat="45.63934167991192" lon="12.162867286624103"><ele>15.0</ele><time>2026-04-04T14:32:14Z</time></trkpt><trkpt lat="45.639280041679804" lon="12.162943639873653"><ele>15.0</ele><time>2026-04-04T14:32:15Z</time></trkpt><trkpt lat="45.63921871779812" lon="12.16303650703869"><ele>15.0</ele><time>2026-04-04T14:32:16Z</time></trkpt><trkpt lat="45.639129870837905" lon="12.163116935043838"><ele>15.0</ele><time>2026-04-04T14:32:17Z</time></trkpt><trkpt lat="45.6390092617202" lon="12.163140422218643"><ele>15.0</ele><time>2026-04-04T14:32:18Z</time></trkpt><trkpt lat="45.63888483227017" lon="12.163194078520146"><ele>15.0</ele><time>2026-04-04T14:32:19Z</time></trkpt><trkpt lat="45.63874819869984" lon="12.163213596055316"><ele>15.0</ele><time>2026-04-04T14:32:20Z</time></trkpt><trkpt lat="45.63860899109031" lon="12.163242253885555"><ele>15.0</ele><time>2026-04-04T14:32:21Z</time></trkpt><trkpt lat="45.638465665476716" lon="12.16328431072898"><ele>15.333333333333332</ele><time>2026-04-04T14:32:22Z</time></trkpt><trkpt lat="45.638315846213295" lon="12.163330446051472"><ele>15.666666666666666</ele><time>2026-04-04T14:32:23Z</time></trkpt><trkpt lat="45.63815762451098" lon="12.16337124703832"><ele>16.0</ele><time>2026-04-04T14:32:24Z</time></trkpt><trkpt lat="45.63799565746131" lon="12.163412560796475"><ele>16.0</ele><time>2026-04-04T14:32:25Z</time></trkpt><trkpt lat="45.63784395829523" lon="12.163449358882596"><ele>16.0</ele><time>2026-04-04T14:32:26Z</time></trkpt><trkpt lat="45.637701534883355" lon="12.163484666234966"><ele>16.0</ele><time>2026-04-04T14:32:27Z</time></trkpt><trkpt lat="45.63755251502345" lon="12.163526041143125"><ele>16.333333333333332</ele><time>2026-04-04T14:32:28Z</time></trkpt><trkpt lat="45.637402754333415" lon="12.163569584475365"><ele>16.666666666666668</ele><time>2026-04-04T14:32:29Z</time></trkpt><trkpt lat="45.637252340158334" lon="12.163613789329412"><ele>17.0</ele><time>2026-04-04T14:32:30Z</time></trkpt><trkpt lat="45.637105329301086" lon="12.163650354025204"><ele>16.75</ele><time>2026-04-04T14:32:31Z</time></trkpt><trkpt lat="45.6369631953804" lon="12.163679252598243"><ele>16.5</ele><time>2026-04-04T14:32:32Z</time></trkpt><trkpt lat="45.63682440932727" lon="12.163710618942751"><ele>16.25</ele><time>2026-04-04T14:32:33Z</time></trkpt><trkpt lat="45.63668206455747" lon="12.163744967634125"><ele>16.0</ele><time>2026-04-04T14:32:34Z</time></trkpt><trkpt lat="45.63653804577118" lon="12.163782240740401"><ele>16.0</ele><time>2026-04-04T14:32:35Z</time></trkpt><trkpt lat="45.63639696820352" lon="12.16382234745794"><ele>16.0</ele><time>2026-04-04T14:32:36Z</time></trkpt><trkpt lat="45.6362570985833" lon="12.163863789176846"><ele>16.0</ele><time>2026-04-04T14:32:37Z</time></trkpt><trkpt lat="45.636112220390764" lon="12.16390039250973"><ele>16.0</ele><time>2026-04-04T14:32:38Z</time></trkpt><trkpt lat="45.63596845616862" lon="12.163935976618042"><ele>16.0</ele><time>2026-04-04T14:32:39Z</time></trkpt><trkpt lat="45.63581896310597" lon="12.163972974274369"><ele>16.0</ele><time>2026-04-04T14:32:40Z</time></trkpt><trkpt lat="45.63566448517844" lon="12.164015562993471"><ele>16.0</ele><time>2026-04-04T14:32:41Z</time></trkpt><trkpt lat="45.6355114976085" lon="12.16405550076047"><ele>16.0</ele><time>2026-04-04T14:32:41.999Z</time></trkpt><trkpt lat="45.63535727923229" lon="12.164089980840988"><ele>16.0</ele><time>2026-04-04T14:32:42.999Z</time></trkpt><trkpt lat="45.635199881440776" lon="12.164116496685017"><ele>16.0</ele><time>2026-04-04T14:32:43.999Z</time></trkpt><trkpt lat="45.63503627445306" lon="12.164132240476022"><ele>16.0</ele><time>2026-04-04T14:32:44.999Z</time></trkpt><trkpt lat="45.634866399326675" lon="12.164133952604642"><ele>16.0</ele><time>2026-04-04T14:32:45.999Z</time></trkpt><trkpt lat="45.63469483619328" lon="12.164134636715993"><ele>16.0</ele><time>2026-04-04T14:32:46.999Z</time></trkpt><trkpt lat="45.634527592687384" lon="12.164136425212435"><ele>15.666666666666666</ele><time>2026-04-04T14:32:47.999Z</time></trkpt><trkpt lat="45.63435230652" lon="12.164140087536625"><ele>15.333333333333332</ele><time>2026-04-04T14:32:48.999Z</time></trkpt><trkpt lat="45.63417985371857" lon="12.164146561788826"><ele>15.0</ele><time>2026-04-04T14:32:49.999Z</time></trkpt><trkpt lat="45.63401330858021" lon="12.164153055018497"><ele>15.0</ele><time>2026-04-04T14:32:50.999Z</time></trkpt><trkpt lat="45.63384285725158" lon="12.164158625469513"><ele>15.0</ele><time>2026-04-04T14:32:51.999Z</time></trkpt><trkpt lat="45.63367327744226" lon="12.164163602497261"><ele>15.0</ele><time>2026-04-04T14:32:52.999Z</time></trkpt><trkpt lat="45.63350175649834" lon="12.16416924640195"><ele>15.0</ele><time>2026-04-04T14:32:53.999Z</time></trkpt><trkpt lat="45.63333516548996" lon="12.164170785004844"><ele>15.0</ele><time>2026-04-04T14:32:54.999Z</time></trkpt><trkpt lat="45.6331698574837" lon="12.164171133169148"><ele>15.0</ele><time>2026-04-04T14:32:55.999Z</time></trkpt><trkpt lat="45.63300617387808" lon="12.16416813458933"><ele>15.0</ele><time>2026-04-04T14:32:56.999Z</time></trkpt><trkpt lat="45.63284017030177" lon="12.164167526041512"><ele>15.0</ele><time>2026-04-04T14:32:57.999Z</time></trkpt><trkpt lat="45.632681130360915" lon="12.164170554557375"><ele>15.0</ele><time>2026-04-04T14:32:58.999Z</time></trkpt><trkpt lat="45.632520649040465" lon="12.164175978157752"><ele>15.0</ele><time>2026-04-04T14:32:59.999Z</time></trkpt><trkpt lat="45.6323662417469" lon="12.164183837407153"><ele>15.0</ele><time>2026-04-04T14:33:00.999Z</time></trkpt><trkpt lat="45.63222026522052" lon="12.164181733461275"><ele>15.0</ele><time>2026-04-04T14:33:01.999Z</time></trkpt><trkpt lat="45.63208460212158" lon="12.16418392076678"><ele>15.0</ele><time>2026-04-04T14:33:02.999Z</time></trkpt><trkpt lat="45.63194737028789" lon="12.164192658975137"><ele>15.25</ele><time>2026-04-04T14:33:03.999Z</time></trkpt><trkpt lat="45.63181289311187" lon="12.164202044804844"><ele>15.5</ele><time>2026-04-04T14:33:04.999Z</time></trkpt><trkpt lat="45.631678539921566" lon="12.16420374437023"><ele>15.75</ele><time>2026-04-04T14:33:05.999Z</time></trkpt><trkpt lat="45.631551767912" lon="12.164202519381357"><ele>16.0</ele><time>2026-04-04T14:33:06.999Z</time></trkpt><trkpt lat="45.63141989204785" lon="12.164200905397205"><ele>16.0</ele><time>2026-04-04T14:33:07.999Z</time></trkpt><trkpt lat="45.63129491498536" lon="12.16420180787201"><ele>16.0</ele><time>2026-04-04T14:33:08.999Z</time></trkpt><trkpt lat="45.63117122520064" lon="12.16420220553814"><ele>16.0</ele><time>2026-04-04T14:33:09.999Z</time></trkpt><trkpt lat="45.63104592931961" lon="12.164201633648998"><ele>16.0</ele><time>2026-04-04T14:33:10.999Z</time></trkpt><trkpt lat="45.63091891705725" lon="12.164197814948517"><ele>15.75</ele><time>2026-04-04T14:33:11.999Z</time></trkpt><trkpt lat="45.63079313993539" lon="12.164195621376201"><ele>15.5</ele><time>2026-04-04T14:33:12.999Z</time></trkpt><trkpt lat="45.630667437708944" lon="12.164193673297186"><ele>15.25</ele><time>2026-04-04T14:33:13.999Z</time></trkpt><trkpt lat="45.6305482207518" lon="12.164193046106265"><ele>15.0</ele><time>2026-04-04T14:33:14.999Z</time></trkpt><trkpt lat="45.63043668397342" lon="12.164193690337541"><ele>15.0</ele><time>2026-04-04T14:33:15.999Z</time></trkpt><trkpt lat="45.630330918110005" lon="12.164194866411009"><ele>15.0</ele><time>2026-04-04T14:33:16.999Z</time></trkpt><trkpt lat="45.63023544375503" lon="12.16419356495101"><ele>15.0</ele><time>2026-04-04T14:33:17.999Z</time></trkpt><trkpt lat="45.630143194339155" lon="12.164178684805014"><ele>15.0</ele><time>2026-04-04T14:33:18.999Z</time></trkpt><trkpt lat="45.63004907847792" lon="12.164141952355742"><ele>15.0</ele><time>2026-04-04T14:33:19.999Z</time></trkpt><trkpt lat="45.62995043593358" lon="12.164105669420204"><ele>15.2</ele><time>2026-04-04T14:33:20.999Z</time></trkpt><trkpt lat="45.62985412620778" lon="12.164091821452777"><ele>15.4</ele><time>2026-04-04T14:33:21.999Z</time></trkpt><trkpt lat="45.629759133459366" lon="12.16410765178293"><ele>15.600000000000001</ele><time>2026-04-04T14:33:22.999Z</time></trkpt><trkpt lat="45.62966120370856" lon="12.164143776817792"><ele>15.8</ele><time>2026-04-04T14:33:23.999Z</time></trkpt><trkpt lat="45.62956088403129" lon="12.164174136096959"><ele>16.0</ele><time>2026-04-04T14:33:24.999Z</time></trkpt><trkpt lat="45.6294530973916" lon="12.164202788323404"><ele>16.0</ele><time>2026-04-04T14:33:25.999Z</time></trkpt><trkpt lat="45.629334743214706" lon="12.164221044734061"><ele>16.0</ele><time>2026-04-04T14:33:26.999Z</time></trkpt><trkpt lat="45.62921289434565" lon="12.164226598980822"><ele>16.0</ele><time>2026-04-04T14:33:27.999Z</time></trkpt><trkpt lat="45.62908446536877" lon="12.16422698642767"><ele>16.0</ele><time>2026-04-04T14:33:28.999Z</time></trkpt><trkpt lat="45.62895031072108" lon="12.16423227817299"><ele>16.0</ele><time>2026-04-04T14:33:29.999Z</time></trkpt><trkpt lat="45.62881086745668" lon="12.164240423209433"><ele>16.0</ele><time>2026-04-04T14:33:31Z</time></trkpt><trkpt lat="45.62866762556042" lon="12.164244477711337"><ele>16.0</ele><time>2026-04-04T14:33:32Z</time></trkpt><trkpt lat="45.62852028427381" lon="12.164248390820584"><ele>16.0</ele><time>2026-04-04T14:33:33Z</time></trkpt><trkpt lat="45.62836612508946" lon="12.164246000947461"><ele>16.0</ele><time>2026-04-04T14:33:34Z</time></trkpt><trkpt lat="45.628208681213316" lon="12.164249374165088"><ele>16.0</ele><time>2026-04-04T14:33:35Z</time></trkpt><trkpt lat="45.62804131979449" lon="12.164252662300267"><ele>16.0</ele><time>2026-04-04T14:33:36Z</time></trkpt><trkpt lat="45.62787020346489" lon="12.164258855968956"><ele>15.333333333333332</ele><time>2026-04-04T14:33:37Z</time></trkpt><trkpt lat="45.62768708281804" lon="12.164261482725934"><ele>14.666666666666668</ele><time>2026-04-04T14:33:38Z</time></trkpt><trkpt lat="45.62751862002876" lon="12.164268218883322"><ele>14.0</ele><time>2026-04-04T14:33:39Z</time></trkpt><trkpt lat="45.62734595407741" lon="12.16427058623906"><ele>14.0</ele><time>2026-04-04T14:33:40Z</time></trkpt><trkpt lat="45.627183486594916" lon="12.164277204335441"><ele>14.0</ele><time>2026-04-04T14:33:41Z</time></trkpt><trkpt lat="45.627033543589256" lon="12.164277866372917"><ele>14.0</ele><time>2026-04-04T14:33:42Z</time></trkpt><trkpt lat="45.62689134011512" lon="12.164275802942417"><ele>14.25</ele><time>2026-04-04T14:33:43Z</time></trkpt><trkpt lat="45.62674823923532" lon="12.164279908306389"><ele>14.5</ele><time>2026-04-04T14:33:44Z</time></trkpt><trkpt lat="45.626604082739995" lon="12.164281905761799"><ele>14.75</ele><time>2026-04-04T14:33:45Z</time></trkpt><trkpt lat="45.62645377616615" lon="12.164279272308432"><ele>15.0</ele><time>2026-04-04T14:33:46Z</time></trkpt><trkpt lat="45.62630838989699" lon="12.16428311755987"><ele>15.0</ele><time>2026-04-04T14:33:47Z</time></trkpt><trkpt lat="45.62616086358705" lon="12.16428492418403"><ele>15.0</ele><time>2026-04-04T14:33:48Z</time></trkpt><trkpt lat="45.62601226360888" lon="12.164286181974097"><ele>15.0</ele><time>2026-04-04T14:33:49Z</time></trkpt><trkpt lat="45.62586921960025" lon="12.164290353679736"><ele>15.0</ele><time>2026-04-04T14:33:50Z</time></trkpt><trkpt lat="45.62573759392937" lon="12.164295541045798"><ele>15.0</ele><time>2026-04-04T14:33:51Z</time></trkpt><trkpt lat="45.625610305461684" lon="12.16430036140348"><ele>15.0</ele><time>2026-04-04T14:33:52Z</time></trkpt><trkpt lat="45.62548732355328" lon="12.164304037517674"><ele>15.0</ele><time>2026-04-04T14:33:53Z</time></trkpt><trkpt lat="45.62536015587858" lon="12.164308696597065"><ele>15.0</ele><time>2026-04-04T14:33:54Z</time></trkpt><trkpt lat="45.62522913097685" lon="12.16431209911531"><ele>15.0</ele><time>2026-04-04T14:33:55Z</time></trkpt><trkpt lat="45.62510153294469" lon="12.164314341376912"><ele>15.0</ele><time>2026-04-04T14:33:56Z</time></trkpt><trkpt lat="45.62497625066353" lon="12.164314768312295"><ele>15.0</ele><time>2026-04-04T14:33:57Z</time></trkpt><trkpt lat="45.62485098056041" lon="12.164317992066016"><ele>15.0</ele><time>2026-04-04T14:33:58Z</time></trkpt><trkpt lat="45.624727121647155" lon="12.164317901420198"><ele>15.0</ele><time>2026-04-04T14:33:59Z</time></trkpt><trkpt lat="45.62460178303863" lon="12.164318102559887"><ele>15.0</ele><time>2026-04-04T14:34:00Z</time></trkpt><trkpt lat="45.62447192649263" lon="12.164320150102574"><ele>15.0</ele><time>2026-04-04T14:34:01Z</time></trkpt><trkpt lat="45.62433779314807" lon="12.164326787842437"><ele>15.0</ele><time>2026-04-04T14:34:02Z</time></trkpt><trkpt lat="45.624199486774934" lon="12.164332594045618"><ele>15.0</ele><time>2026-04-04T14:34:03Z</time></trkpt><trkpt lat="45.62404939301256" lon="12.164331940928838"><ele>15.0</ele><time>2026-04-04T14:34:04Z</time></trkpt><trkpt lat="45.62389741171197" lon="12.164331094404176"><ele>15.0</ele><time>2026-04-04T14:34:05Z</time></trkpt><trkpt lat="45.62373604695542" lon="12.1643340771058"><ele>14.666666666666668</ele><time>2026-04-04T14:34:06Z</time></trkpt><trkpt lat="45.623570573335236" lon="12.164335675468813"><ele>14.333333333333334</ele><time>2026-04-04T14:34:07Z</time></trkpt><trkpt lat="45.62340013560475" lon="12.164340549818515"><ele>14.0</ele><time>2026-04-04T14:34:08Z</time></trkpt><trkpt lat="45.62322503993353" lon="12.164344959136827"><ele>14.0</ele><time>2026-04-04T14:34:09Z</time></trkpt><trkpt lat="45.62305082797847" lon="12.164345922728316"><ele>14.0</ele><time>2026-04-04T14:34:10Z</time></trkpt><trkpt lat="45.622874839658174" lon="12.164348241128407"><ele>14.0</ele><time>2026-04-04T14:34:11Z</time></trkpt><trkpt lat="45.62269671556924" lon="12.164349920206021"><ele>14.0</ele><time>2026-04-04T14:34:12Z</time></trkpt><trkpt lat="45.622521296565296" lon="12.16435302752834"><ele>14.0</ele><time>2026-04-04T14:34:13Z</time></trkpt><trkpt lat="45.62234985446972" lon="12.164354038352716"><ele>14.0</ele><time>2026-04-04T14:34:14Z</time></trkpt><trkpt lat="45.62217974814675" lon="12.164357404820683"><ele>14.0</ele><time>2026-04-04T14:34:15Z</time></trkpt><trkpt lat="45.622008131132965" lon="12.164360111816288"><ele>14.0</ele><time>2026-04-04T14:34:16Z</time></trkpt><trkpt lat="45.62183561536401" lon="12.164365100563675"><ele>14.0</ele><time>2026-04-04T14:34:17Z</time></trkpt><trkpt lat="45.62166495638863" lon="12.164368280251809"><ele>13.666666666666668</ele><time>2026-04-04T14:34:18Z</time></trkpt><trkpt lat="45.621490800606765" lon="12.164371747580017"><ele>13.333333333333332</ele><time>2026-04-04T14:34:19Z</time></trkpt><trkpt lat="45.62131633785426" lon="12.164374326893675"><ele>13.0</ele><time>2026-04-04T14:34:20Z</time></trkpt><trkpt lat="45.62114513864827" lon="12.16437951891181"><ele>13.0</ele><time>2026-04-04T14:34:21Z</time></trkpt><trkpt lat="45.62097124514216" lon="12.164384940514198"><ele>13.0</ele><time>2026-04-04T14:34:22Z</time></trkpt><trkpt lat="45.62080069370408" lon="12.164388240463257"><ele>13.0</ele><time>2026-04-04T14:34:23Z</time></trkpt><trkpt lat="45.62062511295769" lon="12.164390118275929"><ele>13.0</ele><time>2026-04-04T14:34:24Z</time></trkpt><trkpt lat="45.62044981708124" lon="12.164391065131063"><ele>13.0</ele><time>2026-04-04T14:34:25Z</time></trkpt><trkpt lat="45.62027118135036" lon="12.164391285548417"><ele>13.0</ele><time>2026-04-04T14:34:26Z</time></trkpt><trkpt lat="45.62009385940734" lon="12.164393925427678"><ele>13.666666666666666</ele><time>2026-04-04T14:34:27Z</time></trkpt><trkpt lat="45.61991339567658" lon="12.164398409256782"><ele>14.333333333333332</ele><time>2026-04-04T14:34:28Z</time></trkpt><trkpt lat="45.61973850387691" lon="12.164399495271066"><ele>15.0</ele><time>2026-04-04T14:34:29Z</time></trkpt><trkpt lat="45.619556998038455" lon="12.164394909344153"><ele>14.666666666666668</ele><time>2026-04-04T14:34:30Z</time></trkpt><trkpt lat="45.61936724515646" lon="12.164399246116687"><ele>14.333333333333334</ele><time>2026-04-04T14:34:31Z</time></trkpt><trkpt lat="45.61917722626647" lon="12.164404144472503"><ele>14.0</ele><time>2026-04-04T14:34:32Z</time></trkpt><trkpt lat="45.61900666883895" lon="12.16440265236463"><ele>14.0</ele><time>2026-04-04T14:34:33Z</time></trkpt><trkpt lat="45.618844982239374" lon="12.164400044114721"><ele>14.0</ele><time>2026-04-04T14:34:34Z</time></trkpt><trkpt lat="45.618708951445456" lon="12.164404698896686"><ele>14.0</ele><time>2026-04-04T14:34:35Z</time></trkpt><trkpt lat="45.61858569395378" lon="12.164403956465643"><ele>14.0</ele><time>2026-04-04T14:34:36Z</time></trkpt><trkpt lat="45.618465390535164" lon="12.164398499015205"><ele>14.25</ele><time>2026-04-04T14:34:37Z</time></trkpt><trkpt lat="45.618337210581814" lon="12.164403842811973"><ele>14.5</ele><time>2026-04-04T14:34:38Z</time></trkpt><trkpt lat="45.61819345906573" lon="12.16442440388913"><ele>14.75</ele><time>2026-04-04T14:34:38.999Z</time></trkpt><trkpt lat="45.61804051757383" lon="12.164446288592066"><ele>15.0</ele><time>2026-04-04T14:34:39.999Z</time></trkpt><trkpt lat="45.61787491900341" lon="12.164461035073487"><ele>15.0</ele><time>2026-04-04T14:34:40.999Z</time></trkpt><trkpt lat="45.6176900409189" lon="12.164477834287197"><ele>15.0</ele><time>2026-04-04T14:34:41.999Z</time></trkpt><trkpt lat="45.61748531419153" lon="12.164508229616136"><ele>15.0</ele><time>2026-04-04T14:34:42.999Z</time></trkpt><trkpt lat="45.617263271059024" lon="12.164552259407596"><ele>15.0</ele><time>2026-04-04T14:34:43.999Z</time></trkpt><trkpt lat="45.61703070081641" lon="12.164613641793835"><ele>15.0</ele><time>2026-04-04T14:34:44.999Z</time></trkpt><trkpt lat="45.61678479537249" lon="12.164684490341562"><ele>14.0</ele><time>2026-04-04T14:34:45.999Z</time></trkpt><trkpt lat="45.61655083353522" lon="12.164757495721458"><ele>13.0</ele><time>2026-04-04T14:34:46.999Z</time></trkpt><trkpt lat="45.6163338978751" lon="12.16482264805343"><ele>13.0</ele><time>2026-04-04T14:34:47.999Z</time></trkpt><trkpt lat="45.61614508419486" lon="12.164884461950914"><ele>13.0</ele><time>2026-04-04T14:34:48.999Z</time></trkpt><trkpt lat="45.61595852501749" lon="12.164917434472661"><ele>13.0</ele><time>2026-04-04T14:34:49.999Z</time></trkpt><trkpt lat="45.615783847278706" lon="12.164991024324598"><ele>13.0</ele><time>2026-04-04T14:34:50.999Z</time></trkpt><trkpt lat="45.61561560780509" lon="12.165040062365076"><ele>13.0</ele><time>2026-04-04T14:34:51.999Z</time></trkpt><trkpt lat="45.61544982637529" lon="12.165069957108976"><ele>13.0</ele><time>2026-04-04T14:34:52.999Z</time></trkpt><trkpt lat="45.615297528760756" lon="12.165115619811704"><ele>13.25</ele><time>2026-04-04T14:34:53.999Z</time></trkpt><trkpt lat="45.61515617456763" lon="12.165158001380366"><ele>13.5</ele><time>2026-04-04T14:34:54.999Z</time></trkpt><trkpt lat="45.61501085523258" lon="12.165223212365147"><ele>13.75</ele><time>2026-04-04T14:34:55.999Z</time></trkpt><trkpt lat="45.61486253065697" lon="12.165270675741334"><ele>14.0</ele><time>2026-04-04T14:34:56.999Z</time></trkpt><trkpt lat="45.614712094321945" lon="12.165313334776885"><ele>14.0</ele><time>2026-04-04T14:34:57.999Z</time></trkpt><trkpt lat="45.614556793898856" lon="12.165351028112278"><ele>14.0</ele><time>2026-04-04T14:34:58.999Z</time></trkpt><trkpt lat="45.61439345615926" lon="12.165394748962443"><ele>14.0</ele><time>2026-04-04T14:34:59.999Z</time></trkpt><trkpt lat="45.61422024748516" lon="12.165449491032073"><ele>14.0</ele><time>2026-04-04T14:35:00.999Z</time></trkpt><trkpt lat="45.614036210273994" lon="12.165510139951724"><ele>14.0</ele><time>2026-04-04T14:35:01.999Z</time></trkpt><trkpt lat="45.613854761347476" lon="12.165562104009618"><ele>14.0</ele><time>2026-04-04T14:35:02.999Z</time></trkpt><trkpt lat="45.61368645668186" lon="12.165611737864431"><ele>14.333333333333334</ele><time>2026-04-04T14:35:03.999Z</time></trkpt><trkpt lat="45.6135211519348" lon="12.16565869069285"><ele>14.666666666666668</ele><time>2026-04-04T14:35:04.999Z</time></trkpt><trkpt lat="45.61335500525232" lon="12.16570677224203"><ele>15.0</ele><time>2026-04-04T14:35:05.999Z</time></trkpt><trkpt lat="45.613192468906384" lon="12.165760802324405"><ele>15.0</ele><time>2026-04-04T14:35:06.999Z</time></trkpt><trkpt lat="45.61304063428946" lon="12.165808018402062"><ele>15.0</ele><time>2026-04-04T14:35:07.999Z</time></trkpt><trkpt lat="45.61290279331943" lon="12.165851774953289"><ele>15.0</ele><time>2026-04-04T14:35:08.999Z</time></trkpt><trkpt lat="45.61276642516579" lon="12.165887391597519"><ele>15.0</ele><time>2026-04-04T14:35:09.999Z</time></trkpt><trkpt lat="45.612632168736475" lon="12.16592939209702"><ele>14.75</ele><time>2026-04-04T14:35:10.999Z</time></trkpt><trkpt lat="45.612493172382095" lon="12.165976502951601"><ele>14.5</ele><time>2026-04-04T14:35:11.999Z</time></trkpt><trkpt lat="45.61235009928382" lon="12.16601938156084"><ele>14.25</ele><time>2026-04-04T14:35:12.999Z</time></trkpt><trkpt lat="45.612212962855494" lon="12.166056746524376"><ele>14.0</ele><time>2026-04-04T14:35:13.999Z</time></trkpt><trkpt lat="45.61208592984043" lon="12.166088490541943"><ele>14.0</ele><time>2026-04-04T14:35:14.999Z</time></trkpt><trkpt lat="45.61196396166434" lon="12.166124985382426"><ele>14.0</ele><time>2026-04-04T14:35:15.999Z</time></trkpt><trkpt lat="45.61181980375973" lon="12.166169040243076"><ele>14.0</ele><time>2026-04-04T14:35:16.999Z</time></trkpt><trkpt lat="45.611667411895425" lon="12.166212621299413"><ele>14.0</ele><time>2026-04-04T14:35:17.999Z</time></trkpt><trkpt lat="45.61151114444045" lon="12.166256850601744"><ele>14.0</ele><time>2026-04-04T14:35:18.999Z</time></trkpt><trkpt lat="45.6113637415028" lon="12.166301508831593"><ele>14.0</ele><time>2026-04-04T14:35:19.999Z</time></trkpt><trkpt lat="45.61122939040572" lon="12.166345731448015"><ele>14.0</ele><time>2026-04-04T14:35:20.999Z</time></trkpt><trkpt lat="45.61110266534852" lon="12.166384572829164"><ele>14.0</ele><time>2026-04-04T14:35:21.999Z</time></trkpt><trkpt lat="45.6109872267505" lon="12.166418278677908"><ele>13.666666666666668</ele><time>2026-04-04T14:35:22.999Z</time></trkpt><trkpt lat="45.61087811387007" lon="12.166451067976574"><ele>13.333333333333334</ele><time>2026-04-04T14:35:23.999Z</time></trkpt><trkpt lat="45.610782583680546" lon="12.166480920988482"><ele>13.0</ele><time>2026-04-04T14:35:24.999Z</time></trkpt><trkpt lat="45.61070357359576" lon="12.166500853805319"><ele>12.666666666666668</ele><time>2026-04-04T14:35:25.999Z</time></trkpt><trkpt lat="45.61063148688493" lon="12.166498096634124"><ele>12.333333333333334</ele><time>2026-04-04T14:35:26.999Z</time></trkpt><trkpt lat="45.610562560450354" lon="12.166510959119101"><ele>12.0</ele><time>2026-04-04T14:35:27.999Z</time></trkpt><trkpt lat="45.610496492035004" lon="12.16653023561283"><ele>11.999999999999998</ele><time>2026-04-04T14:35:28.999Z</time></trkpt><trkpt lat="45.61043304301462" lon="12.166516293733324"><ele>12.0</ele><time>2026-04-04T14:35:29.999Z</time></trkpt><trkpt lat="45.61037185612336" lon="12.166489698314964"><ele>12.0</ele><time>2026-04-04T14:35:30.999Z</time></trkpt><trkpt lat="45.610310610577" lon="12.166462908182261"><ele>12.0</ele><time>2026-04-04T14:35:31.999Z</time></trkpt><trkpt lat="45.6102420586051" lon="12.166431226758244"><ele>12.0</ele><time>2026-04-04T14:35:32.999Z</time></trkpt><trkpt lat="45.61016647896032" lon="12.16640434621527"><ele>11.999999999999998</ele><time>2026-04-04T14:35:33.999Z</time></trkpt><trkpt lat="45.610091431714224" lon="12.16642034680859"><ele>12.0</ele><time>2026-04-04T14:35:34.999Z</time></trkpt><trkpt lat="45.610010331972184" lon="12.166437556732834"><ele>12.0</ele><time>2026-04-04T14:35:35.999Z</time></trkpt><trkpt lat="45.609941703254144" lon="12.16654348901428"><ele>12.0</ele><time>2026-04-04T14:35:37Z</time></trkpt><trkpt lat="45.609864783480745" lon="12.16661961963563"><ele>12.0</ele><time>2026-04-04T14:35:38Z</time></trkpt><trkpt lat="45.60978044239804" lon="12.16668610579145"><ele>12.0</ele><time>2026-04-04T14:35:39Z</time></trkpt><trkpt lat="45.60968302411875" lon="12.166741725198024"><ele>12.0</ele><time>2026-04-04T14:35:40Z</time></trkpt><trkpt lat="45.60957150949423" lon="12.166781767484167"><ele>12.25</ele><time>2026-04-04T14:35:41Z</time></trkpt><trkpt lat="45.60945310161145" lon="12.16681011084168"><ele>12.5</ele><time>2026-04-04T14:35:42Z</time></trkpt><trkpt lat="45.60934350293765" lon="12.16683009790908"><ele>12.75</ele><time>2026-04-04T14:35:43Z</time></trkpt><trkpt lat="45.60922588710299" lon="12.166844558273006"><ele>13.0</ele><time>2026-04-04T14:35:44Z</time></trkpt><trkpt lat="45.609104101765986" lon="12.166859261087478"><ele>13.0</ele><time>2026-04-04T14:35:45Z</time></trkpt><trkpt lat="45.60898235147256" lon="12.166879456244954"><ele>13.0</ele><time>2026-04-04T14:35:46Z</time></trkpt><trkpt lat="45.60885938637963" lon="12.166897497369991"><ele>13.0</ele><time>2026-04-04T14:35:47Z</time></trkpt><trkpt lat="45.60873616210516" lon="12.166920633688909"><ele>13.0</ele><time>2026-04-04T14:35:48Z</time></trkpt><trkpt lat="45.60861486766919" lon="12.166939968989011"><ele>13.25</ele><time>2026-04-04T14:35:49Z</time></trkpt><trkpt lat="45.60849445918191" lon="12.166959098817722"><ele>13.5</ele><time>2026-04-04T14:35:50Z</time></trkpt><trkpt lat="45.608370285914894" lon="12.166975732058118"><ele>13.75</ele><time>2026-04-04T14:35:51Z</time></trkpt><trkpt lat="45.6082466245372" lon="12.16699154373953"><ele>14.0</ele><time>2026-04-04T14:35:52Z</time></trkpt><trkpt lat="45.60812557235994" lon="12.167012621586851"><ele>14.0</ele><time>2026-04-04T14:35:53Z</time></trkpt><trkpt lat="45.60800173257342" lon="12.167032849662606"><ele>13.999999999999998</ele><time>2026-04-04T14:35:54Z</time></trkpt><trkpt lat="45.60788690673301" lon="12.167053573141404"><ele>13.999999999999998</ele><time>2026-04-04T14:35:55Z</time></trkpt><trkpt lat="45.60778055478162" lon="12.167068139428"><ele>14.0</ele><time>2026-04-04T14:35:56Z</time></trkpt><trkpt lat="45.60768566175318" lon="12.167076369340833"><ele>14.0</ele><time>2026-04-04T14:35:57Z</time></trkpt><trkpt lat="45.60759557190725" lon="12.167069585806752"><ele>13.833333333333334</ele><time>2026-04-04T14:35:58Z</time></trkpt><trkpt lat="45.60750562555073" lon="12.167056096693793"><ele>13.666666666666668</ele><time>2026-04-04T14:35:59Z</time></trkpt><trkpt lat="45.60741530779872" lon="12.167025099715524"><ele>13.5</ele><time>2026-04-04T14:36:00Z</time></trkpt><trkpt lat="45.60733735113588" lon="12.166968872285228"><ele>13.333333333333332</ele><time>2026-04-04T14:36:01Z</time></trkpt><trkpt lat="45.607259929525405" lon="12.16690822976603"><ele>13.166666666666666</ele><time>2026-04-04T14:36:02Z</time></trkpt><trkpt lat="45.607185389658525" lon="12.166859105156153"><ele>13.0</ele><time>2026-04-04T14:36:03Z</time></trkpt><trkpt lat="45.607110291125586" lon="12.166833199856873"><ele>13.0</ele><time>2026-04-04T14:36:04Z</time></trkpt><trkpt lat="45.6070403779505" lon="12.166838635973523"><ele>13.0</ele><time>2026-04-04T14:36:05Z</time></trkpt><trkpt lat="45.606981714946016" lon="12.16688022286693"><ele>13.0</ele><time>2026-04-04T14:36:06Z</time></trkpt><trkpt lat="45.606934604363566" lon="12.166942824773624"><ele>13.0</ele><time>2026-04-04T14:36:07Z</time></trkpt><trkpt lat="45.60688171500511" lon="12.167002220295908"><ele>13.0</ele><time>2026-04-04T14:36:08Z</time></trkpt><trkpt lat="45.60681527111837" lon="12.167067439640206"><ele>13.0</ele><time>2026-04-04T14:36:09Z</time></trkpt><trkpt lat="45.60672712187989" lon="12.167137012873944"><ele>13.0</ele><time>2026-04-04T14:36:10Z</time></trkpt><trkpt lat="45.60663308028878" lon="12.167191062628556"><ele>13.0</ele><time>2026-04-04T14:36:11Z</time></trkpt><trkpt lat="45.60653463106463" lon="12.167236303967327"><ele>13.0</ele><time>2026-04-04T14:36:12Z</time></trkpt><trkpt lat="45.606424602521514" lon="12.16727609674583"><ele>13.0</ele><time>2026-04-04T14:36:13Z</time></trkpt><trkpt lat="45.60630720903197" lon="12.167310613198266"><ele>13.0</ele><time>2026-04-04T14:36:14Z</time></trkpt><trkpt lat="45.606187058865565" lon="12.167331504988798"><ele>13.0</ele><time>2026-04-04T14:36:15Z</time></trkpt><trkpt lat="45.60607030984971" lon="12.167348650062818"><ele>13.0</ele><time>2026-04-04T14:36:16Z</time></trkpt><trkpt lat="45.6059510882945" lon="12.167362203015523"><ele>13.0</ele><time>2026-04-04T14:36:17Z</time></trkpt><trkpt lat="45.6058290944224" lon="12.167376854172561"><ele>13.0</ele><time>2026-04-04T14:36:18Z</time></trkpt><trkpt lat="45.60571314564048" lon="12.167388730251416"><ele>13.166666666666666</ele><time>2026-04-04T14:36:19Z</time></trkpt><trkpt lat="45.60560850192767" lon="12.167401634778638"><ele>13.333333333333332</ele><time>2026-04-04T14:36:20Z</time></trkpt><trkpt lat="45.60551636564635" lon="12.167406194975722"><ele>13.5</ele><time>2026-04-04T14:36:21Z</time></trkpt><trkpt lat="45.60543109327867" lon="12.167406914854855"><ele>13.666666666666668</ele><time>2026-04-04T14:36:22Z</time></trkpt><trkpt lat="45.60535221630914" lon="12.167406991870301"><ele>13.833333333333334</ele><time>2026-04-04T14:36:23Z</time></trkpt><trkpt lat="45.605268631536575" lon="12.167414110260504"><ele>14.0</ele><time>2026-04-04T14:36:24Z</time></trkpt><trkpt lat="45.60518316493161" lon="12.167411159481029"><ele>14.166666666666668</ele><time>2026-04-04T14:36:25Z</time></trkpt><trkpt lat="45.60509278040605" lon="12.167400778619976"><ele>14.333333333333334</ele><time>2026-04-04T14:36:26Z</time></trkpt><trkpt lat="45.60499933057808" lon="12.167396182884671"><ele>14.5</ele><time>2026-04-04T14:36:27Z</time></trkpt><trkpt lat="45.604906239103045" lon="12.167388609673946"><ele>14.666666666666668</ele><time>2026-04-04T14:36:28Z</time></trkpt><trkpt lat="45.60482160960459" lon="12.16738189761865"><ele>14.833333333333334</ele><time>2026-04-04T14:36:29Z</time></trkpt><trkpt lat="45.604757250659176" lon="12.167374386435736"><ele>15.0</ele><time>2026-04-04T14:36:30Z</time></trkpt><trkpt lat="45.604644615942526" lon="12.167361632540723"><ele>14.833333333333334</ele><time>2026-04-04T14:36:32Z</time></trkpt><trkpt lat="45.604524914590385" lon="12.16734451064526"><ele>14.666666666666668</ele><time>2026-04-04T14:36:34Z</time></trkpt><trkpt lat="45.60445659584036" lon="12.16733356940946"><ele>14.5</ele><time>2026-04-04T14:36:35Z</time></trkpt><trkpt lat="45.60438104223386" lon="12.167324261740713"><ele>14.333333333333334</ele><time>2026-04-04T14:36:36Z</time></trkpt><trkpt lat="45.604299520622675" lon="12.167315062188273"><ele>14.166666666666668</ele><time>2026-04-04T14:36:37Z</time></trkpt><trkpt lat="45.60422498234718" lon="12.16730455938678"><ele>14.0</ele><time>2026-04-04T14:36:38Z</time></trkpt><trkpt lat="45.60412762117898" lon="12.167289541351096"><ele>14.0</ele><time>2026-04-04T14:36:39Z</time></trkpt><trkpt lat="45.604021788361486" lon="12.167278965910336"><ele>13.999999999999998</ele><time>2026-04-04T14:36:40Z</time></trkpt><trkpt lat="45.6039110694302" lon="12.167261531195836"><ele>13.999999999999998</ele><time>2026-04-04T14:36:41Z</time></trkpt><trkpt lat="45.603794560089604" lon="12.167248298222939"><ele>14.0</ele><time>2026-04-04T14:36:42Z</time></trkpt><trkpt lat="45.60368176072162" lon="12.167231640328648"><ele>14.0</ele><time>2026-04-04T14:36:43Z</time></trkpt><trkpt lat="45.60357569799578" lon="12.167220079949955"><ele>14.000000000000002</ele><time>2026-04-04T14:36:44Z</time></trkpt><trkpt lat="45.60348223054639" lon="12.167206774881775"><ele>14.0</ele><time>2026-04-04T14:36:44.999Z</time></trkpt><trkpt lat="45.603399288260704" lon="12.167193667529842"><ele>14.0</ele><time>2026-04-04T14:36:45.999Z</time></trkpt><trkpt lat="45.60332823929826" lon="12.167155327817936"><ele>14.0</ele><time>2026-04-04T14:36:46.999Z</time></trkpt><trkpt lat="45.6032631989796" lon="12.167140479382743"><ele>14.000000000000002</ele><time>2026-04-04T14:36:47.999Z</time></trkpt><trkpt lat="45.603151660613676" lon="12.167105132687773"><ele>14.0</ele><time>2026-04-04T14:36:49.999Z</time></trkpt><trkpt lat="45.60302591507315" lon="12.167063236977624"><ele>14.0</ele><time>2026-04-04T14:36:51.999Z</time></trkpt><trkpt lat="45.60290745726928" lon="12.167048053287475"><ele>13.999999999999998</ele><time>2026-04-04T14:36:53.999Z</time></trkpt><trkpt lat="45.60280613098463" lon="12.166952464621446"><ele>13.999999999999998</ele><time>2026-04-04T14:36:55.999Z</time></trkpt><trkpt lat="45.60275166137983" lon="12.166889912967068"><ele>14.0</ele><time>2026-04-04T14:36:56.999Z</time></trkpt><trkpt lat="45.60270271402815" lon="12.166829296144957"><ele>14.0</ele><time>2026-04-04T14:36:57.999Z</time></trkpt><trkpt lat="45.60260277096456" lon="12.1668017175907"><ele>14.000000000000002</ele><time>2026-04-04T14:36:59.999Z</time></trkpt><trkpt lat="45.60250870787479" lon="12.166896389160511"><ele>14.0</ele><time>2026-04-04T14:37:01.999Z</time></trkpt><trkpt lat="45.60245798053393" lon="12.166969676771757"><ele>14.0</ele><time>2026-04-04T14:37:02.999Z</time></trkpt><trkpt lat="45.60239289941445" lon="12.167025323402605"><ele>14.0</ele><time>2026-04-04T14:37:03.999Z</time></trkpt><trkpt lat="45.60231814744963" lon="12.167050875526735"><ele>14.000000000000002</ele><time>2026-04-04T14:37:04.999Z</time></trkpt><trkpt lat="45.602242773443976" lon="12.167048682945813"><ele>14.0</ele><time>2026-04-04T14:37:05.999Z</time></trkpt><trkpt lat="45.60216285289883" lon="12.167034202861624"><ele>14.000000000000002</ele><time>2026-04-04T14:37:06.999Z</time></trkpt><trkpt lat="45.602086019969256" lon="12.16702315689131"><ele>14.0</ele><time>2026-04-04T14:37:07.999Z</time></trkpt><trkpt lat="45.602006878338685" lon="12.167015098601174"><ele>14.0</ele><time>2026-04-04T14:37:08.999Z</time></trkpt><trkpt lat="45.60192396855575" lon="12.167015718852516"><ele>14.0</ele><time>2026-04-04T14:37:09.999Z</time></trkpt><trkpt lat="45.601833194453256" lon="12.16700506886199"><ele>14.000000000000002</ele><time>2026-04-04T14:37:10.999Z</time></trkpt><trkpt lat="45.60173977911803" lon="12.166991005307006"><ele>14.0</ele><time>2026-04-04T14:37:11.999Z</time></trkpt><trkpt lat="45.60164264893502" lon="12.166982490963314"><ele>14.000000000000002</ele><time>2026-04-04T14:37:12.999Z</time></trkpt><trkpt lat="45.60154795830563" lon="12.166971178216038"><ele>14.0</ele><time>2026-04-04T14:37:13.999Z</time></trkpt><trkpt lat="45.6014569852102" lon="12.166960941885648"><ele>14.0</ele><time>2026-04-04T14:37:14.999Z</time></trkpt><trkpt lat="45.601374811712795" lon="12.166947777557425"><ele>14.0</ele><time>2026-04-04T14:37:15.999Z</time></trkpt><trkpt lat="45.601300300910346" lon="12.166933339729878"><ele>14.000000000000002</ele><time>2026-04-04T14:37:16.999Z</time></trkpt><trkpt lat="45.60123370236308" lon="12.166914820749327"><ele>14.0</ele><time>2026-04-04T14:37:17.999Z</time></trkpt><trkpt lat="45.60112132225754" lon="12.166952713262672"><ele>14.000000000000002</ele><time>2026-04-04T14:37:19.999Z</time></trkpt><trkpt lat="45.60104309261423" lon="12.167035060855902"><ele>14.0</ele><time>2026-04-04T14:37:21.999Z</time></trkpt><trkpt lat="45.601002797714685" lon="12.167145742876803"><ele>14.0</ele><time>2026-04-04T14:37:23.999Z</time></trkpt><trkpt lat="45.600959497980604" lon="12.167266099982522"><ele>14.0</ele><time>2026-04-04T14:37:25.999Z</time></trkpt><trkpt lat="45.60093194528829" lon="12.167351519270444"><ele>14.000000000000002</ele><time>2026-04-04T14:37:26.999Z</time></trkpt><trkpt lat="45.600921006261466" lon="12.167459944376377"><ele>14.0</ele><time>2026-04-04T14:37:27.999Z</time></trkpt><trkpt lat="45.600907757298344" lon="12.16757615127062"><ele>14.0</ele><time>2026-04-04T14:37:28.999Z</time></trkpt><trkpt lat="45.60088888077334" lon="12.167696231301402"><ele>13.999999999999998</ele><time>2026-04-04T14:37:29.999Z</time></trkpt><trkpt lat="45.60086348180771" lon="12.167816041460517"><ele>13.999999999999998</ele><time>2026-04-04T14:37:30.999Z</time></trkpt><trkpt lat="45.60082793260461" lon="12.167948505998767"><ele>14.0</ele><time>2026-04-04T14:37:31.999Z</time></trkpt><trkpt lat="45.60078849807891" lon="12.168094530927132"><ele>14.0</ele><time>2026-04-04T14:37:32.999Z</time></trkpt><trkpt lat="45.60075697777899" lon="12.16824738787653"><ele>13.666666666666668</ele><time>2026-04-04T14:37:33.999Z</time></trkpt><trkpt lat="45.600729536380165" lon="12.168390410081077"><ele>13.333333333333334</ele><time>2026-04-04T14:37:34.999Z</time></trkpt><trkpt lat="45.60071325597037" lon="12.168515648504671"><ele>13.0</ele><time>2026-04-04T14:37:35.999Z</time></trkpt><trkpt lat="45.600702508141374" lon="12.168625972086534"><ele>12.666666666666668</ele><time>2026-04-04T14:37:36.999Z</time></trkpt><trkpt lat="45.60069737230704" lon="12.168725181556509"><ele>12.333333333333334</ele><time>2026-04-04T14:37:37.999Z</time></trkpt><trkpt lat="45.60068750656301" lon="12.168815410100452"><ele>12.0</ele><time>2026-04-04T14:37:38.999Z</time></trkpt><trkpt lat="45.600630714954924" lon="12.168909934360807"><ele>12.0</ele><time>2026-04-04T14:37:40.999Z</time></trkpt><trkpt lat="45.600524496044386" lon="12.16891551676703"><ele>12.0</ele><time>2026-04-04T14:37:43Z</time></trkpt><trkpt lat="45.60039012090587" lon="12.16889842896283"><ele>12.0</ele><time>2026-04-04T14:37:45Z</time></trkpt><trkpt lat="45.60030390993015" lon="12.16886995331187"><ele>12.0</ele><time>2026-04-04T14:37:46Z</time></trkpt><trkpt lat="45.600212298282386" lon="12.168883217138362"><ele>12.0</ele><time>2026-04-04T14:37:47Z</time></trkpt><trkpt lat="45.600120148364354" lon="12.168873829575688"><ele>12.166666666666666</ele><time>2026-04-04T14:37:48Z</time></trkpt><trkpt lat="45.60003031260525" lon="12.168863493800975"><ele>12.333333333333332</ele><time>2026-04-04T14:37:49Z</time></trkpt><trkpt lat="45.59994354870504" lon="12.16886633555403"><ele>12.5</ele><time>2026-04-04T14:37:50Z</time></trkpt><trkpt lat="45.59986538911029" lon="12.168881620217713"><ele>12.666666666666666</ele><time>2026-04-04T14:37:51Z</time></trkpt><trkpt lat="45.59978792588785" lon="12.168918608295504"><ele>12.833333333333332</ele><time>2026-04-04T14:37:52Z</time></trkpt><trkpt lat="45.59971259447903" lon="12.168986728371195"><ele>13.0</ele><time>2026-04-04T14:37:53Z</time></trkpt><trkpt lat="45.59964788123648" lon="12.169070583423663"><ele>13.166666666666666</ele><time>2026-04-04T14:37:54Z</time></trkpt><trkpt lat="45.59959319159081" lon="12.1691569193972"><ele>13.333333333333332</ele><time>2026-04-04T14:37:55Z</time></trkpt><trkpt lat="45.59952458547878" lon="12.169214158766177"><ele>13.5</ele><time>2026-04-04T14:37:56Z</time></trkpt><trkpt lat="45.599463949340056" lon="12.169259921241528"><ele>13.666666666666668</ele><time>2026-04-04T14:37:57Z</time></trkpt><trkpt lat="45.59935030032324" lon="12.169275540036258"><ele>13.833333333333334</ele><time>2026-04-04T14:37:59Z</time></trkpt><trkpt lat="45.59928622267784" lon="12.169298921392894"><ele>14.0</ele><time>2026-04-04T14:38:00Z</time></trkpt><trkpt lat="45.59921634769655" lon="12.169309632683692"><ele>13.714285714285714</ele><time>2026-04-04T14:38:01Z</time></trkpt><trkpt lat="45.59915176843371" lon="12.169336736263716"><ele>13.428571428571429</ele><time>2026-04-04T14:38:02Z</time></trkpt><trkpt lat="45.599089979344434" lon="12.169370595471113"><ele>13.142857142857142</ele><time>2026-04-04T14:38:03Z</time></trkpt><trkpt lat="45.59902759440074" lon="12.16941932817006"><ele>12.857142857142858</ele><time>2026-04-04T14:38:04Z</time></trkpt><trkpt lat="45.59896433556985" lon="12.16946954917218"><ele>12.571428571428571</ele><time>2026-04-04T14:38:05Z</time></trkpt><trkpt lat="45.59889505363188" lon="12.169509958705156"><ele>12.285714285714285</ele><time>2026-04-04T14:38:06Z</time></trkpt><trkpt lat="45.59884201019492" lon="12.169573827151513"><ele>12.0</ele><time>2026-04-04T14:38:07Z</time></trkpt><trkpt lat="45.59877698150155" lon="12.169632685489116"><ele>12.0</ele><time>2026-04-04T14:38:08Z</time></trkpt><trkpt lat="45.598718829266375" lon="12.169685738178739"><ele>12.0</ele><time>2026-04-04T14:38:09Z</time></trkpt><trkpt lat="45.59866362844538" lon="12.169729567284405"><ele>12.0</ele><time>2026-04-04T14:38:10Z</time></trkpt><trkpt lat="45.59858438221434" lon="12.169796288564946"><ele>12.0</ele><time>2026-04-04T14:38:12Z</time></trkpt><trkpt lat="45.59851954753533" lon="12.169658631257649"><ele>12.0</ele><time>2026-04-04T14:38:15Z</time></trkpt><trkpt lat="45.598570967556434" lon="12.169499579108951"><ele>12.0</ele><time>2026-04-04T14:38:17Z</time></trkpt><trkpt lat="45.598621073572644" lon="12.169345877330603"><ele>12.0</ele><time>2026-04-04T14:38:19Z</time></trkpt><trkpt lat="45.598657886545084" lon="12.169213208948419"><ele>12.0</ele><time>2026-04-04T14:38:21Z</time></trkpt><trkpt lat="45.59869035899801" lon="12.169093348007603"><ele>12.0</ele><time>2026-04-04T14:38:23Z</time></trkpt><trkpt lat="45.59872042718883" lon="12.168974966510127"><ele>12.0</ele><time>2026-04-04T14:38:25Z</time></trkpt><trkpt lat="45.598763819635096" lon="12.168822470935853"><ele>12.166666666666666</ele><time>2026-04-04T14:38:27Z</time></trkpt><trkpt lat="45.598805958290846" lon="12.168748079507983"><ele>12.333333333333332</ele><time>2026-04-04T14:38:28Z</time></trkpt><trkpt lat="45.59881865892444" lon="12.168647833605021"><ele>12.5</ele><time>2026-04-04T14:38:29Z</time></trkpt><trkpt lat="45.59884581470368" lon="12.168542984362267"><ele>12.666666666666666</ele><time>2026-04-04T14:38:30Z</time></trkpt><trkpt lat="45.59887537527243" lon="12.168438496345168"><ele>12.833333333333332</ele><time>2026-04-04T14:38:31Z</time></trkpt><trkpt lat="45.59891012055557" lon="12.16832879274195"><ele>13.0</ele><time>2026-04-04T14:38:32Z</time></trkpt><trkpt lat="45.59894400733795" lon="12.168225600788086"><ele>12.999999999999998</ele><time>2026-04-04T14:38:33Z</time></trkpt><trkpt lat="45.59897625778761" lon="12.16812076505385"><ele>13.0</ele><time>2026-04-04T14:38:34Z</time></trkpt><trkpt lat="45.59900236073721" lon="12.168013273917778"><ele>13.0</ele><time>2026-04-04T14:38:35Z</time></trkpt><trkpt lat="45.59901357641079" lon="12.167909272724742"><ele>13.0</ele><time>2026-04-04T14:38:36Z</time></trkpt><trkpt lat="45.5990201181428" lon="12.167809658912875"><ele>12.999999999999998</ele><time>2026-04-04T14:38:37Z</time></trkpt><trkpt lat="45.599028972119875" lon="12.167654516094627"><ele>13.0</ele><time>2026-04-04T14:38:39Z</time></trkpt><trkpt lat="45.59904607339457" lon="12.167503124409736"><ele>13.2</ele><time>2026-04-04T14:38:41Z</time></trkpt><trkpt lat="45.599049114953644" lon="12.167340482908358"><ele>13.4</ele><time>2026-04-04T14:38:43Z</time></trkpt><trkpt lat="45.598988248291384" lon="12.167206948742638"><ele>13.599999999999998</ele><time>2026-04-04T14:38:45Z</time></trkpt><trkpt lat="45.59889065388942" lon="12.167164903554559"><ele>13.799999999999999</ele><time>2026-04-04T14:38:47Z</time></trkpt><trkpt lat="45.59880180319456" lon="12.167143424644955"><ele>14.0</ele><time>2026-04-04T14:38:49Z</time></trkpt><trkpt lat="45.59873216814569" lon="12.167137111214853"><ele>13.6</ele><time>2026-04-04T14:38:52Z</time></trkpt><trkpt lat="45.5986532136597" lon="12.167119358355324"><ele>13.2</ele><time>2026-04-04T14:39:09.999Z</time></trkpt><trkpt lat="45.59854272173839" lon="12.167107323107809"><ele>12.799999999999999</ele><time>2026-04-04T14:39:11.999Z</time></trkpt><trkpt lat="45.59842225099893" lon="12.167113429802896"><ele>12.399999999999999</ele><time>2026-04-04T14:39:13.999Z</time></trkpt><trkpt lat="45.59832206223661" lon="12.167093787900944"><ele>12.0</ele><time>2026-04-04T14:39:15.999Z</time></trkpt><trkpt lat="45.59823250594813" lon="12.167063807820588"><ele>12.0</ele><time>2026-04-04T14:39:17.999Z</time></trkpt><trkpt lat="45.59815814259628" lon="12.167043277488553"><ele>12.0</ele><time>2026-04-04T14:39:19.999Z</time></trkpt><trkpt lat="45.59809550405801" lon="12.167018908694006"><ele>12.0</ele><time>2026-04-04T14:39:21.999Z</time></trkpt><trkpt lat="45.597965823432084" lon="12.167125748092316"><ele>12.0</ele><time>2026-04-04T14:39:23.999Z</time></trkpt><trkpt lat="45.597887389066805" lon="12.167186183196474"><ele>12.0</ele><time>2026-04-04T14:39:25.999Z</time></trkpt><trkpt lat="45.59785276299529" lon="12.167292089853605"><ele>12.0</ele><time>2026-04-04T14:39:27.999Z</time></trkpt><trkpt lat="45.59785090853617" lon="12.167393410775391"><ele>12.0</ele><time>2026-04-04T14:39:30.999Z</time></trkpt><trkpt lat="45.59787688476856" lon="12.16731142476652"><ele>12.0</ele><time>2026-04-04T14:39:34.999Z</time></trkpt><trkpt lat="45.597894191128184" lon="12.167219604570105"><ele>12.0</ele><time>2026-04-04T14:40:14Z</time></trkpt><trkpt lat="45.597921483838256" lon="12.167128602461815"><ele>12.0</ele><time>2026-04-04T14:40:17Z</time></trkpt><trkpt lat="45.59807236318119" lon="12.167109568026829"><ele>12.0</ele><time>2026-04-04T14:40:19Z</time></trkpt><trkpt lat="45.598086808123426" lon="12.16699222529414"><ele>12.0</ele><time>2026-04-04T14:40:21Z</time></trkpt><trkpt lat="45.59806672418495" lon="12.166895211741926"><ele>12.0</ele><time>2026-04-04T14:40:23Z</time></trkpt><trkpt lat="45.59802221074095" lon="12.166806802023153"><ele>12.0</ele><time>2026-04-04T14:40:26Z</time></trkpt><trkpt lat="45.59802486760544" lon="12.166699260483592"><ele>12.0</ele><time>2026-04-04T14:40:32Z</time></trkpt><trkpt lat="45.59800072789495" lon="12.166573182611655"><ele>12.0</ele><time>2026-04-04T14:40:34Z</time></trkpt><trkpt lat="45.598201526096815" lon="12.166371821916778"><ele>12.0</ele><time>2026-04-04T14:40:35Z</time></trkpt><trkpt lat="45.59821055950286" lon="12.16619877710567"><ele>12.0</ele><time>2026-04-04T14:40:37Z</time></trkpt><trkpt lat="45.59821913151653" lon="12.166104857866035"><ele>12.0</ele><time>2026-04-04T14:40:38Z</time></trkpt><trkpt lat="45.59821224602874" lon="12.166006885319847"><ele>12.0</ele><time>2026-04-04T14:40:39Z</time></trkpt><trkpt lat="45.59818861856543" lon="12.165913769374288"><ele>12.0</ele><time>2026-04-04T14:40:40Z</time></trkpt><trkpt lat="45.598187084917136" lon="12.165814911861577"><ele>12.0</ele><time>2026-04-04T14:40:41Z</time></trkpt><trkpt lat="45.59817605350924" lon="12.165709084673086"><ele>12.166666666666666</ele><time>2026-04-04T14:40:42Z</time></trkpt><trkpt lat="45.598160028130145" lon="12.165600362224861"><ele>12.333333333333332</ele><time>2026-04-04T14:40:43Z</time></trkpt><trkpt lat="45.59814354839925" lon="12.165486504168548"><ele>12.5</ele><time>2026-04-04T14:40:44Z</time></trkpt><trkpt lat="45.598123992863385" lon="12.165369094138766"><ele>12.666666666666666</ele><time>2026-04-04T14:40:45Z</time></trkpt><trkpt lat="45.59811024857787" lon="12.165253579947814"><ele>12.833333333333332</ele><time>2026-04-04T14:40:46Z</time></trkpt><trkpt lat="45.59809683725012" lon="12.165148427529513"><ele>13.0</ele><time>2026-04-04T14:40:47Z</time></trkpt><trkpt lat="45.598084334937106" lon="12.165056884949802"><ele>13.0</ele><time>2026-04-04T14:40:48Z</time></trkpt><trkpt lat="45.59807893588169" lon="12.164894247916667"><ele>13.0</ele><time>2026-04-04T14:40:50Z</time></trkpt><trkpt lat="45.598084842718954" lon="12.164801517184817"><ele>13.0</ele><time>2026-04-04T14:40:58Z</time></trkpt><trkpt lat="45.59801431353877" lon="12.164692785124592"><ele>13.0</ele><time>2026-04-04T14:41:00Z</time></trkpt><trkpt lat="45.59792438365026" lon="12.164701739537751"><ele>13.0</ele><time>2026-04-04T14:41:01Z</time></trkpt><trkpt lat="45.59784115284147" lon="12.164679724402262"><ele>12.8</ele><time>2026-04-04T14:41:02Z</time></trkpt><trkpt lat="45.59774883307508" lon="12.164652569709002"><ele>12.600000000000001</ele><time>2026-04-04T14:41:03Z</time></trkpt><trkpt lat="45.59764940967058" lon="12.16462370439108"><ele>12.399999999999999</ele><time>2026-04-04T14:41:04Z</time></trkpt><trkpt lat="45.59754739291447" lon="12.164586139458441"><ele>12.2</ele><time>2026-04-04T14:41:05Z</time></trkpt><trkpt lat="45.59743127461089" lon="12.164552843096795"><ele>12.0</ele><time>2026-04-04T14:41:06Z</time></trkpt><trkpt lat="45.597294259748566" lon="12.16451965735966"><ele>12.0</ele><time>2026-04-04T14:41:07Z</time></trkpt><trkpt lat="45.59715437299116" lon="12.16448759476926"><ele>12.0</ele><time>2026-04-04T14:41:08Z</time></trkpt><trkpt lat="45.59701220435808" lon="12.164448058147217"><ele>12.0</ele><time>2026-04-04T14:41:09Z</time></trkpt><trkpt lat="45.596866778124884" lon="12.164400096694791"><ele>12.0</ele><time>2026-04-04T14:41:10Z</time></trkpt><trkpt lat="45.59670681756703" lon="12.16436319101583"><ele>11.666666666666666</ele><time>2026-04-04T14:41:11Z</time></trkpt><trkpt lat="45.59653752337209" lon="12.164337113501546"><ele>11.333333333333332</ele><time>2026-04-04T14:41:12Z</time></trkpt><trkpt lat="45.59636816039185" lon="12.164322938376943"><ele>11.0</ele><time>2026-04-04T14:41:13Z</time></trkpt><trkpt lat="45.59619105400615" lon="12.16430259526645"><ele>10.666666666666666</ele><time>2026-04-04T14:41:14Z</time></trkpt><trkpt lat="45.59602063686795" lon="12.164293135400843"><ele>10.333333333333334</ele><time>2026-04-04T14:41:15Z</time></trkpt><trkpt lat="45.59584087252041" lon="12.16427904489525"><ele>10.0</ele><time>2026-04-04T14:41:16Z</time></trkpt><trkpt lat="45.595676329459856" lon="12.16427138897445"><ele>10.0</ele><time>2026-04-04T14:41:17Z</time></trkpt><trkpt lat="45.59550733398845" lon="12.164261771545755"><ele>10.0</ele><time>2026-04-04T14:41:17.999Z</time></trkpt><trkpt lat="45.59533183417113" lon="12.164244999508337"><ele>10.0</ele><time>2026-04-04T14:41:18.999Z</time></trkpt><trkpt lat="45.59515831706072" lon="12.164237430306555"><ele>10.0</ele><time>2026-04-04T14:41:19.999Z</time></trkpt><trkpt lat="45.594982296204755" lon="12.164227409995483"><ele>10.0</ele><time>2026-04-04T14:41:20.999Z</time></trkpt><trkpt lat="45.59480416348016" lon="12.16421511268079"><ele>10.0</ele><time>2026-04-04T14:41:21.999Z</time></trkpt><trkpt lat="45.594624479214396" lon="12.164198136579015"><ele>10.0</ele><time>2026-04-04T14:41:22.999Z</time></trkpt><trkpt lat="45.594444093083" lon="12.164180307753483"><ele>10.0</ele><time>2026-04-04T14:41:23.999Z</time></trkpt><trkpt lat="45.594254200030846" lon="12.164160034990191"><ele>10.0</ele><time>2026-04-04T14:41:24.999Z</time></trkpt><trkpt lat="45.59407112904522" lon="12.164152742078613"><ele>10.0</ele><time>2026-04-04T14:41:25.999Z</time></trkpt><trkpt lat="45.593894128794034" lon="12.164138428313208"><ele>10.0</ele><time>2026-04-04T14:41:26.999Z</time></trkpt><trkpt lat="45.59371419675398" lon="12.164131426443461"><ele>10.0</ele><time>2026-04-04T14:41:27.999Z</time></trkpt><trkpt lat="45.59354424540479" lon="12.16411867436842"><ele>10.0</ele><time>2026-04-04T14:41:28.999Z</time></trkpt><trkpt lat="45.593368696705824" lon="12.16410684249433"><ele>10.0</ele><time>2026-04-04T14:41:29.999Z</time></trkpt><trkpt lat="45.593217727688106" lon="12.164077127143397"><ele>10.0</ele><time>2026-04-04T14:41:30.999Z</time></trkpt><trkpt lat="45.59307760109256" lon="12.164065567444409"><ele>10.0</ele><time>2026-04-04T14:41:31.999Z</time></trkpt><trkpt lat="45.592941237103645" lon="12.164054318213577"><ele>10.0</ele><time>2026-04-04T14:41:32.999Z</time></trkpt><trkpt lat="45.59282311113484" lon="12.16404430528821"><ele>10.0</ele><time>2026-04-04T14:41:33.999Z</time></trkpt><trkpt lat="45.592716208902" lon="12.164031965513354"><ele>10.0</ele><time>2026-04-04T14:41:34.999Z</time></trkpt><trkpt lat="45.59261965474743" lon="12.164020820269995"><ele>10.333333333333334</ele><time>2026-04-04T14:41:35.999Z</time></trkpt><trkpt lat="45.592533400753155" lon="12.16400197119492"><ele>10.666666666666668</ele><time>2026-04-04T14:41:36.999Z</time></trkpt><trkpt lat="45.592465565961845" lon="12.163931006510246"><ele>11.0</ele><time>2026-04-04T14:41:37.999Z</time></trkpt><trkpt lat="45.59239432002635" lon="12.163887725319148"><ele>11.333333333333334</ele><time>2026-04-04T14:41:38.999Z</time></trkpt><trkpt lat="45.592323070240546" lon="12.163898925026125"><ele>11.666666666666666</ele><time>2026-04-04T14:41:39.999Z</time></trkpt><trkpt lat="45.59223989166866" lon="12.163943468586213"><ele>12.0</ele><time>2026-04-04T14:41:40.999Z</time></trkpt><trkpt lat="45.59215213463707" lon="12.163992566361923"><ele>12.0</ele><time>2026-04-04T14:41:41.999Z</time></trkpt><trkpt lat="45.5920364382663" lon="12.164016908543918"><ele>12.0</ele><time>2026-04-04T14:41:42.999Z</time></trkpt><trkpt lat="45.591885962439434" lon="12.163970778215527"><ele>12.0</ele><time>2026-04-04T14:41:43.999Z</time></trkpt><trkpt lat="45.591704432432586" lon="12.163956035397282"><ele>12.0</ele><time>2026-04-04T14:41:44.999Z</time></trkpt><trkpt lat="45.59150374899308" lon="12.163939902031142"><ele>12.0</ele><time>2026-04-04T14:41:45.999Z</time></trkpt><trkpt lat="45.59130947052512" lon="12.163924285618954"><ele>12.0</ele><time>2026-04-04T14:41:46.999Z</time></trkpt><trkpt lat="45.59110210662162" lon="12.163907615189148"><ele>11.0</ele><time>2026-04-04T14:41:47.999Z</time></trkpt><trkpt lat="45.59088405972044" lon="12.163889086198118"><ele>10.0</ele><time>2026-04-04T14:41:48.999Z</time></trkpt><trkpt lat="45.59065250939608" lon="12.163892654294552"><ele>10.0</ele><time>2026-04-04T14:41:49.999Z</time></trkpt><trkpt lat="45.59040364859712" lon="12.163849660262587"><ele>10.0</ele><time>2026-04-04T14:41:50.999Z</time></trkpt><trkpt lat="45.5901510821441" lon="12.16382674254884"><ele>10.0</ele><time>2026-04-04T14:41:51.999Z</time></trkpt><trkpt lat="45.58991849288679" lon="12.16380588736875"><ele>10.0</ele><time>2026-04-04T14:41:52.999Z</time></trkpt><trkpt lat="45.58970789590131" lon="12.163786991947552"><ele>10.0</ele><time>2026-04-04T14:41:53.999Z</time></trkpt><trkpt lat="45.58950517996441" lon="12.163768801107643"><ele>9.666666666666668</ele><time>2026-04-04T14:41:55Z</time></trkpt><trkpt lat="45.58931807337217" lon="12.163752010964448"><ele>9.333333333333334</ele><time>2026-04-04T14:41:56Z</time></trkpt><trkpt lat="45.5891408481437" lon="12.163737533315349"><ele>9.0</ele><time>2026-04-04T14:41:57Z</time></trkpt><trkpt lat="45.58897433829939" lon="12.163732335370176"><ele>9.0</ele><time>2026-04-04T14:41:58Z</time></trkpt><trkpt lat="45.58881898118321" lon="12.163732853130925"><ele>9.0</ele><time>2026-04-04T14:41:59Z</time></trkpt><trkpt lat="45.58867303041209" lon="12.163737430317026"><ele>9.0</ele><time>2026-04-04T14:42:00Z</time></trkpt><trkpt lat="45.58853066399237" lon="12.16374283663453"><ele>9.0</ele><time>2026-04-04T14:42:01Z</time></trkpt><trkpt lat="45.58838896116633" lon="12.163748493449765"><ele>9.0</ele><time>2026-04-04T14:42:02Z</time></trkpt><trkpt lat="45.588243833710386" lon="12.163756131733676"><ele>9.0</ele><time>2026-04-04T14:42:03Z</time></trkpt><trkpt lat="45.58810106435551" lon="12.163763857758912"><ele>9.0</ele><time>2026-04-04T14:42:04Z</time></trkpt><trkpt lat="45.587955216920065" lon="12.163771927014473"><ele>9.0</ele><time>2026-04-04T14:42:05Z</time></trkpt><trkpt lat="45.58781234547804" lon="12.163779831774352"><ele>9.5</ele><time>2026-04-04T14:42:06Z</time></trkpt><trkpt lat="45.58767039669056" lon="12.163786761522793"><ele>10.0</ele><time>2026-04-04T14:42:07Z</time></trkpt><trkpt lat="45.58752898563561" lon="12.163792619016148"><ele>10.5</ele><time>2026-04-04T14:42:08Z</time></trkpt><trkpt lat="45.58738929462666" lon="12.16379846228406"><ele>11.0</ele><time>2026-04-04T14:42:09Z</time></trkpt><trkpt lat="45.58724691213389" lon="12.163804418143986"><ele>11.0</ele><time>2026-04-04T14:42:10Z</time></trkpt><trkpt lat="45.58710799614128" lon="12.163810228989618"><ele>11.0</ele><time>2026-04-04T14:42:11Z</time></trkpt><trkpt lat="45.58696985590416" lon="12.163816007391523"><ele>11.0</ele><time>2026-04-04T14:42:12Z</time></trkpt><trkpt lat="45.58683175876048" lon="12.163821783991427"><ele>11.0</ele><time>2026-04-04T14:42:13Z</time></trkpt><trkpt lat="45.58669183306375" lon="12.163827637078967"><ele>10.75</ele><time>2026-04-04T14:42:14Z</time></trkpt><trkpt lat="45.58654978938718" lon="12.163833578755751"><ele>10.5</ele><time>2026-04-04T14:42:15Z</time></trkpt><trkpt lat="45.58640710060402" lon="12.163839549518318"><ele>10.25</ele><time>2026-04-04T14:42:16Z</time></trkpt><trkpt lat="45.58626526491179" lon="12.163844458286778"><ele>10.0</ele><time>2026-04-04T14:42:17Z</time></trkpt><trkpt lat="45.58612033147013" lon="12.163849604986044"><ele>10.0</ele><time>2026-04-04T14:42:18Z</time></trkpt><trkpt lat="45.58597791074255" lon="12.163854662458927"><ele>10.0</ele><time>2026-04-04T14:42:19Z</time></trkpt><trkpt lat="45.58583363708264" lon="12.163859785729674"><ele>10.0</ele><time>2026-04-04T14:42:20Z</time></trkpt><trkpt lat="45.58569092435829" lon="12.163864853570196"><ele>10.0</ele><time>2026-04-04T14:42:21Z</time></trkpt><trkpt lat="45.585545584559156" lon="12.163870014700516"><ele>10.0</ele><time>2026-04-04T14:42:22Z</time></trkpt><trkpt lat="45.5854011163773" lon="12.163875415692287"><ele>10.0</ele><time>2026-04-04T14:42:23Z</time></trkpt><trkpt lat="45.585257588845096" lon="12.163881407400964"><ele>10.0</ele><time>2026-04-04T14:42:24Z</time></trkpt><trkpt lat="45.58511577942455" lon="12.163887327384236"><ele>10.0</ele><time>2026-04-04T14:42:25Z</time></trkpt><trkpt lat="45.584972418291215" lon="12.163893312147051"><ele>10.0</ele><time>2026-04-04T14:42:26Z</time></trkpt><trkpt lat="45.58482833237806" lon="12.163899365561742"><ele>10.0</ele><time>2026-04-04T14:42:27Z</time></trkpt><trkpt lat="45.584679878226225" lon="12.163905709562469"><ele>10.0</ele><time>2026-04-04T14:42:28Z</time></trkpt><trkpt lat="45.584527337769316" lon="12.163912228190327"><ele>10.0</ele><time>2026-04-04T14:42:29Z</time></trkpt><trkpt lat="45.5843718316488" lon="12.163918873549305"><ele>10.0</ele><time>2026-04-04T14:42:30Z</time></trkpt><trkpt lat="45.584214330680716" lon="12.163925604154214"><ele>10.0</ele><time>2026-04-04T14:42:31Z</time></trkpt><trkpt lat="45.58405522998428" lon="12.163931766440726"><ele>10.0</ele><time>2026-04-04T14:42:32Z</time></trkpt><trkpt lat="45.58389300640305" lon="12.163938019780446"><ele>10.0</ele><time>2026-04-04T14:42:33Z</time></trkpt><trkpt lat="45.583738100798165" lon="12.163943991030887"><ele>10.0</ele><time>2026-04-04T14:42:34Z</time></trkpt><trkpt lat="45.58357951452731" lon="12.163950104158744"><ele>10.0</ele><time>2026-04-04T14:42:35Z</time></trkpt><trkpt lat="45.58342362161034" lon="12.163959081102862"><ele>10.333333333333334</ele><time>2026-04-04T14:42:36Z</time></trkpt><trkpt lat="45.58326843305988" lon="12.163975156901657"><ele>10.666666666666666</ele><time>2026-04-04T14:42:37Z</time></trkpt><trkpt lat="45.58311103308207" lon="12.164029234014535"><ele>11.0</ele><time>2026-04-04T14:42:38Z</time></trkpt><trkpt lat="45.58296916332074" lon="12.164126513122895"><ele>10.666666666666666</ele><time>2026-04-04T14:42:39Z</time></trkpt><trkpt lat="45.58283434143802" lon="12.164229421827201"><ele>10.333333333333334</ele><time>2026-04-04T14:42:40Z</time></trkpt><trkpt lat="45.58269104710477" lon="12.164321388170995"><ele>10.0</ele><time>2026-04-04T14:42:41Z</time></trkpt><trkpt lat="45.58255604825709" lon="12.164427571782571"><ele>10.0</ele><time>2026-04-04T14:42:42Z</time></trkpt><trkpt lat="45.582421078472024" lon="12.164533732458139"><ele>10.0</ele><time>2026-04-04T14:42:43Z</time></trkpt><trkpt lat="45.58228563980492" lon="12.164640262021955"><ele>10.0</ele><time>2026-04-04T14:42:44Z</time></trkpt><trkpt lat="45.5821503929828" lon="12.164746327041842"><ele>9.0</ele><time>2026-04-04T14:42:45Z</time></trkpt><trkpt lat="45.582013870082285" lon="12.164854891617747"><ele>8.0</ele><time>2026-04-04T14:42:46Z</time></trkpt><trkpt lat="45.58188253579056" lon="12.164959332321871"><ele>7.0</ele><time>2026-04-04T14:42:47Z</time></trkpt><trkpt lat="45.581749109413586" lon="12.16506543484509"><ele>7.0</ele><time>2026-04-04T14:42:48Z</time></trkpt><trkpt lat="45.581610832768845" lon="12.165171117393525"><ele>7.0</ele><time>2026-04-04T14:42:49Z</time></trkpt><trkpt lat="45.58147664671433" lon="12.165267739486596"><ele>7.0</ele><time>2026-04-04T14:42:50Z</time></trkpt><trkpt lat="45.5813346516932" lon="12.165368836698018"><ele>7.666666666666667</ele><time>2026-04-04T14:42:51Z</time></trkpt><trkpt lat="45.581180297952166" lon="12.165415794448105"><ele>8.333333333333334</ele><time>2026-04-04T14:42:52Z</time></trkpt><trkpt lat="45.58102950977225" lon="12.165441085512429"><ele>9.0</ele><time>2026-04-04T14:42:53Z</time></trkpt><trkpt lat="45.580878333092976" lon="12.165453280549556"><ele>9.0</ele><time>2026-04-04T14:42:54Z</time></trkpt><trkpt lat="45.58072634012789" lon="12.16545041905912"><ele>9.0</ele><time>2026-04-04T14:42:55Z</time></trkpt><trkpt lat="45.580572049665264" lon="12.16544191814713"><ele>9.0</ele><time>2026-04-04T14:42:56Z</time></trkpt><trkpt lat="45.58041654832127" lon="12.165432413510691"><ele>8.666666666666666</ele><time>2026-04-04T14:42:57Z</time></trkpt><trkpt lat="45.58026200112977" lon="12.16542296719717"><ele>8.333333333333332</ele><time>2026-04-04T14:42:58Z</time></trkpt><trkpt lat="45.58010996875931" lon="12.165413674592301"><ele>8.0</ele><time>2026-04-04T14:42:59Z</time></trkpt><trkpt lat="45.57995447841733" lon="12.165404170648614"><ele>8.0</ele><time>2026-04-04T14:43:00Z</time></trkpt><trkpt lat="45.57979825005705" lon="12.165394130216747"><ele>8.0</ele><time>2026-04-04T14:43:01Z</time></trkpt><trkpt lat="45.57964140556507" lon="12.165384150861577"><ele>8.0</ele><time>2026-04-04T14:43:02Z</time></trkpt><trkpt lat="45.57948712483067" lon="12.165374334625401"><ele>8.333333333333332</ele><time>2026-04-04T14:43:03Z</time></trkpt><trkpt lat="45.57932943571332" lon="12.16536430152945"><ele>8.666666666666666</ele><time>2026-04-04T14:43:04Z</time></trkpt><trkpt lat="45.57917624490236" lon="12.16535455464214"><ele>9.0</ele><time>2026-04-04T14:43:05Z</time></trkpt><trkpt lat="45.57902290369973" lon="12.16534479818498"><ele>9.0</ele><time>2026-04-04T14:43:06Z</time></trkpt><trkpt lat="45.57886893994402" lon="12.165334702051636"><ele>9.0</ele><time>2026-04-04T14:43:07Z</time></trkpt><trkpt lat="45.57871279907452" lon="12.165324263785216"><ele>9.0</ele><time>2026-04-04T14:43:08Z</time></trkpt><trkpt lat="45.57856427932272" lon="12.165315256255145"><ele>9.0</ele><time>2026-04-04T14:43:09Z</time></trkpt><trkpt lat="45.57842949501758" lon="12.16531139588628"><ele>9.0</ele><time>2026-04-04T14:43:10Z</time></trkpt><trkpt lat="45.5783006030531" lon="12.165338884974984"><ele>9.0</ele><time>2026-04-04T14:43:11Z</time></trkpt><trkpt lat="45.57817330653669" lon="12.165364647412618"><ele>9.0</ele><time>2026-04-04T14:43:12Z</time></trkpt><trkpt lat="45.57805178793516" lon="12.165414859311552"><ele>9.0</ele><time>2026-04-04T14:43:13Z</time></trkpt><trkpt lat="45.57793675895239" lon="12.165491811754363"><ele>9.0</ele><time>2026-04-04T14:43:14Z</time></trkpt><trkpt lat="45.5778375703823" lon="12.165603102219757"><ele>9.0</ele><time>2026-04-04T14:43:15Z</time></trkpt><trkpt lat="45.577754358944354" lon="12.165739929980987"><ele>9.0</ele><time>2026-04-04T14:43:16Z</time></trkpt><trkpt lat="45.57769024869692" lon="12.16589952201768"><ele>9.0</ele><time>2026-04-04T14:43:17Z</time></trkpt><trkpt lat="45.57763177552538" lon="12.166075349439131"><ele>9.0</ele><time>2026-04-04T14:43:18Z</time></trkpt><trkpt lat="45.57759073664339" lon="12.166259228004078"><ele>9.0</ele><time>2026-04-04T14:43:19Z</time></trkpt><trkpt lat="45.57756610502203" lon="12.166448134280717"><ele>9.0</ele><time>2026-04-04T14:43:20Z</time></trkpt><trkpt lat="45.57754521921302" lon="12.1666229040385"><ele>9.0</ele><time>2026-04-04T14:43:21Z</time></trkpt><trkpt lat="45.57751961534878" lon="12.166803182765964"><ele>9.0</ele><time>2026-04-04T14:43:22Z</time></trkpt><trkpt lat="45.57749660866825" lon="12.166975499660497"><ele>9.0</ele><time>2026-04-04T14:43:23Z</time></trkpt><trkpt lat="45.57746625413903" lon="12.16715670823424"><ele>9.0</ele><time>2026-04-04T14:43:24Z</time></trkpt><trkpt lat="45.57742568837085" lon="12.167331006976086"><ele>9.0</ele><time>2026-04-04T14:43:25Z</time></trkpt><trkpt lat="45.57736356588232" lon="12.167491348372735"><ele>9.0</ele><time>2026-04-04T14:43:26Z</time></trkpt><trkpt lat="45.57728844451115" lon="12.167631170465093"><ele>9.0</ele><time>2026-04-04T14:43:27Z</time></trkpt><trkpt lat="45.57719613441209" lon="12.167734637346651"><ele>9.0</ele><time>2026-04-04T14:43:28Z</time></trkpt><trkpt lat="45.577080984732945" lon="12.1677646139468"><ele>9.25</ele><time>2026-04-04T14:43:28.999Z</time></trkpt><trkpt lat="45.57696481442302" lon="12.167802681406966"><ele>9.5</ele><time>2026-04-04T14:43:29.999Z</time></trkpt><trkpt lat="45.576828002846334" lon="12.1678299073829"><ele>9.75</ele><time>2026-04-04T14:43:30.999Z</time></trkpt><trkpt lat="45.57666629710378" lon="12.167871985157921"><ele>10.0</ele><time>2026-04-04T14:43:31.999Z</time></trkpt><trkpt lat="45.57648714987797" lon="12.16789971582188"><ele>10.0</ele><time>2026-04-04T14:43:32.999Z</time></trkpt><trkpt lat="45.57629658466434" lon="12.167928232509247"><ele>10.0</ele><time>2026-04-04T14:43:33.999Z</time></trkpt><trkpt lat="45.57610517081449" lon="12.167946788217368"><ele>10.0</ele><time>2026-04-04T14:43:34.999Z</time></trkpt><trkpt lat="45.575914738072" lon="12.16797747424294"><ele>9.666666666666668</ele><time>2026-04-04T14:43:35.999Z</time></trkpt><trkpt lat="45.575730490344704" lon="12.168006690880032"><ele>9.333333333333334</ele><time>2026-04-04T14:43:36.999Z</time></trkpt><trkpt lat="45.57558417799622" lon="12.168029871789214"><ele>9.0</ele><time>2026-04-04T14:43:37.999Z</time></trkpt><trkpt lat="45.575441682924485" lon="12.16805226450329"><ele>9.0</ele><time>2026-04-04T14:43:38.999Z</time></trkpt><trkpt lat="45.57530498267637" lon="12.168073746578033"><ele>9.0</ele><time>2026-04-04T14:43:39.999Z</time></trkpt><trkpt lat="45.57517360276597" lon="12.16809368023503"><ele>9.0</ele><time>2026-04-04T14:43:40.999Z</time></trkpt><trkpt lat="45.575044619447546" lon="12.168112555234966"><ele>9.0</ele><time>2026-04-04T14:43:41.999Z</time></trkpt><trkpt lat="45.57492280209371" lon="12.168133926773782"><ele>9.0</ele><time>2026-04-04T14:43:42.999Z</time></trkpt><trkpt lat="45.57480676595651" lon="12.168181722340382"><ele>9.0</ele><time>2026-04-04T14:43:43.999Z</time></trkpt><trkpt lat="45.574689159495136" lon="12.168208950142319"><ele>9.0</ele><time>2026-04-04T14:43:44.999Z</time></trkpt><trkpt lat="45.57456724995198" lon="12.168217202111535"><ele>9.0</ele><time>2026-04-04T14:43:45.999Z</time></trkpt><trkpt lat="45.57444362619177" lon="12.168247831082919"><ele>8.75</ele><time>2026-04-04T14:43:46.999Z</time></trkpt><trkpt lat="45.57432426996073" lon="12.168277462224024"><ele>8.5</ele><time>2026-04-04T14:43:47.999Z</time></trkpt><trkpt lat="45.5742059012944" lon="12.168306848192557"><ele>8.25</ele><time>2026-04-04T14:43:48.999Z</time></trkpt><trkpt lat="45.574095082053546" lon="12.168334359955638"><ele>8.0</ele><time>2026-04-04T14:43:49.999Z</time></trkpt><trkpt lat="45.57399825575577" lon="12.168373648648005"><ele>8.0</ele><time>2026-04-04T14:43:50.999Z</time></trkpt><trkpt lat="45.57390274420946" lon="12.168396812250869"><ele>8.0</ele><time>2026-04-04T14:43:51.999Z</time></trkpt><trkpt lat="45.57380852614634" lon="12.168469491009038"><ele>8.0</ele><time>2026-04-04T14:43:52.999Z</time></trkpt><trkpt lat="45.57372271169851" lon="12.168563172334592"><ele>8.0</ele><time>2026-04-04T14:43:53.999Z</time></trkpt><trkpt lat="45.57365234874927" lon="12.168683383853878"><ele>8.0</ele><time>2026-04-04T14:43:54.999Z</time></trkpt><trkpt lat="45.573597887998005" lon="12.168821057838464"><ele>8.0</ele><time>2026-04-04T14:43:55.999Z</time></trkpt><trkpt lat="45.57356639295977" lon="12.168975208437038"><ele>8.0</ele><time>2026-04-04T14:43:56.999Z</time></trkpt><trkpt lat="45.573542308214535" lon="12.169138537125178"><ele>8.0</ele><time>2026-04-04T14:43:57.999Z</time></trkpt><trkpt lat="45.573511492728194" lon="12.169311514039412"><ele>8.0</ele><time>2026-04-04T14:43:58.999Z</time></trkpt><trkpt lat="45.573474004021755" lon="12.169482534561114"><ele>7.75</ele><time>2026-04-04T14:43:59.999Z</time></trkpt><trkpt lat="45.573437601372376" lon="12.16965157669506"><ele>7.5</ele><time>2026-04-04T14:44:01Z</time></trkpt><trkpt lat="45.57340531361202" lon="12.169826369930806"><ele>7.25</ele><time>2026-04-04T14:44:02Z</time></trkpt><trkpt lat="45.57337185719305" lon="12.169995172511479"><ele>7.0</ele><time>2026-04-04T14:44:03Z</time></trkpt><trkpt lat="45.573329964489965" lon="12.170147456955805"><ele>7.0</ele><time>2026-04-04T14:44:04Z</time></trkpt><trkpt lat="45.57326940399295" lon="12.170269317207808"><ele>6.999999999999999</ele><time>2026-04-04T14:44:05Z</time></trkpt><trkpt lat="45.573195627755204" lon="12.170363802840642"><ele>6.999999999999999</ele><time>2026-04-04T14:44:06Z</time></trkpt><trkpt lat="45.57311127851545" lon="12.170432630706374"><ele>7.0</ele><time>2026-04-04T14:44:07Z</time></trkpt><trkpt lat="45.57300084425727" lon="12.170450880368449"><ele>7.0</ele><time>2026-04-04T14:44:08Z</time></trkpt><trkpt lat="45.57289000369759" lon="12.170500593552852"><ele>7.25</ele><time>2026-04-04T14:44:09Z</time></trkpt><trkpt lat="45.57277165902257" lon="12.170571676717765"><ele>7.5</ele><time>2026-04-04T14:44:10Z</time></trkpt><trkpt lat="45.57264524738182" lon="12.170618556479315"><ele>7.75</ele><time>2026-04-04T14:44:11Z</time></trkpt><trkpt lat="45.57250952120032" lon="12.170676970334643"><ele>8.0</ele><time>2026-04-04T14:44:12Z</time></trkpt><trkpt lat="45.57237192640565" lon="12.170733291459776"><ele>8.0</ele><time>2026-04-04T14:44:13Z</time></trkpt><trkpt lat="45.57222902535855" lon="12.170776760157118"><ele>8.0</ele><time>2026-04-04T14:44:14Z</time></trkpt><trkpt lat="45.57207606275381" lon="12.170768860023593"><ele>8.0</ele><time>2026-04-04T14:44:15Z</time></trkpt><trkpt lat="45.5719247009144" lon="12.17076007707733"><ele>8.0</ele><time>2026-04-04T14:44:16Z</time></trkpt><trkpt lat="45.57177148078848" lon="12.170743817627942"><ele>8.0</ele><time>2026-04-04T14:44:17Z</time></trkpt><trkpt lat="45.57162853734678" lon="12.170727948531521"><ele>8.0</ele><time>2026-04-04T14:44:18Z</time></trkpt><trkpt lat="45.57150280797238" lon="12.170735045071899"><ele>8.0</ele><time>2026-04-04T14:44:19Z</time></trkpt><trkpt lat="45.57139812393419" lon="12.170717764172467"><ele>7.999999999999999</ele><time>2026-04-04T14:44:20Z</time></trkpt><trkpt lat="45.57130645505531" lon="12.17070478976405"><ele>8.0</ele><time>2026-04-04T14:44:21Z</time></trkpt><trkpt lat="45.57121581031328" lon="12.170699136337483"><ele>8.0</ele><time>2026-04-04T14:44:22Z</time></trkpt><trkpt lat="45.57113418854915" lon="12.170689002039174"><ele>8.0</ele><time>2026-04-04T14:44:23Z</time></trkpt><trkpt lat="45.571059263479924" lon="12.170680837610359"><ele>7.999999999999999</ele><time>2026-04-04T14:44:24Z</time></trkpt><trkpt lat="45.57098972352654" lon="12.17067010747417"><ele>8.0</ele><time>2026-04-04T14:44:25Z</time></trkpt><trkpt lat="45.57092339154658" lon="12.170647956305247"><ele>8.5</ele><time>2026-04-04T14:44:26Z</time></trkpt><trkpt lat="45.57085270128809" lon="12.170638870971796"><ele>9.0</ele><time>2026-04-04T14:44:27Z</time></trkpt><trkpt lat="45.570776329492" lon="12.170645955276187"><ele>9.5</ele><time>2026-04-04T14:44:28Z</time></trkpt><trkpt lat="45.57070530440139" lon="12.170632834402634"><ele>10.0</ele><time>2026-04-04T14:44:29Z</time></trkpt><trkpt lat="45.570630922168796" lon="12.17062458094968"><ele>10.5</ele><time>2026-04-04T14:44:30Z</time></trkpt><trkpt lat="45.57055374006367" lon="12.170587928405844"><ele>11.0</ele><time>2026-04-04T14:44:31Z</time></trkpt><trkpt lat="45.57047237849293" lon="12.17057278189851"><ele>11.0</ele><time>2026-04-04T14:44:32Z</time></trkpt><trkpt lat="45.57038644521279" lon="12.170579368164086"><ele>11.0</ele><time>2026-04-04T14:44:33Z</time></trkpt><trkpt lat="45.57030145580103" lon="12.170560473139554"><ele>11.0</ele><time>2026-04-04T14:44:34Z</time></trkpt><trkpt lat="45.57020636472064" lon="12.170538871780547"><ele>11.0</ele><time>2026-04-04T14:44:35Z</time></trkpt><trkpt lat="45.57009106225066" lon="12.17051275386617"><ele>11.0</ele><time>2026-04-04T14:44:36Z</time></trkpt><trkpt lat="45.56995713213443" lon="12.170485278490919"><ele>10.333333333333332</ele><time>2026-04-04T14:44:37Z</time></trkpt><trkpt lat="45.569795716748025" lon="12.170449579811038"><ele>9.666666666666666</ele><time>2026-04-04T14:44:38Z</time></trkpt><trkpt lat="45.569633036132466" lon="12.1703961921671"><ele>9.0</ele><time>2026-04-04T14:44:39Z</time></trkpt><trkpt lat="45.569494178903646" lon="12.170360419835493"><ele>8.75</ele><time>2026-04-04T14:44:40Z</time></trkpt><trkpt lat="45.56936913724798" lon="12.170323444499349"><ele>8.5</ele><time>2026-04-04T14:44:41Z</time></trkpt><trkpt lat="45.56925568055402" lon="12.170289927672489"><ele>8.25</ele><time>2026-04-04T14:44:42Z</time></trkpt><trkpt lat="45.56914900155789" lon="12.17025697668356"><ele>8.0</ele><time>2026-04-04T14:44:43Z</time></trkpt><trkpt lat="45.569046942617845" lon="12.170228892692418"><ele>8.0</ele><time>2026-04-04T14:44:44Z</time></trkpt><trkpt lat="45.56895127227629" lon="12.170203321876153"><ele>8.0</ele><time>2026-04-04T14:44:45Z</time></trkpt><trkpt lat="45.56885381393234" lon="12.170178506223477"><ele>8.0</ele><time>2026-04-04T14:44:46Z</time></trkpt><trkpt lat="45.56875802642242" lon="12.170149372780795"><ele>8.0</ele><time>2026-04-04T14:44:47Z</time></trkpt><trkpt lat="45.56866083440445" lon="12.17012378317643"><ele>8.0</ele><time>2026-04-04T14:44:48Z</time></trkpt><trkpt lat="45.56855995076961" lon="12.170099731769474"><ele>8.25</ele><time>2026-04-04T14:44:49Z</time></trkpt><trkpt lat="45.5684599244482" lon="12.170066546446431"><ele>8.5</ele><time>2026-04-04T14:44:50Z</time></trkpt><trkpt lat="45.568358785214514" lon="12.170033265018459"><ele>8.75</ele><time>2026-04-04T14:44:51Z</time></trkpt><trkpt lat="45.56824384703643" lon="12.169998420780546"><ele>9.0</ele><time>2026-04-04T14:44:52Z</time></trkpt><trkpt lat="45.56810533810526" lon="12.16995885400367"><ele>9.0</ele><time>2026-04-04T14:44:53Z</time></trkpt><trkpt lat="45.56794926517716" lon="12.169913208835432"><ele>9.0</ele><time>2026-04-04T14:44:54Z</time></trkpt><trkpt lat="45.56778345197189" lon="12.169862982256193"><ele>9.0</ele><time>2026-04-04T14:44:55Z</time></trkpt><trkpt lat="45.56761763780314" lon="12.169816198395077"><ele>9.0</ele><time>2026-04-04T14:44:56Z</time></trkpt><trkpt lat="45.56746579854037" lon="12.169777025729616"><ele>9.0</ele><time>2026-04-04T14:44:57Z</time></trkpt><trkpt lat="45.56732702142814" lon="12.169737605123062"><ele>9.0</ele><time>2026-04-04T14:44:58Z</time></trkpt><trkpt lat="45.56720077336522" lon="12.169698352263621"><ele>9.0</ele><time>2026-04-04T14:44:59Z</time></trkpt><trkpt lat="45.56708226605047" lon="12.169662831124027"><ele>9.6</ele><time>2026-04-04T14:45:00Z</time></trkpt><trkpt lat="45.56696936355818" lon="12.16962908359678"><ele>10.2</ele><time>2026-04-04T14:45:01Z</time></trkpt><trkpt lat="45.56686851724495" lon="12.169603042260132"><ele>10.799999999999999</ele><time>2026-04-04T14:45:02Z</time></trkpt><trkpt lat="45.566786254239744" lon="12.169567295207779"><ele>11.4</ele><time>2026-04-04T14:45:03Z</time></trkpt><trkpt lat="45.56671681552865" lon="12.16951178139931"><ele>12.0</ele><time>2026-04-04T14:45:04Z</time></trkpt><trkpt lat="45.56666678464005" lon="12.169432584702836"><ele>12.0</ele><time>2026-04-04T14:45:05Z</time></trkpt><trkpt lat="45.56660877772898" lon="12.16936883114811"><ele>12.0</ele><time>2026-04-04T14:45:06Z</time></trkpt><trkpt lat="45.56654289843128" lon="12.16932564156364"><ele>12.0</ele><time>2026-04-04T14:45:07Z</time></trkpt><trkpt lat="45.56645380811815" lon="12.169363222185495"><ele>12.0</ele><time>2026-04-04T14:45:08Z</time></trkpt><trkpt lat="45.56637196373207" lon="12.169402318486036"><ele>12.0</ele><time>2026-04-04T14:45:09Z</time></trkpt><trkpt lat="45.566280043537056" lon="12.169450714750601"><ele>12.0</ele><time>2026-04-04T14:45:10Z</time></trkpt><trkpt lat="45.56616767971491" lon="12.169476446996043"><ele>11.333333333333334</ele><time>2026-04-04T14:45:11Z</time></trkpt><trkpt lat="45.566036146744" lon="12.16944111152012"><ele>10.666666666666668</ele><time>2026-04-04T14:45:12Z</time></trkpt><trkpt lat="45.56588398281442" lon="12.16942963653605"><ele>10.0</ele><time>2026-04-04T14:45:13Z</time></trkpt><trkpt lat="45.56571813854598" lon="12.169417229908046"><ele>10.0</ele><time>2026-04-04T14:45:14Z</time></trkpt><trkpt lat="45.56554877707821" lon="12.169404560163915"><ele>10.0</ele><time>2026-04-04T14:45:15Z</time></trkpt><trkpt lat="45.565401080919145" lon="12.169393511175599"><ele>10.0</ele><time>2026-04-04T14:45:16Z</time></trkpt><trkpt lat="45.565266047107144" lon="12.169383409451267"><ele>9.75</ele><time>2026-04-04T14:45:17Z</time></trkpt><trkpt lat="45.56514395028285" lon="12.169374275519667"><ele>9.5</ele><time>2026-04-04T14:45:18Z</time></trkpt><trkpt lat="45.56502391744193" lon="12.169365295991849"><ele>9.25</ele><time>2026-04-04T14:45:19Z</time></trkpt><trkpt lat="45.564914395292185" lon="12.169386995357288"><ele>9.0</ele><time>2026-04-04T14:45:20Z</time></trkpt><trkpt lat="45.564805921765235" lon="12.169375960212875"><ele>9.0</ele><time>2026-04-04T14:45:21Z</time></trkpt><trkpt lat="45.56469978479234" lon="12.169358355510687"><ele>9.0</ele><time>2026-04-04T14:45:22Z</time></trkpt><trkpt lat="45.56457978072415" lon="12.169340946426951"><ele>9.0</ele><time>2026-04-04T14:45:23Z</time></trkpt><trkpt lat="45.56445327596481" lon="12.169331042605066"><ele>9.0</ele><time>2026-04-04T14:45:24Z</time></trkpt><trkpt lat="45.56431854175959" lon="12.169325852887775"><ele>9.0</ele><time>2026-04-04T14:45:25Z</time></trkpt><trkpt lat="45.56418238570416" lon="12.169313704734037"><ele>9.0</ele><time>2026-04-04T14:45:26Z</time></trkpt><trkpt lat="45.56403927964057" lon="12.169300726281765"><ele>9.0</ele><time>2026-04-04T14:45:27Z</time></trkpt><trkpt lat="45.563901969173344" lon="12.169288042268436"><ele>9.0</ele><time>2026-04-04T14:45:28Z</time></trkpt><trkpt lat="45.563763586149065" lon="12.169281660916768"><ele>9.25</ele><time>2026-04-04T14:45:29Z</time></trkpt><trkpt lat="45.563639916850406" lon="12.169277080754618"><ele>9.5</ele><time>2026-04-04T14:45:30Z</time></trkpt><trkpt lat="45.5635230344563" lon="12.169267970486445"><ele>9.75</ele><time>2026-04-04T14:45:31Z</time></trkpt><trkpt lat="45.563409287610995" lon="12.169261836606367"><ele>10.0</ele><time>2026-04-04T14:45:32Z</time></trkpt><trkpt lat="45.56330253224626" lon="12.169253552329009"><ele>10.0</ele><time>2026-04-04T14:45:33Z</time></trkpt><trkpt lat="45.563200616967016" lon="12.169249518463184"><ele>10.0</ele><time>2026-04-04T14:45:34Z</time></trkpt><trkpt lat="45.563098684634426" lon="12.1692593531769"><ele>10.0</ele><time>2026-04-04T14:45:35Z</time></trkpt><trkpt lat="45.56299830953334" lon="12.169276578302146"><ele>10.0</ele><time>2026-04-04T14:45:36Z</time></trkpt><trkpt lat="45.56289695425185" lon="12.16930139695707"><ele>10.0</ele><time>2026-04-04T14:45:37Z</time></trkpt><trkpt lat="45.56279303585038" lon="12.169315326453493"><ele>10.0</ele><time>2026-04-04T14:45:38Z</time></trkpt><trkpt lat="45.56257800891612" lon="12.169301961104678"><ele>10.0</ele><time>2026-04-04T14:45:40Z</time></trkpt><trkpt lat="45.562475436829516" lon="12.169283699486595"><ele>10.0</ele><time>2026-04-04T14:45:41Z</time></trkpt><trkpt lat="45.562383096000026" lon="12.169276788356163"><ele>10.0</ele><time>2026-04-04T14:45:42Z</time></trkpt><trkpt lat="45.56229287528426" lon="12.169250080147972"><ele>10.0</ele><time>2026-04-04T14:45:43Z</time></trkpt><trkpt lat="45.562201240629314" lon="12.169239528341361"><ele>10.0</ele><time>2026-04-04T14:45:44Z</time></trkpt><trkpt lat="45.56211774252031" lon="12.16922326512237"><ele>10.0</ele><time>2026-04-04T14:45:45Z</time></trkpt><trkpt lat="45.56203989653242" lon="12.169217372887374"><ele>10.0</ele><time>2026-04-04T14:45:46Z</time></trkpt><trkpt lat="45.56197323147719" lon="12.169215589190468"><ele>10.0</ele><time>2026-04-04T14:45:47Z</time></trkpt><trkpt lat="45.561875507349804" lon="12.169325519220582"><ele>10.0</ele><time>2026-04-04T14:45:49Z</time></trkpt><trkpt lat="45.56183442271808" lon="12.169507036815812"><ele>9.833333333333334</ele><time>2026-04-04T14:45:51Z</time></trkpt><trkpt lat="45.5618161624181" lon="12.169624345403713"><ele>9.666666666666668</ele><time>2026-04-04T14:45:52Z</time></trkpt><trkpt lat="45.56182340926463" lon="12.169756079162205"><ele>9.5</ele><time>2026-04-04T14:45:53Z</time></trkpt><trkpt lat="45.5618152396076" lon="12.169867822882546"><ele>9.333333333333334</ele><time>2026-04-04T14:45:54Z</time></trkpt><trkpt lat="45.561811852790555" lon="12.169974637186211"><ele>9.166666666666666</ele><time>2026-04-04T14:45:55Z</time></trkpt><trkpt lat="45.56180487411583" lon="12.170074183167507"><ele>9.0</ele><time>2026-04-04T14:45:56Z</time></trkpt><trkpt lat="45.56178655901201" lon="12.170166518981079"><ele>9.0</ele><time>2026-04-04T14:45:57Z</time></trkpt><trkpt lat="45.56174146087529" lon="12.170239340205233"><ele>9.0</ele><time>2026-04-04T14:45:58Z</time></trkpt><trkpt lat="45.56164270762646" lon="12.170328424024992"><ele>9.0</ele><time>2026-04-04T14:46:00Z</time></trkpt><trkpt lat="45.56151897753138" lon="12.170356394715718"><ele>9.0</ele><time>2026-04-04T14:46:02Z</time></trkpt><trkpt lat="45.56137819850058" lon="12.170384651099308"><ele>9.0</ele><time>2026-04-04T14:46:04Z</time></trkpt><trkpt lat="45.5612928817478" lon="12.17040177537275"><ele>9.0</ele><time>2026-04-04T14:46:05Z</time></trkpt><trkpt lat="45.56119988035863" lon="12.170420442118537"><ele>9.0</ele><time>2026-04-04T14:46:06Z</time></trkpt><trkpt lat="45.56109241252378" lon="12.170442012462159"><ele>9.0</ele><time>2026-04-04T14:46:07Z</time></trkpt><trkpt lat="45.560972274637166" lon="12.170465751934328"><ele>9.0</ele><time>2026-04-04T14:46:08Z</time></trkpt><trkpt lat="45.56085638645975" lon="12.170504963311043"><ele>9.0</ele><time>2026-04-04T14:46:09Z</time></trkpt><trkpt lat="45.56073954173569" lon="12.17049140391585"><ele>9.0</ele><time>2026-04-04T14:46:10Z</time></trkpt><trkpt lat="45.56062009567275" lon="12.170488861720678"><ele>9.0</ele><time>2026-04-04T14:46:11Z</time></trkpt><trkpt lat="45.560492939972484" lon="12.170483406415542"><ele>9.0</ele><time>2026-04-04T14:46:12Z</time></trkpt><trkpt lat="45.560361316745016" lon="12.170476323776487"><ele>8.75</ele><time>2026-04-04T14:46:13Z</time></trkpt><trkpt lat="45.56022464051038" lon="12.170468945368853"><ele>8.5</ele><time>2026-04-04T14:46:14Z</time></trkpt><trkpt lat="45.5600818453117" lon="12.170462435486261"><ele>8.25</ele><time>2026-04-04T14:46:15Z</time></trkpt><trkpt lat="45.55993479570162" lon="12.170470963959856"><ele>8.0</ele><time>2026-04-04T14:46:16Z</time></trkpt><trkpt lat="45.55979033406893" lon="12.170466311460084"><ele>8.0</ele><time>2026-04-04T14:46:17Z</time></trkpt><trkpt lat="45.5596573432061" lon="12.170453570033198"><ele>8.0</ele><time>2026-04-04T14:46:18Z</time></trkpt><trkpt lat="45.559519598948874" lon="12.170453714967788"><ele>8.0</ele><time>2026-04-04T14:46:19Z</time></trkpt><trkpt lat="45.559385156222824" lon="12.170443943981848"><ele>8.0</ele><time>2026-04-04T14:46:20Z</time></trkpt><trkpt lat="45.559250593518804" lon="12.17044523151766"><ele>8.0</ele><time>2026-04-04T14:46:21Z</time></trkpt><trkpt lat="45.55911983627577" lon="12.170450636175516"><ele>8.0</ele><time>2026-04-04T14:46:22Z</time></trkpt><trkpt lat="45.55898853339822" lon="12.170442578443078"><ele>8.0</ele><time>2026-04-04T14:46:23Z</time></trkpt><trkpt lat="45.558858203880675" lon="12.170437117995409"><ele>8.0</ele><time>2026-04-04T14:46:24Z</time></trkpt><trkpt lat="45.55872682355018" lon="12.170441719211643"><ele>8.25</ele><time>2026-04-04T14:46:25Z</time></trkpt><trkpt lat="45.55859778669728" lon="12.170440938305992"><ele>8.5</ele><time>2026-04-04T14:46:26Z</time></trkpt><trkpt lat="45.55846311678356" lon="12.170441573448347"><ele>8.75</ele><time>2026-04-04T14:46:27Z</time></trkpt><trkpt lat="45.55833030029343" lon="12.170439379956665"><ele>9.0</ele><time>2026-04-04T14:46:28Z</time></trkpt><trkpt lat="45.558197861945196" lon="12.170451199445704"><ele>9.0</ele><time>2026-04-04T14:46:29Z</time></trkpt><trkpt lat="45.558068960850186" lon="12.170458951238354"><ele>9.0</ele><time>2026-04-04T14:46:30Z</time></trkpt><trkpt lat="45.557935031918426" lon="12.170468769343215"><ele>9.0</ele><time>2026-04-04T14:46:31Z</time></trkpt><trkpt lat="45.55780138507184" lon="12.170465685585416"><ele>9.0</ele><time>2026-04-04T14:46:32Z</time></trkpt><trkpt lat="45.55766682400411" lon="12.17048051895283"><ele>8.5</ele><time>2026-04-04T14:46:33Z</time></trkpt><trkpt lat="45.55753429065926" lon="12.170490834212853"><ele>8.0</ele><time>2026-04-04T14:46:34Z</time></trkpt><trkpt lat="45.5574026820754" lon="12.170495931602657"><ele>7.5</ele><time>2026-04-04T14:46:35Z</time></trkpt><trkpt lat="45.55726806180837" lon="12.170498972823363"><ele>7.0</ele><time>2026-04-04T14:46:36Z</time></trkpt><trkpt lat="45.55713498266682" lon="12.170491172267885"><ele>7.25</ele><time>2026-04-04T14:46:37Z</time></trkpt><trkpt lat="45.55700502008492" lon="12.170498839516956"><ele>7.5</ele><time>2026-04-04T14:46:38Z</time></trkpt><trkpt lat="45.556869439609954" lon="12.170506838198655"><ele>7.75</ele><time>2026-04-04T14:46:39Z</time></trkpt><trkpt lat="45.55673495524521" lon="12.170517325358523"><ele>8.0</ele><time>2026-04-04T14:46:40Z</time></trkpt><trkpt lat="45.55660329527344" lon="12.170520905937796"><ele>8.0</ele><time>2026-04-04T14:46:41Z</time></trkpt><trkpt lat="45.556472365470285" lon="12.170518611550948"><ele>8.0</ele><time>2026-04-04T14:46:42Z</time></trkpt><trkpt lat="45.55634074161797" lon="12.170538020298936"><ele>8.0</ele><time>2026-04-04T14:46:43Z</time></trkpt><trkpt lat="45.55620944715372" lon="12.170533472978354"><ele>8.0</ele><time>2026-04-04T14:46:44Z</time></trkpt><trkpt lat="45.55607387119324" lon="12.170522832394077"><ele>7.75</ele><time>2026-04-04T14:46:45Z</time></trkpt><trkpt lat="45.555942204351" lon="12.170525663685199"><ele>7.5</ele><time>2026-04-04T14:46:46Z</time></trkpt><trkpt lat="45.555808547628125" lon="12.170521961427639"><ele>7.25</ele><time>2026-04-04T14:46:47Z</time></trkpt><trkpt lat="45.55567890762668" lon="12.170522683270388"><ele>7.0</ele><time>2026-04-04T14:46:48Z</time></trkpt><trkpt lat="45.55554205591013" lon="12.17051855744468"><ele>7.0</ele><time>2026-04-04T14:46:49Z</time></trkpt><trkpt lat="45.55540975030469" lon="12.170516319033545"><ele>7.0</ele><time>2026-04-04T14:46:50Z</time></trkpt><trkpt lat="45.555275128578366" lon="12.170511923604598"><ele>7.0</ele><time>2026-04-04T14:46:51Z</time></trkpt><trkpt lat="45.555143190456604" lon="12.170509638757427"><ele>7.0</ele><time>2026-04-04T14:46:52Z</time></trkpt><trkpt lat="45.55501850591952" lon="12.170501721672677"><ele>6.8</ele><time>2026-04-04T14:46:53Z</time></trkpt><trkpt lat="45.554906072814475" lon="12.170499314621628"><ele>6.6</ele><time>2026-04-04T14:46:54Z</time></trkpt><trkpt lat="45.55480285033929" lon="12.170498761948057"><ele>6.3999999999999995</ele><time>2026-04-04T14:46:55Z</time></trkpt><trkpt lat="45.55471891487383" lon="12.170498848881511"><ele>6.199999999999999</ele><time>2026-04-04T14:46:56Z</time></trkpt><trkpt lat="45.55465589446486" lon="12.17050507377767"><ele>6.0</ele><time>2026-04-04T14:46:57Z</time></trkpt><trkpt lat="45.55456707579586" lon="12.170610521070905"><ele>6.166666666666667</ele><time>2026-04-04T14:46:59Z</time></trkpt><trkpt lat="45.55455698819987" lon="12.170702419533187"><ele>6.333333333333334</ele><time>2026-04-04T14:47:00Z</time></trkpt><trkpt lat="45.55455913690636" lon="12.17081511041257"><ele>6.5</ele><time>2026-04-04T14:47:01Z</time></trkpt><trkpt lat="45.554536966810524" lon="12.170938681987533"><ele>6.666666666666667</ele><time>2026-04-04T14:47:02Z</time></trkpt><trkpt lat="45.55452494901525" lon="12.171071095756012"><ele>6.833333333333334</ele><time>2026-04-04T14:47:03Z</time></trkpt><trkpt lat="45.55450816826428" lon="12.171179901880384"><ele>7.0</ele><time>2026-04-04T14:47:04Z</time></trkpt><trkpt lat="45.554496422233136" lon="12.171274374551746"><ele>7.0</ele><time>2026-04-04T14:47:05Z</time></trkpt><trkpt lat="45.55447559982719" lon="12.171394301801428"><ele>6.999999999999999</ele><time>2026-04-04T14:47:07Z</time></trkpt><trkpt lat="45.55436086769472" lon="12.1713877822549"><ele>6.999999999999999</ele><time>2026-04-04T14:47:10Z</time></trkpt><trkpt lat="45.55428054863536" lon="12.171372004131257"><ele>7.0</ele><time>2026-04-04T14:47:11Z</time></trkpt><trkpt lat="45.55418222373492" lon="12.171376148034406"><ele>7.0</ele><time>2026-04-04T14:47:12Z</time></trkpt><trkpt lat="45.55405439588201" lon="12.171363327417144"><ele>7.0</ele><time>2026-04-04T14:47:13Z</time></trkpt><trkpt lat="45.55391956893471" lon="12.171348522846122"><ele>7.0</ele><time>2026-04-04T14:47:14Z</time></trkpt><trkpt lat="45.553784910777495" lon="12.171352594476145"><ele>7.0</ele><time>2026-04-04T14:47:15Z</time></trkpt><trkpt lat="45.553633788273366" lon="12.171350261367198"><ele>7.0</ele><time>2026-04-04T14:47:16Z</time></trkpt><trkpt lat="45.55346386501285" lon="12.171349674624182"><ele>6.666666666666667</ele><time>2026-04-04T14:47:17Z</time></trkpt><trkpt lat="45.5533027635215" lon="12.171323887516976"><ele>6.333333333333334</ele><time>2026-04-04T14:47:18Z</time></trkpt><trkpt lat="45.55314039502215" lon="12.171320128325476"><ele>6.0</ele><time>2026-04-04T14:47:19Z</time></trkpt><trkpt lat="45.552968403082566" lon="12.17131679599723"><ele>6.0</ele><time>2026-04-04T14:47:20Z</time></trkpt><trkpt lat="45.55279567859609" lon="12.171313447459616"><ele>6.0</ele><time>2026-04-04T14:47:21Z</time></trkpt><trkpt lat="45.552638413621196" lon="12.17133356798817"><ele>6.0</ele><time>2026-04-04T14:47:22Z</time></trkpt><trkpt lat="45.552480902626286" lon="12.171327305859906"><ele>6.0</ele><time>2026-04-04T14:47:23Z</time></trkpt><trkpt lat="45.552327580138275" lon="12.17132386387627"><ele>6.0</ele><time>2026-04-04T14:47:24Z</time></trkpt><trkpt lat="45.552172905793434" lon="12.171317013263245"><ele>6.0</ele><time>2026-04-04T14:47:25Z</time></trkpt><trkpt lat="45.55201441961165" lon="12.171315066244262"><ele>6.0</ele><time>2026-04-04T14:47:26Z</time></trkpt><trkpt lat="45.551861586219864" lon="12.171330681581493"><ele>6.0</ele><time>2026-04-04T14:47:27Z</time></trkpt><trkpt lat="45.55171976479101" lon="12.17135484479255"><ele>6.0</ele><time>2026-04-04T14:47:28Z</time></trkpt><trkpt lat="45.55159275911052" lon="12.171390860083799"><ele>6.0</ele><time>2026-04-04T14:47:29Z</time></trkpt><trkpt lat="45.55147812026086" lon="12.171422925333895"><ele>6.0</ele><time>2026-04-04T14:47:30Z</time></trkpt><trkpt lat="45.55137257144442" lon="12.171437077177632"><ele>6.0</ele><time>2026-04-04T14:47:31Z</time></trkpt><trkpt lat="45.551278955241834" lon="12.171452492909747"><ele>6.0</ele><time>2026-04-04T14:47:32Z</time></trkpt><trkpt lat="45.55119741435353" lon="12.171455584131477"><ele>6.0</ele><time>2026-04-04T14:47:33Z</time></trkpt><trkpt lat="45.551135637001614" lon="12.171425092799304"><ele>6.0</ele><time>2026-04-04T14:47:34Z</time></trkpt><trkpt lat="45.55107881222489" lon="12.171366087939413"><ele>6.0</ele><time>2026-04-04T14:47:35Z</time></trkpt><trkpt lat="45.551040520860184" lon="12.171272090681441"><ele>6.0</ele><time>2026-04-04T14:47:36Z</time></trkpt><trkpt lat="45.550945974170006" lon="12.171255501294594"><ele>6.0</ele><time>2026-04-04T14:47:37Z</time></trkpt><trkpt lat="45.55086167518632" lon="12.171268257722657"><ele>6.0</ele><time>2026-04-04T14:47:38Z</time></trkpt><trkpt lat="45.55079606972035" lon="12.171344762472"><ele>6.0</ele><time>2026-04-04T14:47:39Z</time></trkpt><trkpt lat="45.550758120772485" lon="12.17144098576229"><ele>6.0</ele><time>2026-04-04T14:47:40Z</time></trkpt><trkpt lat="45.550751060211695" lon="12.171563699084212"><ele>6.0</ele><time>2026-04-04T14:47:41Z</time></trkpt><trkpt lat="45.55077489255535" lon="12.171685779609515"><ele>6.0</ele><time>2026-04-04T14:47:42Z</time></trkpt><trkpt lat="45.55081884111155" lon="12.171795749474258"><ele>6.0</ele><time>2026-04-04T14:47:43Z</time></trkpt><trkpt lat="45.550884125343984" lon="12.17191027774901"><ele>6.0</ele><time>2026-04-04T14:47:44Z</time></trkpt><trkpt lat="45.55093602893156" lon="12.172048860546715"><ele>6.0</ele><time>2026-04-04T14:47:45Z</time></trkpt><trkpt lat="45.5509984409398" lon="12.172186459588767"><ele>6.0</ele><time>2026-04-04T14:47:46Z</time></trkpt><trkpt lat="45.55097327299704" lon="12.172403422272884"><ele>5.666666666666667</ele><time>2026-04-04T14:47:47Z</time></trkpt><trkpt lat="45.55097810254274" lon="12.172615148663393"><ele>5.333333333333334</ele><time>2026-04-04T14:47:48Z</time></trkpt><trkpt lat="45.55098408354806" lon="12.172861580141692"><ele>5.0</ele><time>2026-04-04T14:47:49Z</time></trkpt><trkpt lat="45.550997188801155" lon="12.173141462536583"><ele>5.0</ele><time>2026-04-04T14:47:50Z</time></trkpt><trkpt lat="45.55101256642234" lon="12.173443241819678"><ele>5.0</ele><time>2026-04-04T14:47:51Z</time></trkpt><trkpt lat="45.55102808393201" lon="12.173766353123057"><ele>5.0</ele><time>2026-04-04T14:47:52Z</time></trkpt><trkpt lat="45.5510331655693" lon="12.17411729676423"><ele>5.0</ele><time>2026-04-04T14:47:53Z</time></trkpt><trkpt lat="45.55103043518466" lon="12.17448341657266"><ele>5.0</ele><time>2026-04-04T14:47:54Z</time></trkpt><trkpt lat="45.55102157193534" lon="12.174854758737036"><ele>5.5</ele><time>2026-04-04T14:47:55Z</time></trkpt><trkpt lat="45.55099977409223" lon="12.17523987889778"><ele>6.0</ele><time>2026-04-04T14:47:56Z</time></trkpt><trkpt lat="45.55096901184036" lon="12.175615251151187"><ele>6.5</ele><time>2026-04-04T14:47:57Z</time></trkpt><trkpt lat="45.550926408797096" lon="12.175966424263397"><ele>7.0</ele><time>2026-04-04T14:47:58Z</time></trkpt><trkpt lat="45.55088062284423" lon="12.176293189830684"><ele>6.0</ele><time>2026-04-04T14:47:59Z</time></trkpt><trkpt lat="45.550824693371744" lon="12.176600925541726"><ele>5.0</ele><time>2026-04-04T14:48:00Z</time></trkpt><trkpt lat="45.55075931664749" lon="12.17690385319642"><ele>4.0</ele><time>2026-04-04T14:48:01Z</time></trkpt><trkpt lat="45.550691886847474" lon="12.177199326581121"><ele>4.0</ele><time>2026-04-04T14:48:02Z</time></trkpt><trkpt lat="45.55061899392597" lon="12.177486009944547"><ele>4.0</ele><time>2026-04-04T14:48:03Z</time></trkpt><trkpt lat="45.55053671107756" lon="12.17777634587049"><ele>4.0</ele><time>2026-04-04T14:48:04Z</time></trkpt><trkpt lat="45.55044891909304" lon="12.178064417422997"><ele>4.0</ele><time>2026-04-04T14:48:05Z</time></trkpt><trkpt lat="45.55035814554165" lon="12.178343075984985"><ele>4.0</ele><time>2026-04-04T14:48:06Z</time></trkpt><trkpt lat="45.55026089129515" lon="12.178613471597002"><ele>4.0</ele><time>2026-04-04T14:48:07Z</time></trkpt><trkpt lat="45.55016631393065" lon="12.178866814008588"><ele>4.333333333333333</ele><time>2026-04-04T14:48:08Z</time></trkpt><trkpt lat="45.55008317364781" lon="12.179087964815"><ele>4.666666666666667</ele><time>2026-04-04T14:48:09Z</time></trkpt><trkpt lat="45.550007823460774" lon="12.179289457876454"><ele>5.0</ele><time>2026-04-04T14:48:10Z</time></trkpt><trkpt lat="45.54994030697557" lon="12.179468445765353"><ele>5.0</ele><time>2026-04-04T14:48:11Z</time></trkpt><trkpt lat="45.54987457054496" lon="12.179618839317023"><ele>5.0</ele><time>2026-04-04T14:48:12Z</time></trkpt><trkpt lat="45.549806300477044" lon="12.179740916232705"><ele>5.0</ele><time>2026-04-04T14:48:13Z</time></trkpt><trkpt lat="45.54973031418122" lon="12.179840915679616"><ele>5.0</ele><time>2026-04-04T14:48:14Z</time></trkpt><trkpt lat="45.54964062841125" lon="12.179895015148592"><ele>5.0</ele><time>2026-04-04T14:48:15Z</time></trkpt><trkpt lat="45.54954790619395" lon="12.179904452929861"><ele>5.0</ele><time>2026-04-04T14:48:16Z</time></trkpt><trkpt lat="45.549453352491845" lon="12.17987079768131"><ele>5.0</ele><time>2026-04-04T14:48:17Z</time></trkpt><trkpt lat="45.54935855510633" lon="12.17983607996919"><ele>5.0</ele><time>2026-04-04T14:48:18Z</time></trkpt><trkpt lat="45.549266418843686" lon="12.17984530946242"><ele>5.0</ele><time>2026-04-04T14:48:19Z</time></trkpt><trkpt lat="45.549180284170504" lon="12.179902488009828"><ele>5.0</ele><time>2026-04-04T14:48:20Z</time></trkpt><trkpt lat="45.54911335609241" lon="12.180017073680311"><ele>5.25</ele><time>2026-04-04T14:48:21Z</time></trkpt><trkpt lat="45.54906321749144" lon="12.18015721509148"><ele>5.5</ele><time>2026-04-04T14:48:22Z</time></trkpt><trkpt lat="45.54901959194344" lon="12.180307085922676"><ele>5.75</ele><time>2026-04-04T14:48:23Z</time></trkpt><trkpt lat="45.54896272580552" lon="12.18045497780886"><ele>6.0</ele><time>2026-04-04T14:48:24Z</time></trkpt><trkpt lat="45.54889399746627" lon="12.180606814586325"><ele>5.75</ele><time>2026-04-04T14:48:25Z</time></trkpt><trkpt lat="45.54883353749565" lon="12.180776049305805"><ele>5.5</ele><time>2026-04-04T14:48:26Z</time></trkpt><trkpt lat="45.54879964308516" lon="12.180935646745572"><ele>5.25</ele><time>2026-04-04T14:48:27Z</time></trkpt><trkpt lat="45.54878138827956" lon="12.181096204978616"><ele>5.0</ele><time>2026-04-04T14:48:28Z</time></trkpt><trkpt lat="45.548772626509155" lon="12.181269979393127"><ele>5.0</ele><time>2026-04-04T14:48:29Z</time></trkpt><trkpt lat="45.548773640348365" lon="12.18146498846447"><ele>5.0</ele><time>2026-04-04T14:48:30Z</time></trkpt><trkpt lat="45.54877477722504" lon="12.181668935870183"><ele>5.0</ele><time>2026-04-04T14:48:31Z</time></trkpt><trkpt lat="45.548773182895566" lon="12.181889015960525"><ele>5.0</ele><time>2026-04-04T14:48:32Z</time></trkpt><trkpt lat="45.548772186603316" lon="12.182110156479768"><ele>5.0</ele><time>2026-04-04T14:48:33Z</time></trkpt><trkpt lat="45.548770546282086" lon="12.18231869428511"><ele>5.0</ele><time>2026-04-04T14:48:34Z</time></trkpt><trkpt lat="45.54876685613716" lon="12.18253291705002"><ele>5.0</ele><time>2026-04-04T14:48:35Z</time></trkpt><trkpt lat="45.548763838397285" lon="12.182744701292604"><ele>5.0</ele><time>2026-04-04T14:48:36Z</time></trkpt><trkpt lat="45.54876262766694" lon="12.182949992601824"><ele>5.0</ele><time>2026-04-04T14:48:37Z</time></trkpt><trkpt lat="45.54876169007881" lon="12.183154510540895"><ele>5.0</ele><time>2026-04-04T14:48:38Z</time></trkpt><trkpt lat="45.54875601268173" lon="12.183352159284953"><ele>5.0</ele><time>2026-04-04T14:48:39Z</time></trkpt><trkpt lat="45.54875120612652" lon="12.183551110688503"><ele>5.0</ele><time>2026-04-04T14:48:40Z</time></trkpt><trkpt lat="45.54875039812243" lon="12.183756612166311"><ele>5.5</ele><time>2026-04-04T14:48:41Z</time></trkpt><trkpt lat="45.5487603167844" lon="12.183958260532144"><ele>6.0</ele><time>2026-04-04T14:48:42Z</time></trkpt><trkpt lat="45.54877810607095" lon="12.184165261484347"><ele>6.5</ele><time>2026-04-04T14:48:43Z</time></trkpt><trkpt lat="45.54880715342959" lon="12.184351844225983"><ele>7.0</ele><time>2026-04-04T14:48:44Z</time></trkpt><trkpt lat="45.54884370824888" lon="12.184525074770976"><ele>7.0</ele><time>2026-04-04T14:48:45Z</time></trkpt><trkpt lat="45.54886683678982" lon="12.184706613976086"><ele>7.0</ele><time>2026-04-04T14:48:46Z</time></trkpt><trkpt lat="45.54886611659911" lon="12.184898598458735"><ele>7.0</ele><time>2026-04-04T14:48:47Z</time></trkpt><trkpt lat="45.54884919393888" lon="12.185098336603085"><ele>7.0</ele><time>2026-04-04T14:48:48Z</time></trkpt><trkpt lat="45.54882382930736" lon="12.185305794175031"><ele>7.0</ele><time>2026-04-04T14:48:49Z</time></trkpt><trkpt lat="45.5488038895327" lon="12.185495707248167"><ele>7.0</ele><time>2026-04-04T14:48:50Z</time></trkpt><trkpt lat="45.54878917595578" lon="12.185694857270239"><ele>7.0</ele><time>2026-04-04T14:48:51Z</time></trkpt><trkpt lat="45.54878276871992" lon="12.185897080403661"><ele>7.0</ele><time>2026-04-04T14:48:52Z</time></trkpt><trkpt lat="45.548780008225165" lon="12.186095960721532"><ele>6.75</ele><time>2026-04-04T14:48:53Z</time></trkpt><trkpt lat="45.54877326655843" lon="12.186292958510139"><ele>6.5</ele><time>2026-04-04T14:48:54Z</time></trkpt><trkpt lat="45.5487542403862" lon="12.18647922912303"><ele>6.25</ele><time>2026-04-04T14:48:55Z</time></trkpt><trkpt lat="45.54873056461718" lon="12.186663643046593"><ele>6.0</ele><time>2026-04-04T14:48:56Z</time></trkpt><trkpt lat="45.54870247691757" lon="12.186830095647215"><ele>5.8</ele><time>2026-04-04T14:48:57Z</time></trkpt><trkpt lat="45.548676853610914" lon="12.186990349657712"><ele>5.6</ele><time>2026-04-04T14:48:58Z</time></trkpt><trkpt lat="45.54865160224121" lon="12.187141557104804"><ele>5.4</ele><time>2026-04-04T14:48:59Z</time></trkpt><trkpt lat="45.54863089451607" lon="12.1872660900481"><ele>5.2</ele><time>2026-04-04T14:49:00Z</time></trkpt><trkpt lat="45.54858189560139" lon="12.187403567590911"><ele>5.0</ele><time>2026-04-04T14:49:02Z</time></trkpt><trkpt lat="45.54847317740471" lon="12.187417803835743"><ele>5.0</ele><time>2026-04-04T14:49:04Z</time></trkpt><trkpt lat="45.54839908390922" lon="12.18738764825368"><ele>5.0</ele><time>2026-04-04T14:49:05Z</time></trkpt><trkpt lat="45.54829007567535" lon="12.187378613102739"><ele>5.0</ele><time>2026-04-04T14:49:06Z</time></trkpt><trkpt lat="45.54816533680483" lon="12.187366343090755"><ele>5.0</ele><time>2026-04-04T14:49:07Z</time></trkpt><trkpt lat="45.548039872580894" lon="12.187372337374125"><ele>5.0</ele><time>2026-04-04T14:49:08Z</time></trkpt><trkpt lat="45.547912735580894" lon="12.187341495808775"><ele>5.0</ele><time>2026-04-04T14:49:09Z</time></trkpt><trkpt lat="45.547780097874444" lon="12.187350131161477"><ele>5.0</ele><time>2026-04-04T14:49:10Z</time></trkpt><trkpt lat="45.54764491647458" lon="12.187325426884378"><ele>5.0</ele><time>2026-04-04T14:49:11Z</time></trkpt><trkpt lat="45.54751034545263" lon="12.187306491741284"><ele>5.0</ele><time>2026-04-04T14:49:12Z</time></trkpt><trkpt lat="45.547374241302066" lon="12.187267715182415"><ele>5.0</ele><time>2026-04-04T14:49:13Z</time></trkpt><trkpt lat="45.547239337413956" lon="12.187228881907958"><ele>5.0</ele><time>2026-04-04T14:49:14Z</time></trkpt><trkpt lat="45.547115090106615" lon="12.18719331435498"><ele>5.0</ele><time>2026-04-04T14:49:15Z</time></trkpt><trkpt lat="45.54699776222207" lon="12.187209355209909"><ele>5.0</ele><time>2026-04-04T14:49:16Z</time></trkpt><trkpt lat="45.546896701622906" lon="12.187222469185848"><ele>5.166666666666667</ele><time>2026-04-04T14:49:17Z</time></trkpt><trkpt lat="45.546803677289134" lon="12.187239722297418"><ele>5.333333333333334</ele><time>2026-04-04T14:49:18Z</time></trkpt><trkpt lat="45.54671377362452" lon="12.187256107206487"><ele>5.5</ele><time>2026-04-04T14:49:19Z</time></trkpt><trkpt lat="45.546631185884884" lon="12.187266927844343"><ele>5.666666666666667</ele><time>2026-04-04T14:49:20Z</time></trkpt><trkpt lat="45.54654816922648" lon="12.18727867225822"><ele>5.833333333333333</ele><time>2026-04-04T14:49:21Z</time></trkpt><trkpt lat="45.546459126547624" lon="12.187293632794145"><ele>6.0</ele><time>2026-04-04T14:49:22Z</time></trkpt><trkpt lat="45.546371502142144" lon="12.187309020951764"><ele>6.0</ele><time>2026-04-04T14:49:23Z</time></trkpt><trkpt lat="45.54629684475668" lon="12.187323503270289"><ele>6.0</ele><time>2026-04-04T14:49:24Z</time></trkpt><trkpt lat="45.546216274280106" lon="12.187341257682272"><ele>6.0</ele><time>2026-04-04T14:49:25Z</time></trkpt><trkpt lat="45.5461295135629" lon="12.187333178149915"><ele>6.0</ele><time>2026-04-04T14:49:26Z</time></trkpt><trkpt lat="45.54603883559227" lon="12.187379268689414"><ele>6.0</ele><time>2026-04-04T14:49:27Z</time></trkpt><trkpt lat="45.5459467471343" lon="12.187426562013895"><ele>6.0</ele><time>2026-04-04T14:49:28Z</time></trkpt><trkpt lat="45.545853546186876" lon="12.187517429907254"><ele>6.0</ele><time>2026-04-04T14:49:29Z</time></trkpt><trkpt lat="45.545760903513646" lon="12.187608518354871"><ele>6.0</ele><time>2026-04-04T14:49:30Z</time></trkpt><trkpt lat="45.545660166706874" lon="12.187716262114584"><ele>6.0</ele><time>2026-04-04T14:49:31Z</time></trkpt><trkpt lat="45.54555639059798" lon="12.187820194788923"><ele>6.0</ele><time>2026-04-04T14:49:32Z</time></trkpt><trkpt lat="45.545469295663935" lon="12.187927972310145"><ele>6.0</ele><time>2026-04-04T14:49:33Z</time></trkpt><trkpt lat="45.54539691237464" lon="12.188052922163845"><ele>6.0</ele><time>2026-04-04T14:49:34Z</time></trkpt><trkpt lat="45.54534705478673" lon="12.188172371004455"><ele>6.0</ele><time>2026-04-04T14:49:35Z</time></trkpt><trkpt lat="45.54529670839547" lon="12.188304897481109"><ele>6.0</ele><time>2026-04-04T14:49:36Z</time></trkpt><trkpt lat="45.54527818772664" lon="12.188515231027214"><ele>6.8</ele><time>2026-04-04T14:49:38Z</time></trkpt><trkpt lat="45.545287202963195" lon="12.188644589075457"><ele>7.6</ele><time>2026-04-04T14:49:39Z</time></trkpt><trkpt lat="45.54528781511723" lon="12.188781524037061"><ele>8.4</ele><time>2026-04-04T14:49:40Z</time></trkpt><trkpt lat="45.54529126938549" lon="12.188920137575048"><ele>9.2</ele><time>2026-04-04T14:49:41Z</time></trkpt><trkpt lat="45.545287287455864" lon="12.189063137649761"><ele>10.0</ele><time>2026-04-04T14:49:42Z</time></trkpt><trkpt lat="45.54528528438298" lon="12.189202799719741"><ele>10.0</ele><time>2026-04-04T14:49:43Z</time></trkpt><trkpt lat="45.5452811582936" lon="12.189344872839852"><ele>10.0</ele><time>2026-04-04T14:49:44Z</time></trkpt><trkpt lat="45.54527648920371" lon="12.189493313672363"><ele>10.0</ele><time>2026-04-04T14:49:45Z</time></trkpt><trkpt lat="45.54527218684927" lon="12.189641901062313"><ele>10.0</ele><time>2026-04-04T14:49:46Z</time></trkpt><trkpt lat="45.54526689622219" lon="12.189797420468441"><ele>10.0</ele><time>2026-04-04T14:49:47Z</time></trkpt><trkpt lat="45.545262786273724" lon="12.189957231954196"><ele>8.75</ele><time>2026-04-04T14:49:48Z</time></trkpt><trkpt lat="45.54525069887319" lon="12.190123507819175"><ele>7.5</ele><time>2026-04-04T14:49:49Z</time></trkpt><trkpt lat="45.54525264698259" lon="12.190294979558248"><ele>6.25</ele><time>2026-04-04T14:49:50Z</time></trkpt><trkpt lat="45.545254345105164" lon="12.190465133941446"><ele>5.0</ele><time>2026-04-04T14:49:51Z</time></trkpt><trkpt lat="45.545258327675725" lon="12.190627369725542"><ele>5.0</ele><time>2026-04-04T14:49:52Z</time></trkpt><trkpt lat="45.54526440753741" lon="12.190786335249488"><ele>5.0</ele><time>2026-04-04T14:49:53Z</time></trkpt><trkpt lat="45.54524978809817" lon="12.190963886933032"><ele>5.0</ele><time>2026-04-04T14:49:54Z</time></trkpt><trkpt lat="45.54523284609111" lon="12.19115240412488"><ele>5.0</ele><time>2026-04-04T14:49:55Z</time></trkpt><trkpt lat="45.54519284467279" lon="12.191339011576268"><ele>5.0</ele><time>2026-04-04T14:49:56Z</time></trkpt><trkpt lat="45.54513886276343" lon="12.191516418122909"><ele>5.0</ele><time>2026-04-04T14:49:57Z</time></trkpt><trkpt lat="45.54508034270183" lon="12.191674583605227"><ele>5.0</ele><time>2026-04-04T14:49:58Z</time></trkpt><trkpt lat="45.54503661285367" lon="12.191811911844237"><ele>5.0</ele><time>2026-04-04T14:49:59Z</time></trkpt><trkpt lat="45.545003987401344" lon="12.191940140533731"><ele>5.0</ele><time>2026-04-04T14:50:00Z</time></trkpt><trkpt lat="45.54497895002327" lon="12.192098305378225"><ele>5.0</ele><time>2026-04-04T14:50:01Z</time></trkpt><trkpt lat="45.5449613142545" lon="12.192285497593705"><ele>5.0</ele><time>2026-04-04T14:50:02Z</time></trkpt><trkpt lat="45.54493976938119" lon="12.192485946092305"><ele>5.0</ele><time>2026-04-04T14:50:03Z</time></trkpt><trkpt lat="45.544918661478526" lon="12.19269301044421"><ele>5.0</ele><time>2026-04-04T14:50:04Z</time></trkpt><trkpt lat="45.54490348485611" lon="12.192896569117728"><ele>5.0</ele><time>2026-04-04T14:50:05Z</time></trkpt><trkpt lat="45.54488777131282" lon="12.193098617281517"><ele>5.0</ele><time>2026-04-04T14:50:06Z</time></trkpt><trkpt lat="45.54487659174326" lon="12.193306444357885"><ele>5.0</ele><time>2026-04-04T14:50:07Z</time></trkpt><trkpt lat="45.54487325178096" lon="12.193513179160039"><ele>5.333333333333334</ele><time>2026-04-04T14:50:08Z</time></trkpt><trkpt lat="45.544871545813564" lon="12.193730030922774"><ele>5.666666666666667</ele><time>2026-04-04T14:50:09Z</time></trkpt><trkpt lat="45.5448751458531" lon="12.193955816175437"><ele>6.0</ele><time>2026-04-04T14:50:10Z</time></trkpt><trkpt lat="45.54488089490414" lon="12.194179205176216"><ele>6.0</ele><time>2026-04-04T14:50:11Z</time></trkpt><trkpt lat="45.54489064726777" lon="12.194404682242562"><ele>6.0</ele><time>2026-04-04T14:50:12Z</time></trkpt><trkpt lat="45.54489964204076" lon="12.194628740871261"><ele>6.0</ele><time>2026-04-04T14:50:13Z</time></trkpt><trkpt lat="45.54489829399884" lon="12.194853656258887"><ele>5.75</ele><time>2026-04-04T14:50:14Z</time></trkpt><trkpt lat="45.54489328652909" lon="12.195069201397956"><ele>5.5</ele><time>2026-04-04T14:50:15Z</time></trkpt><trkpt lat="45.5448861836469" lon="12.19527564253856"><ele>5.25</ele><time>2026-04-04T14:50:16Z</time></trkpt><trkpt lat="45.54488236643693" lon="12.195466103510727"><ele>5.0</ele><time>2026-04-04T14:50:17Z</time></trkpt><trkpt lat="45.54487844049621" lon="12.195662743514136"><ele>5.0</ele><time>2026-04-04T14:50:18Z</time></trkpt><trkpt lat="45.544869561881626" lon="12.195859365413106"><ele>5.0</ele><time>2026-04-04T14:50:18.999Z</time></trkpt><trkpt lat="45.54485264927176" lon="12.196056632902808"><ele>5.0</ele><time>2026-04-04T14:50:19.999Z</time></trkpt><trkpt lat="45.54483114455917" lon="12.196250019564795"><ele>5.0</ele><time>2026-04-04T14:50:21Z</time></trkpt><trkpt lat="45.544811353577224" lon="12.196447692977607"><ele>4.75</ele><time>2026-04-04T14:50:22Z</time></trkpt><trkpt lat="45.544799343719525" lon="12.19664895160941"><ele>4.5</ele><time>2026-04-04T14:50:23Z</time></trkpt><trkpt lat="45.544788074381685" lon="12.196849748793698"><ele>4.25</ele><time>2026-04-04T14:50:24Z</time></trkpt><trkpt lat="45.544774332171414" lon="12.197038354106803"><ele>4.0</ele><time>2026-04-04T14:50:25Z</time></trkpt><trkpt lat="45.54475788339802" lon="12.197215292577033"><ele>4.2</ele><time>2026-04-04T14:50:26Z</time></trkpt><trkpt lat="45.54474752822255" lon="12.197376706476236"><ele>4.4</ele><time>2026-04-04T14:50:27Z</time></trkpt><trkpt lat="45.54474266308524" lon="12.197529534906591"><ele>4.6</ele><time>2026-04-04T14:50:28Z</time></trkpt><trkpt lat="45.544739974998635" lon="12.19767302264008"><ele>4.8</ele><time>2026-04-04T14:50:29Z</time></trkpt><trkpt lat="45.544721713329984" lon="12.197827266093933"><ele>5.0</ele><time>2026-04-04T14:50:30Z</time></trkpt><trkpt lat="45.5446809524264" lon="12.197984095560809"><ele>5.0</ele><time>2026-04-04T14:50:31Z</time></trkpt><trkpt lat="45.54462745649664" lon="12.198143505040614"><ele>5.0</ele><time>2026-04-04T14:50:32Z</time></trkpt><trkpt lat="45.544559704731654" lon="12.198299504603995"><ele>5.0</ele><time>2026-04-04T14:50:33Z</time></trkpt><trkpt lat="45.54449432134781" lon="12.198442656179367"><ele>5.0</ele><time>2026-04-04T14:50:34Z</time></trkpt><trkpt lat="45.544436309025215" lon="12.198578530469032"><ele>5.0</ele><time>2026-04-04T14:50:35Z</time></trkpt><trkpt lat="45.544382920916824" lon="12.198716262855386"><ele>5.0</ele><time>2026-04-04T14:50:36Z</time></trkpt><trkpt lat="45.54433510411694" lon="12.198852080388445"><ele>5.0</ele><time>2026-04-04T14:50:37Z</time></trkpt><trkpt lat="45.544289207161086" lon="12.198992863598518"><ele>5.0</ele><time>2026-04-04T14:50:38Z</time></trkpt><trkpt lat="45.54424872530722" lon="12.19913926177666"><ele>5.0</ele><time>2026-04-04T14:50:39Z</time></trkpt><trkpt lat="45.54421925636196" lon="12.199304484484587"><ele>5.0</ele><time>2026-04-04T14:50:40Z</time></trkpt><trkpt lat="45.54419398288896" lon="12.199483597783273"><ele>5.0</ele><time>2026-04-04T14:50:41Z</time></trkpt><trkpt lat="45.54417625427544" lon="12.199672628618506"><ele>5.0</ele><time>2026-04-04T14:50:42Z</time></trkpt><trkpt lat="45.54415747093503" lon="12.199864269857565"><ele>5.0</ele><time>2026-04-04T14:50:43Z</time></trkpt><trkpt lat="45.54414299350754" lon="12.200062354554927"><ele>5.0</ele><time>2026-04-04T14:50:44Z</time></trkpt><trkpt lat="45.54415177143672" lon="12.200263657171748"><ele>5.0</ele><time>2026-04-04T14:50:45Z</time></trkpt><trkpt lat="45.54418075271845" lon="12.200462835571837"><ele>5.0</ele><time>2026-04-04T14:50:46Z</time></trkpt><trkpt lat="45.544205652962276" lon="12.200661790802624"><ele>5.0</ele><time>2026-04-04T14:50:47Z</time></trkpt><trkpt lat="45.544232004922954" lon="12.200879930196391"><ele>5.0</ele><time>2026-04-04T14:50:48Z</time></trkpt><trkpt lat="45.54425651611563" lon="12.201093945706203"><ele>5.0</ele><time>2026-04-04T14:50:49Z</time></trkpt><trkpt lat="45.54428065029948" lon="12.20129265160799"><ele>5.0</ele><time>2026-04-04T14:50:50Z</time></trkpt><trkpt lat="45.544309255629464" lon="12.20149161204256"><ele>5.0</ele><time>2026-04-04T14:50:51Z</time></trkpt><trkpt lat="45.54433814317725" lon="12.201677574723233"><ele>5.5</ele><time>2026-04-04T14:50:52Z</time></trkpt><trkpt lat="45.544339879407076" lon="12.201871414084813"><ele>6.0</ele><time>2026-04-04T14:50:53Z</time></trkpt><trkpt lat="45.54435826223175" lon="12.202064841458933"><ele>6.5</ele><time>2026-04-04T14:50:54Z</time></trkpt><trkpt lat="45.5443467793937" lon="12.202276084804117"><ele>7.0</ele><time>2026-04-04T14:50:55Z</time></trkpt><trkpt lat="45.544338558250296" lon="12.202487107697946"><ele>7.5</ele><time>2026-04-04T14:50:56Z</time></trkpt><trkpt lat="45.54433427276106" lon="12.202689747820974"><ele>8.0</ele><time>2026-04-04T14:50:57Z</time></trkpt><trkpt lat="45.54433391761242" lon="12.202871231332786"><ele>8.5</ele><time>2026-04-04T14:50:58Z</time></trkpt><trkpt lat="45.54433055922982" lon="12.203045744800999"><ele>9.0</ele><time>2026-04-04T14:50:59Z</time></trkpt><trkpt lat="45.544332159081506" lon="12.203221414357984"><ele>7.75</ele><time>2026-04-04T14:51:00Z</time></trkpt><trkpt lat="45.54433711827405" lon="12.20338974880662"><ele>6.5</ele><time>2026-04-04T14:51:01Z</time></trkpt><trkpt lat="45.54433734151252" lon="12.203565608363446"><ele>5.25</ele><time>2026-04-04T14:51:02Z</time></trkpt><trkpt lat="45.54434263298087" lon="12.203746753568328"><ele>4.0</ele><time>2026-04-04T14:51:03Z</time></trkpt><trkpt lat="45.54435515239337" lon="12.20393005352717"><ele>3.5</ele><time>2026-04-04T14:51:04Z</time></trkpt><trkpt lat="45.54437888822869" lon="12.204107993400914"><ele>3.0</ele><time>2026-04-04T14:51:05Z</time></trkpt><trkpt lat="45.544409572626826" lon="12.204283281654305"><ele>2.5</ele><time>2026-04-04T14:51:06Z</time></trkpt><trkpt lat="45.54444845091025" lon="12.204443408775438"><ele>2.0</ele><time>2026-04-04T14:51:07Z</time></trkpt><trkpt lat="45.54449833467945" lon="12.20458804106498"><ele>2.5</ele><time>2026-04-04T14:51:08Z</time></trkpt><trkpt lat="45.544561981489146" lon="12.204714954464382"><ele>3.0</ele><time>2026-04-04T14:51:09Z</time></trkpt><trkpt lat="45.54463841695097" lon="12.20483487959022"><ele>3.5</ele><time>2026-04-04T14:51:10Z</time></trkpt><trkpt lat="45.54471034605206" lon="12.204967392187923"><ele>4.0</ele><time>2026-04-04T14:51:11Z</time></trkpt><trkpt lat="45.544772141006455" lon="12.205123616843276"><ele>4.0</ele><time>2026-04-04T14:51:12Z</time></trkpt><trkpt lat="45.54481955584455" lon="12.205298007343714"><ele>4.0</ele><time>2026-04-04T14:51:13Z</time></trkpt><trkpt lat="45.54486435493373" lon="12.205476866286112"><ele>4.0</ele><time>2026-04-04T14:51:14Z</time></trkpt><trkpt lat="45.5449034473926" lon="12.205667290927233"><ele>4.0</ele><time>2026-04-04T14:51:15Z</time></trkpt><trkpt lat="45.54493516772616" lon="12.20586371802738"><ele>4.0</ele><time>2026-04-04T14:51:16Z</time></trkpt><trkpt lat="45.54496169083717" lon="12.206064920315699"><ele>4.0</ele><time>2026-04-04T14:51:17Z</time></trkpt><trkpt lat="45.54498577616868" lon="12.206266518371162"><ele>4.0</ele><time>2026-04-04T14:51:18Z</time></trkpt><trkpt lat="45.54499833091781" lon="12.206479578812546"><ele>4.0</ele><time>2026-04-04T14:51:19Z</time></trkpt><trkpt lat="45.54498489233752" lon="12.206692995375729"><ele>4.0</ele><time>2026-04-04T14:51:20Z</time></trkpt><trkpt lat="45.54498883870386" lon="12.206905904101767"><ele>4.0</ele><time>2026-04-04T14:51:21Z</time></trkpt><trkpt lat="45.54496999575797" lon="12.20711785005894"><ele>4.0</ele><time>2026-04-04T14:51:22Z</time></trkpt><trkpt lat="45.54494830229164" lon="12.207339898436274"><ele>4.333333333333333</ele><time>2026-04-04T14:51:23Z</time></trkpt><trkpt lat="45.544936661242154" lon="12.207562137031337"><ele>4.666666666666667</ele><time>2026-04-04T14:51:24Z</time></trkpt><trkpt lat="45.544928331688816" lon="12.207787012347781"><ele>5.0</ele><time>2026-04-04T14:51:25Z</time></trkpt><trkpt lat="45.54491910767812" lon="12.20800919088806"><ele>4.333333333333334</ele><time>2026-04-04T14:51:26Z</time></trkpt><trkpt lat="45.54490895066015" lon="12.20823733411535"><ele>3.666666666666667</ele><time>2026-04-04T14:51:27Z</time></trkpt><trkpt lat="45.54489311561294" lon="12.208463293109828"><ele>3.0</ele><time>2026-04-04T14:51:28Z</time></trkpt><trkpt lat="45.54487296754903" lon="12.20868541414682"><ele>3.0</ele><time>2026-04-04T14:51:29Z</time></trkpt><trkpt lat="45.544849523693394" lon="12.208896967682772"><ele>3.0</ele><time>2026-04-04T14:51:30Z</time></trkpt><trkpt lat="45.54482790274441" lon="12.20909127810896"><ele>3.0</ele><time>2026-04-04T14:51:31Z</time></trkpt><trkpt lat="45.544806996618206" lon="12.209274096755516"><ele>3.0</ele><time>2026-04-04T14:51:32Z</time></trkpt><trkpt lat="45.54478983320959" lon="12.209445913737012"><ele>3.25</ele><time>2026-04-04T14:51:33Z</time></trkpt><trkpt lat="45.54477676440064" lon="12.209605746063973"><ele>3.5</ele><time>2026-04-04T14:51:34Z</time></trkpt><trkpt lat="45.54476513555891" lon="12.209767815881186"><ele>3.75</ele><time>2026-04-04T14:51:35Z</time></trkpt><trkpt lat="45.54475330196064" lon="12.209929467554241"><ele>4.0</ele><time>2026-04-04T14:51:36Z</time></trkpt><trkpt lat="45.54473999192958" lon="12.210095854158478"><ele>4.0</ele><time>2026-04-04T14:51:37Z</time></trkpt><trkpt lat="45.544718203430264" lon="12.210267451210779"><ele>4.0</ele><time>2026-04-04T14:51:38Z</time></trkpt><trkpt lat="45.5446879498201" lon="12.210439630574934"><ele>4.0</ele><time>2026-04-04T14:51:39Z</time></trkpt><trkpt lat="45.54464852390225" lon="12.210616529193054"><ele>4.0</ele><time>2026-04-04T14:51:40Z</time></trkpt><trkpt lat="45.54460229397617" lon="12.210787820757169"><ele>3.8000000000000003</ele><time>2026-04-04T14:51:41Z</time></trkpt><trkpt lat="45.544563577520506" lon="12.210943596422537"><ele>3.6000000000000005</ele><time>2026-04-04T14:51:42Z</time></trkpt><trkpt lat="45.54452975378421" lon="12.211084418482015"><ele>3.4</ele><time>2026-04-04T14:51:43Z</time></trkpt><trkpt lat="45.54449925649666" lon="12.211213435236159"><ele>3.2</ele><time>2026-04-04T14:51:44Z</time></trkpt><trkpt lat="45.54447189049511" lon="12.211329141439471"><ele>3.0</ele><time>2026-04-04T14:51:45Z</time></trkpt><trkpt lat="45.544455148451206" lon="12.211428402584259"><ele>3.0</ele><time>2026-04-04T14:51:46Z</time></trkpt><trkpt lat="45.54444236380874" lon="12.211518773612426"><ele>3.0</ele><time>2026-04-04T14:51:47Z</time></trkpt><trkpt lat="45.54441000706506" lon="12.211621172894088"><ele>3.0</ele><time>2026-04-04T14:51:49Z</time></trkpt><trkpt lat="45.54431236708822" lon="12.211622932661609"><ele>3.0</ele><time>2026-04-04T14:51:53Z</time></trkpt><trkpt lat="45.544208709092274" lon="12.211617232520434"><ele>3.0</ele><time>2026-04-04T14:51:55Z</time></trkpt><trkpt lat="45.54408891615986" lon="12.21161188790502"><ele>3.0</ele><time>2026-04-04T14:51:57Z</time></trkpt><trkpt lat="45.54402011442237" lon="12.211632475959263"><ele>3.0</ele><time>2026-04-04T14:51:58Z</time></trkpt><trkpt lat="45.54393797234602" lon="12.211624284313425"><ele>3.0</ele><time>2026-04-04T14:51:59Z</time></trkpt><trkpt lat="45.54384270005811" lon="12.211622880884606"><ele>3.0</ele><time>2026-04-04T14:52:00Z</time></trkpt><trkpt lat="45.543747458885065" lon="12.211596653624936"><ele>3.0</ele><time>2026-04-04T14:52:01Z</time></trkpt><trkpt lat="45.54364756556416" lon="12.211592196837438"><ele>3.0</ele><time>2026-04-04T14:52:02Z</time></trkpt><trkpt lat="45.543533085531315" lon="12.211587089252456"><ele>3.5</ele><time>2026-04-04T14:52:03Z</time></trkpt><trkpt lat="45.54341405790064" lon="12.211600964407062"><ele>4.0</ele><time>2026-04-04T14:52:04Z</time></trkpt><trkpt lat="45.5432955999671" lon="12.211599263308504"><ele>4.5</ele><time>2026-04-04T14:52:05Z</time></trkpt><trkpt lat="45.54316487137303" lon="12.211593452204934"><ele>5.0</ele><time>2026-04-04T14:52:06Z</time></trkpt><trkpt lat="45.543030654397775" lon="12.211587555979866"><ele>5.0</ele><time>2026-04-04T14:52:07Z</time></trkpt><trkpt lat="45.54288902300152" lon="12.211574065158453"><ele>5.0</ele><time>2026-04-04T14:52:08Z</time></trkpt><trkpt lat="45.542736860126794" lon="12.21156931364799"><ele>5.0</ele><time>2026-04-04T14:52:09Z</time></trkpt><trkpt lat="45.54257663371938" lon="12.211564479065713"><ele>4.333333333333334</ele><time>2026-04-04T14:52:10Z</time></trkpt><trkpt lat="45.54241919866968" lon="12.211556348781667"><ele>3.666666666666667</ele><time>2026-04-04T14:52:11Z</time></trkpt><trkpt lat="45.54226911896923" lon="12.21154739907182"><ele>3.0</ele><time>2026-04-04T14:52:12Z</time></trkpt><trkpt lat="45.54212094827792" lon="12.21155062468179"><ele>3.0</ele><time>2026-04-04T14:52:13Z</time></trkpt><trkpt lat="45.541967662534084" lon="12.211559080593593"><ele>3.0</ele><time>2026-04-04T14:52:14Z</time></trkpt><trkpt lat="45.54180665975391" lon="12.211562124483999"><ele>3.0</ele><time>2026-04-04T14:52:15Z</time></trkpt><trkpt lat="45.541659371175236" lon="12.21156802699414"><ele>3.0</ele><time>2026-04-04T14:52:16Z</time></trkpt><trkpt lat="45.541522513364605" lon="12.211574618576954"><ele>3.0</ele><time>2026-04-04T14:52:17Z</time></trkpt><trkpt lat="45.54139729480716" lon="12.211585107491493"><ele>3.0</ele><time>2026-04-04T14:52:18Z</time></trkpt><trkpt lat="45.541289670821776" lon="12.21159302682933"><ele>3.0</ele><time>2026-04-04T14:52:19Z</time></trkpt><trkpt lat="45.54120208421667" lon="12.211607584241795"><ele>3.2</ele><time>2026-04-04T14:52:20Z</time></trkpt><trkpt lat="45.541132944221836" lon="12.211627059164272"><ele>3.4</ele><time>2026-04-04T14:52:21Z</time></trkpt><trkpt lat="45.54106366913579" lon="12.211686875351525"><ele>3.6000000000000005</ele><time>2026-04-04T14:52:23Z</time></trkpt><trkpt lat="45.54109728133726" lon="12.21185003937094"><ele>3.8000000000000003</ele><time>2026-04-04T14:52:25Z</time></trkpt><trkpt lat="45.541150536563094" lon="12.211936125149686"><ele>4.0</ele><time>2026-04-04T14:52:26Z</time></trkpt><trkpt lat="45.54120867314938" lon="12.212055150936704"><ele>3.75</ele><time>2026-04-04T14:52:27Z</time></trkpt><trkpt lat="45.541251432707426" lon="12.212201185873326"><ele>3.5</ele><time>2026-04-04T14:52:28Z</time></trkpt><trkpt lat="45.54128069118987" lon="12.21237562697935"><ele>3.25</ele><time>2026-04-04T14:52:29Z</time></trkpt><trkpt lat="45.541298324687915" lon="12.212549291187907"><ele>3.0</ele><time>2026-04-04T14:52:30Z</time></trkpt><trkpt lat="45.54131366794286" lon="12.212727754782055"><ele>3.0</ele><time>2026-04-04T14:52:31Z</time></trkpt><trkpt lat="45.54132412330989" lon="12.212921060163808"><ele>3.0</ele><time>2026-04-04T14:52:32Z</time></trkpt><trkpt lat="45.54133598669291" lon="12.213129830164823"><ele>3.0</ele><time>2026-04-04T14:52:33Z</time></trkpt><trkpt lat="45.54134508123033" lon="12.213346682660804"><ele>3.0</ele><time>2026-04-04T14:52:34Z</time></trkpt><trkpt lat="45.54135970257851" lon="12.213552473452918"><ele>3.25</ele><time>2026-04-04T14:52:35Z</time></trkpt><trkpt lat="45.54137128191799" lon="12.213749899717403"><ele>3.5</ele><time>2026-04-04T14:52:36Z</time></trkpt><trkpt lat="45.541382289802286" lon="12.213955646455222"><ele>3.75</ele><time>2026-04-04T14:52:37Z</time></trkpt><trkpt lat="45.54139091907233" lon="12.214157627943285"><ele>4.0</ele><time>2026-04-04T14:52:38Z</time></trkpt><trkpt lat="45.54140194312869" lon="12.214351879280075"><ele>4.0</ele><time>2026-04-04T14:52:39Z</time></trkpt><trkpt lat="45.54141043449325" lon="12.214531561100305"><ele>4.0</ele><time>2026-04-04T14:52:40Z</time></trkpt><trkpt lat="45.54141776378327" lon="12.214713591139168"><ele>4.0</ele><time>2026-04-04T14:52:41Z</time></trkpt><trkpt lat="45.54142580371326" lon="12.214899399086507"><ele>4.0</ele><time>2026-04-04T14:52:42Z</time></trkpt><trkpt lat="45.54143712263191" lon="12.215084141678439"><ele>3.75</ele><time>2026-04-04T14:52:43Z</time></trkpt><trkpt lat="45.54144819577451" lon="12.21526594646439"><ele>3.5</ele><time>2026-04-04T14:52:44Z</time></trkpt><trkpt lat="45.54145616243707" lon="12.21545330020528"><ele>3.25</ele><time>2026-04-04T14:52:45Z</time></trkpt><trkpt lat="45.54146628663417" lon="12.215639544549747"><ele>3.0</ele><time>2026-04-04T14:52:46Z</time></trkpt><trkpt lat="45.54146653843692" lon="12.215812879599511"><ele>3.0</ele><time>2026-04-04T14:52:47Z</time></trkpt><trkpt lat="45.54145194255256" lon="12.215986307429116"><ele>3.0</ele><time>2026-04-04T14:52:48Z</time></trkpt><trkpt lat="45.541422377775866" lon="12.216162910119397"><ele>3.0</ele><time>2026-04-04T14:52:49Z</time></trkpt><trkpt lat="45.54137275254973" lon="12.216339274099255"><ele>3.0</ele><time>2026-04-04T14:52:50Z</time></trkpt><trkpt lat="45.54131656008416" lon="12.216511260687843"><ele>3.0</ele><time>2026-04-04T14:52:51Z</time></trkpt><trkpt lat="45.541253391158506" lon="12.216679895570286"><ele>3.0</ele><time>2026-04-04T14:52:52Z</time></trkpt><trkpt lat="45.5411881119644" lon="12.21684979833482"><ele>3.0</ele><time>2026-04-04T14:52:53Z</time></trkpt><trkpt lat="45.541125364646405" lon="12.217023696543459"><ele>3.0</ele><time>2026-04-04T14:52:54Z</time></trkpt><trkpt lat="45.541064616288544" lon="12.217200735735933"><ele>3.0</ele><time>2026-04-04T14:52:55Z</time></trkpt><trkpt lat="45.54102026615838" lon="12.217354375201651"><ele>3.0</ele><time>2026-04-04T14:52:56Z</time></trkpt><trkpt lat="45.54098984710098" lon="12.21751990026292"><ele>3.0</ele><time>2026-04-04T14:52:57Z</time></trkpt><trkpt lat="45.54097020942644" lon="12.217702472466788"><ele>3.0</ele><time>2026-04-04T14:52:58Z</time></trkpt><trkpt lat="45.540950500562715" lon="12.217887817634839"><ele>3.0</ele><time>2026-04-04T14:52:59Z</time></trkpt><trkpt lat="45.54093036834295" lon="12.218090323237293"><ele>3.0</ele><time>2026-04-04T14:53:00Z</time></trkpt><trkpt lat="45.54091833142423" lon="12.218289514949282"><ele>3.0</ele><time>2026-04-04T14:53:01Z</time></trkpt><trkpt lat="45.54091734761976" lon="12.218500666683484"><ele>3.0</ele><time>2026-04-04T14:53:02Z</time></trkpt><trkpt lat="45.540919521188606" lon="12.218720868775888"><ele>3.0</ele><time>2026-04-04T14:53:03Z</time></trkpt><trkpt lat="45.54092677858638" lon="12.218942061991035"><ele>3.0</ele><time>2026-04-04T14:53:04Z</time></trkpt><trkpt lat="45.54092241253832" lon="12.219182262966475"><ele>3.0</ele><time>2026-04-04T14:53:05Z</time></trkpt><trkpt lat="45.54091036973169" lon="12.219397956143492"><ele>3.0</ele><time>2026-04-04T14:53:06Z</time></trkpt><trkpt lat="45.540899659445884" lon="12.219623940124045"><ele>3.0</ele><time>2026-04-04T14:53:07Z</time></trkpt><trkpt lat="45.540892487935764" lon="12.219837490532933"><ele>3.0</ele><time>2026-04-04T14:53:08Z</time></trkpt><trkpt lat="45.54088830658827" lon="12.220050562669691"><ele>3.0</ele><time>2026-04-04T14:53:09Z</time></trkpt><trkpt lat="45.540887296469435" lon="12.22025994538781"><ele>3.0</ele><time>2026-04-04T14:53:10Z</time></trkpt><trkpt lat="45.54087395078793" lon="12.22045392345197"><ele>3.0</ele><time>2026-04-04T14:53:11Z</time></trkpt><trkpt lat="45.54087073800487" lon="12.220647894941617"><ele>3.0</ele><time>2026-04-04T14:53:12Z</time></trkpt><trkpt lat="45.540862251347676" lon="12.22083581564946"><ele>3.0</ele><time>2026-04-04T14:53:13Z</time></trkpt><trkpt lat="45.5408568586916" lon="12.22101342561135"><ele>3.0</ele><time>2026-04-04T14:53:14Z</time></trkpt><trkpt lat="45.54085712730288" lon="12.221193378470964"><ele>3.0</ele><time>2026-04-04T14:53:15Z</time></trkpt><trkpt lat="45.540855278257204" lon="12.221357536679204"><ele>3.0</ele><time>2026-04-04T14:53:16Z</time></trkpt><trkpt lat="45.540851294028386" lon="12.221518652242667"><ele>3.0</ele><time>2026-04-04T14:53:17Z</time></trkpt><trkpt lat="45.54086001919608" lon="12.221689285615149"><ele>3.0</ele><time>2026-04-04T14:53:18Z</time></trkpt><trkpt lat="45.54084817053971" lon="12.22186219733002"><ele>3.0</ele><time>2026-04-04T14:53:19Z</time></trkpt><trkpt lat="45.54082706098437" lon="12.222038118988275"><ele>3.0</ele><time>2026-04-04T14:53:20Z</time></trkpt><trkpt lat="45.54081030021376" lon="12.222223985083257"><ele>3.25</ele><time>2026-04-04T14:53:21Z</time></trkpt><trkpt lat="45.54081930596286" lon="12.222418659543091"><ele>3.5</ele><time>2026-04-04T14:53:22Z</time></trkpt><trkpt lat="45.540836076413456" lon="12.222620767201798"><ele>3.75</ele><time>2026-04-04T14:53:23Z</time></trkpt><trkpt lat="45.540850750614865" lon="12.222835029296213"><ele>4.0</ele><time>2026-04-04T14:53:24Z</time></trkpt><trkpt lat="45.540852020910705" lon="12.223054273028374"><ele>4.0</ele><time>2026-04-04T14:53:25Z</time></trkpt><trkpt lat="45.54084298719127" lon="12.223288526166955"><ele>4.0</ele><time>2026-04-04T14:53:26Z</time></trkpt><trkpt lat="45.54083550195399" lon="12.22352173343537"><ele>4.0</ele><time>2026-04-04T14:53:27Z</time></trkpt><trkpt lat="45.54082908690627" lon="12.223761267019006"><ele>4.333333333333333</ele><time>2026-04-04T14:53:28Z</time></trkpt><trkpt lat="45.54082175968349" lon="12.224009585373375"><ele>4.666666666666667</ele><time>2026-04-04T14:53:29Z</time></trkpt><trkpt lat="45.540808510171644" lon="12.2242576012216"><ele>5.0</ele><time>2026-04-04T14:53:30Z</time></trkpt><trkpt lat="45.54079973534188" lon="12.224494928372799"><ele>5.0</ele><time>2026-04-04T14:53:31Z</time></trkpt><trkpt lat="45.54079526887763" lon="12.224727270458729"><ele>5.0</ele><time>2026-04-04T14:53:32Z</time></trkpt><trkpt lat="45.54079173960286" lon="12.224943251184998"><ele>5.0</ele><time>2026-04-04T14:53:33Z</time></trkpt><trkpt lat="45.5407824322127" lon="12.225138795120289"><ele>5.25</ele><time>2026-04-04T14:53:34Z</time></trkpt><trkpt lat="45.54076730269256" lon="12.225327323931344"><ele>5.5</ele><time>2026-04-04T14:53:35Z</time></trkpt><trkpt lat="45.54075793291921" lon="12.225517102779255"><ele>5.75</ele><time>2026-04-04T14:53:36Z</time></trkpt><trkpt lat="45.5407534431332" lon="12.225689511293961"><ele>6.0</ele><time>2026-04-04T14:53:37Z</time></trkpt><trkpt lat="45.54073517181908" lon="12.225869907405082"><ele>6.25</ele><time>2026-04-04T14:53:38Z</time></trkpt><trkpt lat="45.54070307679943" lon="12.22605760945483"><ele>6.5</ele><time>2026-04-04T14:53:39Z</time></trkpt><trkpt lat="45.54066299072349" lon="12.226250349033586"><ele>6.75</ele><time>2026-04-04T14:53:40Z</time></trkpt><trkpt lat="45.54062152292634" lon="12.2264427500617"><ele>7.0</ele><time>2026-04-04T14:53:41Z</time></trkpt><trkpt lat="45.54058535566356" lon="12.226631911655476"><ele>7.25</ele><time>2026-04-04T14:53:42Z</time></trkpt><trkpt lat="45.540557946944396" lon="12.226814766220963"><ele>7.5</ele><time>2026-04-04T14:53:43Z</time></trkpt><trkpt lat="45.540542670340905" lon="12.226992745109161"><ele>7.75</ele><time>2026-04-04T14:53:44Z</time></trkpt><trkpt lat="45.540549356549924" lon="12.227193204569955"><ele>8.0</ele><time>2026-04-04T14:53:45Z</time></trkpt><trkpt lat="45.54055562629565" lon="12.227366199308443"><ele>7.4</ele><time>2026-04-04T14:53:46Z</time></trkpt><trkpt lat="45.54057149420317" lon="12.227536445187575"><ele>6.800000000000001</ele><time>2026-04-04T14:53:47Z</time></trkpt><trkpt lat="45.54059120881735" lon="12.227688030240772"><ele>6.2</ele><time>2026-04-04T14:53:48Z</time></trkpt><trkpt lat="45.54060767303325" lon="12.227824638191455"><ele>5.6</ele><time>2026-04-04T14:53:49Z</time></trkpt><trkpt lat="45.54062976138305" lon="12.227944677015557"><ele>5.0</ele><time>2026-04-04T14:53:50Z</time></trkpt><trkpt lat="45.5406430627048" lon="12.228051108908419"><ele>5.0</ele><time>2026-04-04T14:53:51Z</time></trkpt><trkpt lat="45.54066926315404" lon="12.228141814587728"><ele>5.0</ele><time>2026-04-04T14:53:52Z</time></trkpt><trkpt lat="45.54071969550276" lon="12.228211032653762"><ele>5.0</ele><time>2026-04-04T14:53:53Z</time></trkpt><trkpt lat="45.54079943358344" lon="12.228237134632026"><ele>5.0</ele><time>2026-04-04T14:53:54Z</time></trkpt><trkpt lat="45.54089741824901" lon="12.228246885186135"><ele>5.0</ele><time>2026-04-04T14:53:55Z</time></trkpt><trkpt lat="45.54100638257933" lon="12.228225209195525"><ele>5.0</ele><time>2026-04-04T14:53:56Z</time></trkpt><trkpt lat="45.54112745587369" lon="12.228217387384587"><ele>5.4</ele><time>2026-04-04T14:53:57Z</time></trkpt><trkpt lat="45.54125299933169" lon="12.228224656589635"><ele>5.8</ele><time>2026-04-04T14:53:58Z</time></trkpt><trkpt lat="45.541377019051524" lon="12.228227487991798"><ele>6.199999999999999</ele><time>2026-04-04T14:53:59Z</time></trkpt><trkpt lat="45.54148034404042" lon="12.228213048467046"><ele>6.6</ele><time>2026-04-04T14:54:00Z</time></trkpt><trkpt lat="45.54157254546777" lon="12.228213577641444"><ele>7.0</ele><time>2026-04-04T14:54:01Z</time></trkpt><trkpt lat="45.5416566099145" lon="12.228219793845673"><ele>7.0</ele><time>2026-04-04T14:54:02Z</time></trkpt><trkpt lat="45.54172697015749" lon="12.22824881344258"><ele>6.999999999999999</ele><time>2026-04-04T14:54:03Z</time></trkpt><trkpt lat="45.54179270361115" lon="12.228297256506751"><ele>6.999999999999999</ele><time>2026-04-04T14:54:04Z</time></trkpt><trkpt lat="45.54182243402794" lon="12.228481490202084"><ele>7.0</ele><time>2026-04-04T14:54:06Z</time></trkpt><trkpt lat="45.54184086593015" lon="12.228606648956848"><ele>7.0</ele><time>2026-04-04T14:54:07Z</time></trkpt><trkpt lat="45.541847470194405" lon="12.228742946055082"><ele>7.0</ele><time>2026-04-04T14:54:08Z</time></trkpt><trkpt lat="45.54186512511662" lon="12.228881479285876"><ele>6.999999999999999</ele><time>2026-04-04T14:54:09Z</time></trkpt><trkpt lat="45.54188389589114" lon="12.22901854624534"><ele>6.999999999999999</ele><time>2026-04-04T14:54:10Z</time></trkpt><trkpt lat="45.54189376396083" lon="12.22916649690112"><ele>7.0</ele><time>2026-04-04T14:54:11Z</time></trkpt><trkpt lat="45.54190388109912" lon="12.2293164690732"><ele>7.0</ele><time>2026-04-04T14:54:12Z</time></trkpt><trkpt lat="45.54192487761907" lon="12.2294738414105"><ele>7.0</ele><time>2026-04-04T14:54:13Z</time></trkpt><trkpt lat="45.541937174749" lon="12.229611233175723"><ele>6.999999999999999</ele><time>2026-04-04T14:54:14Z</time></trkpt><trkpt lat="45.541950141666725" lon="12.229737128145922"><ele>6.999999999999999</ele><time>2026-04-04T14:54:15Z</time></trkpt><trkpt lat="45.54196703717704" lon="12.229880000213637"><ele>7.0</ele><time>2026-04-04T14:54:16Z</time></trkpt><trkpt lat="45.54197873816908" lon="12.230034045893825"><ele>7.0</ele><time>2026-04-04T14:54:17Z</time></trkpt><trkpt lat="45.54198768861292" lon="12.23019054359109"><ele>6.75</ele><time>2026-04-04T14:54:18Z</time></trkpt><trkpt lat="45.54200171953505" lon="12.230340424649166"><ele>6.5</ele><time>2026-04-04T14:54:19Z</time></trkpt><trkpt lat="45.54202520511692" lon="12.230507189318262"><ele>6.25</ele><time>2026-04-04T14:54:20Z</time></trkpt><trkpt lat="45.542045709010196" lon="12.230675625346109"><ele>6.0</ele><time>2026-04-04T14:54:21Z</time></trkpt><trkpt lat="45.542051047011" lon="12.230836581475389"><ele>6.0</ele><time>2026-04-04T14:54:22Z</time></trkpt><trkpt lat="45.54205109317689" lon="12.230976357890363"><ele>6.0</ele><time>2026-04-04T14:54:23Z</time></trkpt><trkpt lat="45.54204628993315" lon="12.231144336729253"><ele>6.0</ele><time>2026-04-04T14:54:24Z</time></trkpt><trkpt lat="45.54204101108683" lon="12.231316631039254"><ele>6.0</ele><time>2026-04-04T14:54:25Z</time></trkpt><trkpt lat="45.54201484060343" lon="12.231470755824143"><ele>6.0</ele><time>2026-04-04T14:54:26Z</time></trkpt><trkpt lat="45.542001332961725" lon="12.231649219967464"><ele>5.8</ele><time>2026-04-04T14:54:27Z</time></trkpt><trkpt lat="45.54199945448405" lon="12.23181846446261"><ele>5.6</ele><time>2026-04-04T14:54:28Z</time></trkpt><trkpt lat="45.541995049946465" lon="12.231962558997736"><ele>5.4</ele><time>2026-04-04T14:54:29Z</time></trkpt><trkpt lat="45.54198189846673" lon="12.23211035558424"><ele>5.2</ele><time>2026-04-04T14:54:30Z</time></trkpt><trkpt lat="45.54197387704803" lon="12.232277526522378"><ele>5.0</ele><time>2026-04-04T14:54:31Z</time></trkpt><trkpt lat="45.54196355501737" lon="12.23247114437206"><ele>5.0</ele><time>2026-04-04T14:54:32Z</time></trkpt><trkpt lat="45.54194757619962" lon="12.232687535911932"><ele>5.0</ele><time>2026-04-04T14:54:33Z</time></trkpt><trkpt lat="45.54190972753957" lon="12.232890022735436"><ele>5.0</ele><time>2026-04-04T14:54:34Z</time></trkpt><trkpt lat="45.54190102825671" lon="12.233079025028852"><ele>5.0</ele><time>2026-04-04T14:54:35Z</time></trkpt><trkpt lat="45.541881566372126" lon="12.233245463726838"><ele>5.0</ele><time>2026-04-04T14:54:36Z</time></trkpt><trkpt lat="45.541864411779954" lon="12.233395506356993"><ele>5.0</ele><time>2026-04-04T14:54:37Z</time></trkpt><trkpt lat="45.54184198946435" lon="12.233521100277235"><ele>5.0</ele><time>2026-04-04T14:54:38Z</time></trkpt><trkpt lat="45.5418314146583" lon="12.233621842151095"><ele>5.0</ele><time>2026-04-04T14:54:39Z</time></trkpt><trkpt lat="45.54181625987125" lon="12.233752257764078"><ele>5.0</ele><time>2026-04-04T14:54:41Z</time></trkpt><trkpt lat="45.54191039189488" lon="12.23380667544644"><ele>5.0</ele><time>2026-04-04T14:54:42Z</time></trkpt><trkpt lat="45.541988106058156" lon="12.233827912856915"><ele>5.0</ele><time>2026-04-04T14:54:43Z</time></trkpt><trkpt lat="45.542087802518836" lon="12.233834492458321"><ele>5.0</ele><time>2026-04-04T14:54:44Z</time></trkpt><trkpt lat="45.54219173174464" lon="12.233846511752878"><ele>5.0</ele><time>2026-04-04T14:54:45Z</time></trkpt><trkpt lat="45.542290602068675" lon="12.233871208713985"><ele>5.0</ele><time>2026-04-04T14:54:46Z</time></trkpt><trkpt lat="45.542405602656224" lon="12.233889256752413"><ele>5.0</ele><time>2026-04-04T14:54:47Z</time></trkpt><trkpt lat="45.54250196149572" lon="12.233879957668801"><ele>5.0</ele><time>2026-04-04T14:54:48Z</time></trkpt><trkpt lat="45.542587940024376" lon="12.233828373038591"><ele>5.0</ele><time>2026-04-04T14:54:49Z</time></trkpt><trkpt lat="45.542677562251136" lon="12.233755137243147"><ele>5.0</ele><time>2026-04-04T14:54:50Z</time></trkpt><trkpt lat="45.542760880260694" lon="12.233668548687756"><ele>5.0</ele><time>2026-04-04T14:54:51Z</time></trkpt><trkpt lat="45.54282009787551" lon="12.233562638601821"><ele>5.0</ele><time>2026-04-04T14:54:52Z</time></trkpt><trkpt lat="45.542868637293054" lon="12.233436531629192"><ele>5.0</ele><time>2026-04-04T14:54:53Z</time></trkpt><trkpt lat="45.54289438523423" lon="12.233295093659796"><ele>5.0</ele><time>2026-04-04T14:54:54Z</time></trkpt><trkpt lat="45.54290873049877" lon="12.233164249864338"><ele>5.0</ele><time>2026-04-04T14:54:55Z</time></trkpt><trkpt lat="45.54291339410207" lon="12.233050625579141"><ele>5.0</ele><time>2026-04-04T14:54:56Z</time></trkpt><trkpt lat="45.54291947888495" lon="12.232942393554426"><ele>5.0</ele><time>2026-04-04T14:54:57Z</time></trkpt><trkpt lat="45.5429347162703" lon="12.232840897218265"><ele>5.0</ele><time>2026-04-04T14:54:58Z</time></trkpt><trkpt lat="45.542953176469716" lon="12.232734873655176"><ele>5.0</ele><time>2026-04-04T14:54:59Z</time></trkpt><trkpt lat="45.54297058343335" lon="12.232631231644042"><ele>5.0</ele><time>2026-04-04T14:55:00Z</time></trkpt><trkpt lat="45.54301058871152" lon="12.232544894901887"><ele>5.0</ele><time>2026-04-04T14:55:01Z</time></trkpt><trkpt lat="45.54313053382067" lon="12.2324559069569"><ele>5.0</ele><time>2026-04-04T14:55:03Z</time></trkpt><trkpt lat="45.54320271147012" lon="12.232464569523493"><ele>5.0</ele><time>2026-04-04T14:55:04Z</time></trkpt><trkpt lat="45.54327684836966" lon="12.232491667272958"><ele>5.0</ele><time>2026-04-04T14:55:05Z</time></trkpt><trkpt lat="45.543349935662306" lon="12.232510432309928"><ele>5.0</ele><time>2026-04-04T14:55:06Z</time></trkpt><trkpt lat="45.54341593116999" lon="12.232524139488717"><ele>5.0</ele><time>2026-04-04T14:55:07Z</time></trkpt><trkpt lat="45.543539556657926" lon="12.232549115553198"><ele>5.0</ele><time>2026-04-04T14:55:09Z</time></trkpt><trkpt lat="45.54365222564436" lon="12.232583712564553"><ele>5.0</ele><time>2026-04-04T14:55:11Z</time></trkpt><trkpt lat="45.54373217171908" lon="12.232601874539816"><ele>5.0</ele><time>2026-04-04T14:55:13Z</time></trkpt></trkseg></trk></gpx>